<?xml version="1.0" encoding="UTF-8" standalone="no" ?>
<gpx xmlns="http://www.topografix.com/GPX/1/1" xmlns:xsi="http://www.w3.org/2001/XMLSchema-instance" xsi:schemaLocation="http://www.topografix.com/GPX/1/1 http://www.topografix.com/GPX/1/1/gpx.xsd" version="1.1" creator="VisuGPX - https://www.visugpx.com">
  <metadata>
    <name>Le Grand Caunet</name>
    <desc><![CDATA[Balade facile autour des "Barres du Castellet et de Castillon".
]]></desc>
  </metadata>
  <trk>
    <name><![CDATA[Le Grand Caunet_1]]></name>
    <trkseg>
      <trkpt lat="43.23767" lon="5.67033">
        <ele>455</ele>
        <time>2020-01-15T08:34:07Z</time>
      </trkpt>
      <trkpt lat="43.23771" lon="5.67037">
        <ele>453</ele>
        <time>2020-01-15T08:34:13Z</time>
      </trkpt>
      <trkpt lat="43.23776" lon="5.67039">
        <ele>452</ele>
        <time>2020-01-15T08:34:19Z</time>
      </trkpt>
      <trkpt lat="43.23782" lon="5.67042">
        <ele>452</ele>
        <time>2020-01-15T08:34:25Z</time>
      </trkpt>
      <trkpt lat="43.23787" lon="5.67044">
        <ele>452</ele>
        <time>2020-01-15T08:34:29Z</time>
      </trkpt>
      <trkpt lat="43.23792" lon="5.67046">
        <ele>451</ele>
        <time>2020-01-15T08:34:33Z</time>
      </trkpt>
      <trkpt lat="43.23797" lon="5.67047">
        <ele>449</ele>
        <time>2020-01-15T08:34:39Z</time>
      </trkpt>
      <trkpt lat="43.23803" lon="5.67049">
        <ele>449</ele>
        <time>2020-01-15T08:34:45Z</time>
      </trkpt>
      <trkpt lat="43.23808" lon="5.67049">
        <ele>449</ele>
        <time>2020-01-15T08:34:49Z</time>
      </trkpt>
      <trkpt lat="43.23812" lon="5.6705">
        <ele>450</ele>
        <time>2020-01-15T08:34:53Z</time>
      </trkpt>
      <trkpt lat="43.23817" lon="5.67049">
        <ele>451</ele>
        <time>2020-01-15T08:34:57Z</time>
      </trkpt>
      <trkpt lat="43.23822" lon="5.6705">
        <ele>450</ele>
        <time>2020-01-15T08:35:03Z</time>
      </trkpt>
      <trkpt lat="43.23827" lon="5.67045">
        <ele>450</ele>
        <time>2020-01-15T08:35:11Z</time>
      </trkpt>
      <trkpt lat="43.23829" lon="5.6704">
        <ele>450</ele>
        <time>2020-01-15T08:35:15Z</time>
      </trkpt>
      <trkpt lat="43.23832" lon="5.67034">
        <ele>451</ele>
        <time>2020-01-15T08:35:19Z</time>
      </trkpt>
      <trkpt lat="43.23834" lon="5.67028">
        <ele>451</ele>
        <time>2020-01-15T08:35:23Z</time>
      </trkpt>
      <trkpt lat="43.23838" lon="5.67022">
        <ele>452</ele>
        <time>2020-01-15T08:35:29Z</time>
      </trkpt>
      <trkpt lat="43.2384" lon="5.67015">
        <ele>451</ele>
        <time>2020-01-15T08:35:33Z</time>
      </trkpt>
      <trkpt lat="43.23843" lon="5.67009">
        <ele>452</ele>
        <time>2020-01-15T08:35:37Z</time>
      </trkpt>
      <trkpt lat="43.23846" lon="5.67002">
        <ele>454</ele>
        <time>2020-01-15T08:35:43Z</time>
      </trkpt>
      <trkpt lat="43.23848" lon="5.66997">
        <ele>455</ele>
        <time>2020-01-15T08:35:47Z</time>
      </trkpt>
      <trkpt lat="43.23851" lon="5.66989">
        <ele>455</ele>
        <time>2020-01-15T08:35:53Z</time>
      </trkpt>
      <trkpt lat="43.23854" lon="5.66982">
        <ele>456</ele>
        <time>2020-01-15T08:35:59Z</time>
      </trkpt>
      <trkpt lat="43.23857" lon="5.66975">
        <ele>456</ele>
        <time>2020-01-15T08:36:05Z</time>
      </trkpt>
      <trkpt lat="43.23859" lon="5.66968">
        <ele>456</ele>
        <time>2020-01-15T08:36:11Z</time>
      </trkpt>
      <trkpt lat="43.23861" lon="5.66962">
        <ele>457</ele>
        <time>2020-01-15T08:36:17Z</time>
      </trkpt>
      <trkpt lat="43.23864" lon="5.66956">
        <ele>457</ele>
        <time>2020-01-15T08:36:23Z</time>
      </trkpt>
      <trkpt lat="43.23866" lon="5.66949">
        <ele>458</ele>
        <time>2020-01-15T08:36:29Z</time>
      </trkpt>
      <trkpt lat="43.23869" lon="5.66941">
        <ele>458</ele>
        <time>2020-01-15T08:36:35Z</time>
      </trkpt>
      <trkpt lat="43.2387" lon="5.66935">
        <ele>459</ele>
        <time>2020-01-15T08:36:39Z</time>
      </trkpt>
      <trkpt lat="43.23872" lon="5.6693">
        <ele>460</ele>
        <time>2020-01-15T08:36:43Z</time>
      </trkpt>
      <trkpt lat="43.23875" lon="5.66923">
        <ele>460</ele>
        <time>2020-01-15T08:36:49Z</time>
      </trkpt>
      <trkpt lat="43.23876" lon="5.66917">
        <ele>461</ele>
        <time>2020-01-15T08:36:53Z</time>
      </trkpt>
      <trkpt lat="43.23879" lon="5.66909">
        <ele>461</ele>
        <time>2020-01-15T08:36:59Z</time>
      </trkpt>
      <trkpt lat="43.2388" lon="5.66901">
        <ele>462</ele>
        <time>2020-01-15T08:37:05Z</time>
      </trkpt>
      <trkpt lat="43.23881" lon="5.66893">
        <ele>462</ele>
        <time>2020-01-15T08:37:09Z</time>
      </trkpt>
      <trkpt lat="43.23882" lon="5.66887">
        <ele>463</ele>
        <time>2020-01-15T08:37:13Z</time>
      </trkpt>
      <trkpt lat="43.23883" lon="5.66878">
        <ele>464</ele>
        <time>2020-01-15T08:37:19Z</time>
      </trkpt>
      <trkpt lat="43.23885" lon="5.6687">
        <ele>463</ele>
        <time>2020-01-15T08:37:25Z</time>
      </trkpt>
      <trkpt lat="43.23887" lon="5.66862">
        <ele>463</ele>
        <time>2020-01-15T08:37:31Z</time>
      </trkpt>
      <trkpt lat="43.23889" lon="5.66853">
        <ele>464</ele>
        <time>2020-01-15T08:37:37Z</time>
      </trkpt>
      <trkpt lat="43.23892" lon="5.66846">
        <ele>464</ele>
        <time>2020-01-15T08:37:43Z</time>
      </trkpt>
      <trkpt lat="43.23895" lon="5.66839">
        <ele>464</ele>
        <time>2020-01-15T08:37:49Z</time>
      </trkpt>
      <trkpt lat="43.23899" lon="5.66833">
        <ele>465</ele>
        <time>2020-01-15T08:37:55Z</time>
      </trkpt>
      <trkpt lat="43.23904" lon="5.6683">
        <ele>465</ele>
        <time>2020-01-15T08:38:01Z</time>
      </trkpt>
      <trkpt lat="43.23909" lon="5.66823">
        <ele>465</ele>
        <time>2020-01-15T08:38:07Z</time>
      </trkpt>
      <trkpt lat="43.23913" lon="5.66819">
        <ele>466</ele>
        <time>2020-01-15T08:38:11Z</time>
      </trkpt>
      <trkpt lat="43.23919" lon="5.66818">
        <ele>465</ele>
        <time>2020-01-15T08:38:17Z</time>
      </trkpt>
      <trkpt lat="43.23924" lon="5.66813">
        <ele>466</ele>
        <time>2020-01-15T08:38:23Z</time>
      </trkpt>
      <trkpt lat="43.23929" lon="5.66806">
        <ele>469</ele>
        <time>2020-01-15T08:38:29Z</time>
      </trkpt>
      <trkpt lat="43.23933" lon="5.66803">
        <ele>468</ele>
        <time>2020-01-15T08:38:35Z</time>
      </trkpt>
      <trkpt lat="43.23939" lon="5.668">
        <ele>468</ele>
        <time>2020-01-15T08:38:41Z</time>
      </trkpt>
      <trkpt lat="43.23944" lon="5.66796">
        <ele>468</ele>
        <time>2020-01-15T08:38:47Z</time>
      </trkpt>
      <trkpt lat="43.23949" lon="5.66791">
        <ele>469</ele>
        <time>2020-01-15T08:38:53Z</time>
      </trkpt>
      <trkpt lat="43.23954" lon="5.66789">
        <ele>470</ele>
        <time>2020-01-15T08:38:59Z</time>
      </trkpt>
      <trkpt lat="43.2396" lon="5.66789">
        <ele>468</ele>
        <time>2020-01-15T08:39:13Z</time>
      </trkpt>
      <trkpt lat="43.23965" lon="5.66791">
        <ele>468</ele>
        <time>2020-01-15T08:39:19Z</time>
      </trkpt>
      <trkpt lat="43.23968" lon="5.66799">
        <ele>469</ele>
        <time>2020-01-15T08:39:27Z</time>
      </trkpt>
      <trkpt lat="43.2397" lon="5.66807">
        <ele>469</ele>
        <time>2020-01-15T08:39:33Z</time>
      </trkpt>
      <trkpt lat="43.23973" lon="5.66814">
        <ele>470</ele>
        <time>2020-01-15T08:39:39Z</time>
      </trkpt>
      <trkpt lat="43.23975" lon="5.66821">
        <ele>470</ele>
        <time>2020-01-15T08:39:45Z</time>
      </trkpt>
      <trkpt lat="43.23977" lon="5.66828">
        <ele>470</ele>
        <time>2020-01-15T08:39:51Z</time>
      </trkpt>
      <trkpt lat="43.2398" lon="5.66835">
        <ele>470</ele>
        <time>2020-01-15T08:39:57Z</time>
      </trkpt>
      <trkpt lat="43.23983" lon="5.66841">
        <ele>470</ele>
        <time>2020-01-15T08:40:03Z</time>
      </trkpt>
      <trkpt lat="43.23986" lon="5.66847">
        <ele>470</ele>
        <time>2020-01-15T08:40:09Z</time>
      </trkpt>
      <trkpt lat="43.2399" lon="5.66854">
        <ele>470</ele>
        <time>2020-01-15T08:40:15Z</time>
      </trkpt>
      <trkpt lat="43.23993" lon="5.66862">
        <ele>471</ele>
        <time>2020-01-15T08:40:21Z</time>
      </trkpt>
      <trkpt lat="43.23994" lon="5.6687">
        <ele>471</ele>
        <time>2020-01-15T08:40:27Z</time>
      </trkpt>
      <trkpt lat="43.23997" lon="5.66876">
        <ele>472</ele>
        <time>2020-01-15T08:40:31Z</time>
      </trkpt>
      <trkpt lat="43.23999" lon="5.66881">
        <ele>472</ele>
        <time>2020-01-15T08:40:35Z</time>
      </trkpt>
      <trkpt lat="43.24001" lon="5.6689">
        <ele>472</ele>
        <time>2020-01-15T08:40:41Z</time>
      </trkpt>
      <trkpt lat="43.24003" lon="5.66898">
        <ele>473</ele>
        <time>2020-01-15T08:40:47Z</time>
      </trkpt>
      <trkpt lat="43.24004" lon="5.66904">
        <ele>473</ele>
        <time>2020-01-15T08:40:51Z</time>
      </trkpt>
      <trkpt lat="43.24007" lon="5.66913">
        <ele>473</ele>
        <time>2020-01-15T08:40:57Z</time>
      </trkpt>
      <trkpt lat="43.24008" lon="5.66919">
        <ele>473</ele>
        <time>2020-01-15T08:41:01Z</time>
      </trkpt>
      <trkpt lat="43.2401" lon="5.66925">
        <ele>472</ele>
        <time>2020-01-15T08:41:05Z</time>
      </trkpt>
      <trkpt lat="43.24012" lon="5.66931">
        <ele>472</ele>
        <time>2020-01-15T08:41:09Z</time>
      </trkpt>
      <trkpt lat="43.24014" lon="5.6694">
        <ele>474</ele>
        <time>2020-01-15T08:41:15Z</time>
      </trkpt>
      <trkpt lat="43.24016" lon="5.66945">
        <ele>474</ele>
        <time>2020-01-15T08:41:19Z</time>
      </trkpt>
      <trkpt lat="43.24017" lon="5.66952">
        <ele>475</ele>
        <time>2020-01-15T08:41:23Z</time>
      </trkpt>
      <trkpt lat="43.24018" lon="5.66958">
        <ele>477</ele>
        <time>2020-01-15T08:41:27Z</time>
      </trkpt>
      <trkpt lat="43.24021" lon="5.66966">
        <ele>476</ele>
        <time>2020-01-15T08:41:33Z</time>
      </trkpt>
      <trkpt lat="43.24022" lon="5.66972">
        <ele>477</ele>
        <time>2020-01-15T08:41:37Z</time>
      </trkpt>
      <trkpt lat="43.24024" lon="5.6698">
        <ele>477</ele>
        <time>2020-01-15T08:41:43Z</time>
      </trkpt>
      <trkpt lat="43.24025" lon="5.66986">
        <ele>477</ele>
        <time>2020-01-15T08:41:47Z</time>
      </trkpt>
      <trkpt lat="43.24027" lon="5.66992">
        <ele>477</ele>
        <time>2020-01-15T08:41:51Z</time>
      </trkpt>
      <trkpt lat="43.24028" lon="5.66998">
        <ele>477</ele>
        <time>2020-01-15T08:41:55Z</time>
      </trkpt>
      <trkpt lat="43.24031" lon="5.67006">
        <ele>477</ele>
        <time>2020-01-15T08:42:01Z</time>
      </trkpt>
      <trkpt lat="43.24032" lon="5.67012">
        <ele>478</ele>
        <time>2020-01-15T08:42:05Z</time>
      </trkpt>
      <trkpt lat="43.24034" lon="5.67019">
        <ele>479</ele>
        <time>2020-01-15T08:42:09Z</time>
      </trkpt>
      <trkpt lat="43.24035" lon="5.67028">
        <ele>478</ele>
        <time>2020-01-15T08:42:15Z</time>
      </trkpt>
      <trkpt lat="43.24037" lon="5.67033">
        <ele>478</ele>
        <time>2020-01-15T08:42:19Z</time>
      </trkpt>
      <trkpt lat="43.24038" lon="5.67039">
        <ele>478</ele>
        <time>2020-01-15T08:42:23Z</time>
      </trkpt>
      <trkpt lat="43.2404" lon="5.67045">
        <ele>478</ele>
        <time>2020-01-15T08:42:27Z</time>
      </trkpt>
      <trkpt lat="43.24043" lon="5.67054">
        <ele>480</ele>
        <time>2020-01-15T08:42:33Z</time>
      </trkpt>
      <trkpt lat="43.24046" lon="5.67062">
        <ele>480</ele>
        <time>2020-01-15T08:42:39Z</time>
      </trkpt>
      <trkpt lat="43.24048" lon="5.67069">
        <ele>480</ele>
        <time>2020-01-15T08:42:45Z</time>
      </trkpt>
      <trkpt lat="43.24051" lon="5.67077">
        <ele>481</ele>
        <time>2020-01-15T08:42:51Z</time>
      </trkpt>
      <trkpt lat="43.24054" lon="5.67082">
        <ele>480</ele>
        <time>2020-01-15T08:42:55Z</time>
      </trkpt>
      <trkpt lat="43.24057" lon="5.67088">
        <ele>480</ele>
        <time>2020-01-15T08:42:59Z</time>
      </trkpt>
      <trkpt lat="43.2406" lon="5.67093">
        <ele>481</ele>
        <time>2020-01-15T08:43:03Z</time>
      </trkpt>
      <trkpt lat="43.24063" lon="5.67099">
        <ele>481</ele>
        <time>2020-01-15T08:43:07Z</time>
      </trkpt>
      <trkpt lat="43.24066" lon="5.67103">
        <ele>481</ele>
        <time>2020-01-15T08:43:11Z</time>
      </trkpt>
      <trkpt lat="43.2407" lon="5.67108">
        <ele>481</ele>
        <time>2020-01-15T08:43:15Z</time>
      </trkpt>
      <trkpt lat="43.24073" lon="5.67113">
        <ele>481</ele>
        <time>2020-01-15T08:43:19Z</time>
      </trkpt>
      <trkpt lat="43.24076" lon="5.67117">
        <ele>480</ele>
        <time>2020-01-15T08:43:23Z</time>
      </trkpt>
      <trkpt lat="43.24079" lon="5.67125">
        <ele>479</ele>
        <time>2020-01-15T08:43:29Z</time>
      </trkpt>
      <trkpt lat="43.24082" lon="5.67133">
        <ele>479</ele>
        <time>2020-01-15T08:43:35Z</time>
      </trkpt>
      <trkpt lat="43.24086" lon="5.6714">
        <ele>481</ele>
        <time>2020-01-15T08:43:41Z</time>
      </trkpt>
      <trkpt lat="43.24088" lon="5.67147">
        <ele>480</ele>
        <time>2020-01-15T08:43:45Z</time>
      </trkpt>
      <trkpt lat="43.2409" lon="5.67155">
        <ele>480</ele>
        <time>2020-01-15T08:43:51Z</time>
      </trkpt>
      <trkpt lat="43.24093" lon="5.67163">
        <ele>479</ele>
        <time>2020-01-15T08:43:57Z</time>
      </trkpt>
      <trkpt lat="43.24095" lon="5.6717">
        <ele>480</ele>
        <time>2020-01-15T08:44:03Z</time>
      </trkpt>
      <trkpt lat="43.24098" lon="5.67179">
        <ele>480</ele>
        <time>2020-01-15T08:44:09Z</time>
      </trkpt>
      <trkpt lat="43.24099" lon="5.67185">
        <ele>481</ele>
        <time>2020-01-15T08:44:13Z</time>
      </trkpt>
      <trkpt lat="43.24101" lon="5.67194">
        <ele>481</ele>
        <time>2020-01-15T08:44:19Z</time>
      </trkpt>
      <trkpt lat="43.24103" lon="5.67202">
        <ele>481</ele>
        <time>2020-01-15T08:44:25Z</time>
      </trkpt>
      <trkpt lat="43.24105" lon="5.67208">
        <ele>482</ele>
        <time>2020-01-15T08:44:29Z</time>
      </trkpt>
      <trkpt lat="43.24108" lon="5.67216">
        <ele>481</ele>
        <time>2020-01-15T08:44:35Z</time>
      </trkpt>
      <trkpt lat="43.24109" lon="5.67222">
        <ele>481</ele>
        <time>2020-01-15T08:44:39Z</time>
      </trkpt>
      <trkpt lat="43.24112" lon="5.6723">
        <ele>481</ele>
        <time>2020-01-15T08:44:45Z</time>
      </trkpt>
      <trkpt lat="43.24115" lon="5.67238">
        <ele>479</ele>
        <time>2020-01-15T08:44:51Z</time>
      </trkpt>
      <trkpt lat="43.24117" lon="5.67244">
        <ele>477</ele>
        <time>2020-01-15T08:44:55Z</time>
      </trkpt>
      <trkpt lat="43.2412" lon="5.67252">
        <ele>477</ele>
        <time>2020-01-15T08:45:01Z</time>
      </trkpt>
      <trkpt lat="43.24122" lon="5.67261">
        <ele>478</ele>
        <time>2020-01-15T08:45:09Z</time>
      </trkpt>
      <trkpt lat="43.24122" lon="5.67268">
        <ele>478</ele>
        <time>2020-01-15T08:45:13Z</time>
      </trkpt>
      <trkpt lat="43.24125" lon="5.67275">
        <ele>479</ele>
        <time>2020-01-15T08:45:19Z</time>
      </trkpt>
      <trkpt lat="43.24128" lon="5.67281">
        <ele>479</ele>
        <time>2020-01-15T08:45:23Z</time>
      </trkpt>
      <trkpt lat="43.2413" lon="5.67287">
        <ele>479</ele>
        <time>2020-01-15T08:45:27Z</time>
      </trkpt>
      <trkpt lat="43.24131" lon="5.67295">
        <ele>481</ele>
        <time>2020-01-15T08:45:33Z</time>
      </trkpt>
      <trkpt lat="43.24131" lon="5.67302">
        <ele>481</ele>
        <time>2020-01-15T08:45:37Z</time>
      </trkpt>
      <trkpt lat="43.24131" lon="5.67311">
        <ele>480</ele>
        <time>2020-01-15T08:45:43Z</time>
      </trkpt>
      <trkpt lat="43.24132" lon="5.67317">
        <ele>481</ele>
        <time>2020-01-15T08:45:47Z</time>
      </trkpt>
      <trkpt lat="43.24133" lon="5.67326">
        <ele>481</ele>
        <time>2020-01-15T08:45:53Z</time>
      </trkpt>
      <trkpt lat="43.24134" lon="5.67335">
        <ele>480</ele>
        <time>2020-01-15T08:45:59Z</time>
      </trkpt>
      <trkpt lat="43.24135" lon="5.67344">
        <ele>481</ele>
        <time>2020-01-15T08:46:05Z</time>
      </trkpt>
      <trkpt lat="43.24134" lon="5.6735">
        <ele>481</ele>
        <time>2020-01-15T08:46:09Z</time>
      </trkpt>
      <trkpt lat="43.24133" lon="5.67357">
        <ele>482</ele>
        <time>2020-01-15T08:46:13Z</time>
      </trkpt>
      <trkpt lat="43.24133" lon="5.67363">
        <ele>484</ele>
        <time>2020-01-15T08:46:17Z</time>
      </trkpt>
      <trkpt lat="43.24133" lon="5.67372">
        <ele>484</ele>
        <time>2020-01-15T08:46:23Z</time>
      </trkpt>
      <trkpt lat="43.24133" lon="5.6738">
        <ele>483</ele>
        <time>2020-01-15T08:46:29Z</time>
      </trkpt>
      <trkpt lat="43.24134" lon="5.67387">
        <ele>482</ele>
        <time>2020-01-15T08:46:35Z</time>
      </trkpt>
      <trkpt lat="43.24135" lon="5.67396">
        <ele>482</ele>
        <time>2020-01-15T08:46:41Z</time>
      </trkpt>
      <trkpt lat="43.24135" lon="5.67402">
        <ele>484</ele>
        <time>2020-01-15T08:46:45Z</time>
      </trkpt>
      <trkpt lat="43.24136" lon="5.67409">
        <ele>483</ele>
        <time>2020-01-15T08:46:49Z</time>
      </trkpt>
      <trkpt lat="43.24137" lon="5.67415">
        <ele>484</ele>
        <time>2020-01-15T08:46:53Z</time>
      </trkpt>
      <trkpt lat="43.24139" lon="5.67421">
        <ele>485</ele>
        <time>2020-01-15T08:46:57Z</time>
      </trkpt>
      <trkpt lat="43.24139" lon="5.67429">
        <ele>485</ele>
        <time>2020-01-15T08:47:03Z</time>
      </trkpt>
      <trkpt lat="43.2414" lon="5.67438">
        <ele>485</ele>
        <time>2020-01-15T08:47:09Z</time>
      </trkpt>
      <trkpt lat="43.24142" lon="5.67447">
        <ele>484</ele>
        <time>2020-01-15T08:47:15Z</time>
      </trkpt>
      <trkpt lat="43.24143" lon="5.67453">
        <ele>483</ele>
        <time>2020-01-15T08:47:19Z</time>
      </trkpt>
      <trkpt lat="43.24146" lon="5.67461">
        <ele>484</ele>
        <time>2020-01-15T08:47:25Z</time>
      </trkpt>
      <trkpt lat="43.24148" lon="5.67467">
        <ele>484</ele>
        <time>2020-01-15T08:47:29Z</time>
      </trkpt>
      <trkpt lat="43.24149" lon="5.67473">
        <ele>483</ele>
        <time>2020-01-15T08:47:33Z</time>
      </trkpt>
      <trkpt lat="43.24152" lon="5.67482">
        <ele>485</ele>
        <time>2020-01-15T08:47:39Z</time>
      </trkpt>
      <trkpt lat="43.24155" lon="5.6749">
        <ele>485</ele>
        <time>2020-01-15T08:47:45Z</time>
      </trkpt>
      <trkpt lat="43.24156" lon="5.67496">
        <ele>488</ele>
        <time>2020-01-15T08:47:49Z</time>
      </trkpt>
      <trkpt lat="43.24158" lon="5.67505">
        <ele>488</ele>
        <time>2020-01-15T08:47:55Z</time>
      </trkpt>
      <trkpt lat="43.2416" lon="5.67512">
        <ele>487</ele>
        <time>2020-01-15T08:48:01Z</time>
      </trkpt>
      <trkpt lat="43.24162" lon="5.6752">
        <ele>488</ele>
        <time>2020-01-15T08:48:07Z</time>
      </trkpt>
      <trkpt lat="43.24165" lon="5.67528">
        <ele>488</ele>
        <time>2020-01-15T08:48:13Z</time>
      </trkpt>
      <trkpt lat="43.24169" lon="5.67534">
        <ele>488</ele>
        <time>2020-01-15T08:48:19Z</time>
      </trkpt>
      <trkpt lat="43.24174" lon="5.67541">
        <ele>488</ele>
        <time>2020-01-15T08:48:25Z</time>
      </trkpt>
      <trkpt lat="43.24177" lon="5.67546">
        <ele>489</ele>
        <time>2020-01-15T08:48:29Z</time>
      </trkpt>
      <trkpt lat="43.24182" lon="5.67551">
        <ele>488</ele>
        <time>2020-01-15T08:48:35Z</time>
      </trkpt>
      <trkpt lat="43.24186" lon="5.67554">
        <ele>487</ele>
        <time>2020-01-15T08:48:39Z</time>
      </trkpt>
      <trkpt lat="43.24192" lon="5.67558">
        <ele>484</ele>
        <time>2020-01-15T08:48:45Z</time>
      </trkpt>
      <trkpt lat="43.24198" lon="5.67562">
        <ele>483</ele>
        <time>2020-01-15T08:48:51Z</time>
      </trkpt>
      <trkpt lat="43.24203" lon="5.67565">
        <ele>482</ele>
        <time>2020-01-15T08:48:55Z</time>
      </trkpt>
      <trkpt lat="43.24207" lon="5.67567">
        <ele>481</ele>
        <time>2020-01-15T08:48:59Z</time>
      </trkpt>
      <trkpt lat="43.24212" lon="5.67568">
        <ele>483</ele>
        <time>2020-01-15T08:49:03Z</time>
      </trkpt>
      <trkpt lat="43.24218" lon="5.67568">
        <ele>482</ele>
        <time>2020-01-15T08:49:07Z</time>
      </trkpt>
      <trkpt lat="43.24223" lon="5.67568">
        <ele>481</ele>
        <time>2020-01-15T08:49:11Z</time>
      </trkpt>
      <trkpt lat="43.24229" lon="5.67567">
        <ele>483</ele>
        <time>2020-01-15T08:49:15Z</time>
      </trkpt>
      <trkpt lat="43.24235" lon="5.67566">
        <ele>482</ele>
        <time>2020-01-15T08:49:21Z</time>
      </trkpt>
      <trkpt lat="43.24242" lon="5.67565">
        <ele>481</ele>
        <time>2020-01-15T08:49:27Z</time>
      </trkpt>
      <trkpt lat="43.24247" lon="5.67565">
        <ele>479</ele>
        <time>2020-01-15T08:49:33Z</time>
      </trkpt>
      <trkpt lat="43.24252" lon="5.67563">
        <ele>477</ele>
        <time>2020-01-15T08:49:39Z</time>
      </trkpt>
      <trkpt lat="43.24257" lon="5.67559">
        <ele>478</ele>
        <time>2020-01-15T08:49:45Z</time>
      </trkpt>
      <trkpt lat="43.24261" lon="5.67557">
        <ele>477</ele>
        <time>2020-01-15T08:49:49Z</time>
      </trkpt>
      <trkpt lat="43.24266" lon="5.67553">
        <ele>477</ele>
        <time>2020-01-15T08:49:55Z</time>
      </trkpt>
      <trkpt lat="43.24271" lon="5.67549">
        <ele>478</ele>
        <time>2020-01-15T08:50:01Z</time>
      </trkpt>
      <trkpt lat="43.24276" lon="5.67546">
        <ele>481</ele>
        <time>2020-01-15T08:52:41Z</time>
      </trkpt>
      <trkpt lat="43.24281" lon="5.67543">
        <ele>478</ele>
        <time>2020-01-15T08:52:47Z</time>
      </trkpt>
      <trkpt lat="43.24285" lon="5.67541">
        <ele>477</ele>
        <time>2020-01-15T08:52:51Z</time>
      </trkpt>
      <trkpt lat="43.2429" lon="5.67536">
        <ele>478</ele>
        <time>2020-01-15T08:52:57Z</time>
      </trkpt>
      <trkpt lat="43.24296" lon="5.67534">
        <ele>476</ele>
        <time>2020-01-15T08:53:03Z</time>
      </trkpt>
      <trkpt lat="43.24299" lon="5.6753">
        <ele>476</ele>
        <time>2020-01-15T08:53:07Z</time>
      </trkpt>
      <trkpt lat="43.24303" lon="5.67527">
        <ele>478</ele>
        <time>2020-01-15T08:53:11Z</time>
      </trkpt>
      <trkpt lat="43.24308" lon="5.67521">
        <ele>478</ele>
        <time>2020-01-15T08:53:17Z</time>
      </trkpt>
      <trkpt lat="43.24311" lon="5.67517">
        <ele>475</ele>
        <time>2020-01-15T08:53:23Z</time>
      </trkpt>
      <trkpt lat="43.24316" lon="5.67511">
        <ele>477</ele>
        <time>2020-01-15T08:53:29Z</time>
      </trkpt>
      <trkpt lat="43.24319" lon="5.67507">
        <ele>477</ele>
        <time>2020-01-15T08:53:33Z</time>
      </trkpt>
      <trkpt lat="43.24323" lon="5.67501">
        <ele>477</ele>
        <time>2020-01-15T08:53:39Z</time>
      </trkpt>
      <trkpt lat="43.24327" lon="5.67494">
        <ele>478</ele>
        <time>2020-01-15T08:53:45Z</time>
      </trkpt>
      <trkpt lat="43.2433" lon="5.67489">
        <ele>477</ele>
        <time>2020-01-15T08:53:49Z</time>
      </trkpt>
      <trkpt lat="43.24334" lon="5.67483">
        <ele>479</ele>
        <time>2020-01-15T08:53:55Z</time>
      </trkpt>
      <trkpt lat="43.24339" lon="5.67477">
        <ele>482</ele>
        <time>2020-01-15T08:54:01Z</time>
      </trkpt>
      <trkpt lat="43.24343" lon="5.67471">
        <ele>482</ele>
        <time>2020-01-15T08:54:07Z</time>
      </trkpt>
      <trkpt lat="43.24346" lon="5.67465">
        <ele>481</ele>
        <time>2020-01-15T08:54:13Z</time>
      </trkpt>
      <trkpt lat="43.24351" lon="5.67462">
        <ele>483</ele>
        <time>2020-01-15T08:54:19Z</time>
      </trkpt>
      <trkpt lat="43.24355" lon="5.67458">
        <ele>484</ele>
        <time>2020-01-15T08:54:23Z</time>
      </trkpt>
      <trkpt lat="43.24358" lon="5.67454">
        <ele>484</ele>
        <time>2020-01-15T08:54:27Z</time>
      </trkpt>
      <trkpt lat="43.24363" lon="5.67447">
        <ele>486</ele>
        <time>2020-01-15T08:54:33Z</time>
      </trkpt>
      <trkpt lat="43.24366" lon="5.67443">
        <ele>487</ele>
        <time>2020-01-15T08:54:37Z</time>
      </trkpt>
      <trkpt lat="43.24371" lon="5.67437">
        <ele>488</ele>
        <time>2020-01-15T08:54:43Z</time>
      </trkpt>
      <trkpt lat="43.24377" lon="5.67433">
        <ele>488</ele>
        <time>2020-01-15T08:54:49Z</time>
      </trkpt>
      <trkpt lat="43.24382" lon="5.6743">
        <ele>488</ele>
        <time>2020-01-15T08:54:55Z</time>
      </trkpt>
      <trkpt lat="43.24386" lon="5.67424">
        <ele>488</ele>
        <time>2020-01-15T08:55:01Z</time>
      </trkpt>
      <trkpt lat="43.2439" lon="5.67418">
        <ele>488</ele>
        <time>2020-01-15T08:55:07Z</time>
      </trkpt>
      <trkpt lat="43.24397" lon="5.67415">
        <ele>488</ele>
        <time>2020-01-15T08:55:13Z</time>
      </trkpt>
      <trkpt lat="43.24402" lon="5.6741">
        <ele>488</ele>
        <time>2020-01-15T08:55:19Z</time>
      </trkpt>
      <trkpt lat="43.24407" lon="5.67406">
        <ele>488</ele>
        <time>2020-01-15T08:55:25Z</time>
      </trkpt>
      <trkpt lat="43.24411" lon="5.674">
        <ele>487</ele>
        <time>2020-01-15T08:55:31Z</time>
      </trkpt>
      <trkpt lat="43.24416" lon="5.67395">
        <ele>489</ele>
        <time>2020-01-15T08:55:37Z</time>
      </trkpt>
      <trkpt lat="43.24421" lon="5.67391">
        <ele>490</ele>
        <time>2020-01-15T08:55:43Z</time>
      </trkpt>
      <trkpt lat="43.24427" lon="5.67388">
        <ele>492</ele>
        <time>2020-01-15T08:55:49Z</time>
      </trkpt>
      <trkpt lat="43.24431" lon="5.67388">
        <ele>489</ele>
        <time>2020-01-15T08:55:55Z</time>
      </trkpt>
      <trkpt lat="43.24437" lon="5.67391">
        <ele>491</ele>
        <time>2020-01-15T08:56:01Z</time>
      </trkpt>
      <trkpt lat="43.24442" lon="5.67395">
        <ele>491</ele>
        <time>2020-01-15T08:56:07Z</time>
      </trkpt>
      <trkpt lat="43.24446" lon="5.67401">
        <ele>494</ele>
        <time>2020-01-15T08:56:13Z</time>
      </trkpt>
      <trkpt lat="43.2445" lon="5.67407">
        <ele>494</ele>
        <time>2020-01-15T08:56:19Z</time>
      </trkpt>
      <trkpt lat="43.24454" lon="5.67413">
        <ele>494</ele>
        <time>2020-01-15T08:56:25Z</time>
      </trkpt>
      <trkpt lat="43.24457" lon="5.67421">
        <ele>495</ele>
        <time>2020-01-15T08:56:31Z</time>
      </trkpt>
      <trkpt lat="43.24459" lon="5.67426">
        <ele>497</ele>
        <time>2020-01-15T08:56:35Z</time>
      </trkpt>
      <trkpt lat="43.24462" lon="5.67431">
        <ele>497</ele>
        <time>2020-01-15T08:56:39Z</time>
      </trkpt>
      <trkpt lat="43.24464" lon="5.67439">
        <ele>496</ele>
        <time>2020-01-15T08:56:45Z</time>
      </trkpt>
      <trkpt lat="43.24462" lon="5.67447">
        <ele>497</ele>
        <time>2020-01-15T08:56:51Z</time>
      </trkpt>
      <trkpt lat="43.24459" lon="5.67454">
        <ele>497</ele>
        <time>2020-01-15T08:56:57Z</time>
      </trkpt>
      <trkpt lat="43.24457" lon="5.6746">
        <ele>498</ele>
        <time>2020-01-15T08:57:01Z</time>
      </trkpt>
      <trkpt lat="43.24453" lon="5.67467">
        <ele>498</ele>
        <time>2020-01-15T08:57:07Z</time>
      </trkpt>
      <trkpt lat="43.2445" lon="5.67475">
        <ele>497</ele>
        <time>2020-01-15T08:57:13Z</time>
      </trkpt>
      <trkpt lat="43.24448" lon="5.67481">
        <ele>500</ele>
        <time>2020-01-15T08:57:17Z</time>
      </trkpt>
      <trkpt lat="43.24444" lon="5.67488">
        <ele>500</ele>
        <time>2020-01-15T08:57:23Z</time>
      </trkpt>
      <trkpt lat="43.24443" lon="5.67496">
        <ele>500</ele>
        <time>2020-01-15T08:57:29Z</time>
      </trkpt>
      <trkpt lat="43.24441" lon="5.67503">
        <ele>502</ele>
        <time>2020-01-15T08:57:35Z</time>
      </trkpt>
      <trkpt lat="43.24441" lon="5.67512">
        <ele>499</ele>
        <time>2020-01-15T08:57:41Z</time>
      </trkpt>
      <trkpt lat="43.24441" lon="5.67518">
        <ele>501</ele>
        <time>2020-01-15T08:57:45Z</time>
      </trkpt>
      <trkpt lat="43.24441" lon="5.67525">
        <ele>501</ele>
        <time>2020-01-15T08:57:49Z</time>
      </trkpt>
      <trkpt lat="43.24441" lon="5.67531">
        <ele>501</ele>
        <time>2020-01-15T08:57:53Z</time>
      </trkpt>
      <trkpt lat="43.24442" lon="5.6754">
        <ele>502</ele>
        <time>2020-01-15T08:57:59Z</time>
      </trkpt>
      <trkpt lat="43.24442" lon="5.67548">
        <ele>503</ele>
        <time>2020-01-15T08:58:05Z</time>
      </trkpt>
      <trkpt lat="43.24443" lon="5.67557">
        <ele>504</ele>
        <time>2020-01-15T08:58:11Z</time>
      </trkpt>
      <trkpt lat="43.24444" lon="5.67564">
        <ele>505</ele>
        <time>2020-01-15T08:58:15Z</time>
      </trkpt>
      <trkpt lat="43.24445" lon="5.6757">
        <ele>506</ele>
        <time>2020-01-15T08:58:19Z</time>
      </trkpt>
      <trkpt lat="43.24446" lon="5.67577">
        <ele>507</ele>
        <time>2020-01-15T08:58:23Z</time>
      </trkpt>
      <trkpt lat="43.24447" lon="5.67584">
        <ele>507</ele>
        <time>2020-01-15T08:58:27Z</time>
      </trkpt>
      <trkpt lat="43.24448" lon="5.6759">
        <ele>509</ele>
        <time>2020-01-15T08:58:31Z</time>
      </trkpt>
      <trkpt lat="43.24448" lon="5.67597">
        <ele>510</ele>
        <time>2020-01-15T08:58:35Z</time>
      </trkpt>
      <trkpt lat="43.2445" lon="5.67603">
        <ele>511</ele>
        <time>2020-01-15T08:58:39Z</time>
      </trkpt>
      <trkpt lat="43.24451" lon="5.67611">
        <ele>511</ele>
        <time>2020-01-15T08:58:45Z</time>
      </trkpt>
      <trkpt lat="43.24453" lon="5.6762">
        <ele>508</ele>
        <time>2020-01-15T08:58:51Z</time>
      </trkpt>
      <trkpt lat="43.24457" lon="5.67626">
        <ele>502</ele>
        <time>2020-01-15T08:58:57Z</time>
      </trkpt>
      <trkpt lat="43.24458" lon="5.67632">
        <ele>500</ele>
        <time>2020-01-15T08:59:03Z</time>
      </trkpt>
      <trkpt lat="43.2446" lon="5.6764">
        <ele>501</ele>
        <time>2020-01-15T08:59:09Z</time>
      </trkpt>
      <trkpt lat="43.2446" lon="5.67648">
        <ele>502</ele>
        <time>2020-01-15T08:59:15Z</time>
      </trkpt>
      <trkpt lat="43.24462" lon="5.67655">
        <ele>501</ele>
        <time>2020-01-15T08:59:21Z</time>
      </trkpt>
      <trkpt lat="43.24462" lon="5.67664">
        <ele>503</ele>
        <time>2020-01-15T08:59:27Z</time>
      </trkpt>
      <trkpt lat="43.24462" lon="5.67672">
        <ele>503</ele>
        <time>2020-01-15T08:59:33Z</time>
      </trkpt>
      <trkpt lat="43.24462" lon="5.6768">
        <ele>504</ele>
        <time>2020-01-15T08:59:39Z</time>
      </trkpt>
      <trkpt lat="43.24462" lon="5.67688">
        <ele>504</ele>
        <time>2020-01-15T08:59:45Z</time>
      </trkpt>
      <trkpt lat="43.24462" lon="5.67696">
        <ele>503</ele>
        <time>2020-01-15T08:59:51Z</time>
      </trkpt>
      <trkpt lat="43.24463" lon="5.67706">
        <ele>504</ele>
        <time>2020-01-15T08:59:57Z</time>
      </trkpt>
      <trkpt lat="43.24463" lon="5.67714">
        <ele>503</ele>
        <time>2020-01-15T09:00:03Z</time>
      </trkpt>
      <trkpt lat="43.24463" lon="5.67723">
        <ele>503</ele>
        <time>2020-01-15T09:00:09Z</time>
      </trkpt>
      <trkpt lat="43.24464" lon="5.6773">
        <ele>502</ele>
        <time>2020-01-15T09:00:15Z</time>
      </trkpt>
      <trkpt lat="43.24464" lon="5.67738">
        <ele>501</ele>
        <time>2020-01-15T09:00:21Z</time>
      </trkpt>
      <trkpt lat="43.24465" lon="5.67745">
        <ele>501</ele>
        <time>2020-01-15T09:00:27Z</time>
      </trkpt>
      <trkpt lat="43.24465" lon="5.67753">
        <ele>499</ele>
        <time>2020-01-15T09:00:33Z</time>
      </trkpt>
      <trkpt lat="43.24465" lon="5.67761">
        <ele>498</ele>
        <time>2020-01-15T09:00:39Z</time>
      </trkpt>
      <trkpt lat="43.24465" lon="5.67769">
        <ele>500</ele>
        <time>2020-01-15T09:00:43Z</time>
      </trkpt>
      <trkpt lat="43.24466" lon="5.67777">
        <ele>501</ele>
        <time>2020-01-15T09:00:47Z</time>
      </trkpt>
      <trkpt lat="43.24467" lon="5.67785">
        <ele>500</ele>
        <time>2020-01-15T09:00:53Z</time>
      </trkpt>
      <trkpt lat="43.24467" lon="5.67793">
        <ele>502</ele>
        <time>2020-01-15T09:00:59Z</time>
      </trkpt>
      <trkpt lat="43.24467" lon="5.67799">
        <ele>501</ele>
        <time>2020-01-15T09:01:03Z</time>
      </trkpt>
      <trkpt lat="43.24469" lon="5.67806">
        <ele>497</ele>
        <time>2020-01-15T09:01:09Z</time>
      </trkpt>
      <trkpt lat="43.24468" lon="5.67815">
        <ele>500</ele>
        <time>2020-01-15T09:01:15Z</time>
      </trkpt>
      <trkpt lat="43.24468" lon="5.67823">
        <ele>500</ele>
        <time>2020-01-15T09:01:19Z</time>
      </trkpt>
      <trkpt lat="43.24469" lon="5.6783">
        <ele>502</ele>
        <time>2020-01-15T09:01:23Z</time>
      </trkpt>
      <trkpt lat="43.24469" lon="5.67838">
        <ele>503</ele>
        <time>2020-01-15T09:01:29Z</time>
      </trkpt>
      <trkpt lat="43.24469" lon="5.67845">
        <ele>502</ele>
        <time>2020-01-15T09:01:33Z</time>
      </trkpt>
      <trkpt lat="43.24468" lon="5.67854">
        <ele>504</ele>
        <time>2020-01-15T09:01:39Z</time>
      </trkpt>
      <trkpt lat="43.24469" lon="5.67863">
        <ele>503</ele>
        <time>2020-01-15T09:01:45Z</time>
      </trkpt>
      <trkpt lat="43.24469" lon="5.67872">
        <ele>505</ele>
        <time>2020-01-15T09:01:51Z</time>
      </trkpt>
      <trkpt lat="43.2447" lon="5.6788">
        <ele>504</ele>
        <time>2020-01-15T09:01:57Z</time>
      </trkpt>
      <trkpt lat="43.2447" lon="5.67888">
        <ele>504</ele>
        <time>2020-01-15T09:02:03Z</time>
      </trkpt>
      <trkpt lat="43.24471" lon="5.67894">
        <ele>503</ele>
        <time>2020-01-15T09:02:09Z</time>
      </trkpt>
      <trkpt lat="43.24472" lon="5.67903">
        <ele>503</ele>
        <time>2020-01-15T09:02:15Z</time>
      </trkpt>
      <trkpt lat="43.24473" lon="5.67909">
        <ele>506</ele>
        <time>2020-01-15T09:02:19Z</time>
      </trkpt>
      <trkpt lat="43.24473" lon="5.67917">
        <ele>507</ele>
        <time>2020-01-15T09:02:25Z</time>
      </trkpt>
      <trkpt lat="43.24474" lon="5.67923">
        <ele>508</ele>
        <time>2020-01-15T09:02:29Z</time>
      </trkpt>
      <trkpt lat="43.24473" lon="5.6793">
        <ele>507</ele>
        <time>2020-01-15T09:02:35Z</time>
      </trkpt>
      <trkpt lat="43.24474" lon="5.67937">
        <ele>506</ele>
        <time>2020-01-15T09:02:39Z</time>
      </trkpt>
      <trkpt lat="43.24475" lon="5.67947">
        <ele>504</ele>
        <time>2020-01-15T09:02:45Z</time>
      </trkpt>
      <trkpt lat="43.24477" lon="5.67955">
        <ele>505</ele>
        <time>2020-01-15T09:02:49Z</time>
      </trkpt>
      <trkpt lat="43.24479" lon="5.67963">
        <ele>506</ele>
        <time>2020-01-15T09:02:53Z</time>
      </trkpt>
      <trkpt lat="43.24481" lon="5.67971">
        <ele>507</ele>
        <time>2020-01-15T09:02:57Z</time>
      </trkpt>
      <trkpt lat="43.24484" lon="5.67978">
        <ele>509</ele>
        <time>2020-01-15T09:03:01Z</time>
      </trkpt>
      <trkpt lat="43.24486" lon="5.67985">
        <ele>511</ele>
        <time>2020-01-15T09:03:05Z</time>
      </trkpt>
      <trkpt lat="43.24489" lon="5.6799">
        <ele>511</ele>
        <time>2020-01-15T09:03:09Z</time>
      </trkpt>
      <trkpt lat="43.24492" lon="5.67995">
        <ele>512</ele>
        <time>2020-01-15T09:03:13Z</time>
      </trkpt>
      <trkpt lat="43.24496" lon="5.68">
        <ele>511</ele>
        <time>2020-01-15T09:03:17Z</time>
      </trkpt>
      <trkpt lat="43.245" lon="5.68004">
        <ele>511</ele>
        <time>2020-01-15T09:03:21Z</time>
      </trkpt>
      <trkpt lat="43.24504" lon="5.68007">
        <ele>511</ele>
        <time>2020-01-15T09:03:25Z</time>
      </trkpt>
      <trkpt lat="43.24508" lon="5.68011">
        <ele>512</ele>
        <time>2020-01-15T09:03:29Z</time>
      </trkpt>
      <trkpt lat="43.24511" lon="5.68019">
        <ele>507</ele>
        <time>2020-01-15T09:03:35Z</time>
      </trkpt>
      <trkpt lat="43.24513" lon="5.68027">
        <ele>505</ele>
        <time>2020-01-15T09:03:41Z</time>
      </trkpt>
      <trkpt lat="43.24515" lon="5.68032">
        <ele>505</ele>
        <time>2020-01-15T09:03:45Z</time>
      </trkpt>
      <trkpt lat="43.24519" lon="5.6804">
        <ele>504</ele>
        <time>2020-01-15T09:03:51Z</time>
      </trkpt>
      <trkpt lat="43.24522" lon="5.68048">
        <ele>503</ele>
        <time>2020-01-15T09:03:57Z</time>
      </trkpt>
      <trkpt lat="43.24526" lon="5.68056">
        <ele>504</ele>
        <time>2020-01-15T09:04:03Z</time>
      </trkpt>
      <trkpt lat="43.24528" lon="5.68064">
        <ele>503</ele>
        <time>2020-01-15T09:04:09Z</time>
      </trkpt>
      <trkpt lat="43.24529" lon="5.6807">
        <ele>503</ele>
        <time>2020-01-15T09:04:13Z</time>
      </trkpt>
      <trkpt lat="43.24531" lon="5.68078">
        <ele>503</ele>
        <time>2020-01-15T09:04:19Z</time>
      </trkpt>
      <trkpt lat="43.24531" lon="5.68085">
        <ele>502</ele>
        <time>2020-01-15T09:04:25Z</time>
      </trkpt>
      <trkpt lat="43.24532" lon="5.68094">
        <ele>504</ele>
        <time>2020-01-15T09:04:31Z</time>
      </trkpt>
      <trkpt lat="43.2453" lon="5.68102">
        <ele>503</ele>
        <time>2020-01-15T09:04:37Z</time>
      </trkpt>
      <trkpt lat="43.24527" lon="5.68109">
        <ele>504</ele>
        <time>2020-01-15T09:04:43Z</time>
      </trkpt>
      <trkpt lat="43.24524" lon="5.68117">
        <ele>506</ele>
        <time>2020-01-15T09:04:49Z</time>
      </trkpt>
      <trkpt lat="43.2452" lon="5.68122">
        <ele>507</ele>
        <time>2020-01-15T09:04:53Z</time>
      </trkpt>
      <trkpt lat="43.24517" lon="5.68127">
        <ele>507</ele>
        <time>2020-01-15T09:04:57Z</time>
      </trkpt>
      <trkpt lat="43.24513" lon="5.68131">
        <ele>507</ele>
        <time>2020-01-15T09:05:01Z</time>
      </trkpt>
      <trkpt lat="43.24507" lon="5.68136">
        <ele>506</ele>
        <time>2020-01-15T09:05:07Z</time>
      </trkpt>
      <trkpt lat="43.24504" lon="5.68141">
        <ele>507</ele>
        <time>2020-01-15T09:05:11Z</time>
      </trkpt>
      <trkpt lat="43.245" lon="5.68145">
        <ele>508</ele>
        <time>2020-01-15T09:05:15Z</time>
      </trkpt>
      <trkpt lat="43.24497" lon="5.6815">
        <ele>508</ele>
        <time>2020-01-15T09:05:19Z</time>
      </trkpt>
      <trkpt lat="43.24492" lon="5.68154">
        <ele>507</ele>
        <time>2020-01-15T09:05:25Z</time>
      </trkpt>
      <trkpt lat="43.24496" lon="5.68148">
        <ele>505</ele>
        <time>2020-01-15T09:05:43Z</time>
      </trkpt>
      <trkpt lat="43.24501" lon="5.68142">
        <ele>504</ele>
        <time>2020-01-15T09:05:49Z</time>
      </trkpt>
      <trkpt lat="43.24504" lon="5.68137">
        <ele>505</ele>
        <time>2020-01-15T09:05:53Z</time>
      </trkpt>
      <trkpt lat="43.24508" lon="5.68134">
        <ele>502</ele>
        <time>2020-01-15T09:05:57Z</time>
      </trkpt>
      <trkpt lat="43.24512" lon="5.68129">
        <ele>503</ele>
        <time>2020-01-15T09:06:01Z</time>
      </trkpt>
      <trkpt lat="43.24515" lon="5.68124">
        <ele>502</ele>
        <time>2020-01-15T09:06:05Z</time>
      </trkpt>
      <trkpt lat="43.2452" lon="5.68118">
        <ele>501</ele>
        <time>2020-01-15T09:06:11Z</time>
      </trkpt>
      <trkpt lat="43.24524" lon="5.68113">
        <ele>502</ele>
        <time>2020-01-15T09:06:15Z</time>
      </trkpt>
      <trkpt lat="43.24528" lon="5.68108">
        <ele>502</ele>
        <time>2020-01-15T09:06:21Z</time>
      </trkpt>
      <trkpt lat="43.24533" lon="5.68103">
        <ele>501</ele>
        <time>2020-01-15T09:06:27Z</time>
      </trkpt>
      <trkpt lat="43.24537" lon="5.68096">
        <ele>501</ele>
        <time>2020-01-15T09:06:33Z</time>
      </trkpt>
      <trkpt lat="43.24541" lon="5.6809">
        <ele>505</ele>
        <time>2020-01-15T09:06:39Z</time>
      </trkpt>
      <trkpt lat="43.24546" lon="5.68087">
        <ele>504</ele>
        <time>2020-01-15T09:06:45Z</time>
      </trkpt>
      <trkpt lat="43.24551" lon="5.68086">
        <ele>505</ele>
        <time>2020-01-15T09:06:51Z</time>
      </trkpt>
      <trkpt lat="43.24556" lon="5.68087">
        <ele>503</ele>
        <time>2020-01-15T09:06:57Z</time>
      </trkpt>
      <trkpt lat="43.24561" lon="5.68087">
        <ele>500</ele>
        <time>2020-01-15T09:07:03Z</time>
      </trkpt>
      <trkpt lat="43.24567" lon="5.68089">
        <ele>499</ele>
        <time>2020-01-15T09:07:11Z</time>
      </trkpt>
      <trkpt lat="43.24571" lon="5.68088">
        <ele>498</ele>
        <time>2020-01-15T09:07:17Z</time>
      </trkpt>
      <trkpt lat="43.24577" lon="5.68089">
        <ele>496</ele>
        <time>2020-01-15T09:07:25Z</time>
      </trkpt>
      <trkpt lat="43.24583" lon="5.68089">
        <ele>496</ele>
        <time>2020-01-15T09:07:31Z</time>
      </trkpt>
      <trkpt lat="43.24588" lon="5.6809">
        <ele>494</ele>
        <time>2020-01-15T09:07:37Z</time>
      </trkpt>
      <trkpt lat="43.24594" lon="5.68091">
        <ele>495</ele>
        <time>2020-01-15T09:07:43Z</time>
      </trkpt>
      <trkpt lat="43.246" lon="5.68093">
        <ele>495</ele>
        <time>2020-01-15T09:07:49Z</time>
      </trkpt>
      <trkpt lat="43.24606" lon="5.68092">
        <ele>494</ele>
        <time>2020-01-15T09:07:55Z</time>
      </trkpt>
      <trkpt lat="43.24611" lon="5.68093">
        <ele>494</ele>
        <time>2020-01-15T09:07:59Z</time>
      </trkpt>
      <trkpt lat="43.24616" lon="5.68094">
        <ele>493</ele>
        <time>2020-01-15T09:08:05Z</time>
      </trkpt>
      <trkpt lat="43.24621" lon="5.68094">
        <ele>492</ele>
        <time>2020-01-15T09:08:11Z</time>
      </trkpt>
      <trkpt lat="43.24627" lon="5.68094">
        <ele>492</ele>
        <time>2020-01-15T09:08:17Z</time>
      </trkpt>
      <trkpt lat="43.24633" lon="5.68094">
        <ele>492</ele>
        <time>2020-01-15T09:08:23Z</time>
      </trkpt>
      <trkpt lat="43.24638" lon="5.68095">
        <ele>492</ele>
        <time>2020-01-15T09:08:27Z</time>
      </trkpt>
      <trkpt lat="43.24644" lon="5.68096">
        <ele>492</ele>
        <time>2020-01-15T09:08:33Z</time>
      </trkpt>
      <trkpt lat="43.24648" lon="5.68097">
        <ele>491</ele>
        <time>2020-01-15T09:08:39Z</time>
      </trkpt>
      <trkpt lat="43.24653" lon="5.68098">
        <ele>489</ele>
        <time>2020-01-15T09:08:45Z</time>
      </trkpt>
      <trkpt lat="43.24659" lon="5.681">
        <ele>489</ele>
        <time>2020-01-15T09:08:51Z</time>
      </trkpt>
      <trkpt lat="43.24663" lon="5.68103">
        <ele>488</ele>
        <time>2020-01-15T09:08:55Z</time>
      </trkpt>
      <trkpt lat="43.24668" lon="5.68106">
        <ele>489</ele>
        <time>2020-01-15T09:08:59Z</time>
      </trkpt>
      <trkpt lat="43.24673" lon="5.6811">
        <ele>489</ele>
        <time>2020-01-15T09:09:05Z</time>
      </trkpt>
      <trkpt lat="43.24678" lon="5.68113">
        <ele>489</ele>
        <time>2020-01-15T09:09:11Z</time>
      </trkpt>
      <trkpt lat="43.24684" lon="5.68114">
        <ele>490</ele>
        <time>2020-01-15T09:09:19Z</time>
      </trkpt>
      <trkpt lat="43.2469" lon="5.68116">
        <ele>491</ele>
        <time>2020-01-15T09:09:25Z</time>
      </trkpt>
      <trkpt lat="43.24695" lon="5.68119">
        <ele>490</ele>
        <time>2020-01-15T09:09:31Z</time>
      </trkpt>
      <trkpt lat="43.24701" lon="5.6812">
        <ele>490</ele>
        <time>2020-01-15T09:09:35Z</time>
      </trkpt>
      <trkpt lat="43.24706" lon="5.6812">
        <ele>490</ele>
        <time>2020-01-15T09:09:39Z</time>
      </trkpt>
      <trkpt lat="43.24711" lon="5.6812">
        <ele>489</ele>
        <time>2020-01-15T09:09:43Z</time>
      </trkpt>
      <trkpt lat="43.24716" lon="5.68122">
        <ele>489</ele>
        <time>2020-01-15T09:09:47Z</time>
      </trkpt>
      <trkpt lat="43.24721" lon="5.68125">
        <ele>490</ele>
        <time>2020-01-15T09:09:51Z</time>
      </trkpt>
      <trkpt lat="43.24725" lon="5.68127">
        <ele>491</ele>
        <time>2020-01-15T09:09:59Z</time>
      </trkpt>
      <trkpt lat="43.24722" lon="5.68133">
        <ele>495</ele>
        <time>2020-01-15T09:10:47Z</time>
      </trkpt>
      <trkpt lat="43.24721" lon="5.6814">
        <ele>495</ele>
        <time>2020-01-15T09:11:49Z</time>
      </trkpt>
      <trkpt lat="43.24717" lon="5.68145">
        <ele>490</ele>
        <time>2020-01-15T09:13:59Z</time>
      </trkpt>
      <trkpt lat="43.24716" lon="5.68153">
        <ele>490</ele>
        <time>2020-01-15T09:14:05Z</time>
      </trkpt>
      <trkpt lat="43.24715" lon="5.68161">
        <ele>489</ele>
        <time>2020-01-15T09:14:13Z</time>
      </trkpt>
      <trkpt lat="43.24714" lon="5.68169">
        <ele>489</ele>
        <time>2020-01-15T09:14:19Z</time>
      </trkpt>
      <trkpt lat="43.24714" lon="5.68175">
        <ele>490</ele>
        <time>2020-01-15T09:14:23Z</time>
      </trkpt>
      <trkpt lat="43.24713" lon="5.68183">
        <ele>490</ele>
        <time>2020-01-15T09:14:29Z</time>
      </trkpt>
      <trkpt lat="43.24713" lon="5.68191">
        <ele>489</ele>
        <time>2020-01-15T09:14:35Z</time>
      </trkpt>
      <trkpt lat="43.24712" lon="5.68198">
        <ele>489</ele>
        <time>2020-01-15T09:14:41Z</time>
      </trkpt>
      <trkpt lat="43.24711" lon="5.68206">
        <ele>490</ele>
        <time>2020-01-15T09:14:47Z</time>
      </trkpt>
      <trkpt lat="43.2471" lon="5.68213">
        <ele>487</ele>
        <time>2020-01-15T09:14:55Z</time>
      </trkpt>
      <trkpt lat="43.2471" lon="5.68221">
        <ele>488</ele>
        <time>2020-01-15T09:15:01Z</time>
      </trkpt>
      <trkpt lat="43.24709" lon="5.68229">
        <ele>487</ele>
        <time>2020-01-15T09:15:09Z</time>
      </trkpt>
      <trkpt lat="43.24708" lon="5.68237">
        <ele>485</ele>
        <time>2020-01-15T09:15:17Z</time>
      </trkpt>
      <trkpt lat="43.24707" lon="5.68244">
        <ele>484</ele>
        <time>2020-01-15T09:15:23Z</time>
      </trkpt>
      <trkpt lat="43.24706" lon="5.68253">
        <ele>486</ele>
        <time>2020-01-15T09:15:29Z</time>
      </trkpt>
      <trkpt lat="43.24704" lon="5.6826">
        <ele>487</ele>
        <time>2020-01-15T09:15:35Z</time>
      </trkpt>
      <trkpt lat="43.24704" lon="5.68269">
        <ele>485</ele>
        <time>2020-01-15T09:15:43Z</time>
      </trkpt>
      <trkpt lat="43.24703" lon="5.68276">
        <ele>482</ele>
        <time>2020-01-15T09:15:51Z</time>
      </trkpt>
      <trkpt lat="43.24702" lon="5.68283">
        <ele>484</ele>
        <time>2020-01-15T09:15:59Z</time>
      </trkpt>
      <trkpt lat="43.24702" lon="5.6829">
        <ele>481</ele>
        <time>2020-01-15T09:16:07Z</time>
      </trkpt>
      <trkpt lat="43.24701" lon="5.68297">
        <ele>479</ele>
        <time>2020-01-15T09:16:13Z</time>
      </trkpt>
      <trkpt lat="43.24701" lon="5.68305">
        <ele>476</ele>
        <time>2020-01-15T09:16:21Z</time>
      </trkpt>
      <trkpt lat="43.24704" lon="5.68313">
        <ele>475</ele>
        <time>2020-01-15T09:16:25Z</time>
      </trkpt>
      <trkpt lat="43.247" lon="5.68318">
        <ele>469</ele>
        <time>2020-01-15T09:16:37Z</time>
      </trkpt>
      <trkpt lat="43.24699" lon="5.68325">
        <ele>469</ele>
        <time>2020-01-15T09:16:49Z</time>
      </trkpt>
      <trkpt lat="43.24698" lon="5.68331">
        <ele>469</ele>
        <time>2020-01-15T09:17:05Z</time>
      </trkpt>
      <trkpt lat="43.24698" lon="5.68337">
        <ele>469</ele>
        <time>2020-01-15T09:18:53Z</time>
      </trkpt>
      <trkpt lat="43.24699" lon="5.68344">
        <ele>469</ele>
        <time>2020-01-15T09:19:01Z</time>
      </trkpt>
      <trkpt lat="43.24699" lon="5.68351">
        <ele>469</ele>
        <time>2020-01-15T09:19:07Z</time>
      </trkpt>
      <trkpt lat="43.24696" lon="5.68359">
        <ele>469</ele>
        <time>2020-01-15T09:19:15Z</time>
      </trkpt>
      <trkpt lat="43.24695" lon="5.68365">
        <ele>467</ele>
        <time>2020-01-15T09:19:21Z</time>
      </trkpt>
      <trkpt lat="43.24694" lon="5.68372">
        <ele>465</ele>
        <time>2020-01-15T09:19:27Z</time>
      </trkpt>
      <trkpt lat="43.24693" lon="5.68379">
        <ele>465</ele>
        <time>2020-01-15T09:19:33Z</time>
      </trkpt>
      <trkpt lat="43.24692" lon="5.68385">
        <ele>463</ele>
        <time>2020-01-15T09:19:41Z</time>
      </trkpt>
      <trkpt lat="43.24691" lon="5.68393">
        <ele>464</ele>
        <time>2020-01-15T09:19:47Z</time>
      </trkpt>
      <trkpt lat="43.2469" lon="5.68402">
        <ele>464</ele>
        <time>2020-01-15T09:19:53Z</time>
      </trkpt>
      <trkpt lat="43.2469" lon="5.6841">
        <ele>463</ele>
        <time>2020-01-15T09:19:59Z</time>
      </trkpt>
      <trkpt lat="43.24689" lon="5.68417">
        <ele>457</ele>
        <time>2020-01-15T09:20:09Z</time>
      </trkpt>
      <trkpt lat="43.24689" lon="5.68425">
        <ele>459</ele>
        <time>2020-01-15T09:20:15Z</time>
      </trkpt>
      <trkpt lat="43.24689" lon="5.68431">
        <ele>457</ele>
        <time>2020-01-15T09:20:21Z</time>
      </trkpt>
      <trkpt lat="43.24689" lon="5.68438">
        <ele>458</ele>
        <time>2020-01-15T09:20:27Z</time>
      </trkpt>
      <trkpt lat="43.24687" lon="5.68446">
        <ele>459</ele>
        <time>2020-01-15T09:20:33Z</time>
      </trkpt>
      <trkpt lat="43.24685" lon="5.68452">
        <ele>461</ele>
        <time>2020-01-15T09:20:39Z</time>
      </trkpt>
      <trkpt lat="43.24685" lon="5.68458">
        <ele>459</ele>
        <time>2020-01-15T09:20:45Z</time>
      </trkpt>
      <trkpt lat="43.24683" lon="5.68465">
        <ele>458</ele>
        <time>2020-01-15T09:20:53Z</time>
      </trkpt>
      <trkpt lat="43.24682" lon="5.68473">
        <ele>455</ele>
        <time>2020-01-15T09:21:03Z</time>
      </trkpt>
      <trkpt lat="43.24681" lon="5.6848">
        <ele>455</ele>
        <time>2020-01-15T09:21:11Z</time>
      </trkpt>
      <trkpt lat="43.2468" lon="5.68487">
        <ele>456</ele>
        <time>2020-01-15T09:21:17Z</time>
      </trkpt>
      <trkpt lat="43.24679" lon="5.68493">
        <ele>457</ele>
        <time>2020-01-15T09:21:21Z</time>
      </trkpt>
      <trkpt lat="43.24677" lon="5.68499">
        <ele>460</ele>
        <time>2020-01-15T09:21:25Z</time>
      </trkpt>
      <trkpt lat="43.24675" lon="5.68507">
        <ele>464</ele>
        <time>2020-01-15T09:21:29Z</time>
      </trkpt>
      <trkpt lat="43.24675" lon="5.68515">
        <ele>464</ele>
        <time>2020-01-15T09:21:33Z</time>
      </trkpt>
      <trkpt lat="43.24675" lon="5.68523">
        <ele>462</ele>
        <time>2020-01-15T09:21:39Z</time>
      </trkpt>
      <trkpt lat="43.24674" lon="5.6853">
        <ele>467</ele>
        <time>2020-01-15T09:21:43Z</time>
      </trkpt>
      <trkpt lat="43.24673" lon="5.68538">
        <ele>469</ele>
        <time>2020-01-15T09:21:49Z</time>
      </trkpt>
      <trkpt lat="43.24672" lon="5.68547">
        <ele>472</ele>
        <time>2020-01-15T09:21:55Z</time>
      </trkpt>
      <trkpt lat="43.2467" lon="5.68553">
        <ele>473</ele>
        <time>2020-01-15T09:22:01Z</time>
      </trkpt>
      <trkpt lat="43.2467" lon="5.68562">
        <ele>471</ele>
        <time>2020-01-15T09:22:07Z</time>
      </trkpt>
      <trkpt lat="43.2467" lon="5.68568">
        <ele>468</ele>
        <time>2020-01-15T09:22:15Z</time>
      </trkpt>
      <trkpt lat="43.24669" lon="5.68575">
        <ele>466</ele>
        <time>2020-01-15T09:22:25Z</time>
      </trkpt>
      <trkpt lat="43.24667" lon="5.68582">
        <ele>463</ele>
        <time>2020-01-15T09:22:33Z</time>
      </trkpt>
      <trkpt lat="43.24665" lon="5.68589">
        <ele>462</ele>
        <time>2020-01-15T09:22:39Z</time>
      </trkpt>
      <trkpt lat="43.24664" lon="5.68596">
        <ele>463</ele>
        <time>2020-01-15T09:22:45Z</time>
      </trkpt>
      <trkpt lat="43.24663" lon="5.68603">
        <ele>460</ele>
        <time>2020-01-15T09:22:51Z</time>
      </trkpt>
      <trkpt lat="43.24662" lon="5.6861">
        <ele>459</ele>
        <time>2020-01-15T09:22:59Z</time>
      </trkpt>
      <trkpt lat="43.24662" lon="5.68616">
        <ele>459</ele>
        <time>2020-01-15T09:23:07Z</time>
      </trkpt>
      <trkpt lat="43.24662" lon="5.68624">
        <ele>459</ele>
        <time>2020-01-15T09:23:13Z</time>
      </trkpt>
      <trkpt lat="43.24661" lon="5.68633">
        <ele>460</ele>
        <time>2020-01-15T09:23:19Z</time>
      </trkpt>
      <trkpt lat="43.24661" lon="5.6864">
        <ele>458</ele>
        <time>2020-01-15T09:23:23Z</time>
      </trkpt>
      <trkpt lat="43.24661" lon="5.68648">
        <ele>458</ele>
        <time>2020-01-15T09:23:27Z</time>
      </trkpt>
      <trkpt lat="43.2466" lon="5.68656">
        <ele>458</ele>
        <time>2020-01-15T09:23:33Z</time>
      </trkpt>
      <trkpt lat="43.24658" lon="5.68662">
        <ele>461</ele>
        <time>2020-01-15T09:23:47Z</time>
      </trkpt>
      <trkpt lat="43.24658" lon="5.6867">
        <ele>454</ele>
        <time>2020-01-15T09:24:27Z</time>
      </trkpt>
      <trkpt lat="43.24657" lon="5.68677">
        <ele>452</ele>
        <time>2020-01-15T09:24:33Z</time>
      </trkpt>
      <trkpt lat="43.24656" lon="5.68683">
        <ele>450</ele>
        <time>2020-01-15T09:24:39Z</time>
      </trkpt>
      <trkpt lat="43.24655" lon="5.6869">
        <ele>450</ele>
        <time>2020-01-15T09:24:43Z</time>
      </trkpt>
      <trkpt lat="43.24656" lon="5.68697">
        <ele>447</ele>
        <time>2020-01-15T09:24:49Z</time>
      </trkpt>
      <trkpt lat="43.24655" lon="5.68704">
        <ele>445</ele>
        <time>2020-01-15T09:24:55Z</time>
      </trkpt>
      <trkpt lat="43.24654" lon="5.68712">
        <ele>446</ele>
        <time>2020-01-15T09:25:03Z</time>
      </trkpt>
      <trkpt lat="43.24654" lon="5.6872">
        <ele>445</ele>
        <time>2020-01-15T09:25:09Z</time>
      </trkpt>
      <trkpt lat="43.24652" lon="5.68729">
        <ele>448</ele>
        <time>2020-01-15T09:25:15Z</time>
      </trkpt>
      <trkpt lat="43.24651" lon="5.68736">
        <ele>447</ele>
        <time>2020-01-15T09:25:21Z</time>
      </trkpt>
      <trkpt lat="43.2465" lon="5.68743">
        <ele>446</ele>
        <time>2020-01-15T09:25:27Z</time>
      </trkpt>
      <trkpt lat="43.2465" lon="5.68752">
        <ele>446</ele>
        <time>2020-01-15T09:25:33Z</time>
      </trkpt>
      <trkpt lat="43.24649" lon="5.6876">
        <ele>446</ele>
        <time>2020-01-15T09:25:41Z</time>
      </trkpt>
      <trkpt lat="43.24648" lon="5.68767">
        <ele>447</ele>
        <time>2020-01-15T09:25:49Z</time>
      </trkpt>
      <trkpt lat="43.24647" lon="5.68774">
        <ele>447</ele>
        <time>2020-01-15T09:25:55Z</time>
      </trkpt>
      <trkpt lat="43.24645" lon="5.6878">
        <ele>451</ele>
        <time>2020-01-15T09:25:59Z</time>
      </trkpt>
      <trkpt lat="43.24643" lon="5.68786">
        <ele>451</ele>
        <time>2020-01-15T09:26:03Z</time>
      </trkpt>
      <trkpt lat="43.24641" lon="5.68792">
        <ele>449</ele>
        <time>2020-01-15T09:26:09Z</time>
      </trkpt>
      <trkpt lat="43.24641" lon="5.688">
        <ele>447</ele>
        <time>2020-01-15T09:26:17Z</time>
      </trkpt>
      <trkpt lat="43.2464" lon="5.68806">
        <ele>443</ele>
        <time>2020-01-15T09:26:25Z</time>
      </trkpt>
      <trkpt lat="43.2464" lon="5.68814">
        <ele>443</ele>
        <time>2020-01-15T09:26:35Z</time>
      </trkpt>
      <trkpt lat="43.24639" lon="5.68821">
        <ele>445</ele>
        <time>2020-01-15T09:26:39Z</time>
      </trkpt>
      <trkpt lat="43.24638" lon="5.68828">
        <ele>442</ele>
        <time>2020-01-15T09:26:45Z</time>
      </trkpt>
      <trkpt lat="43.24637" lon="5.68834">
        <ele>441</ele>
        <time>2020-01-15T09:26:51Z</time>
      </trkpt>
      <trkpt lat="43.24636" lon="5.68842">
        <ele>442</ele>
        <time>2020-01-15T09:26:57Z</time>
      </trkpt>
      <trkpt lat="43.24634" lon="5.68848">
        <ele>438</ele>
        <time>2020-01-15T09:27:05Z</time>
      </trkpt>
      <trkpt lat="43.24633" lon="5.68855">
        <ele>439</ele>
        <time>2020-01-15T09:27:09Z</time>
      </trkpt>
      <trkpt lat="43.24633" lon="5.68862">
        <ele>438</ele>
        <time>2020-01-15T09:27:15Z</time>
      </trkpt>
      <trkpt lat="43.24631" lon="5.68869">
        <ele>441</ele>
        <time>2020-01-15T09:27:19Z</time>
      </trkpt>
      <trkpt lat="43.2463" lon="5.68877">
        <ele>443</ele>
        <time>2020-01-15T09:27:23Z</time>
      </trkpt>
      <trkpt lat="43.24629" lon="5.68884">
        <ele>438</ele>
        <time>2020-01-15T09:27:33Z</time>
      </trkpt>
      <trkpt lat="43.24628" lon="5.68891">
        <ele>437</ele>
        <time>2020-01-15T09:27:39Z</time>
      </trkpt>
      <trkpt lat="43.24628" lon="5.68898">
        <ele>435</ele>
        <time>2020-01-15T09:27:47Z</time>
      </trkpt>
      <trkpt lat="43.24628" lon="5.68905">
        <ele>437</ele>
        <time>2020-01-15T09:27:53Z</time>
      </trkpt>
      <trkpt lat="43.24627" lon="5.68913">
        <ele>435</ele>
        <time>2020-01-15T09:27:59Z</time>
      </trkpt>
      <trkpt lat="43.24627" lon="5.6892">
        <ele>432</ele>
        <time>2020-01-15T09:28:05Z</time>
      </trkpt>
      <trkpt lat="43.24626" lon="5.68926">
        <ele>432</ele>
        <time>2020-01-15T09:28:11Z</time>
      </trkpt>
      <trkpt lat="43.24626" lon="5.68934">
        <ele>434</ele>
        <time>2020-01-15T09:28:17Z</time>
      </trkpt>
      <trkpt lat="43.24624" lon="5.68941">
        <ele>436</ele>
        <time>2020-01-15T09:28:23Z</time>
      </trkpt>
      <trkpt lat="43.24623" lon="5.68949">
        <ele>433</ele>
        <time>2020-01-15T09:28:31Z</time>
      </trkpt>
      <trkpt lat="43.24623" lon="5.68956">
        <ele>433</ele>
        <time>2020-01-15T09:28:37Z</time>
      </trkpt>
      <trkpt lat="43.24622" lon="5.68963">
        <ele>435</ele>
        <time>2020-01-15T09:28:41Z</time>
      </trkpt>
      <trkpt lat="43.24622" lon="5.68972">
        <ele>436</ele>
        <time>2020-01-15T09:28:47Z</time>
      </trkpt>
      <trkpt lat="43.24621" lon="5.68979">
        <ele>436</ele>
        <time>2020-01-15T09:28:51Z</time>
      </trkpt>
      <trkpt lat="43.2462" lon="5.68986">
        <ele>436</ele>
        <time>2020-01-15T09:28:57Z</time>
      </trkpt>
      <trkpt lat="43.24619" lon="5.68993">
        <ele>435</ele>
        <time>2020-01-15T09:29:03Z</time>
      </trkpt>
      <trkpt lat="43.24617" lon="5.68999">
        <ele>437</ele>
        <time>2020-01-15T09:29:07Z</time>
      </trkpt>
      <trkpt lat="43.24616" lon="5.69006">
        <ele>433</ele>
        <time>2020-01-15T09:29:15Z</time>
      </trkpt>
      <trkpt lat="43.24615" lon="5.69013">
        <ele>429</ele>
        <time>2020-01-15T09:29:25Z</time>
      </trkpt>
      <trkpt lat="43.24614" lon="5.6902">
        <ele>430</ele>
        <time>2020-01-15T09:29:33Z</time>
      </trkpt>
      <trkpt lat="43.24613" lon="5.69029">
        <ele>431</ele>
        <time>2020-01-15T09:29:39Z</time>
      </trkpt>
      <trkpt lat="43.24612" lon="5.69037">
        <ele>433</ele>
        <time>2020-01-15T09:29:45Z</time>
      </trkpt>
      <trkpt lat="43.24609" lon="5.69043">
        <ele>433</ele>
        <time>2020-01-15T09:29:49Z</time>
      </trkpt>
      <trkpt lat="43.24606" lon="5.69048">
        <ele>428</ele>
        <time>2020-01-15T09:30:09Z</time>
      </trkpt>
      <trkpt lat="43.24606" lon="5.69058">
        <ele>427</ele>
        <time>2020-01-15T09:30:19Z</time>
      </trkpt>
      <trkpt lat="43.24609" lon="5.69063">
        <ele>426</ele>
        <time>2020-01-15T09:30:27Z</time>
      </trkpt>
      <trkpt lat="43.24609" lon="5.6907">
        <ele>427</ele>
        <time>2020-01-15T09:30:35Z</time>
      </trkpt>
      <trkpt lat="43.24611" lon="5.69079">
        <ele>431</ele>
        <time>2020-01-15T09:30:43Z</time>
      </trkpt>
      <trkpt lat="43.2461" lon="5.69085">
        <ele>431</ele>
        <time>2020-01-15T09:30:53Z</time>
      </trkpt>
      <trkpt lat="43.24609" lon="5.69091">
        <ele>433</ele>
        <time>2020-01-15T09:31:01Z</time>
      </trkpt>
      <trkpt lat="43.24608" lon="5.69098">
        <ele>436</ele>
        <time>2020-01-15T09:31:09Z</time>
      </trkpt>
      <trkpt lat="43.24607" lon="5.69104">
        <ele>436</ele>
        <time>2020-01-15T09:31:17Z</time>
      </trkpt>
      <trkpt lat="43.24606" lon="5.6911">
        <ele>435</ele>
        <time>2020-01-15T09:31:25Z</time>
      </trkpt>
      <trkpt lat="43.24605" lon="5.69116">
        <ele>437</ele>
        <time>2020-01-15T09:31:33Z</time>
      </trkpt>
      <trkpt lat="43.24605" lon="5.69124">
        <ele>440</ele>
        <time>2020-01-15T09:31:45Z</time>
      </trkpt>
      <trkpt lat="43.24604" lon="5.6913">
        <ele>439</ele>
        <time>2020-01-15T09:31:53Z</time>
      </trkpt>
      <trkpt lat="43.24605" lon="5.69137">
        <ele>439</ele>
        <time>2020-01-15T09:32:01Z</time>
      </trkpt>
      <trkpt lat="43.24604" lon="5.69145">
        <ele>442</ele>
        <time>2020-01-15T09:32:11Z</time>
      </trkpt>
      <trkpt lat="43.24602" lon="5.6915">
        <ele>440</ele>
        <time>2020-01-15T09:32:25Z</time>
      </trkpt>
      <trkpt lat="43.24602" lon="5.69158">
        <ele>441</ele>
        <time>2020-01-15T09:32:33Z</time>
      </trkpt>
      <trkpt lat="43.24601" lon="5.69166">
        <ele>440</ele>
        <time>2020-01-15T09:32:41Z</time>
      </trkpt>
      <trkpt lat="43.246" lon="5.69172">
        <ele>443</ele>
        <time>2020-01-15T09:32:47Z</time>
      </trkpt>
      <trkpt lat="43.24598" lon="5.69181">
        <ele>448</ele>
        <time>2020-01-15T09:32:51Z</time>
      </trkpt>
      <trkpt lat="43.24598" lon="5.69188">
        <ele>450</ele>
        <time>2020-01-15T09:32:57Z</time>
      </trkpt>
      <trkpt lat="43.24597" lon="5.69195">
        <ele>450</ele>
        <time>2020-01-15T09:33:05Z</time>
      </trkpt>
      <trkpt lat="43.24597" lon="5.69202">
        <ele>451</ele>
        <time>2020-01-15T09:33:11Z</time>
      </trkpt>
      <trkpt lat="43.24596" lon="5.6921">
        <ele>454</ele>
        <time>2020-01-15T09:33:19Z</time>
      </trkpt>
      <trkpt lat="43.24596" lon="5.69216">
        <ele>453</ele>
        <time>2020-01-15T09:33:29Z</time>
      </trkpt>
      <trkpt lat="43.24594" lon="5.69223">
        <ele>457</ele>
        <time>2020-01-15T09:33:39Z</time>
      </trkpt>
      <trkpt lat="43.24594" lon="5.69231">
        <ele>459</ele>
        <time>2020-01-15T09:33:49Z</time>
      </trkpt>
      <trkpt lat="43.24592" lon="5.69237">
        <ele>463</ele>
        <time>2020-01-15T09:33:53Z</time>
      </trkpt>
      <trkpt lat="43.24591" lon="5.69245">
        <ele>465</ele>
        <time>2020-01-15T09:33:59Z</time>
      </trkpt>
      <trkpt lat="43.2459" lon="5.69253">
        <ele>464</ele>
        <time>2020-01-15T09:34:05Z</time>
      </trkpt>
      <trkpt lat="43.2459" lon="5.6926">
        <ele>466</ele>
        <time>2020-01-15T09:34:11Z</time>
      </trkpt>
      <trkpt lat="43.24589" lon="5.69266">
        <ele>466</ele>
        <time>2020-01-15T09:34:17Z</time>
      </trkpt>
      <trkpt lat="43.24589" lon="5.69274">
        <ele>468</ele>
        <time>2020-01-15T09:34:25Z</time>
      </trkpt>
      <trkpt lat="43.24589" lon="5.6928">
        <ele>468</ele>
        <time>2020-01-15T09:34:33Z</time>
      </trkpt>
      <trkpt lat="43.24587" lon="5.69286">
        <ele>468</ele>
        <time>2020-01-15T09:34:39Z</time>
      </trkpt>
      <trkpt lat="43.24586" lon="5.69293">
        <ele>469</ele>
        <time>2020-01-15T09:34:51Z</time>
      </trkpt>
      <trkpt lat="43.24585" lon="5.693">
        <ele>468</ele>
        <time>2020-01-15T09:35:01Z</time>
      </trkpt>
      <trkpt lat="43.24586" lon="5.69308">
        <ele>469</ele>
        <time>2020-01-15T09:35:15Z</time>
      </trkpt>
      <trkpt lat="43.24585" lon="5.69317">
        <ele>473</ele>
        <time>2020-01-15T09:35:21Z</time>
      </trkpt>
      <trkpt lat="43.24584" lon="5.69324">
        <ele>478</ele>
        <time>2020-01-15T09:35:23Z</time>
      </trkpt>
      <trkpt lat="43.24582" lon="5.69332">
        <ele>478</ele>
        <time>2020-01-15T09:35:27Z</time>
      </trkpt>
      <trkpt lat="43.2458" lon="5.6934">
        <ele>477</ele>
        <time>2020-01-15T09:35:33Z</time>
      </trkpt>
      <trkpt lat="43.24579" lon="5.69347">
        <ele>475</ele>
        <time>2020-01-15T09:35:43Z</time>
      </trkpt>
      <trkpt lat="43.24576" lon="5.69354">
        <ele>473</ele>
        <time>2020-01-15T09:35:49Z</time>
      </trkpt>
      <trkpt lat="43.24575" lon="5.69362">
        <ele>473</ele>
        <time>2020-01-15T09:35:55Z</time>
      </trkpt>
      <trkpt lat="43.24575" lon="5.69371">
        <ele>471</ele>
        <time>2020-01-15T09:36:01Z</time>
      </trkpt>
      <trkpt lat="43.24574" lon="5.69379">
        <ele>473</ele>
        <time>2020-01-15T09:36:07Z</time>
      </trkpt>
      <trkpt lat="43.24572" lon="5.69385">
        <ele>475</ele>
        <time>2020-01-15T09:36:13Z</time>
      </trkpt>
      <trkpt lat="43.24576" lon="5.69388">
        <ele>472</ele>
        <time>2020-01-15T09:43:37Z</time>
      </trkpt>
      <trkpt lat="43.24582" lon="5.69391">
        <ele>470</ele>
        <time>2020-01-15T09:44:45Z</time>
      </trkpt>
      <trkpt lat="43.24584" lon="5.69397">
        <ele>472</ele>
        <time>2020-01-15T09:44:55Z</time>
      </trkpt>
      <trkpt lat="43.24585" lon="5.69403">
        <ele>471</ele>
        <time>2020-01-15T09:45:05Z</time>
      </trkpt>
      <trkpt lat="43.24584" lon="5.6941">
        <ele>468</ele>
        <time>2020-01-15T09:45:15Z</time>
      </trkpt>
      <trkpt lat="43.24586" lon="5.69416">
        <ele>468</ele>
        <time>2020-01-15T09:45:21Z</time>
      </trkpt>
      <trkpt lat="43.24591" lon="5.6942">
        <ele>468</ele>
        <time>2020-01-15T09:45:27Z</time>
      </trkpt>
      <trkpt lat="43.24595" lon="5.69423">
        <ele>468</ele>
        <time>2020-01-15T09:45:31Z</time>
      </trkpt>
      <trkpt lat="43.246" lon="5.69428">
        <ele>468</ele>
        <time>2020-01-15T09:45:37Z</time>
      </trkpt>
      <trkpt lat="43.24605" lon="5.6943">
        <ele>468</ele>
        <time>2020-01-15T09:45:43Z</time>
      </trkpt>
      <trkpt lat="43.2461" lon="5.69431">
        <ele>469</ele>
        <time>2020-01-15T09:45:49Z</time>
      </trkpt>
      <trkpt lat="43.24617" lon="5.69431">
        <ele>471</ele>
        <time>2020-01-15T09:45:53Z</time>
      </trkpt>
      <trkpt lat="43.24621" lon="5.6943">
        <ele>473</ele>
        <time>2020-01-15T09:45:55Z</time>
      </trkpt>
      <trkpt lat="43.2463" lon="5.69429">
        <ele>472</ele>
        <time>2020-01-15T09:45:59Z</time>
      </trkpt>
      <trkpt lat="43.24636" lon="5.69427">
        <ele>473</ele>
        <time>2020-01-15T09:46:03Z</time>
      </trkpt>
      <trkpt lat="43.24641" lon="5.69425">
        <ele>473</ele>
        <time>2020-01-15T09:46:09Z</time>
      </trkpt>
      <trkpt lat="43.24647" lon="5.69426">
        <ele>472</ele>
        <time>2020-01-15T09:46:21Z</time>
      </trkpt>
      <trkpt lat="43.24652" lon="5.69428">
        <ele>472</ele>
        <time>2020-01-15T09:46:27Z</time>
      </trkpt>
      <trkpt lat="43.24657" lon="5.69433">
        <ele>472</ele>
        <time>2020-01-15T09:46:33Z</time>
      </trkpt>
      <trkpt lat="43.2466" lon="5.69439">
        <ele>472</ele>
        <time>2020-01-15T09:46:39Z</time>
      </trkpt>
      <trkpt lat="43.24662" lon="5.69445">
        <ele>472</ele>
        <time>2020-01-15T09:46:43Z</time>
      </trkpt>
      <trkpt lat="43.24664" lon="5.6945">
        <ele>473</ele>
        <time>2020-01-15T09:46:49Z</time>
      </trkpt>
      <trkpt lat="43.24662" lon="5.69458">
        <ele>472</ele>
        <time>2020-01-15T09:46:55Z</time>
      </trkpt>
      <trkpt lat="43.2466" lon="5.69466">
        <ele>472</ele>
        <time>2020-01-15T09:47:01Z</time>
      </trkpt>
      <trkpt lat="43.2466" lon="5.69472">
        <ele>475</ele>
        <time>2020-01-15T09:47:13Z</time>
      </trkpt>
      <trkpt lat="43.24662" lon="5.69479">
        <ele>478</ele>
        <time>2020-01-15T09:47:33Z</time>
      </trkpt>
      <trkpt lat="43.24663" lon="5.69486">
        <ele>479</ele>
        <time>2020-01-15T09:47:39Z</time>
      </trkpt>
      <trkpt lat="43.24664" lon="5.69493">
        <ele>478</ele>
        <time>2020-01-15T09:47:45Z</time>
      </trkpt>
      <trkpt lat="43.24667" lon="5.695">
        <ele>474</ele>
        <time>2020-01-15T09:47:53Z</time>
      </trkpt>
      <trkpt lat="43.2467" lon="5.69506">
        <ele>474</ele>
        <time>2020-01-15T09:48:01Z</time>
      </trkpt>
      <trkpt lat="43.2467" lon="5.69513">
        <ele>475</ele>
        <time>2020-01-15T09:48:05Z</time>
      </trkpt>
      <trkpt lat="43.24672" lon="5.69521">
        <ele>476</ele>
        <time>2020-01-15T09:48:11Z</time>
      </trkpt>
      <trkpt lat="43.24674" lon="5.69527">
        <ele>477</ele>
        <time>2020-01-15T09:48:17Z</time>
      </trkpt>
      <trkpt lat="43.24677" lon="5.69533">
        <ele>476</ele>
        <time>2020-01-15T09:48:23Z</time>
      </trkpt>
      <trkpt lat="43.2468" lon="5.69541">
        <ele>476</ele>
        <time>2020-01-15T09:48:29Z</time>
      </trkpt>
      <trkpt lat="43.24681" lon="5.69548">
        <ele>477</ele>
        <time>2020-01-15T09:48:35Z</time>
      </trkpt>
      <trkpt lat="43.24682" lon="5.69556">
        <ele>477</ele>
        <time>2020-01-15T09:48:41Z</time>
      </trkpt>
      <trkpt lat="43.24682" lon="5.69565">
        <ele>476</ele>
        <time>2020-01-15T09:48:47Z</time>
      </trkpt>
      <trkpt lat="43.24681" lon="5.69572">
        <ele>477</ele>
        <time>2020-01-15T09:48:51Z</time>
      </trkpt>
      <trkpt lat="43.24681" lon="5.69579">
        <ele>477</ele>
        <time>2020-01-15T09:48:55Z</time>
      </trkpt>
      <trkpt lat="43.24683" lon="5.69586">
        <ele>479</ele>
        <time>2020-01-15T09:49:01Z</time>
      </trkpt>
      <trkpt lat="43.24684" lon="5.69594">
        <ele>479</ele>
        <time>2020-01-15T09:49:07Z</time>
      </trkpt>
      <trkpt lat="43.24684" lon="5.696">
        <ele>478</ele>
        <time>2020-01-15T09:49:11Z</time>
      </trkpt>
      <trkpt lat="43.24685" lon="5.69607">
        <ele>478</ele>
        <time>2020-01-15T09:49:15Z</time>
      </trkpt>
      <trkpt lat="43.24687" lon="5.69615">
        <ele>476</ele>
        <time>2020-01-15T09:49:21Z</time>
      </trkpt>
      <trkpt lat="43.24689" lon="5.69622">
        <ele>474</ele>
        <time>2020-01-15T09:49:27Z</time>
      </trkpt>
      <trkpt lat="43.24692" lon="5.69627">
        <ele>473</ele>
        <time>2020-01-15T09:49:33Z</time>
      </trkpt>
      <trkpt lat="43.24695" lon="5.69634">
        <ele>472</ele>
        <time>2020-01-15T09:49:39Z</time>
      </trkpt>
      <trkpt lat="43.24698" lon="5.69642">
        <ele>473</ele>
        <time>2020-01-15T09:49:45Z</time>
      </trkpt>
      <trkpt lat="43.24702" lon="5.69646">
        <ele>474</ele>
        <time>2020-01-15T09:49:49Z</time>
      </trkpt>
      <trkpt lat="43.24708" lon="5.69649">
        <ele>474</ele>
        <time>2020-01-15T09:49:55Z</time>
      </trkpt>
      <trkpt lat="43.24712" lon="5.69651">
        <ele>475</ele>
        <time>2020-01-15T09:49:59Z</time>
      </trkpt>
      <trkpt lat="43.24717" lon="5.69654">
        <ele>476</ele>
        <time>2020-01-15T09:50:05Z</time>
      </trkpt>
      <trkpt lat="43.24722" lon="5.69657">
        <ele>478</ele>
        <time>2020-01-15T09:50:11Z</time>
      </trkpt>
      <trkpt lat="43.24727" lon="5.69657">
        <ele>478</ele>
        <time>2020-01-15T09:50:17Z</time>
      </trkpt>
      <trkpt lat="43.24734" lon="5.69656">
        <ele>476</ele>
        <time>2020-01-15T09:50:23Z</time>
      </trkpt>
      <trkpt lat="43.24739" lon="5.69656">
        <ele>475</ele>
        <time>2020-01-15T09:50:27Z</time>
      </trkpt>
      <trkpt lat="43.24744" lon="5.69655">
        <ele>476</ele>
        <time>2020-01-15T09:50:31Z</time>
      </trkpt>
      <trkpt lat="43.2475" lon="5.69656">
        <ele>477</ele>
        <time>2020-01-15T09:50:35Z</time>
      </trkpt>
      <trkpt lat="43.24754" lon="5.69656">
        <ele>476</ele>
        <time>2020-01-15T09:50:39Z</time>
      </trkpt>
      <trkpt lat="43.24759" lon="5.69657">
        <ele>476</ele>
        <time>2020-01-15T09:50:43Z</time>
      </trkpt>
      <trkpt lat="43.24764" lon="5.69658">
        <ele>476</ele>
        <time>2020-01-15T09:50:47Z</time>
      </trkpt>
      <trkpt lat="43.24769" lon="5.69658">
        <ele>477</ele>
        <time>2020-01-15T09:50:51Z</time>
      </trkpt>
      <trkpt lat="43.24775" lon="5.69659">
        <ele>477</ele>
        <time>2020-01-15T09:50:55Z</time>
      </trkpt>
      <trkpt lat="43.24781" lon="5.69659">
        <ele>477</ele>
        <time>2020-01-15T09:51:01Z</time>
      </trkpt>
      <trkpt lat="43.24786" lon="5.69661">
        <ele>475</ele>
        <time>2020-01-15T09:51:07Z</time>
      </trkpt>
      <trkpt lat="43.24792" lon="5.69664">
        <ele>474</ele>
        <time>2020-01-15T09:51:15Z</time>
      </trkpt>
      <trkpt lat="43.24797" lon="5.69668">
        <ele>473</ele>
        <time>2020-01-15T09:51:21Z</time>
      </trkpt>
      <trkpt lat="43.248" lon="5.69675">
        <ele>471</ele>
        <time>2020-01-15T09:51:27Z</time>
      </trkpt>
      <trkpt lat="43.24801" lon="5.69683">
        <ele>469</ele>
        <time>2020-01-15T09:51:33Z</time>
      </trkpt>
      <trkpt lat="43.24803" lon="5.69689">
        <ele>469</ele>
        <time>2020-01-15T09:51:39Z</time>
      </trkpt>
      <trkpt lat="43.24805" lon="5.69694">
        <ele>471</ele>
        <time>2020-01-15T09:51:45Z</time>
      </trkpt>
      <trkpt lat="43.24807" lon="5.69702">
        <ele>473</ele>
        <time>2020-01-15T09:51:51Z</time>
      </trkpt>
      <trkpt lat="43.24809" lon="5.69708">
        <ele>477</ele>
        <time>2020-01-15T09:51:57Z</time>
      </trkpt>
      <trkpt lat="43.24811" lon="5.69715">
        <ele>477</ele>
        <time>2020-01-15T09:52:03Z</time>
      </trkpt>
      <trkpt lat="43.24813" lon="5.69721">
        <ele>478</ele>
        <time>2020-01-15T09:52:09Z</time>
      </trkpt>
      <trkpt lat="43.24815" lon="5.69729">
        <ele>480</ele>
        <time>2020-01-15T09:52:17Z</time>
      </trkpt>
      <trkpt lat="43.24816" lon="5.69736">
        <ele>482</ele>
        <time>2020-01-15T09:52:23Z</time>
      </trkpt>
      <trkpt lat="43.24818" lon="5.69745">
        <ele>482</ele>
        <time>2020-01-15T09:52:29Z</time>
      </trkpt>
      <trkpt lat="43.2482" lon="5.6975">
        <ele>484</ele>
        <time>2020-01-15T09:52:33Z</time>
      </trkpt>
      <trkpt lat="43.24822" lon="5.69756">
        <ele>485</ele>
        <time>2020-01-15T09:52:39Z</time>
      </trkpt>
      <trkpt lat="43.24824" lon="5.69763">
        <ele>487</ele>
        <time>2020-01-15T09:52:45Z</time>
      </trkpt>
      <trkpt lat="43.24825" lon="5.6977">
        <ele>488</ele>
        <time>2020-01-15T09:52:51Z</time>
      </trkpt>
      <trkpt lat="43.2483" lon="5.69775">
        <ele>488</ele>
        <time>2020-01-15T09:52:57Z</time>
      </trkpt>
      <trkpt lat="43.24833" lon="5.69781">
        <ele>488</ele>
        <time>2020-01-15T09:53:05Z</time>
      </trkpt>
      <trkpt lat="43.24838" lon="5.69781">
        <ele>489</ele>
        <time>2020-01-15T09:53:33Z</time>
      </trkpt>
      <trkpt lat="43.2484" lon="5.69787">
        <ele>488</ele>
        <time>2020-01-15T09:53:53Z</time>
      </trkpt>
      <trkpt lat="43.2484" lon="5.69794">
        <ele>487</ele>
        <time>2020-01-15T09:53:59Z</time>
      </trkpt>
      <trkpt lat="43.24838" lon="5.69801">
        <ele>485</ele>
        <time>2020-01-15T09:54:07Z</time>
      </trkpt>
      <trkpt lat="43.24835" lon="5.69805">
        <ele>483</ele>
        <time>2020-01-15T09:54:13Z</time>
      </trkpt>
      <trkpt lat="43.2483" lon="5.69809">
        <ele>485</ele>
        <time>2020-01-15T09:54:21Z</time>
      </trkpt>
      <trkpt lat="43.24825" lon="5.69814">
        <ele>485</ele>
        <time>2020-01-15T09:54:39Z</time>
      </trkpt>
      <trkpt lat="43.24821" lon="5.69818">
        <ele>484</ele>
        <time>2020-01-15T09:54:45Z</time>
      </trkpt>
      <trkpt lat="43.24818" lon="5.69825">
        <ele>484</ele>
        <time>2020-01-15T09:54:53Z</time>
      </trkpt>
      <trkpt lat="43.24814" lon="5.69828">
        <ele>483</ele>
        <time>2020-01-15T09:55:01Z</time>
      </trkpt>
      <trkpt lat="43.24808" lon="5.69834">
        <ele>484</ele>
        <time>2020-01-15T09:55:07Z</time>
      </trkpt>
      <trkpt lat="43.24804" lon="5.69839">
        <ele>485</ele>
        <time>2020-01-15T09:55:11Z</time>
      </trkpt>
      <trkpt lat="43.24799" lon="5.69843">
        <ele>486</ele>
        <time>2020-01-15T09:55:15Z</time>
      </trkpt>
      <trkpt lat="43.24794" lon="5.69848">
        <ele>486</ele>
        <time>2020-01-15T09:55:19Z</time>
      </trkpt>
      <trkpt lat="43.24788" lon="5.69851">
        <ele>485</ele>
        <time>2020-01-15T09:55:23Z</time>
      </trkpt>
      <trkpt lat="43.24783" lon="5.69852">
        <ele>484</ele>
        <time>2020-01-15T09:55:29Z</time>
      </trkpt>
      <trkpt lat="43.24779" lon="5.69854">
        <ele>485</ele>
        <time>2020-01-15T09:55:35Z</time>
      </trkpt>
      <trkpt lat="43.24775" lon="5.69857">
        <ele>486</ele>
        <time>2020-01-15T09:55:45Z</time>
      </trkpt>
      <trkpt lat="43.24774" lon="5.69863">
        <ele>483</ele>
        <time>2020-01-15T09:55:53Z</time>
      </trkpt>
      <trkpt lat="43.24773" lon="5.6987">
        <ele>481</ele>
        <time>2020-01-15T09:56:01Z</time>
      </trkpt>
      <trkpt lat="43.24774" lon="5.69878">
        <ele>480</ele>
        <time>2020-01-15T09:56:09Z</time>
      </trkpt>
      <trkpt lat="43.24772" lon="5.69883">
        <ele>477</ele>
        <time>2020-01-15T09:56:17Z</time>
      </trkpt>
      <trkpt lat="43.24768" lon="5.69889">
        <ele>476</ele>
        <time>2020-01-15T09:56:25Z</time>
      </trkpt>
      <trkpt lat="43.24764" lon="5.69895">
        <ele>476</ele>
        <time>2020-01-15T09:56:33Z</time>
      </trkpt>
      <trkpt lat="43.24759" lon="5.69901">
        <ele>477</ele>
        <time>2020-01-15T09:56:41Z</time>
      </trkpt>
      <trkpt lat="43.24755" lon="5.69904">
        <ele>478</ele>
        <time>2020-01-15T09:56:49Z</time>
      </trkpt>
      <trkpt lat="43.24751" lon="5.69907">
        <ele>478</ele>
        <time>2020-01-15T09:56:55Z</time>
      </trkpt>
      <trkpt lat="43.24747" lon="5.69913">
        <ele>478</ele>
        <time>2020-01-15T09:57:01Z</time>
      </trkpt>
      <trkpt lat="43.24743" lon="5.69918">
        <ele>475</ele>
        <time>2020-01-15T09:57:09Z</time>
      </trkpt>
      <trkpt lat="43.24739" lon="5.69923">
        <ele>472</ele>
        <time>2020-01-15T09:57:19Z</time>
      </trkpt>
      <trkpt lat="43.24735" lon="5.69927">
        <ele>471</ele>
        <time>2020-01-15T09:57:25Z</time>
      </trkpt>
      <trkpt lat="43.2473" lon="5.6993">
        <ele>472</ele>
        <time>2020-01-15T09:57:31Z</time>
      </trkpt>
      <trkpt lat="43.24726" lon="5.69934">
        <ele>470</ele>
        <time>2020-01-15T09:57:43Z</time>
      </trkpt>
      <trkpt lat="43.24721" lon="5.69939">
        <ele>469</ele>
        <time>2020-01-15T09:57:51Z</time>
      </trkpt>
      <trkpt lat="43.24716" lon="5.69943">
        <ele>467</ele>
        <time>2020-01-15T09:57:59Z</time>
      </trkpt>
      <trkpt lat="43.24711" lon="5.69945">
        <ele>465</ele>
        <time>2020-01-15T09:58:07Z</time>
      </trkpt>
      <trkpt lat="43.24708" lon="5.6995">
        <ele>465</ele>
        <time>2020-01-15T09:58:13Z</time>
      </trkpt>
      <trkpt lat="43.24704" lon="5.69955">
        <ele>464</ele>
        <time>2020-01-15T09:58:23Z</time>
      </trkpt>
      <trkpt lat="43.247" lon="5.6996">
        <ele>462</ele>
        <time>2020-01-15T09:58:29Z</time>
      </trkpt>
      <trkpt lat="43.24695" lon="5.69964">
        <ele>461</ele>
        <time>2020-01-15T09:58:35Z</time>
      </trkpt>
      <trkpt lat="43.24691" lon="5.69966">
        <ele>458</ele>
        <time>2020-01-15T09:58:45Z</time>
      </trkpt>
      <trkpt lat="43.24687" lon="5.6997">
        <ele>458</ele>
        <time>2020-01-15T09:58:53Z</time>
      </trkpt>
      <trkpt lat="43.24683" lon="5.69976">
        <ele>456</ele>
        <time>2020-01-15T09:59:03Z</time>
      </trkpt>
      <trkpt lat="43.24679" lon="5.69984">
        <ele>459</ele>
        <time>2020-01-15T09:59:15Z</time>
      </trkpt>
      <trkpt lat="43.24675" lon="5.69989">
        <ele>458</ele>
        <time>2020-01-15T09:59:21Z</time>
      </trkpt>
      <trkpt lat="43.24671" lon="5.69995">
        <ele>454</ele>
        <time>2020-01-15T09:59:31Z</time>
      </trkpt>
      <trkpt lat="43.24666" lon="5.69999">
        <ele>450</ele>
        <time>2020-01-15T09:59:41Z</time>
      </trkpt>
      <trkpt lat="43.24662" lon="5.70002">
        <ele>450</ele>
        <time>2020-01-15T09:59:51Z</time>
      </trkpt>
      <trkpt lat="43.24657" lon="5.70004">
        <ele>444</ele>
        <time>2020-01-15T10:00:03Z</time>
      </trkpt>
      <trkpt lat="43.24653" lon="5.70009">
        <ele>443</ele>
        <time>2020-01-15T10:00:09Z</time>
      </trkpt>
      <trkpt lat="43.24649" lon="5.70013">
        <ele>441</ele>
        <time>2020-01-15T10:00:13Z</time>
      </trkpt>
      <trkpt lat="43.24647" lon="5.70019">
        <ele>442</ele>
        <time>2020-01-15T10:00:19Z</time>
      </trkpt>
      <trkpt lat="43.24644" lon="5.70024">
        <ele>443</ele>
        <time>2020-01-15T10:00:27Z</time>
      </trkpt>
      <trkpt lat="43.24638" lon="5.7003">
        <ele>442</ele>
        <time>2020-01-15T10:00:33Z</time>
      </trkpt>
      <trkpt lat="43.24635" lon="5.70036">
        <ele>440</ele>
        <time>2020-01-15T10:00:39Z</time>
      </trkpt>
      <trkpt lat="43.24631" lon="5.70041">
        <ele>440</ele>
        <time>2020-01-15T10:00:47Z</time>
      </trkpt>
      <trkpt lat="43.24627" lon="5.70044">
        <ele>437</ele>
        <time>2020-01-15T10:00:55Z</time>
      </trkpt>
      <trkpt lat="43.24622" lon="5.70049">
        <ele>436</ele>
        <time>2020-01-15T10:01:03Z</time>
      </trkpt>
      <trkpt lat="43.24619" lon="5.70055">
        <ele>435</ele>
        <time>2020-01-15T10:01:09Z</time>
      </trkpt>
      <trkpt lat="43.24615" lon="5.70059">
        <ele>434</ele>
        <time>2020-01-15T10:01:17Z</time>
      </trkpt>
      <trkpt lat="43.24611" lon="5.70062">
        <ele>433</ele>
        <time>2020-01-15T10:01:33Z</time>
      </trkpt>
      <trkpt lat="43.24607" lon="5.70068">
        <ele>432</ele>
        <time>2020-01-15T10:01:41Z</time>
      </trkpt>
      <trkpt lat="43.24604" lon="5.70074">
        <ele>432</ele>
        <time>2020-01-15T10:01:47Z</time>
      </trkpt>
      <trkpt lat="43.24603" lon="5.7008">
        <ele>430</ele>
        <time>2020-01-15T10:01:53Z</time>
      </trkpt>
      <trkpt lat="43.24604" lon="5.70087">
        <ele>429</ele>
        <time>2020-01-15T10:02:01Z</time>
      </trkpt>
      <trkpt lat="43.246" lon="5.70092">
        <ele>426</ele>
        <time>2020-01-15T10:02:11Z</time>
      </trkpt>
      <trkpt lat="43.24605" lon="5.70092">
        <ele>416</ele>
        <time>2020-01-15T10:03:19Z</time>
      </trkpt>
      <trkpt lat="43.24609" lon="5.70098">
        <ele>418</ele>
        <time>2020-01-15T10:03:39Z</time>
      </trkpt>
      <trkpt lat="43.24615" lon="5.701">
        <ele>419</ele>
        <time>2020-01-15T10:03:45Z</time>
      </trkpt>
      <trkpt lat="43.2462" lon="5.70102">
        <ele>420</ele>
        <time>2020-01-15T10:03:51Z</time>
      </trkpt>
      <trkpt lat="43.24626" lon="5.70103">
        <ele>419</ele>
        <time>2020-01-15T10:03:57Z</time>
      </trkpt>
      <trkpt lat="43.24631" lon="5.70104">
        <ele>419</ele>
        <time>2020-01-15T10:04:03Z</time>
      </trkpt>
      <trkpt lat="43.24636" lon="5.70106">
        <ele>420</ele>
        <time>2020-01-15T10:04:09Z</time>
      </trkpt>
      <trkpt lat="43.24642" lon="5.70108">
        <ele>421</ele>
        <time>2020-01-15T10:04:15Z</time>
      </trkpt>
      <trkpt lat="43.24646" lon="5.70114">
        <ele>419</ele>
        <time>2020-01-15T10:04:21Z</time>
      </trkpt>
      <trkpt lat="43.24651" lon="5.70118">
        <ele>420</ele>
        <time>2020-01-15T10:04:27Z</time>
      </trkpt>
      <trkpt lat="43.24655" lon="5.70124">
        <ele>421</ele>
        <time>2020-01-15T10:04:33Z</time>
      </trkpt>
      <trkpt lat="43.24658" lon="5.70131">
        <ele>418</ele>
        <time>2020-01-15T10:04:39Z</time>
      </trkpt>
      <trkpt lat="43.24662" lon="5.70136">
        <ele>417</ele>
        <time>2020-01-15T10:04:45Z</time>
      </trkpt>
      <trkpt lat="43.24666" lon="5.70141">
        <ele>415</ele>
        <time>2020-01-15T10:04:51Z</time>
      </trkpt>
      <trkpt lat="43.24669" lon="5.70145">
        <ele>410</ele>
        <time>2020-01-15T10:04:57Z</time>
      </trkpt>
      <trkpt lat="43.24675" lon="5.70146">
        <ele>405</ele>
        <time>2020-01-15T10:05:05Z</time>
      </trkpt>
      <trkpt lat="43.2468" lon="5.70147">
        <ele>409</ele>
        <time>2020-01-15T10:05:09Z</time>
      </trkpt>
      <trkpt lat="43.24686" lon="5.70149">
        <ele>408</ele>
        <time>2020-01-15T10:05:15Z</time>
      </trkpt>
      <trkpt lat="43.24691" lon="5.70149">
        <ele>406</ele>
        <time>2020-01-15T10:05:21Z</time>
      </trkpt>
      <trkpt lat="43.24695" lon="5.70148">
        <ele>404</ele>
        <time>2020-01-15T10:05:27Z</time>
      </trkpt>
      <trkpt lat="43.24701" lon="5.70147">
        <ele>402</ele>
        <time>2020-01-15T10:05:33Z</time>
      </trkpt>
      <trkpt lat="43.24704" lon="5.70143">
        <ele>403</ele>
        <time>2020-01-15T10:05:39Z</time>
      </trkpt>
      <trkpt lat="43.24709" lon="5.70137">
        <ele>405</ele>
        <time>2020-01-15T10:05:45Z</time>
      </trkpt>
      <trkpt lat="43.24714" lon="5.70134">
        <ele>401</ele>
        <time>2020-01-15T10:05:51Z</time>
      </trkpt>
      <trkpt lat="43.24719" lon="5.70133">
        <ele>404</ele>
        <time>2020-01-15T10:05:57Z</time>
      </trkpt>
      <trkpt lat="43.24723" lon="5.7013">
        <ele>408</ele>
        <time>2020-01-15T10:08:37Z</time>
      </trkpt>
      <trkpt lat="43.24727" lon="5.70127">
        <ele>407</ele>
        <time>2020-01-15T10:08:49Z</time>
      </trkpt>
      <trkpt lat="43.24722" lon="5.70126">
        <ele>411</ele>
        <time>2020-01-15T10:09:47Z</time>
      </trkpt>
      <trkpt lat="43.24718" lon="5.70128">
        <ele>411</ele>
        <time>2020-01-15T10:09:55Z</time>
      </trkpt>
      <trkpt lat="43.24724" lon="5.70128">
        <ele>406</ele>
        <time>2020-01-15T10:11:49Z</time>
      </trkpt>
      <trkpt lat="43.24726" lon="5.70122">
        <ele>407</ele>
        <time>2020-01-15T10:12:01Z</time>
      </trkpt>
      <trkpt lat="43.24721" lon="5.70123">
        <ele>415</ele>
        <time>2020-01-15T10:12:27Z</time>
      </trkpt>
      <trkpt lat="43.24718" lon="5.70128">
        <ele>416</ele>
        <time>2020-01-15T10:15:27Z</time>
      </trkpt>
      <trkpt lat="43.24722" lon="5.7013">
        <ele>412</ele>
        <time>2020-01-15T10:16:51Z</time>
      </trkpt>
      <trkpt lat="43.24725" lon="5.70122">
        <ele>415</ele>
        <time>2020-01-15T10:17:09Z</time>
      </trkpt>
      <trkpt lat="43.2473" lon="5.7012">
        <ele>411</ele>
        <time>2020-01-15T10:17:15Z</time>
      </trkpt>
      <trkpt lat="43.24734" lon="5.70116">
        <ele>408</ele>
        <time>2020-01-15T10:17:21Z</time>
      </trkpt>
      <trkpt lat="43.24738" lon="5.70114">
        <ele>404</ele>
        <time>2020-01-15T10:17:29Z</time>
      </trkpt>
      <trkpt lat="43.24743" lon="5.70111">
        <ele>404</ele>
        <time>2020-01-15T10:17:35Z</time>
      </trkpt>
      <trkpt lat="43.24748" lon="5.70109">
        <ele>404</ele>
        <time>2020-01-15T10:17:41Z</time>
      </trkpt>
      <trkpt lat="43.24755" lon="5.70109">
        <ele>403</ele>
        <time>2020-01-15T10:17:47Z</time>
      </trkpt>
      <trkpt lat="43.2476" lon="5.70108">
        <ele>406</ele>
        <time>2020-01-15T10:17:51Z</time>
      </trkpt>
      <trkpt lat="43.24765" lon="5.70106">
        <ele>405</ele>
        <time>2020-01-15T10:17:57Z</time>
      </trkpt>
      <trkpt lat="43.2477" lon="5.70104">
        <ele>405</ele>
        <time>2020-01-15T10:18:03Z</time>
      </trkpt>
      <trkpt lat="43.24776" lon="5.70103">
        <ele>405</ele>
        <time>2020-01-15T10:18:09Z</time>
      </trkpt>
      <trkpt lat="43.24781" lon="5.70102">
        <ele>408</ele>
        <time>2020-01-15T10:18:13Z</time>
      </trkpt>
      <trkpt lat="43.24784" lon="5.70098">
        <ele>407</ele>
        <time>2020-01-15T10:18:19Z</time>
      </trkpt>
      <trkpt lat="43.24789" lon="5.70093">
        <ele>403</ele>
        <time>2020-01-15T10:18:27Z</time>
      </trkpt>
      <trkpt lat="43.24795" lon="5.70091">
        <ele>405</ele>
        <time>2020-01-15T10:18:33Z</time>
      </trkpt>
      <trkpt lat="43.24801" lon="5.70086">
        <ele>403</ele>
        <time>2020-01-15T10:18:39Z</time>
      </trkpt>
      <trkpt lat="43.24806" lon="5.70084">
        <ele>403</ele>
        <time>2020-01-15T10:18:43Z</time>
      </trkpt>
      <trkpt lat="43.24812" lon="5.70083">
        <ele>402</ele>
        <time>2020-01-15T10:18:49Z</time>
      </trkpt>
      <trkpt lat="43.24818" lon="5.70083">
        <ele>405</ele>
        <time>2020-01-15T10:18:55Z</time>
      </trkpt>
      <trkpt lat="43.24824" lon="5.70081">
        <ele>403</ele>
        <time>2020-01-15T10:19:01Z</time>
      </trkpt>
      <trkpt lat="43.24828" lon="5.70079">
        <ele>402</ele>
        <time>2020-01-15T10:19:05Z</time>
      </trkpt>
      <trkpt lat="43.24833" lon="5.70078">
        <ele>405</ele>
        <time>2020-01-15T10:19:09Z</time>
      </trkpt>
      <trkpt lat="43.24839" lon="5.70075">
        <ele>406</ele>
        <time>2020-01-15T10:19:13Z</time>
      </trkpt>
      <trkpt lat="43.24844" lon="5.70072">
        <ele>404</ele>
        <time>2020-01-15T10:19:17Z</time>
      </trkpt>
      <trkpt lat="43.24849" lon="5.70072">
        <ele>406</ele>
        <time>2020-01-15T10:19:21Z</time>
      </trkpt>
      <trkpt lat="43.24855" lon="5.70069">
        <ele>406</ele>
        <time>2020-01-15T10:19:27Z</time>
      </trkpt>
      <trkpt lat="43.2486" lon="5.70067">
        <ele>405</ele>
        <time>2020-01-15T10:19:31Z</time>
      </trkpt>
      <trkpt lat="43.24865" lon="5.70065">
        <ele>405</ele>
        <time>2020-01-15T10:19:35Z</time>
      </trkpt>
      <trkpt lat="43.24869" lon="5.70063">
        <ele>405</ele>
        <time>2020-01-15T10:19:39Z</time>
      </trkpt>
      <trkpt lat="43.24875" lon="5.70061">
        <ele>406</ele>
        <time>2020-01-15T10:19:45Z</time>
      </trkpt>
      <trkpt lat="43.24881" lon="5.70058">
        <ele>409</ele>
        <time>2020-01-15T10:19:51Z</time>
      </trkpt>
      <trkpt lat="43.24886" lon="5.70056">
        <ele>410</ele>
        <time>2020-01-15T10:19:57Z</time>
      </trkpt>
      <trkpt lat="43.24892" lon="5.70054">
        <ele>412</ele>
        <time>2020-01-15T10:20:03Z</time>
      </trkpt>
      <trkpt lat="43.24899" lon="5.70053">
        <ele>409</ele>
        <time>2020-01-15T10:20:09Z</time>
      </trkpt>
      <trkpt lat="43.24904" lon="5.70053">
        <ele>408</ele>
        <time>2020-01-15T10:20:15Z</time>
      </trkpt>
      <trkpt lat="43.24909" lon="5.70055">
        <ele>408</ele>
        <time>2020-01-15T10:20:21Z</time>
      </trkpt>
      <trkpt lat="43.24913" lon="5.70056">
        <ele>407</ele>
        <time>2020-01-15T10:20:27Z</time>
      </trkpt>
      <trkpt lat="43.24919" lon="5.70057">
        <ele>404</ele>
        <time>2020-01-15T10:20:35Z</time>
      </trkpt>
      <trkpt lat="43.24924" lon="5.70059">
        <ele>403</ele>
        <time>2020-01-15T10:20:41Z</time>
      </trkpt>
      <trkpt lat="43.24928" lon="5.7006">
        <ele>403</ele>
        <time>2020-01-15T10:20:45Z</time>
      </trkpt>
      <trkpt lat="43.24935" lon="5.70061">
        <ele>402</ele>
        <time>2020-01-15T10:20:51Z</time>
      </trkpt>
      <trkpt lat="43.2494" lon="5.70063">
        <ele>402</ele>
        <time>2020-01-15T10:20:55Z</time>
      </trkpt>
      <trkpt lat="43.24945" lon="5.70065">
        <ele>404</ele>
        <time>2020-01-15T10:20:59Z</time>
      </trkpt>
      <trkpt lat="43.24951" lon="5.70068">
        <ele>403</ele>
        <time>2020-01-15T10:21:05Z</time>
      </trkpt>
      <trkpt lat="43.24956" lon="5.70071">
        <ele>403</ele>
        <time>2020-01-15T10:21:09Z</time>
      </trkpt>
      <trkpt lat="43.24961" lon="5.70074">
        <ele>403</ele>
        <time>2020-01-15T10:21:15Z</time>
      </trkpt>
      <trkpt lat="43.24967" lon="5.70075">
        <ele>402</ele>
        <time>2020-01-15T10:21:21Z</time>
      </trkpt>
      <trkpt lat="43.24972" lon="5.70072">
        <ele>401</ele>
        <time>2020-01-15T10:21:27Z</time>
      </trkpt>
      <trkpt lat="43.24978" lon="5.70067">
        <ele>403</ele>
        <time>2020-01-15T10:21:33Z</time>
      </trkpt>
      <trkpt lat="43.24982" lon="5.70063">
        <ele>402</ele>
        <time>2020-01-15T10:21:37Z</time>
      </trkpt>
      <trkpt lat="43.24986" lon="5.70059">
        <ele>403</ele>
        <time>2020-01-15T10:21:41Z</time>
      </trkpt>
      <trkpt lat="43.2499" lon="5.70053">
        <ele>403</ele>
        <time>2020-01-15T10:21:47Z</time>
      </trkpt>
      <trkpt lat="43.2499" lon="5.70046">
        <ele>403</ele>
        <time>2020-01-15T10:21:53Z</time>
      </trkpt>
      <trkpt lat="43.2499" lon="5.70037">
        <ele>404</ele>
        <time>2020-01-15T10:21:59Z</time>
      </trkpt>
      <trkpt lat="43.2499" lon="5.70029">
        <ele>403</ele>
        <time>2020-01-15T10:22:05Z</time>
      </trkpt>
      <trkpt lat="43.24992" lon="5.70021">
        <ele>404</ele>
        <time>2020-01-15T10:22:11Z</time>
      </trkpt>
      <trkpt lat="43.24993" lon="5.70014">
        <ele>406</ele>
        <time>2020-01-15T10:22:17Z</time>
      </trkpt>
      <trkpt lat="43.24995" lon="5.70007">
        <ele>406</ele>
        <time>2020-01-15T10:22:23Z</time>
      </trkpt>
      <trkpt lat="43.24999" lon="5.70001">
        <ele>406</ele>
        <time>2020-01-15T10:22:29Z</time>
      </trkpt>
      <trkpt lat="43.25002" lon="5.69997">
        <ele>407</ele>
        <time>2020-01-15T10:22:33Z</time>
      </trkpt>
      <trkpt lat="43.25006" lon="5.6999">
        <ele>407</ele>
        <time>2020-01-15T10:22:39Z</time>
      </trkpt>
      <trkpt lat="43.25011" lon="5.69985">
        <ele>408</ele>
        <time>2020-01-15T10:22:45Z</time>
      </trkpt>
      <trkpt lat="43.25015" lon="5.69981">
        <ele>408</ele>
        <time>2020-01-15T10:22:51Z</time>
      </trkpt>
      <trkpt lat="43.2502" lon="5.69978">
        <ele>407</ele>
        <time>2020-01-15T10:22:57Z</time>
      </trkpt>
      <trkpt lat="43.25024" lon="5.69975">
        <ele>408</ele>
        <time>2020-01-15T10:23:03Z</time>
      </trkpt>
      <trkpt lat="43.25029" lon="5.69973">
        <ele>409</ele>
        <time>2020-01-15T10:23:07Z</time>
      </trkpt>
      <trkpt lat="43.25034" lon="5.69971">
        <ele>411</ele>
        <time>2020-01-15T10:23:11Z</time>
      </trkpt>
      <trkpt lat="43.25038" lon="5.69968">
        <ele>410</ele>
        <time>2020-01-15T10:23:15Z</time>
      </trkpt>
      <trkpt lat="43.25043" lon="5.69962">
        <ele>409</ele>
        <time>2020-01-15T10:23:21Z</time>
      </trkpt>
      <trkpt lat="43.25045" lon="5.69957">
        <ele>409</ele>
        <time>2020-01-15T10:23:27Z</time>
      </trkpt>
      <trkpt lat="43.25049" lon="5.69953">
        <ele>409</ele>
        <time>2020-01-15T10:23:31Z</time>
      </trkpt>
      <trkpt lat="43.25053" lon="5.69947">
        <ele>407</ele>
        <time>2020-01-15T10:23:37Z</time>
      </trkpt>
      <trkpt lat="43.25057" lon="5.6994">
        <ele>406</ele>
        <time>2020-01-15T10:23:43Z</time>
      </trkpt>
      <trkpt lat="43.25059" lon="5.69932">
        <ele>406</ele>
        <time>2020-01-15T10:23:49Z</time>
      </trkpt>
      <trkpt lat="43.2506" lon="5.69924">
        <ele>406</ele>
        <time>2020-01-15T10:23:55Z</time>
      </trkpt>
      <trkpt lat="43.25063" lon="5.69916">
        <ele>406</ele>
        <time>2020-01-15T10:24:01Z</time>
      </trkpt>
      <trkpt lat="43.25065" lon="5.69908">
        <ele>409</ele>
        <time>2020-01-15T10:24:07Z</time>
      </trkpt>
      <trkpt lat="43.25067" lon="5.69902">
        <ele>405</ele>
        <time>2020-01-15T10:24:13Z</time>
      </trkpt>
      <trkpt lat="43.25069" lon="5.69895">
        <ele>405</ele>
        <time>2020-01-15T10:24:19Z</time>
      </trkpt>
      <trkpt lat="43.25073" lon="5.69891">
        <ele>405</ele>
        <time>2020-01-15T10:24:25Z</time>
      </trkpt>
      <trkpt lat="43.25078" lon="5.69887">
        <ele>405</ele>
        <time>2020-01-15T10:24:31Z</time>
      </trkpt>
      <trkpt lat="43.25082" lon="5.69883">
        <ele>403</ele>
        <time>2020-01-15T10:24:35Z</time>
      </trkpt>
      <trkpt lat="43.25087" lon="5.69882">
        <ele>402</ele>
        <time>2020-01-15T10:24:39Z</time>
      </trkpt>
      <trkpt lat="43.25093" lon="5.69882">
        <ele>404</ele>
        <time>2020-01-15T10:24:45Z</time>
      </trkpt>
      <trkpt lat="43.25094" lon="5.69888">
        <ele>406</ele>
        <time>2020-01-15T10:24:53Z</time>
      </trkpt>
      <trkpt lat="43.25091" lon="5.69894">
        <ele>406</ele>
        <time>2020-01-15T10:25:01Z</time>
      </trkpt>
      <trkpt lat="43.2509" lon="5.69902">
        <ele>407</ele>
        <time>2020-01-15T10:25:07Z</time>
      </trkpt>
      <trkpt lat="43.25091" lon="5.69908">
        <ele>407</ele>
        <time>2020-01-15T10:25:13Z</time>
      </trkpt>
      <trkpt lat="43.25091" lon="5.69915">
        <ele>407</ele>
        <time>2020-01-15T10:25:23Z</time>
      </trkpt>
      <trkpt lat="43.25092" lon="5.69923">
        <ele>405</ele>
        <time>2020-01-15T10:25:33Z</time>
      </trkpt>
      <trkpt lat="43.25094" lon="5.69929">
        <ele>405</ele>
        <time>2020-01-15T10:25:39Z</time>
      </trkpt>
      <trkpt lat="43.25096" lon="5.69935">
        <ele>404</ele>
        <time>2020-01-15T10:25:45Z</time>
      </trkpt>
      <trkpt lat="43.25099" lon="5.69943">
        <ele>402</ele>
        <time>2020-01-15T10:25:53Z</time>
      </trkpt>
      <trkpt lat="43.25101" lon="5.69948">
        <ele>401</ele>
        <time>2020-01-15T10:25:59Z</time>
      </trkpt>
      <trkpt lat="43.25104" lon="5.69955">
        <ele>399</ele>
        <time>2020-01-15T10:26:07Z</time>
      </trkpt>
      <trkpt lat="43.25106" lon="5.69962">
        <ele>399</ele>
        <time>2020-01-15T10:26:13Z</time>
      </trkpt>
      <trkpt lat="43.25108" lon="5.69968">
        <ele>398</ele>
        <time>2020-01-15T10:26:19Z</time>
      </trkpt>
      <trkpt lat="43.25111" lon="5.69975">
        <ele>398</ele>
        <time>2020-01-15T10:26:25Z</time>
      </trkpt>
      <trkpt lat="43.25113" lon="5.69981">
        <ele>397</ele>
        <time>2020-01-15T10:26:31Z</time>
      </trkpt>
      <trkpt lat="43.25115" lon="5.69988">
        <ele>395</ele>
        <time>2020-01-15T10:26:39Z</time>
      </trkpt>
      <trkpt lat="43.25116" lon="5.69996">
        <ele>393</ele>
        <time>2020-01-15T10:26:47Z</time>
      </trkpt>
      <trkpt lat="43.25117" lon="5.70003">
        <ele>392</ele>
        <time>2020-01-15T10:26:53Z</time>
      </trkpt>
      <trkpt lat="43.25117" lon="5.7001">
        <ele>391</ele>
        <time>2020-01-15T10:26:59Z</time>
      </trkpt>
      <trkpt lat="43.25117" lon="5.70016">
        <ele>388</ele>
        <time>2020-01-15T10:27:05Z</time>
      </trkpt>
      <trkpt lat="43.25118" lon="5.70022">
        <ele>386</ele>
        <time>2020-01-15T10:27:11Z</time>
      </trkpt>
      <trkpt lat="43.2512" lon="5.7003">
        <ele>387</ele>
        <time>2020-01-15T10:27:17Z</time>
      </trkpt>
      <trkpt lat="43.25122" lon="5.70037">
        <ele>386</ele>
        <time>2020-01-15T10:27:23Z</time>
      </trkpt>
      <trkpt lat="43.25123" lon="5.70046">
        <ele>386</ele>
        <time>2020-01-15T10:27:29Z</time>
      </trkpt>
      <trkpt lat="43.25124" lon="5.70054">
        <ele>386</ele>
        <time>2020-01-15T10:27:35Z</time>
      </trkpt>
      <trkpt lat="43.25122" lon="5.7006">
        <ele>387</ele>
        <time>2020-01-15T10:27:39Z</time>
      </trkpt>
      <trkpt lat="43.2512" lon="5.70065">
        <ele>387</ele>
        <time>2020-01-15T10:27:43Z</time>
      </trkpt>
      <trkpt lat="43.25117" lon="5.70072">
        <ele>387</ele>
        <time>2020-01-15T10:27:49Z</time>
      </trkpt>
      <trkpt lat="43.25116" lon="5.7008">
        <ele>386</ele>
        <time>2020-01-15T10:27:55Z</time>
      </trkpt>
      <trkpt lat="43.25115" lon="5.70087">
        <ele>385</ele>
        <time>2020-01-15T10:28:01Z</time>
      </trkpt>
      <trkpt lat="43.25115" lon="5.70094">
        <ele>385</ele>
        <time>2020-01-15T10:28:07Z</time>
      </trkpt>
      <trkpt lat="43.25114" lon="5.70103">
        <ele>386</ele>
        <time>2020-01-15T10:28:13Z</time>
      </trkpt>
      <trkpt lat="43.25115" lon="5.7011">
        <ele>386</ele>
        <time>2020-01-15T10:28:19Z</time>
      </trkpt>
      <trkpt lat="43.25115" lon="5.70117">
        <ele>383</ele>
        <time>2020-01-15T10:28:25Z</time>
      </trkpt>
      <trkpt lat="43.25115" lon="5.70125">
        <ele>384</ele>
        <time>2020-01-15T10:28:31Z</time>
      </trkpt>
      <trkpt lat="43.25115" lon="5.70132">
        <ele>382</ele>
        <time>2020-01-15T10:28:37Z</time>
      </trkpt>
      <trkpt lat="43.25115" lon="5.70139">
        <ele>382</ele>
        <time>2020-01-15T10:28:43Z</time>
      </trkpt>
      <trkpt lat="43.25114" lon="5.70147">
        <ele>382</ele>
        <time>2020-01-15T10:28:51Z</time>
      </trkpt>
      <trkpt lat="43.25113" lon="5.70153">
        <ele>380</ele>
        <time>2020-01-15T10:28:59Z</time>
      </trkpt>
      <trkpt lat="43.25112" lon="5.70161">
        <ele>382</ele>
        <time>2020-01-15T10:29:05Z</time>
      </trkpt>
      <trkpt lat="43.25111" lon="5.70168">
        <ele>382</ele>
        <time>2020-01-15T10:29:09Z</time>
      </trkpt>
      <trkpt lat="43.25109" lon="5.70175">
        <ele>382</ele>
        <time>2020-01-15T10:29:13Z</time>
      </trkpt>
      <trkpt lat="43.25107" lon="5.70181">
        <ele>383</ele>
        <time>2020-01-15T10:29:17Z</time>
      </trkpt>
      <trkpt lat="43.25103" lon="5.70187">
        <ele>384</ele>
        <time>2020-01-15T10:29:23Z</time>
      </trkpt>
      <trkpt lat="43.25101" lon="5.70193">
        <ele>382</ele>
        <time>2020-01-15T10:29:29Z</time>
      </trkpt>
      <trkpt lat="43.251" lon="5.70201">
        <ele>381</ele>
        <time>2020-01-15T10:29:37Z</time>
      </trkpt>
      <trkpt lat="43.251" lon="5.70207">
        <ele>380</ele>
        <time>2020-01-15T10:29:43Z</time>
      </trkpt>
      <trkpt lat="43.251" lon="5.70215">
        <ele>380</ele>
        <time>2020-01-15T10:29:51Z</time>
      </trkpt>
      <trkpt lat="43.25099" lon="5.70222">
        <ele>380</ele>
        <time>2020-01-15T10:30:01Z</time>
      </trkpt>
      <trkpt lat="43.25098" lon="5.70229">
        <ele>381</ele>
        <time>2020-01-15T10:30:07Z</time>
      </trkpt>
      <trkpt lat="43.25096" lon="5.70236">
        <ele>381</ele>
        <time>2020-01-15T10:30:13Z</time>
      </trkpt>
      <trkpt lat="43.25095" lon="5.70243">
        <ele>382</ele>
        <time>2020-01-15T10:30:19Z</time>
      </trkpt>
      <trkpt lat="43.25096" lon="5.70251">
        <ele>383</ele>
        <time>2020-01-15T10:30:25Z</time>
      </trkpt>
      <trkpt lat="43.25095" lon="5.70259">
        <ele>381</ele>
        <time>2020-01-15T10:30:31Z</time>
      </trkpt>
      <trkpt lat="43.25095" lon="5.70267">
        <ele>381</ele>
        <time>2020-01-15T10:30:37Z</time>
      </trkpt>
      <trkpt lat="43.25096" lon="5.70274">
        <ele>381</ele>
        <time>2020-01-15T10:30:43Z</time>
      </trkpt>
      <trkpt lat="43.25098" lon="5.7028">
        <ele>384</ele>
        <time>2020-01-15T10:30:49Z</time>
      </trkpt>
      <trkpt lat="43.25101" lon="5.70284">
        <ele>384</ele>
        <time>2020-01-15T10:31:07Z</time>
      </trkpt>
      <trkpt lat="43.25105" lon="5.70281">
        <ele>384</ele>
        <time>2020-01-15T10:31:23Z</time>
      </trkpt>
      <trkpt lat="43.25108" lon="5.70275">
        <ele>385</ele>
        <time>2020-01-15T10:31:35Z</time>
      </trkpt>
      <trkpt lat="43.25113" lon="5.70279">
        <ele>385</ele>
        <time>2020-01-15T10:31:45Z</time>
      </trkpt>
      <trkpt lat="43.25115" lon="5.70287">
        <ele>385</ele>
        <time>2020-01-15T10:31:51Z</time>
      </trkpt>
      <trkpt lat="43.25116" lon="5.70293">
        <ele>383</ele>
        <time>2020-01-15T10:31:57Z</time>
      </trkpt>
      <trkpt lat="43.25114" lon="5.703">
        <ele>384</ele>
        <time>2020-01-15T10:32:03Z</time>
      </trkpt>
      <trkpt lat="43.25113" lon="5.70306">
        <ele>384</ele>
        <time>2020-01-15T10:32:09Z</time>
      </trkpt>
      <trkpt lat="43.25112" lon="5.70312">
        <ele>385</ele>
        <time>2020-01-15T10:32:15Z</time>
      </trkpt>
      <trkpt lat="43.25112" lon="5.7032">
        <ele>388</ele>
        <time>2020-01-15T10:32:21Z</time>
      </trkpt>
      <trkpt lat="43.25111" lon="5.70329">
        <ele>387</ele>
        <time>2020-01-15T10:32:29Z</time>
      </trkpt>
      <trkpt lat="43.25113" lon="5.70336">
        <ele>389</ele>
        <time>2020-01-15T10:32:35Z</time>
      </trkpt>
      <trkpt lat="43.25113" lon="5.70343">
        <ele>389</ele>
        <time>2020-01-15T10:32:41Z</time>
      </trkpt>
      <trkpt lat="43.25113" lon="5.7035">
        <ele>389</ele>
        <time>2020-01-15T10:32:47Z</time>
      </trkpt>
      <trkpt lat="43.25113" lon="5.70358">
        <ele>388</ele>
        <time>2020-01-15T10:32:53Z</time>
      </trkpt>
      <trkpt lat="43.25115" lon="5.70366">
        <ele>388</ele>
        <time>2020-01-15T10:32:59Z</time>
      </trkpt>
      <trkpt lat="43.25114" lon="5.70374">
        <ele>390</ele>
        <time>2020-01-15T10:33:05Z</time>
      </trkpt>
      <trkpt lat="43.25112" lon="5.70381">
        <ele>390</ele>
        <time>2020-01-15T10:33:11Z</time>
      </trkpt>
      <trkpt lat="43.2511" lon="5.70388">
        <ele>389</ele>
        <time>2020-01-15T10:33:17Z</time>
      </trkpt>
      <trkpt lat="43.2511" lon="5.70396">
        <ele>390</ele>
        <time>2020-01-15T10:33:23Z</time>
      </trkpt>
      <trkpt lat="43.25109" lon="5.70403">
        <ele>389</ele>
        <time>2020-01-15T10:33:29Z</time>
      </trkpt>
      <trkpt lat="43.25111" lon="5.7041">
        <ele>389</ele>
        <time>2020-01-15T10:33:35Z</time>
      </trkpt>
      <trkpt lat="43.25112" lon="5.70418">
        <ele>390</ele>
        <time>2020-01-15T10:33:41Z</time>
      </trkpt>
      <trkpt lat="43.25111" lon="5.70426">
        <ele>389</ele>
        <time>2020-01-15T10:33:47Z</time>
      </trkpt>
      <trkpt lat="43.25111" lon="5.70432">
        <ele>387</ele>
        <time>2020-01-15T10:33:53Z</time>
      </trkpt>
      <trkpt lat="43.25111" lon="5.7044">
        <ele>387</ele>
        <time>2020-01-15T10:33:59Z</time>
      </trkpt>
      <trkpt lat="43.25112" lon="5.70446">
        <ele>391</ele>
        <time>2020-01-15T10:34:05Z</time>
      </trkpt>
      <trkpt lat="43.25113" lon="5.70452">
        <ele>393</ele>
        <time>2020-01-15T10:34:13Z</time>
      </trkpt>
      <trkpt lat="43.25114" lon="5.7046">
        <ele>393</ele>
        <time>2020-01-15T10:34:21Z</time>
      </trkpt>
      <trkpt lat="43.25116" lon="5.70468">
        <ele>392</ele>
        <time>2020-01-15T10:34:29Z</time>
      </trkpt>
      <trkpt lat="43.25118" lon="5.70474">
        <ele>393</ele>
        <time>2020-01-15T10:34:35Z</time>
      </trkpt>
      <trkpt lat="43.2512" lon="5.70482">
        <ele>392</ele>
        <time>2020-01-15T10:34:43Z</time>
      </trkpt>
      <trkpt lat="43.25122" lon="5.70487">
        <ele>393</ele>
        <time>2020-01-15T10:34:51Z</time>
      </trkpt>
      <trkpt lat="43.25123" lon="5.70495">
        <ele>394</ele>
        <time>2020-01-15T10:34:57Z</time>
      </trkpt>
      <trkpt lat="43.25123" lon="5.70502">
        <ele>393</ele>
        <time>2020-01-15T10:35:05Z</time>
      </trkpt>
      <trkpt lat="43.25122" lon="5.7051">
        <ele>393</ele>
        <time>2020-01-15T10:35:13Z</time>
      </trkpt>
      <trkpt lat="43.25123" lon="5.70518">
        <ele>393</ele>
        <time>2020-01-15T10:35:19Z</time>
      </trkpt>
      <trkpt lat="43.25122" lon="5.70526">
        <ele>392</ele>
        <time>2020-01-15T10:35:25Z</time>
      </trkpt>
      <trkpt lat="43.25122" lon="5.70533">
        <ele>391</ele>
        <time>2020-01-15T10:35:31Z</time>
      </trkpt>
      <trkpt lat="43.25125" lon="5.7054">
        <ele>396</ele>
        <time>2020-01-15T10:35:37Z</time>
      </trkpt>
      <trkpt lat="43.25126" lon="5.70546">
        <ele>396</ele>
        <time>2020-01-15T10:35:43Z</time>
      </trkpt>
      <trkpt lat="43.25128" lon="5.70552">
        <ele>395</ele>
        <time>2020-01-15T10:35:49Z</time>
      </trkpt>
      <trkpt lat="43.25132" lon="5.70556">
        <ele>394</ele>
        <time>2020-01-15T10:35:59Z</time>
      </trkpt>
      <trkpt lat="43.25137" lon="5.70559">
        <ele>396</ele>
        <time>2020-01-15T10:36:07Z</time>
      </trkpt>
      <trkpt lat="43.25142" lon="5.70563">
        <ele>398</ele>
        <time>2020-01-15T10:36:13Z</time>
      </trkpt>
      <trkpt lat="43.25147" lon="5.70567">
        <ele>400</ele>
        <time>2020-01-15T10:36:21Z</time>
      </trkpt>
      <trkpt lat="43.25147" lon="5.70574">
        <ele>401</ele>
        <time>2020-01-15T10:36:27Z</time>
      </trkpt>
      <trkpt lat="43.25144" lon="5.70581">
        <ele>399</ele>
        <time>2020-01-15T10:36:33Z</time>
      </trkpt>
      <trkpt lat="43.25144" lon="5.70587">
        <ele>400</ele>
        <time>2020-01-15T10:36:41Z</time>
      </trkpt>
      <trkpt lat="43.25142" lon="5.70593">
        <ele>398</ele>
        <time>2020-01-15T10:36:47Z</time>
      </trkpt>
      <trkpt lat="43.2514" lon="5.70599">
        <ele>394</ele>
        <time>2020-01-15T10:36:53Z</time>
      </trkpt>
      <trkpt lat="43.2514" lon="5.70606">
        <ele>398</ele>
        <time>2020-01-15T10:37:03Z</time>
      </trkpt>
      <trkpt lat="43.25143" lon="5.70612">
        <ele>399</ele>
        <time>2020-01-15T10:37:11Z</time>
      </trkpt>
      <trkpt lat="43.25144" lon="5.70619">
        <ele>398</ele>
        <time>2020-01-15T10:37:17Z</time>
      </trkpt>
      <trkpt lat="43.25147" lon="5.70626">
        <ele>399</ele>
        <time>2020-01-15T10:37:23Z</time>
      </trkpt>
      <trkpt lat="43.2515" lon="5.70631">
        <ele>401</ele>
        <time>2020-01-15T10:37:27Z</time>
      </trkpt>
      <trkpt lat="43.25149" lon="5.70638">
        <ele>398</ele>
        <time>2020-01-15T10:37:33Z</time>
      </trkpt>
      <trkpt lat="43.25148" lon="5.70646">
        <ele>398</ele>
        <time>2020-01-15T10:37:45Z</time>
      </trkpt>
      <trkpt lat="43.25147" lon="5.70652">
        <ele>399</ele>
        <time>2020-01-15T10:37:49Z</time>
      </trkpt>
      <trkpt lat="43.25146" lon="5.70658">
        <ele>397</ele>
        <time>2020-01-15T10:37:53Z</time>
      </trkpt>
      <trkpt lat="43.25145" lon="5.70666">
        <ele>399</ele>
        <time>2020-01-15T10:37:59Z</time>
      </trkpt>
      <trkpt lat="43.25144" lon="5.70675">
        <ele>401</ele>
        <time>2020-01-15T10:38:05Z</time>
      </trkpt>
      <trkpt lat="43.25145" lon="5.70682">
        <ele>402</ele>
        <time>2020-01-15T10:38:11Z</time>
      </trkpt>
      <trkpt lat="43.25145" lon="5.7069">
        <ele>407</ele>
        <time>2020-01-15T10:38:19Z</time>
      </trkpt>
      <trkpt lat="43.25144" lon="5.70697">
        <ele>408</ele>
        <time>2020-01-15T10:39:01Z</time>
      </trkpt>
      <trkpt lat="43.25142" lon="5.70705">
        <ele>410</ele>
        <time>2020-01-15T10:39:13Z</time>
      </trkpt>
      <trkpt lat="43.25138" lon="5.70709">
        <ele>408</ele>
        <time>2020-01-15T10:39:25Z</time>
      </trkpt>
      <trkpt lat="43.25133" lon="5.70712">
        <ele>406</ele>
        <time>2020-01-15T10:39:31Z</time>
      </trkpt>
      <trkpt lat="43.25128" lon="5.70715">
        <ele>404</ele>
        <time>2020-01-15T10:39:39Z</time>
      </trkpt>
      <trkpt lat="43.25124" lon="5.70719">
        <ele>407</ele>
        <time>2020-01-15T10:39:55Z</time>
      </trkpt>
      <trkpt lat="43.25117" lon="5.70717">
        <ele>409</ele>
        <time>2020-01-15T10:40:15Z</time>
      </trkpt>
      <trkpt lat="43.2511" lon="5.70716">
        <ele>408</ele>
        <time>2020-01-15T10:40:21Z</time>
      </trkpt>
      <trkpt lat="43.25105" lon="5.70718">
        <ele>408</ele>
        <time>2020-01-15T10:40:29Z</time>
      </trkpt>
      <trkpt lat="43.25104" lon="5.70724">
        <ele>407</ele>
        <time>2020-01-15T10:40:35Z</time>
      </trkpt>
      <trkpt lat="43.25103" lon="5.70731">
        <ele>407</ele>
        <time>2020-01-15T10:40:43Z</time>
      </trkpt>
      <trkpt lat="43.25101" lon="5.70738">
        <ele>408</ele>
        <time>2020-01-15T10:40:51Z</time>
      </trkpt>
      <trkpt lat="43.25099" lon="5.70745">
        <ele>411</ele>
        <time>2020-01-15T10:41:01Z</time>
      </trkpt>
      <trkpt lat="43.25096" lon="5.70752">
        <ele>416</ele>
        <time>2020-01-15T10:41:09Z</time>
      </trkpt>
      <trkpt lat="43.25098" lon="5.70758">
        <ele>417</ele>
        <time>2020-01-15T10:41:19Z</time>
      </trkpt>
      <trkpt lat="43.25098" lon="5.70764">
        <ele>417</ele>
        <time>2020-01-15T10:41:41Z</time>
      </trkpt>
      <trkpt lat="43.25095" lon="5.70769">
        <ele>420</ele>
        <time>2020-01-15T10:41:51Z</time>
      </trkpt>
      <trkpt lat="43.25093" lon="5.70776">
        <ele>421</ele>
        <time>2020-01-15T10:42:03Z</time>
      </trkpt>
      <trkpt lat="43.2509" lon="5.70782">
        <ele>422</ele>
        <time>2020-01-15T10:42:15Z</time>
      </trkpt>
      <trkpt lat="43.25089" lon="5.70788">
        <ele>423</ele>
        <time>2020-01-15T10:42:21Z</time>
      </trkpt>
      <trkpt lat="43.25087" lon="5.70794">
        <ele>426</ele>
        <time>2020-01-15T10:42:29Z</time>
      </trkpt>
      <trkpt lat="43.25085" lon="5.708">
        <ele>425</ele>
        <time>2020-01-15T10:42:39Z</time>
      </trkpt>
      <trkpt lat="43.25085" lon="5.70806">
        <ele>426</ele>
        <time>2020-01-15T10:42:57Z</time>
      </trkpt>
      <trkpt lat="43.25092" lon="5.70805">
        <ele>424</ele>
        <time>2020-01-15T10:43:41Z</time>
      </trkpt>
      <trkpt lat="43.25097" lon="5.70804">
        <ele>426</ele>
        <time>2020-01-15T10:43:47Z</time>
      </trkpt>
      <trkpt lat="43.25096" lon="5.7081">
        <ele>428</ele>
        <time>2020-01-15T10:44:27Z</time>
      </trkpt>
      <trkpt lat="43.25094" lon="5.70817">
        <ele>434</ele>
        <time>2020-01-15T10:45:59Z</time>
      </trkpt>
      <trkpt lat="43.25093" lon="5.7081">
        <ele>434</ele>
        <time>2020-01-15T10:46:23Z</time>
      </trkpt>
      <trkpt lat="43.25097" lon="5.70814">
        <ele>434</ele>
        <time>2020-01-15T10:47:31Z</time>
      </trkpt>
      <trkpt lat="43.25103" lon="5.70815">
        <ele>430</ele>
        <time>2020-01-15T10:47:39Z</time>
      </trkpt>
      <trkpt lat="43.25109" lon="5.70814">
        <ele>431</ele>
        <time>2020-01-15T10:47:45Z</time>
      </trkpt>
      <trkpt lat="43.25116" lon="5.70813">
        <ele>427</ele>
        <time>2020-01-15T10:47:51Z</time>
      </trkpt>
      <trkpt lat="43.25122" lon="5.70813">
        <ele>424</ele>
        <time>2020-01-15T10:47:57Z</time>
      </trkpt>
      <trkpt lat="43.25126" lon="5.70815">
        <ele>421</ele>
        <time>2020-01-15T10:48:05Z</time>
      </trkpt>
      <trkpt lat="43.25132" lon="5.70818">
        <ele>425</ele>
        <time>2020-01-15T10:48:27Z</time>
      </trkpt>
      <trkpt lat="43.25137" lon="5.70819">
        <ele>422</ele>
        <time>2020-01-15T10:48:33Z</time>
      </trkpt>
      <trkpt lat="43.25142" lon="5.7082">
        <ele>425</ele>
        <time>2020-01-15T10:48:41Z</time>
      </trkpt>
      <trkpt lat="43.25148" lon="5.70823">
        <ele>424</ele>
        <time>2020-01-15T10:48:49Z</time>
      </trkpt>
      <trkpt lat="43.25155" lon="5.70824">
        <ele>425</ele>
        <time>2020-01-15T10:48:55Z</time>
      </trkpt>
      <trkpt lat="43.2516" lon="5.70825">
        <ele>426</ele>
        <time>2020-01-15T10:49:01Z</time>
      </trkpt>
      <trkpt lat="43.25166" lon="5.70826">
        <ele>426</ele>
        <time>2020-01-15T10:49:07Z</time>
      </trkpt>
      <trkpt lat="43.25173" lon="5.70827">
        <ele>427</ele>
        <time>2020-01-15T10:49:13Z</time>
      </trkpt>
      <trkpt lat="43.25178" lon="5.70828">
        <ele>427</ele>
        <time>2020-01-15T10:49:19Z</time>
      </trkpt>
      <trkpt lat="43.25183" lon="5.70829">
        <ele>431</ele>
        <time>2020-01-15T10:49:25Z</time>
      </trkpt>
      <trkpt lat="43.25189" lon="5.70829">
        <ele>431</ele>
        <time>2020-01-15T10:49:31Z</time>
      </trkpt>
      <trkpt lat="43.25195" lon="5.7083">
        <ele>431</ele>
        <time>2020-01-15T10:49:37Z</time>
      </trkpt>
      <trkpt lat="43.25201" lon="5.7083">
        <ele>432</ele>
        <time>2020-01-15T10:49:43Z</time>
      </trkpt>
      <trkpt lat="43.25207" lon="5.70833">
        <ele>430</ele>
        <time>2020-01-15T10:49:49Z</time>
      </trkpt>
      <trkpt lat="43.25213" lon="5.70835">
        <ele>430</ele>
        <time>2020-01-15T10:49:55Z</time>
      </trkpt>
      <trkpt lat="43.25218" lon="5.70837">
        <ele>429</ele>
        <time>2020-01-15T10:50:01Z</time>
      </trkpt>
      <trkpt lat="43.25224" lon="5.70838">
        <ele>429</ele>
        <time>2020-01-15T10:50:07Z</time>
      </trkpt>
      <trkpt lat="43.2523" lon="5.70838">
        <ele>434</ele>
        <time>2020-01-15T10:50:13Z</time>
      </trkpt>
      <trkpt lat="43.25235" lon="5.70838">
        <ele>435</ele>
        <time>2020-01-15T10:50:17Z</time>
      </trkpt>
      <trkpt lat="43.25241" lon="5.70838">
        <ele>435</ele>
        <time>2020-01-15T10:50:23Z</time>
      </trkpt>
      <trkpt lat="43.25248" lon="5.70838">
        <ele>435</ele>
        <time>2020-01-15T10:50:29Z</time>
      </trkpt>
      <trkpt lat="43.25252" lon="5.70839">
        <ele>435</ele>
        <time>2020-01-15T10:50:33Z</time>
      </trkpt>
      <trkpt lat="43.25259" lon="5.7084">
        <ele>436</ele>
        <time>2020-01-15T10:50:39Z</time>
      </trkpt>
      <trkpt lat="43.25265" lon="5.70841">
        <ele>438</ele>
        <time>2020-01-15T10:50:45Z</time>
      </trkpt>
      <trkpt lat="43.25271" lon="5.70841">
        <ele>439</ele>
        <time>2020-01-15T10:50:51Z</time>
      </trkpt>
      <trkpt lat="43.25277" lon="5.70842">
        <ele>441</ele>
        <time>2020-01-15T10:50:57Z</time>
      </trkpt>
      <trkpt lat="43.25284" lon="5.70841">
        <ele>443</ele>
        <time>2020-01-15T10:51:03Z</time>
      </trkpt>
      <trkpt lat="43.2529" lon="5.70842">
        <ele>444</ele>
        <time>2020-01-15T10:51:09Z</time>
      </trkpt>
      <trkpt lat="43.25295" lon="5.70843">
        <ele>444</ele>
        <time>2020-01-15T10:51:13Z</time>
      </trkpt>
      <trkpt lat="43.253" lon="5.70842">
        <ele>443</ele>
        <time>2020-01-15T10:51:17Z</time>
      </trkpt>
      <trkpt lat="43.25305" lon="5.70842">
        <ele>441</ele>
        <time>2020-01-15T10:51:21Z</time>
      </trkpt>
      <trkpt lat="43.25309" lon="5.70838">
        <ele>443</ele>
        <time>2020-01-15T10:51:27Z</time>
      </trkpt>
      <trkpt lat="43.25308" lon="5.7083">
        <ele>444</ele>
        <time>2020-01-15T10:51:33Z</time>
      </trkpt>
      <trkpt lat="43.25306" lon="5.70822">
        <ele>442</ele>
        <time>2020-01-15T10:51:39Z</time>
      </trkpt>
      <trkpt lat="43.25304" lon="5.70814">
        <ele>441</ele>
        <time>2020-01-15T10:51:45Z</time>
      </trkpt>
      <trkpt lat="43.25303" lon="5.70807">
        <ele>441</ele>
        <time>2020-01-15T10:51:51Z</time>
      </trkpt>
      <trkpt lat="43.25303" lon="5.70799">
        <ele>441</ele>
        <time>2020-01-15T10:51:57Z</time>
      </trkpt>
      <trkpt lat="43.25303" lon="5.7079">
        <ele>442</ele>
        <time>2020-01-15T10:52:03Z</time>
      </trkpt>
      <trkpt lat="43.25304" lon="5.70781">
        <ele>442</ele>
        <time>2020-01-15T10:52:09Z</time>
      </trkpt>
      <trkpt lat="43.25305" lon="5.70774">
        <ele>442</ele>
        <time>2020-01-15T10:52:13Z</time>
      </trkpt>
      <trkpt lat="43.25306" lon="5.70768">
        <ele>441</ele>
        <time>2020-01-15T10:52:17Z</time>
      </trkpt>
      <trkpt lat="43.25307" lon="5.7076">
        <ele>440</ele>
        <time>2020-01-15T10:52:23Z</time>
      </trkpt>
      <trkpt lat="43.25309" lon="5.70751">
        <ele>439</ele>
        <time>2020-01-15T10:52:29Z</time>
      </trkpt>
      <trkpt lat="43.25311" lon="5.70745">
        <ele>439</ele>
        <time>2020-01-15T10:52:33Z</time>
      </trkpt>
      <trkpt lat="43.25313" lon="5.70739">
        <ele>438</ele>
        <time>2020-01-15T10:52:37Z</time>
      </trkpt>
      <trkpt lat="43.25315" lon="5.70733">
        <ele>439</ele>
        <time>2020-01-15T10:52:41Z</time>
      </trkpt>
      <trkpt lat="43.25318" lon="5.70728">
        <ele>437</ele>
        <time>2020-01-15T10:52:45Z</time>
      </trkpt>
      <trkpt lat="43.25322" lon="5.70723">
        <ele>436</ele>
        <time>2020-01-15T10:52:51Z</time>
      </trkpt>
      <trkpt lat="43.25324" lon="5.70717">
        <ele>437</ele>
        <time>2020-01-15T10:52:55Z</time>
      </trkpt>
      <trkpt lat="43.25327" lon="5.70711">
        <ele>435</ele>
        <time>2020-01-15T10:53:01Z</time>
      </trkpt>
      <trkpt lat="43.25331" lon="5.70705">
        <ele>433</ele>
        <time>2020-01-15T10:53:07Z</time>
      </trkpt>
      <trkpt lat="43.25332" lon="5.70698">
        <ele>432</ele>
        <time>2020-01-15T10:53:11Z</time>
      </trkpt>
      <trkpt lat="43.25331" lon="5.7069">
        <ele>430</ele>
        <time>2020-01-15T10:53:17Z</time>
      </trkpt>
      <trkpt lat="43.25328" lon="5.70684">
        <ele>434</ele>
        <time>2020-01-15T10:53:21Z</time>
      </trkpt>
      <trkpt lat="43.25324" lon="5.70676">
        <ele>437</ele>
        <time>2020-01-15T10:53:25Z</time>
      </trkpt>
      <trkpt lat="43.25321" lon="5.70672">
        <ele>437</ele>
        <time>2020-01-15T10:53:29Z</time>
      </trkpt>
      <trkpt lat="43.25316" lon="5.70666">
        <ele>439</ele>
        <time>2020-01-15T10:53:35Z</time>
      </trkpt>
      <trkpt lat="43.25312" lon="5.70659">
        <ele>441</ele>
        <time>2020-01-15T10:53:41Z</time>
      </trkpt>
      <trkpt lat="43.25309" lon="5.70654">
        <ele>439</ele>
        <time>2020-01-15T10:53:47Z</time>
      </trkpt>
      <trkpt lat="43.25309" lon="5.70647">
        <ele>439</ele>
        <time>2020-01-15T10:54:13Z</time>
      </trkpt>
      <trkpt lat="43.25307" lon="5.70639">
        <ele>439</ele>
        <time>2020-01-15T10:54:19Z</time>
      </trkpt>
      <trkpt lat="43.25307" lon="5.70632">
        <ele>439</ele>
        <time>2020-01-15T10:54:25Z</time>
      </trkpt>
      <trkpt lat="43.25312" lon="5.70627">
        <ele>437</ele>
        <time>2020-01-15T10:54:31Z</time>
      </trkpt>
      <trkpt lat="43.25317" lon="5.70625">
        <ele>437</ele>
        <time>2020-01-15T10:54:35Z</time>
      </trkpt>
      <trkpt lat="43.25322" lon="5.70624">
        <ele>435</ele>
        <time>2020-01-15T10:54:49Z</time>
      </trkpt>
      <trkpt lat="43.25326" lon="5.70621">
        <ele>436</ele>
        <time>2020-01-15T10:54:55Z</time>
      </trkpt>
      <trkpt lat="43.25332" lon="5.70619">
        <ele>437</ele>
        <time>2020-01-15T10:55:01Z</time>
      </trkpt>
      <trkpt lat="43.25337" lon="5.70618">
        <ele>437</ele>
        <time>2020-01-15T10:55:07Z</time>
      </trkpt>
      <trkpt lat="43.25343" lon="5.70617">
        <ele>439</ele>
        <time>2020-01-15T10:55:15Z</time>
      </trkpt>
      <trkpt lat="43.25349" lon="5.70619">
        <ele>439</ele>
        <time>2020-01-15T10:55:21Z</time>
      </trkpt>
      <trkpt lat="43.25354" lon="5.70624">
        <ele>439</ele>
        <time>2020-01-15T10:55:27Z</time>
      </trkpt>
      <trkpt lat="43.25359" lon="5.70626">
        <ele>439</ele>
        <time>2020-01-15T10:55:33Z</time>
      </trkpt>
      <trkpt lat="43.25363" lon="5.7063">
        <ele>440</ele>
        <time>2020-01-15T10:55:39Z</time>
      </trkpt>
      <trkpt lat="43.25367" lon="5.70634">
        <ele>440</ele>
        <time>2020-01-15T10:55:45Z</time>
      </trkpt>
      <trkpt lat="43.25371" lon="5.70638">
        <ele>440</ele>
        <time>2020-01-15T10:55:51Z</time>
      </trkpt>
      <trkpt lat="43.25376" lon="5.70642">
        <ele>443</ele>
        <time>2020-01-15T10:55:57Z</time>
      </trkpt>
      <trkpt lat="43.25382" lon="5.70646">
        <ele>446</ele>
        <time>2020-01-15T10:56:03Z</time>
      </trkpt>
      <trkpt lat="43.25386" lon="5.7065">
        <ele>446</ele>
        <time>2020-01-15T10:56:09Z</time>
      </trkpt>
      <trkpt lat="43.25391" lon="5.70653">
        <ele>447</ele>
        <time>2020-01-15T10:56:15Z</time>
      </trkpt>
      <trkpt lat="43.25396" lon="5.70656">
        <ele>448</ele>
        <time>2020-01-15T10:56:21Z</time>
      </trkpt>
      <trkpt lat="43.25401" lon="5.70661">
        <ele>448</ele>
        <time>2020-01-15T10:56:27Z</time>
      </trkpt>
      <trkpt lat="43.25407" lon="5.70664">
        <ele>450</ele>
        <time>2020-01-15T10:56:33Z</time>
      </trkpt>
      <trkpt lat="43.25411" lon="5.70668">
        <ele>449</ele>
        <time>2020-01-15T10:56:39Z</time>
      </trkpt>
      <trkpt lat="43.25415" lon="5.70671">
        <ele>449</ele>
        <time>2020-01-15T10:56:45Z</time>
      </trkpt>
      <trkpt lat="43.25419" lon="5.70676">
        <ele>450</ele>
        <time>2020-01-15T10:56:51Z</time>
      </trkpt>
      <trkpt lat="43.25422" lon="5.70681">
        <ele>453</ele>
        <time>2020-01-15T10:56:57Z</time>
      </trkpt>
      <trkpt lat="43.25426" lon="5.70684">
        <ele>451</ele>
        <time>2020-01-15T10:57:03Z</time>
      </trkpt>
      <trkpt lat="43.25432" lon="5.70689">
        <ele>451</ele>
        <time>2020-01-15T10:57:09Z</time>
      </trkpt>
      <trkpt lat="43.25437" lon="5.70694">
        <ele>449</ele>
        <time>2020-01-15T10:57:15Z</time>
      </trkpt>
      <trkpt lat="43.2544" lon="5.70698">
        <ele>453</ele>
        <time>2020-01-15T10:57:19Z</time>
      </trkpt>
      <trkpt lat="43.25445" lon="5.70703">
        <ele>453</ele>
        <time>2020-01-15T10:57:25Z</time>
      </trkpt>
      <trkpt lat="43.2545" lon="5.70708">
        <ele>454</ele>
        <time>2020-01-15T10:57:31Z</time>
      </trkpt>
      <trkpt lat="43.25455" lon="5.70712">
        <ele>453</ele>
        <time>2020-01-15T10:57:37Z</time>
      </trkpt>
      <trkpt lat="43.25459" lon="5.70716">
        <ele>456</ele>
        <time>2020-01-15T10:57:43Z</time>
      </trkpt>
      <trkpt lat="43.25465" lon="5.70721">
        <ele>458</ele>
        <time>2020-01-15T10:57:49Z</time>
      </trkpt>
      <trkpt lat="43.25469" lon="5.70725">
        <ele>459</ele>
        <time>2020-01-15T10:57:53Z</time>
      </trkpt>
      <trkpt lat="43.25472" lon="5.70729">
        <ele>460</ele>
        <time>2020-01-15T10:57:59Z</time>
      </trkpt>
      <trkpt lat="43.25476" lon="5.70733">
        <ele>461</ele>
        <time>2020-01-15T10:58:07Z</time>
      </trkpt>
      <trkpt lat="43.2548" lon="5.70737">
        <ele>463</ele>
        <time>2020-01-15T10:58:13Z</time>
      </trkpt>
      <trkpt lat="43.25483" lon="5.70743">
        <ele>463</ele>
        <time>2020-01-15T10:58:21Z</time>
      </trkpt>
      <trkpt lat="43.25486" lon="5.7075">
        <ele>463</ele>
        <time>2020-01-15T10:58:29Z</time>
      </trkpt>
      <trkpt lat="43.2549" lon="5.70755">
        <ele>465</ele>
        <time>2020-01-15T10:58:35Z</time>
      </trkpt>
      <trkpt lat="43.25494" lon="5.7076">
        <ele>466</ele>
        <time>2020-01-15T10:58:41Z</time>
      </trkpt>
      <trkpt lat="43.25497" lon="5.70765">
        <ele>467</ele>
        <time>2020-01-15T10:58:47Z</time>
      </trkpt>
      <trkpt lat="43.25502" lon="5.7077">
        <ele>468</ele>
        <time>2020-01-15T10:58:53Z</time>
      </trkpt>
      <trkpt lat="43.25507" lon="5.70775">
        <ele>467</ele>
        <time>2020-01-15T10:58:59Z</time>
      </trkpt>
      <trkpt lat="43.2551" lon="5.70782">
        <ele>467</ele>
        <time>2020-01-15T10:59:05Z</time>
      </trkpt>
      <trkpt lat="43.25514" lon="5.70788">
        <ele>470</ele>
        <time>2020-01-15T10:59:11Z</time>
      </trkpt>
      <trkpt lat="43.25517" lon="5.70794">
        <ele>468</ele>
        <time>2020-01-15T10:59:17Z</time>
      </trkpt>
      <trkpt lat="43.25517" lon="5.70801">
        <ele>469</ele>
        <time>2020-01-15T10:59:23Z</time>
      </trkpt>
      <trkpt lat="43.25519" lon="5.70808">
        <ele>469</ele>
        <time>2020-01-15T10:59:29Z</time>
      </trkpt>
      <trkpt lat="43.25521" lon="5.70814">
        <ele>471</ele>
        <time>2020-01-15T10:59:35Z</time>
      </trkpt>
      <trkpt lat="43.25524" lon="5.70821">
        <ele>473</ele>
        <time>2020-01-15T10:59:41Z</time>
      </trkpt>
      <trkpt lat="43.25528" lon="5.70827">
        <ele>472</ele>
        <time>2020-01-15T10:59:47Z</time>
      </trkpt>
      <trkpt lat="43.25532" lon="5.70834">
        <ele>472</ele>
        <time>2020-01-15T10:59:53Z</time>
      </trkpt>
      <trkpt lat="43.25535" lon="5.70841">
        <ele>474</ele>
        <time>2020-01-15T10:59:59Z</time>
      </trkpt>
      <trkpt lat="43.25538" lon="5.70848">
        <ele>472</ele>
        <time>2020-01-15T11:00:05Z</time>
      </trkpt>
      <trkpt lat="43.25538" lon="5.70854">
        <ele>472</ele>
        <time>2020-01-15T11:00:09Z</time>
      </trkpt>
      <trkpt lat="43.2554" lon="5.70862">
        <ele>474</ele>
        <time>2020-01-15T11:00:15Z</time>
      </trkpt>
      <trkpt lat="43.25544" lon="5.7087">
        <ele>474</ele>
        <time>2020-01-15T11:00:21Z</time>
      </trkpt>
      <trkpt lat="43.25547" lon="5.70877">
        <ele>473</ele>
        <time>2020-01-15T11:00:27Z</time>
      </trkpt>
      <trkpt lat="43.2555" lon="5.70885">
        <ele>472</ele>
        <time>2020-01-15T11:00:33Z</time>
      </trkpt>
      <trkpt lat="43.25552" lon="5.70893">
        <ele>473</ele>
        <time>2020-01-15T11:00:39Z</time>
      </trkpt>
      <trkpt lat="43.25553" lon="5.70899">
        <ele>473</ele>
        <time>2020-01-15T11:00:43Z</time>
      </trkpt>
      <trkpt lat="43.25556" lon="5.70907">
        <ele>473</ele>
        <time>2020-01-15T11:00:49Z</time>
      </trkpt>
      <trkpt lat="43.25557" lon="5.70915">
        <ele>473</ele>
        <time>2020-01-15T11:00:55Z</time>
      </trkpt>
      <trkpt lat="43.25558" lon="5.70921">
        <ele>474</ele>
        <time>2020-01-15T11:00:59Z</time>
      </trkpt>
      <trkpt lat="43.25558" lon="5.70927">
        <ele>472</ele>
        <time>2020-01-15T11:01:03Z</time>
      </trkpt>
      <trkpt lat="43.25557" lon="5.70933">
        <ele>471</ele>
        <time>2020-01-15T11:01:07Z</time>
      </trkpt>
      <trkpt lat="43.25556" lon="5.7094">
        <ele>470</ele>
        <time>2020-01-15T11:01:11Z</time>
      </trkpt>
      <trkpt lat="43.25556" lon="5.70946">
        <ele>470</ele>
        <time>2020-01-15T11:01:15Z</time>
      </trkpt>
      <trkpt lat="43.25555" lon="5.70955">
        <ele>470</ele>
        <time>2020-01-15T11:01:21Z</time>
      </trkpt>
      <trkpt lat="43.25553" lon="5.70961">
        <ele>471</ele>
        <time>2020-01-15T11:01:25Z</time>
      </trkpt>
      <trkpt lat="43.2555" lon="5.70966">
        <ele>471</ele>
        <time>2020-01-15T11:01:29Z</time>
      </trkpt>
      <trkpt lat="43.25546" lon="5.70972">
        <ele>470</ele>
        <time>2020-01-15T11:01:35Z</time>
      </trkpt>
      <trkpt lat="43.25544" lon="5.70979">
        <ele>470</ele>
        <time>2020-01-15T11:01:41Z</time>
      </trkpt>
      <trkpt lat="43.25541" lon="5.70986">
        <ele>469</ele>
        <time>2020-01-15T11:01:47Z</time>
      </trkpt>
      <trkpt lat="43.2554" lon="5.70994">
        <ele>469</ele>
        <time>2020-01-15T11:01:53Z</time>
      </trkpt>
      <trkpt lat="43.25537" lon="5.71002">
        <ele>468</ele>
        <time>2020-01-15T11:01:59Z</time>
      </trkpt>
      <trkpt lat="43.25535" lon="5.71009">
        <ele>470</ele>
        <time>2020-01-15T11:02:05Z</time>
      </trkpt>
      <trkpt lat="43.25532" lon="5.71015">
        <ele>470</ele>
        <time>2020-01-15T11:02:09Z</time>
      </trkpt>
      <trkpt lat="43.25529" lon="5.71023">
        <ele>471</ele>
        <time>2020-01-15T11:02:15Z</time>
      </trkpt>
      <trkpt lat="43.25527" lon="5.71029">
        <ele>475</ele>
        <time>2020-01-15T11:02:19Z</time>
      </trkpt>
      <trkpt lat="43.25524" lon="5.71036">
        <ele>475</ele>
        <time>2020-01-15T11:02:25Z</time>
      </trkpt>
      <trkpt lat="43.2552" lon="5.71041">
        <ele>477</ele>
        <time>2020-01-15T11:02:29Z</time>
      </trkpt>
      <trkpt lat="43.25517" lon="5.71046">
        <ele>480</ele>
        <time>2020-01-15T11:02:33Z</time>
      </trkpt>
      <trkpt lat="43.25512" lon="5.71051">
        <ele>480</ele>
        <time>2020-01-15T11:02:39Z</time>
      </trkpt>
      <trkpt lat="43.25508" lon="5.71057">
        <ele>482</ele>
        <time>2020-01-15T11:02:45Z</time>
      </trkpt>
      <trkpt lat="43.25504" lon="5.71061">
        <ele>481</ele>
        <time>2020-01-15T11:02:49Z</time>
      </trkpt>
      <trkpt lat="43.25499" lon="5.71066">
        <ele>482</ele>
        <time>2020-01-15T11:02:55Z</time>
      </trkpt>
      <trkpt lat="43.25494" lon="5.71072">
        <ele>482</ele>
        <time>2020-01-15T11:03:01Z</time>
      </trkpt>
      <trkpt lat="43.25489" lon="5.71077">
        <ele>482</ele>
        <time>2020-01-15T11:03:07Z</time>
      </trkpt>
      <trkpt lat="43.25484" lon="5.71082">
        <ele>483</ele>
        <time>2020-01-15T11:03:13Z</time>
      </trkpt>
      <trkpt lat="43.25481" lon="5.71088">
        <ele>482</ele>
        <time>2020-01-15T11:03:19Z</time>
      </trkpt>
      <trkpt lat="43.25477" lon="5.71092">
        <ele>483</ele>
        <time>2020-01-15T11:03:25Z</time>
      </trkpt>
      <trkpt lat="43.25472" lon="5.71096">
        <ele>485</ele>
        <time>2020-01-15T11:03:31Z</time>
      </trkpt>
      <trkpt lat="43.25468" lon="5.71102">
        <ele>486</ele>
        <time>2020-01-15T11:03:37Z</time>
      </trkpt>
      <trkpt lat="43.25466" lon="5.71109">
        <ele>487</ele>
        <time>2020-01-15T11:03:47Z</time>
      </trkpt>
      <trkpt lat="43.25464" lon="5.71115">
        <ele>488</ele>
        <time>2020-01-15T11:03:51Z</time>
      </trkpt>
      <trkpt lat="43.25461" lon="5.71121">
        <ele>488</ele>
        <time>2020-01-15T11:03:55Z</time>
      </trkpt>
      <trkpt lat="43.2546" lon="5.71126">
        <ele>489</ele>
        <time>2020-01-15T11:04:07Z</time>
      </trkpt>
      <trkpt lat="43.25457" lon="5.71133">
        <ele>482</ele>
        <time>2020-01-15T11:04:15Z</time>
      </trkpt>
      <trkpt lat="43.25455" lon="5.71142">
        <ele>483</ele>
        <time>2020-01-15T11:04:21Z</time>
      </trkpt>
      <trkpt lat="43.25455" lon="5.71149">
        <ele>482</ele>
        <time>2020-01-15T11:04:25Z</time>
      </trkpt>
      <trkpt lat="43.25456" lon="5.71157">
        <ele>482</ele>
        <time>2020-01-15T11:04:29Z</time>
      </trkpt>
      <trkpt lat="43.25455" lon="5.71165">
        <ele>484</ele>
        <time>2020-01-15T11:04:35Z</time>
      </trkpt>
      <trkpt lat="43.25455" lon="5.71173">
        <ele>484</ele>
        <time>2020-01-15T11:04:41Z</time>
      </trkpt>
      <trkpt lat="43.25455" lon="5.7118">
        <ele>487</ele>
        <time>2020-01-15T11:04:45Z</time>
      </trkpt>
      <trkpt lat="43.25455" lon="5.71187">
        <ele>485</ele>
        <time>2020-01-15T11:04:49Z</time>
      </trkpt>
      <trkpt lat="43.25455" lon="5.71193">
        <ele>485</ele>
        <time>2020-01-15T11:04:53Z</time>
      </trkpt>
      <trkpt lat="43.25454" lon="5.71202">
        <ele>485</ele>
        <time>2020-01-15T11:04:59Z</time>
      </trkpt>
      <trkpt lat="43.25453" lon="5.71209">
        <ele>487</ele>
        <time>2020-01-15T11:05:03Z</time>
      </trkpt>
      <trkpt lat="43.25451" lon="5.71218">
        <ele>486</ele>
        <time>2020-01-15T11:05:09Z</time>
      </trkpt>
      <trkpt lat="43.2545" lon="5.71227">
        <ele>483</ele>
        <time>2020-01-15T11:05:15Z</time>
      </trkpt>
      <trkpt lat="43.25449" lon="5.71233">
        <ele>483</ele>
        <time>2020-01-15T11:05:19Z</time>
      </trkpt>
      <trkpt lat="43.25448" lon="5.71239">
        <ele>484</ele>
        <time>2020-01-15T11:05:23Z</time>
      </trkpt>
      <trkpt lat="43.25447" lon="5.71247">
        <ele>481</ele>
        <time>2020-01-15T11:05:29Z</time>
      </trkpt>
      <trkpt lat="43.25446" lon="5.71253">
        <ele>479</ele>
        <time>2020-01-15T11:05:33Z</time>
      </trkpt>
      <trkpt lat="43.25447" lon="5.71261">
        <ele>479</ele>
        <time>2020-01-15T11:05:37Z</time>
      </trkpt>
      <trkpt lat="43.2545" lon="5.71267">
        <ele>480</ele>
        <time>2020-01-15T11:05:41Z</time>
      </trkpt>
      <trkpt lat="43.25453" lon="5.71276">
        <ele>481</ele>
        <time>2020-01-15T11:05:47Z</time>
      </trkpt>
      <trkpt lat="43.25454" lon="5.71282">
        <ele>480</ele>
        <time>2020-01-15T11:05:51Z</time>
      </trkpt>
      <trkpt lat="43.25456" lon="5.71289">
        <ele>480</ele>
        <time>2020-01-15T11:05:55Z</time>
      </trkpt>
      <trkpt lat="43.25458" lon="5.71294">
        <ele>479</ele>
        <time>2020-01-15T11:05:59Z</time>
      </trkpt>
      <trkpt lat="43.2546" lon="5.71303">
        <ele>478</ele>
        <time>2020-01-15T11:06:05Z</time>
      </trkpt>
      <trkpt lat="43.25461" lon="5.71311">
        <ele>480</ele>
        <time>2020-01-15T11:06:09Z</time>
      </trkpt>
      <trkpt lat="43.25462" lon="5.71317">
        <ele>479</ele>
        <time>2020-01-15T11:06:13Z</time>
      </trkpt>
      <trkpt lat="43.25465" lon="5.71326">
        <ele>479</ele>
        <time>2020-01-15T11:06:19Z</time>
      </trkpt>
      <trkpt lat="43.25467" lon="5.71331">
        <ele>479</ele>
        <time>2020-01-15T11:06:23Z</time>
      </trkpt>
      <trkpt lat="43.25469" lon="5.7134">
        <ele>481</ele>
        <time>2020-01-15T11:06:29Z</time>
      </trkpt>
      <trkpt lat="43.2547" lon="5.71347">
        <ele>481</ele>
        <time>2020-01-15T11:06:33Z</time>
      </trkpt>
      <trkpt lat="43.25471" lon="5.71353">
        <ele>481</ele>
        <time>2020-01-15T11:06:37Z</time>
      </trkpt>
      <trkpt lat="43.25472" lon="5.71359">
        <ele>481</ele>
        <time>2020-01-15T11:06:41Z</time>
      </trkpt>
      <trkpt lat="43.25473" lon="5.71368">
        <ele>480</ele>
        <time>2020-01-15T11:06:47Z</time>
      </trkpt>
      <trkpt lat="43.25475" lon="5.71376">
        <ele>481</ele>
        <time>2020-01-15T11:06:53Z</time>
      </trkpt>
      <trkpt lat="43.25476" lon="5.71383">
        <ele>479</ele>
        <time>2020-01-15T11:06:59Z</time>
      </trkpt>
      <trkpt lat="43.2548" lon="5.7139">
        <ele>480</ele>
        <time>2020-01-15T11:07:05Z</time>
      </trkpt>
      <trkpt lat="43.25483" lon="5.71395">
        <ele>479</ele>
        <time>2020-01-15T11:07:09Z</time>
      </trkpt>
      <trkpt lat="43.25486" lon="5.71401">
        <ele>480</ele>
        <time>2020-01-15T11:07:13Z</time>
      </trkpt>
      <trkpt lat="43.2549" lon="5.71407">
        <ele>480</ele>
        <time>2020-01-15T11:07:19Z</time>
      </trkpt>
      <trkpt lat="43.25494" lon="5.71413">
        <ele>480</ele>
        <time>2020-01-15T11:07:25Z</time>
      </trkpt>
      <trkpt lat="43.25498" lon="5.71417">
        <ele>481</ele>
        <time>2020-01-15T11:07:31Z</time>
      </trkpt>
      <trkpt lat="43.25501" lon="5.71423">
        <ele>481</ele>
        <time>2020-01-15T11:07:59Z</time>
      </trkpt>
      <trkpt lat="43.25505" lon="5.71429">
        <ele>481</ele>
        <time>2020-01-15T11:08:05Z</time>
      </trkpt>
      <trkpt lat="43.25507" lon="5.71437">
        <ele>480</ele>
        <time>2020-01-15T11:08:11Z</time>
      </trkpt>
      <trkpt lat="43.2551" lon="5.71442">
        <ele>481</ele>
        <time>2020-01-15T11:08:15Z</time>
      </trkpt>
      <trkpt lat="43.25513" lon="5.71448">
        <ele>482</ele>
        <time>2020-01-15T11:08:19Z</time>
      </trkpt>
      <trkpt lat="43.25515" lon="5.71454">
        <ele>482</ele>
        <time>2020-01-15T11:08:23Z</time>
      </trkpt>
      <trkpt lat="43.25518" lon="5.71461">
        <ele>481</ele>
        <time>2020-01-15T11:08:29Z</time>
      </trkpt>
      <trkpt lat="43.2552" lon="5.71467">
        <ele>481</ele>
        <time>2020-01-15T11:08:33Z</time>
      </trkpt>
      <trkpt lat="43.25522" lon="5.71473">
        <ele>482</ele>
        <time>2020-01-15T11:08:37Z</time>
      </trkpt>
      <trkpt lat="43.25523" lon="5.71482">
        <ele>482</ele>
        <time>2020-01-15T11:08:43Z</time>
      </trkpt>
      <trkpt lat="43.25526" lon="5.71489">
        <ele>483</ele>
        <time>2020-01-15T11:08:49Z</time>
      </trkpt>
      <trkpt lat="43.25529" lon="5.71496">
        <ele>482</ele>
        <time>2020-01-15T11:08:55Z</time>
      </trkpt>
      <trkpt lat="43.25534" lon="5.71501">
        <ele>481</ele>
        <time>2020-01-15T11:09:01Z</time>
      </trkpt>
      <trkpt lat="43.25538" lon="5.71507">
        <ele>480</ele>
        <time>2020-01-15T11:09:07Z</time>
      </trkpt>
      <trkpt lat="43.25542" lon="5.71514">
        <ele>480</ele>
        <time>2020-01-15T11:09:13Z</time>
      </trkpt>
      <trkpt lat="43.25546" lon="5.71521">
        <ele>481</ele>
        <time>2020-01-15T11:09:19Z</time>
      </trkpt>
      <trkpt lat="43.25549" lon="5.71529">
        <ele>481</ele>
        <time>2020-01-15T11:09:25Z</time>
      </trkpt>
      <trkpt lat="43.25553" lon="5.71537">
        <ele>479</ele>
        <time>2020-01-15T11:09:31Z</time>
      </trkpt>
      <trkpt lat="43.25555" lon="5.71542">
        <ele>479</ele>
        <time>2020-01-15T11:09:35Z</time>
      </trkpt>
      <trkpt lat="43.25557" lon="5.71548">
        <ele>479</ele>
        <time>2020-01-15T11:09:39Z</time>
      </trkpt>
      <trkpt lat="43.2556" lon="5.71554">
        <ele>479</ele>
        <time>2020-01-15T11:09:43Z</time>
      </trkpt>
      <trkpt lat="43.25562" lon="5.71563">
        <ele>480</ele>
        <time>2020-01-15T11:09:49Z</time>
      </trkpt>
      <trkpt lat="43.25563" lon="5.71571">
        <ele>481</ele>
        <time>2020-01-15T11:09:55Z</time>
      </trkpt>
      <trkpt lat="43.25566" lon="5.71579">
        <ele>482</ele>
        <time>2020-01-15T11:10:01Z</time>
      </trkpt>
      <trkpt lat="43.2557" lon="5.71585">
        <ele>482</ele>
        <time>2020-01-15T11:10:07Z</time>
      </trkpt>
      <trkpt lat="43.25573" lon="5.71592">
        <ele>481</ele>
        <time>2020-01-15T11:10:13Z</time>
      </trkpt>
      <trkpt lat="43.25576" lon="5.71599">
        <ele>481</ele>
        <time>2020-01-15T11:10:19Z</time>
      </trkpt>
      <trkpt lat="43.25579" lon="5.71607">
        <ele>481</ele>
        <time>2020-01-15T11:10:25Z</time>
      </trkpt>
      <trkpt lat="43.2558" lon="5.71615">
        <ele>481</ele>
        <time>2020-01-15T11:10:31Z</time>
      </trkpt>
      <trkpt lat="43.25582" lon="5.7162">
        <ele>481</ele>
        <time>2020-01-15T11:10:35Z</time>
      </trkpt>
      <trkpt lat="43.25585" lon="5.71628">
        <ele>480</ele>
        <time>2020-01-15T11:10:41Z</time>
      </trkpt>
      <trkpt lat="43.25587" lon="5.71637">
        <ele>482</ele>
        <time>2020-01-15T11:10:47Z</time>
      </trkpt>
      <trkpt lat="43.2559" lon="5.71645">
        <ele>480</ele>
        <time>2020-01-15T11:10:53Z</time>
      </trkpt>
      <trkpt lat="43.25593" lon="5.71653">
        <ele>479</ele>
        <time>2020-01-15T11:10:59Z</time>
      </trkpt>
      <trkpt lat="43.25596" lon="5.71661">
        <ele>479</ele>
        <time>2020-01-15T11:11:05Z</time>
      </trkpt>
      <trkpt lat="43.25597" lon="5.71669">
        <ele>478</ele>
        <time>2020-01-15T11:11:11Z</time>
      </trkpt>
      <trkpt lat="43.25599" lon="5.71676">
        <ele>478</ele>
        <time>2020-01-15T11:11:15Z</time>
      </trkpt>
      <trkpt lat="43.256" lon="5.71682">
        <ele>478</ele>
        <time>2020-01-15T11:11:19Z</time>
      </trkpt>
      <trkpt lat="43.25601" lon="5.71688">
        <ele>478</ele>
        <time>2020-01-15T11:11:23Z</time>
      </trkpt>
      <trkpt lat="43.25602" lon="5.71694">
        <ele>479</ele>
        <time>2020-01-15T11:11:27Z</time>
      </trkpt>
      <trkpt lat="43.25604" lon="5.71703">
        <ele>479</ele>
        <time>2020-01-15T11:11:33Z</time>
      </trkpt>
      <trkpt lat="43.25606" lon="5.71712">
        <ele>480</ele>
        <time>2020-01-15T11:11:39Z</time>
      </trkpt>
      <trkpt lat="43.25608" lon="5.7172">
        <ele>480</ele>
        <time>2020-01-15T11:11:45Z</time>
      </trkpt>
      <trkpt lat="43.25609" lon="5.71726">
        <ele>480</ele>
        <time>2020-01-15T11:11:49Z</time>
      </trkpt>
      <trkpt lat="43.2561" lon="5.71732">
        <ele>479</ele>
        <time>2020-01-15T11:11:53Z</time>
      </trkpt>
      <trkpt lat="43.25611" lon="5.71738">
        <ele>479</ele>
        <time>2020-01-15T11:11:57Z</time>
      </trkpt>
      <trkpt lat="43.25612" lon="5.71745">
        <ele>480</ele>
        <time>2020-01-15T11:12:01Z</time>
      </trkpt>
      <trkpt lat="43.2561" lon="5.71752">
        <ele>477</ele>
        <time>2020-01-15T11:12:09Z</time>
      </trkpt>
      <trkpt lat="43.25612" lon="5.71761">
        <ele>477</ele>
        <time>2020-01-15T11:12:15Z</time>
      </trkpt>
      <trkpt lat="43.25614" lon="5.71767">
        <ele>475</ele>
        <time>2020-01-15T11:12:19Z</time>
      </trkpt>
      <trkpt lat="43.25613" lon="5.71774">
        <ele>475</ele>
        <time>2020-01-15T11:12:23Z</time>
      </trkpt>
      <trkpt lat="43.25614" lon="5.7178">
        <ele>474</ele>
        <time>2020-01-15T11:12:27Z</time>
      </trkpt>
      <trkpt lat="43.25615" lon="5.71786">
        <ele>475</ele>
        <time>2020-01-15T11:12:31Z</time>
      </trkpt>
      <trkpt lat="43.25615" lon="5.71792">
        <ele>477</ele>
        <time>2020-01-15T11:12:35Z</time>
      </trkpt>
      <trkpt lat="43.25616" lon="5.71799">
        <ele>476</ele>
        <time>2020-01-15T11:12:39Z</time>
      </trkpt>
      <trkpt lat="43.25618" lon="5.71805">
        <ele>476</ele>
        <time>2020-01-15T11:12:43Z</time>
      </trkpt>
      <trkpt lat="43.25619" lon="5.71813">
        <ele>475</ele>
        <time>2020-01-15T11:12:49Z</time>
      </trkpt>
      <trkpt lat="43.25621" lon="5.71821">
        <ele>475</ele>
        <time>2020-01-15T11:12:55Z</time>
      </trkpt>
      <trkpt lat="43.25625" lon="5.71827">
        <ele>475</ele>
        <time>2020-01-15T11:13:01Z</time>
      </trkpt>
      <trkpt lat="43.25628" lon="5.71832">
        <ele>477</ele>
        <time>2020-01-15T11:13:05Z</time>
      </trkpt>
      <trkpt lat="43.25633" lon="5.71837">
        <ele>477</ele>
        <time>2020-01-15T11:13:11Z</time>
      </trkpt>
      <trkpt lat="43.25638" lon="5.71842">
        <ele>477</ele>
        <time>2020-01-15T11:13:17Z</time>
      </trkpt>
      <trkpt lat="43.25644" lon="5.71848">
        <ele>477</ele>
        <time>2020-01-15T11:13:23Z</time>
      </trkpt>
      <trkpt lat="43.25648" lon="5.71852">
        <ele>477</ele>
        <time>2020-01-15T11:13:27Z</time>
      </trkpt>
      <trkpt lat="43.25652" lon="5.71858">
        <ele>478</ele>
        <time>2020-01-15T11:13:33Z</time>
      </trkpt>
      <trkpt lat="43.25656" lon="5.71864">
        <ele>479</ele>
        <time>2020-01-15T11:13:39Z</time>
      </trkpt>
      <trkpt lat="43.2566" lon="5.71869">
        <ele>479</ele>
        <time>2020-01-15T11:13:45Z</time>
      </trkpt>
      <trkpt lat="43.25664" lon="5.71873">
        <ele>479</ele>
        <time>2020-01-15T11:13:49Z</time>
      </trkpt>
      <trkpt lat="43.25668" lon="5.71879">
        <ele>481</ele>
        <time>2020-01-15T11:13:55Z</time>
      </trkpt>
      <trkpt lat="43.25673" lon="5.71881">
        <ele>483</ele>
        <time>2020-01-15T11:14:01Z</time>
      </trkpt>
      <trkpt lat="43.25679" lon="5.71883">
        <ele>485</ele>
        <time>2020-01-15T11:14:07Z</time>
      </trkpt>
      <trkpt lat="43.25684" lon="5.71885">
        <ele>485</ele>
        <time>2020-01-15T11:14:11Z</time>
      </trkpt>
      <trkpt lat="43.25689" lon="5.71887">
        <ele>485</ele>
        <time>2020-01-15T11:14:17Z</time>
      </trkpt>
      <trkpt lat="43.25696" lon="5.71888">
        <ele>486</ele>
        <time>2020-01-15T11:14:23Z</time>
      </trkpt>
      <trkpt lat="43.25701" lon="5.71891">
        <ele>485</ele>
        <time>2020-01-15T11:14:29Z</time>
      </trkpt>
      <trkpt lat="43.25707" lon="5.71894">
        <ele>485</ele>
        <time>2020-01-15T11:14:35Z</time>
      </trkpt>
      <trkpt lat="43.25711" lon="5.71899">
        <ele>484</ele>
        <time>2020-01-15T11:14:41Z</time>
      </trkpt>
      <trkpt lat="43.25715" lon="5.71904">
        <ele>485</ele>
        <time>2020-01-15T11:14:47Z</time>
      </trkpt>
      <trkpt lat="43.25718" lon="5.71909">
        <ele>485</ele>
        <time>2020-01-15T11:14:51Z</time>
      </trkpt>
      <trkpt lat="43.25721" lon="5.71915">
        <ele>485</ele>
        <time>2020-01-15T11:14:55Z</time>
      </trkpt>
      <trkpt lat="43.25725" lon="5.71922">
        <ele>486</ele>
        <time>2020-01-15T11:15:01Z</time>
      </trkpt>
      <trkpt lat="43.25726" lon="5.71928">
        <ele>487</ele>
        <time>2020-01-15T11:15:05Z</time>
      </trkpt>
      <trkpt lat="43.25729" lon="5.71934">
        <ele>486</ele>
        <time>2020-01-15T11:15:09Z</time>
      </trkpt>
      <trkpt lat="43.25731" lon="5.7194">
        <ele>487</ele>
        <time>2020-01-15T11:15:13Z</time>
      </trkpt>
      <trkpt lat="43.25733" lon="5.71946">
        <ele>488</ele>
        <time>2020-01-15T11:15:17Z</time>
      </trkpt>
      <trkpt lat="43.25735" lon="5.71954">
        <ele>488</ele>
        <time>2020-01-15T11:15:23Z</time>
      </trkpt>
      <trkpt lat="43.25737" lon="5.71962">
        <ele>487</ele>
        <time>2020-01-15T11:15:29Z</time>
      </trkpt>
      <trkpt lat="43.25741" lon="5.7197">
        <ele>489</ele>
        <time>2020-01-15T11:15:35Z</time>
      </trkpt>
      <trkpt lat="43.25744" lon="5.71975">
        <ele>487</ele>
        <time>2020-01-15T11:15:39Z</time>
      </trkpt>
      <trkpt lat="43.25746" lon="5.71983">
        <ele>484</ele>
        <time>2020-01-15T11:15:45Z</time>
      </trkpt>
      <trkpt lat="43.25749" lon="5.71989">
        <ele>483</ele>
        <time>2020-01-15T11:15:49Z</time>
      </trkpt>
      <trkpt lat="43.25751" lon="5.71997">
        <ele>481</ele>
        <time>2020-01-15T11:15:55Z</time>
      </trkpt>
      <trkpt lat="43.25752" lon="5.72003">
        <ele>480</ele>
        <time>2020-01-15T11:15:59Z</time>
      </trkpt>
      <trkpt lat="43.25754" lon="5.72009">
        <ele>480</ele>
        <time>2020-01-15T11:16:03Z</time>
      </trkpt>
      <trkpt lat="43.25756" lon="5.72015">
        <ele>480</ele>
        <time>2020-01-15T11:16:07Z</time>
      </trkpt>
      <trkpt lat="43.25757" lon="5.72023">
        <ele>479</ele>
        <time>2020-01-15T11:16:13Z</time>
      </trkpt>
      <trkpt lat="43.25758" lon="5.72029">
        <ele>478</ele>
        <time>2020-01-15T11:16:17Z</time>
      </trkpt>
      <trkpt lat="43.25758" lon="5.72038">
        <ele>479</ele>
        <time>2020-01-15T11:16:23Z</time>
      </trkpt>
      <trkpt lat="43.25759" lon="5.72044">
        <ele>479</ele>
        <time>2020-01-15T11:16:27Z</time>
      </trkpt>
      <trkpt lat="43.2576" lon="5.72053">
        <ele>479</ele>
        <time>2020-01-15T11:16:33Z</time>
      </trkpt>
      <trkpt lat="43.25761" lon="5.7206">
        <ele>479</ele>
        <time>2020-01-15T11:16:39Z</time>
      </trkpt>
      <trkpt lat="43.25762" lon="5.72069">
        <ele>480</ele>
        <time>2020-01-15T11:16:45Z</time>
      </trkpt>
      <trkpt lat="43.25763" lon="5.72077">
        <ele>478</ele>
        <time>2020-01-15T11:16:51Z</time>
      </trkpt>
      <trkpt lat="43.25765" lon="5.72086">
        <ele>479</ele>
        <time>2020-01-15T11:16:57Z</time>
      </trkpt>
      <trkpt lat="43.25767" lon="5.72091">
        <ele>479</ele>
        <time>2020-01-15T11:17:01Z</time>
      </trkpt>
      <trkpt lat="43.2577" lon="5.72096">
        <ele>477</ele>
        <time>2020-01-15T11:17:05Z</time>
      </trkpt>
      <trkpt lat="43.25774" lon="5.72101">
        <ele>477</ele>
        <time>2020-01-15T11:17:09Z</time>
      </trkpt>
      <trkpt lat="43.25776" lon="5.72107">
        <ele>479</ele>
        <time>2020-01-15T11:17:13Z</time>
      </trkpt>
      <trkpt lat="43.25779" lon="5.72112">
        <ele>479</ele>
        <time>2020-01-15T11:17:17Z</time>
      </trkpt>
      <trkpt lat="43.25782" lon="5.7212">
        <ele>478</ele>
        <time>2020-01-15T11:17:23Z</time>
      </trkpt>
      <trkpt lat="43.25784" lon="5.72126">
        <ele>477</ele>
        <time>2020-01-15T11:17:27Z</time>
      </trkpt>
      <trkpt lat="43.25788" lon="5.72131">
        <ele>475</ele>
        <time>2020-01-15T11:17:31Z</time>
      </trkpt>
      <trkpt lat="43.25791" lon="5.72137">
        <ele>475</ele>
        <time>2020-01-15T11:17:37Z</time>
      </trkpt>
      <trkpt lat="43.25793" lon="5.72143">
        <ele>472</ele>
        <time>2020-01-15T11:17:43Z</time>
      </trkpt>
      <trkpt lat="43.25796" lon="5.72152">
        <ele>473</ele>
        <time>2020-01-15T11:17:49Z</time>
      </trkpt>
      <trkpt lat="43.25799" lon="5.72159">
        <ele>471</ele>
        <time>2020-01-15T11:17:55Z</time>
      </trkpt>
      <trkpt lat="43.25801" lon="5.72165">
        <ele>471</ele>
        <time>2020-01-15T11:17:59Z</time>
      </trkpt>
      <trkpt lat="43.25803" lon="5.72174">
        <ele>471</ele>
        <time>2020-01-15T11:18:05Z</time>
      </trkpt>
      <trkpt lat="43.25803" lon="5.72183">
        <ele>472</ele>
        <time>2020-01-15T11:18:11Z</time>
      </trkpt>
      <trkpt lat="43.25804" lon="5.72189">
        <ele>473</ele>
        <time>2020-01-15T11:18:15Z</time>
      </trkpt>
      <trkpt lat="43.25807" lon="5.72194">
        <ele>471</ele>
        <time>2020-01-15T11:18:19Z</time>
      </trkpt>
      <trkpt lat="43.25809" lon="5.72202">
        <ele>470</ele>
        <time>2020-01-15T11:18:25Z</time>
      </trkpt>
      <trkpt lat="43.2581" lon="5.72208">
        <ele>471</ele>
        <time>2020-01-15T11:18:29Z</time>
      </trkpt>
      <trkpt lat="43.25813" lon="5.72214">
        <ele>469</ele>
        <time>2020-01-15T11:18:33Z</time>
      </trkpt>
      <trkpt lat="43.25816" lon="5.7222">
        <ele>469</ele>
        <time>2020-01-15T11:18:37Z</time>
      </trkpt>
      <trkpt lat="43.25817" lon="5.72226">
        <ele>471</ele>
        <time>2020-01-15T11:18:41Z</time>
      </trkpt>
      <trkpt lat="43.25819" lon="5.72232">
        <ele>471</ele>
        <time>2020-01-15T11:18:45Z</time>
      </trkpt>
      <trkpt lat="43.25821" lon="5.72238">
        <ele>469</ele>
        <time>2020-01-15T11:18:51Z</time>
      </trkpt>
      <trkpt lat="43.25822" lon="5.72245">
        <ele>468</ele>
        <time>2020-01-15T11:18:57Z</time>
      </trkpt>
      <trkpt lat="43.25825" lon="5.72252">
        <ele>468</ele>
        <time>2020-01-15T11:19:03Z</time>
      </trkpt>
      <trkpt lat="43.25827" lon="5.72257">
        <ele>468</ele>
        <time>2020-01-15T11:19:07Z</time>
      </trkpt>
      <trkpt lat="43.2583" lon="5.72265">
        <ele>465</ele>
        <time>2020-01-15T11:19:13Z</time>
      </trkpt>
      <trkpt lat="43.25831" lon="5.72271">
        <ele>466</ele>
        <time>2020-01-15T11:19:17Z</time>
      </trkpt>
      <trkpt lat="43.25833" lon="5.72277">
        <ele>467</ele>
        <time>2020-01-15T11:19:21Z</time>
      </trkpt>
      <trkpt lat="43.25837" lon="5.72285">
        <ele>466</ele>
        <time>2020-01-15T11:19:25Z</time>
      </trkpt>
      <trkpt lat="43.25837" lon="5.72291">
        <ele>466</ele>
        <time>2020-01-15T11:19:29Z</time>
      </trkpt>
      <trkpt lat="43.25837" lon="5.72297">
        <ele>465</ele>
        <time>2020-01-15T11:19:33Z</time>
      </trkpt>
      <trkpt lat="43.25837" lon="5.72305">
        <ele>463</ele>
        <time>2020-01-15T11:19:39Z</time>
      </trkpt>
      <trkpt lat="43.25838" lon="5.72313">
        <ele>463</ele>
        <time>2020-01-15T11:19:45Z</time>
      </trkpt>
      <trkpt lat="43.25839" lon="5.72321">
        <ele>463</ele>
        <time>2020-01-15T11:19:51Z</time>
      </trkpt>
      <trkpt lat="43.25841" lon="5.72328">
        <ele>466</ele>
        <time>2020-01-15T11:19:55Z</time>
      </trkpt>
      <trkpt lat="43.25843" lon="5.72334">
        <ele>466</ele>
        <time>2020-01-15T11:19:59Z</time>
      </trkpt>
      <trkpt lat="43.25842" lon="5.72342">
        <ele>464</ele>
        <time>2020-01-15T11:20:05Z</time>
      </trkpt>
      <trkpt lat="43.25843" lon="5.72348">
        <ele>464</ele>
        <time>2020-01-15T11:20:09Z</time>
      </trkpt>
      <trkpt lat="43.25843" lon="5.72354">
        <ele>462</ele>
        <time>2020-01-15T11:20:13Z</time>
      </trkpt>
      <trkpt lat="43.25843" lon="5.72362">
        <ele>462</ele>
        <time>2020-01-15T11:20:19Z</time>
      </trkpt>
      <trkpt lat="43.25843" lon="5.72368">
        <ele>464</ele>
        <time>2020-01-15T11:20:23Z</time>
      </trkpt>
      <trkpt lat="43.25841" lon="5.72376">
        <ele>465</ele>
        <time>2020-01-15T11:20:29Z</time>
      </trkpt>
      <trkpt lat="43.25842" lon="5.72386">
        <ele>465</ele>
        <time>2020-01-15T11:20:35Z</time>
      </trkpt>
      <trkpt lat="43.25841" lon="5.72392">
        <ele>464</ele>
        <time>2020-01-15T11:20:39Z</time>
      </trkpt>
      <trkpt lat="43.2584" lon="5.72401">
        <ele>463</ele>
        <time>2020-01-15T11:20:45Z</time>
      </trkpt>
      <trkpt lat="43.25838" lon="5.72408">
        <ele>463</ele>
        <time>2020-01-15T11:20:49Z</time>
      </trkpt>
      <trkpt lat="43.25837" lon="5.72417">
        <ele>461</ele>
        <time>2020-01-15T11:20:55Z</time>
      </trkpt>
      <trkpt lat="43.25837" lon="5.72424">
        <ele>459</ele>
        <time>2020-01-15T11:20:59Z</time>
      </trkpt>
      <trkpt lat="43.25837" lon="5.72431">
        <ele>459</ele>
        <time>2020-01-15T11:21:03Z</time>
      </trkpt>
      <trkpt lat="43.25837" lon="5.72438">
        <ele>459</ele>
        <time>2020-01-15T11:21:07Z</time>
      </trkpt>
      <trkpt lat="43.25837" lon="5.72445">
        <ele>460</ele>
        <time>2020-01-15T11:21:11Z</time>
      </trkpt>
      <trkpt lat="43.25837" lon="5.72451">
        <ele>460</ele>
        <time>2020-01-15T11:21:15Z</time>
      </trkpt>
      <trkpt lat="43.25837" lon="5.72459">
        <ele>462</ele>
        <time>2020-01-15T11:21:19Z</time>
      </trkpt>
      <trkpt lat="43.25836" lon="5.72466">
        <ele>462</ele>
        <time>2020-01-15T11:21:23Z</time>
      </trkpt>
      <trkpt lat="43.25835" lon="5.72472">
        <ele>462</ele>
        <time>2020-01-15T11:21:27Z</time>
      </trkpt>
      <trkpt lat="43.25835" lon="5.7248">
        <ele>462</ele>
        <time>2020-01-15T11:21:33Z</time>
      </trkpt>
      <trkpt lat="43.25837" lon="5.72488">
        <ele>461</ele>
        <time>2020-01-15T11:21:39Z</time>
      </trkpt>
      <trkpt lat="43.25837" lon="5.72494">
        <ele>461</ele>
        <time>2020-01-15T11:21:43Z</time>
      </trkpt>
      <trkpt lat="43.25839" lon="5.725">
        <ele>462</ele>
        <time>2020-01-15T11:21:47Z</time>
      </trkpt>
      <trkpt lat="43.25838" lon="5.72509">
        <ele>461</ele>
        <time>2020-01-15T11:21:53Z</time>
      </trkpt>
      <trkpt lat="43.25838" lon="5.72516">
        <ele>458</ele>
        <time>2020-01-15T11:21:59Z</time>
      </trkpt>
      <trkpt lat="43.2584" lon="5.72522">
        <ele>457</ele>
        <time>2020-01-15T11:22:03Z</time>
      </trkpt>
      <trkpt lat="43.25842" lon="5.7253">
        <ele>456</ele>
        <time>2020-01-15T11:22:09Z</time>
      </trkpt>
      <trkpt lat="43.25842" lon="5.72538">
        <ele>454</ele>
        <time>2020-01-15T11:22:15Z</time>
      </trkpt>
      <trkpt lat="43.25844" lon="5.72544">
        <ele>455</ele>
        <time>2020-01-15T11:22:19Z</time>
      </trkpt>
      <trkpt lat="43.25845" lon="5.72552">
        <ele>457</ele>
        <time>2020-01-15T11:22:25Z</time>
      </trkpt>
      <trkpt lat="43.25849" lon="5.72548">
        <ele>456</ele>
        <time>2020-01-15T11:23:13Z</time>
      </trkpt>
      <trkpt lat="43.25853" lon="5.72544">
        <ele>455</ele>
        <time>2020-01-15T11:23:21Z</time>
      </trkpt>
      <trkpt lat="43.25858" lon="5.72539">
        <ele>454</ele>
        <time>2020-01-15T11:23:27Z</time>
      </trkpt>
      <trkpt lat="43.25861" lon="5.72534">
        <ele>453</ele>
        <time>2020-01-15T11:23:39Z</time>
      </trkpt>
      <trkpt lat="43.25865" lon="5.72531">
        <ele>455</ele>
        <time>2020-01-15T11:23:47Z</time>
      </trkpt>
      <trkpt lat="43.25871" lon="5.72528">
        <ele>449</ele>
        <time>2020-01-15T11:23:55Z</time>
      </trkpt>
      <trkpt lat="43.25874" lon="5.72523">
        <ele>449</ele>
        <time>2020-01-15T11:24:01Z</time>
      </trkpt>
      <trkpt lat="43.25879" lon="5.72519">
        <ele>450</ele>
        <time>2020-01-15T11:24:05Z</time>
      </trkpt>
      <trkpt lat="43.25882" lon="5.72515">
        <ele>449</ele>
        <time>2020-01-15T11:24:09Z</time>
      </trkpt>
      <trkpt lat="43.25888" lon="5.7251">
        <ele>453</ele>
        <time>2020-01-15T11:24:15Z</time>
      </trkpt>
      <trkpt lat="43.25893" lon="5.72506">
        <ele>455</ele>
        <time>2020-01-15T11:24:19Z</time>
      </trkpt>
      <trkpt lat="43.25898" lon="5.725">
        <ele>454</ele>
        <time>2020-01-15T11:24:25Z</time>
      </trkpt>
      <trkpt lat="43.25902" lon="5.72495">
        <ele>453</ele>
        <time>2020-01-15T11:24:31Z</time>
      </trkpt>
      <trkpt lat="43.25906" lon="5.72492">
        <ele>454</ele>
        <time>2020-01-15T11:24:35Z</time>
      </trkpt>
      <trkpt lat="43.2591" lon="5.72486">
        <ele>454</ele>
        <time>2020-01-15T11:24:43Z</time>
      </trkpt>
      <trkpt lat="43.25913" lon="5.72481">
        <ele>453</ele>
        <time>2020-01-15T11:24:49Z</time>
      </trkpt>
      <trkpt lat="43.25918" lon="5.72478">
        <ele>453</ele>
        <time>2020-01-15T11:24:55Z</time>
      </trkpt>
      <trkpt lat="43.25923" lon="5.72473">
        <ele>452</ele>
        <time>2020-01-15T11:25:03Z</time>
      </trkpt>
      <trkpt lat="43.25926" lon="5.72467">
        <ele>452</ele>
        <time>2020-01-15T11:25:11Z</time>
      </trkpt>
      <trkpt lat="43.25928" lon="5.72462">
        <ele>448</ele>
        <time>2020-01-15T11:25:19Z</time>
      </trkpt>
      <trkpt lat="43.25931" lon="5.72456">
        <ele>448</ele>
        <time>2020-01-15T11:25:27Z</time>
      </trkpt>
      <trkpt lat="43.25935" lon="5.72453">
        <ele>451</ele>
        <time>2020-01-15T11:25:33Z</time>
      </trkpt>
      <trkpt lat="43.25941" lon="5.7245">
        <ele>454</ele>
        <time>2020-01-15T11:25:39Z</time>
      </trkpt>
      <trkpt lat="43.25946" lon="5.72447">
        <ele>452</ele>
        <time>2020-01-15T11:25:45Z</time>
      </trkpt>
      <trkpt lat="43.2595" lon="5.72442">
        <ele>452</ele>
        <time>2020-01-15T11:25:55Z</time>
      </trkpt>
      <trkpt lat="43.25951" lon="5.72436">
        <ele>451</ele>
        <time>2020-01-15T11:26:01Z</time>
      </trkpt>
      <trkpt lat="43.25954" lon="5.72431">
        <ele>450</ele>
        <time>2020-01-15T11:26:09Z</time>
      </trkpt>
      <trkpt lat="43.25958" lon="5.72426">
        <ele>447</ele>
        <time>2020-01-15T11:26:15Z</time>
      </trkpt>
      <trkpt lat="43.25962" lon="5.72421">
        <ele>447</ele>
        <time>2020-01-15T11:26:21Z</time>
      </trkpt>
      <trkpt lat="43.25965" lon="5.72417">
        <ele>449</ele>
        <time>2020-01-15T11:26:27Z</time>
      </trkpt>
      <trkpt lat="43.25969" lon="5.72411">
        <ele>446</ele>
        <time>2020-01-15T11:26:33Z</time>
      </trkpt>
      <trkpt lat="43.25972" lon="5.72406">
        <ele>445</ele>
        <time>2020-01-15T11:26:39Z</time>
      </trkpt>
      <trkpt lat="43.25975" lon="5.724">
        <ele>445</ele>
        <time>2020-01-15T11:26:47Z</time>
      </trkpt>
      <trkpt lat="43.2598" lon="5.72398">
        <ele>445</ele>
        <time>2020-01-15T11:26:53Z</time>
      </trkpt>
      <trkpt lat="43.25985" lon="5.72394">
        <ele>445</ele>
        <time>2020-01-15T11:27:01Z</time>
      </trkpt>
      <trkpt lat="43.25989" lon="5.72391">
        <ele>444</ele>
        <time>2020-01-15T11:27:07Z</time>
      </trkpt>
      <trkpt lat="43.25993" lon="5.72386">
        <ele>443</ele>
        <time>2020-01-15T11:27:13Z</time>
      </trkpt>
      <trkpt lat="43.25998" lon="5.72383">
        <ele>439</ele>
        <time>2020-01-15T11:27:19Z</time>
      </trkpt>
      <trkpt lat="43.26003" lon="5.72381">
        <ele>441</ele>
        <time>2020-01-15T11:27:27Z</time>
      </trkpt>
      <trkpt lat="43.26008" lon="5.72378">
        <ele>445</ele>
        <time>2020-01-15T11:27:33Z</time>
      </trkpt>
      <trkpt lat="43.26012" lon="5.72373">
        <ele>444</ele>
        <time>2020-01-15T11:27:39Z</time>
      </trkpt>
      <trkpt lat="43.26015" lon="5.72368">
        <ele>442</ele>
        <time>2020-01-15T11:27:45Z</time>
      </trkpt>
      <trkpt lat="43.2602" lon="5.72365">
        <ele>440</ele>
        <time>2020-01-15T11:27:53Z</time>
      </trkpt>
      <trkpt lat="43.26022" lon="5.72359">
        <ele>439</ele>
        <time>2020-01-15T11:28:03Z</time>
      </trkpt>
      <trkpt lat="43.26019" lon="5.72354">
        <ele>437</ele>
        <time>2020-01-15T11:28:11Z</time>
      </trkpt>
      <trkpt lat="43.26016" lon="5.72348">
        <ele>434</ele>
        <time>2020-01-15T11:28:19Z</time>
      </trkpt>
      <trkpt lat="43.26012" lon="5.72344">
        <ele>433</ele>
        <time>2020-01-15T11:28:27Z</time>
      </trkpt>
      <trkpt lat="43.26007" lon="5.7234">
        <ele>434</ele>
        <time>2020-01-15T11:28:35Z</time>
      </trkpt>
      <trkpt lat="43.26001" lon="5.72336">
        <ele>433</ele>
        <time>2020-01-15T11:28:43Z</time>
      </trkpt>
      <trkpt lat="43.25996" lon="5.72332">
        <ele>432</ele>
        <time>2020-01-15T11:28:49Z</time>
      </trkpt>
      <trkpt lat="43.25991" lon="5.72332">
        <ele>432</ele>
        <time>2020-01-15T11:28:55Z</time>
      </trkpt>
      <trkpt lat="43.25987" lon="5.72327">
        <ele>433</ele>
        <time>2020-01-15T11:29:59Z</time>
      </trkpt>
      <trkpt lat="43.25984" lon="5.7232">
        <ele>431</ele>
        <time>2020-01-15T11:30:09Z</time>
      </trkpt>
      <trkpt lat="43.25984" lon="5.72313">
        <ele>432</ele>
        <time>2020-01-15T11:30:17Z</time>
      </trkpt>
      <trkpt lat="43.25984" lon="5.72307">
        <ele>436</ele>
        <time>2020-01-15T11:30:27Z</time>
      </trkpt>
      <trkpt lat="43.25982" lon="5.72301">
        <ele>431</ele>
        <time>2020-01-15T11:30:35Z</time>
      </trkpt>
      <trkpt lat="43.2598" lon="5.72295">
        <ele>430</ele>
        <time>2020-01-15T11:30:41Z</time>
      </trkpt>
      <trkpt lat="43.25978" lon="5.72288">
        <ele>430</ele>
        <time>2020-01-15T11:30:47Z</time>
      </trkpt>
      <trkpt lat="43.25976" lon="5.72282">
        <ele>430</ele>
        <time>2020-01-15T11:30:53Z</time>
      </trkpt>
      <trkpt lat="43.25974" lon="5.72275">
        <ele>430</ele>
        <time>2020-01-15T11:31:03Z</time>
      </trkpt>
      <trkpt lat="43.25971" lon="5.72268">
        <ele>432</ele>
        <time>2020-01-15T11:31:13Z</time>
      </trkpt>
      <trkpt lat="43.25968" lon="5.72263">
        <ele>435</ele>
        <time>2020-01-15T11:31:19Z</time>
      </trkpt>
      <trkpt lat="43.25964" lon="5.72257">
        <ele>435</ele>
        <time>2020-01-15T11:31:29Z</time>
      </trkpt>
      <trkpt lat="43.2596" lon="5.72252">
        <ele>434</ele>
        <time>2020-01-15T11:31:37Z</time>
      </trkpt>
      <trkpt lat="43.25956" lon="5.72249">
        <ele>436</ele>
        <time>2020-01-15T11:31:45Z</time>
      </trkpt>
      <trkpt lat="43.25951" lon="5.72247">
        <ele>437</ele>
        <time>2020-01-15T11:31:53Z</time>
      </trkpt>
      <trkpt lat="43.25946" lon="5.72244">
        <ele>438</ele>
        <time>2020-01-15T11:32:03Z</time>
      </trkpt>
      <trkpt lat="43.25941" lon="5.72244">
        <ele>435</ele>
        <time>2020-01-15T11:32:07Z</time>
      </trkpt>
      <trkpt lat="43.25935" lon="5.72244">
        <ele>433</ele>
        <time>2020-01-15T11:32:13Z</time>
      </trkpt>
      <trkpt lat="43.25932" lon="5.72238">
        <ele>437</ele>
        <time>2020-01-15T11:32:31Z</time>
      </trkpt>
      <trkpt lat="43.25935" lon="5.72233">
        <ele>438</ele>
        <time>2020-01-15T11:32:37Z</time>
      </trkpt>
      <trkpt lat="43.25935" lon="5.72225">
        <ele>438</ele>
        <time>2020-01-15T11:32:45Z</time>
      </trkpt>
      <trkpt lat="43.25937" lon="5.72218">
        <ele>445</ele>
        <time>2020-01-15T11:32:51Z</time>
      </trkpt>
      <trkpt lat="43.2594" lon="5.72211">
        <ele>443</ele>
        <time>2020-01-15T11:32:59Z</time>
      </trkpt>
      <trkpt lat="43.2594" lon="5.72203">
        <ele>442</ele>
        <time>2020-01-15T11:33:05Z</time>
      </trkpt>
      <trkpt lat="43.25944" lon="5.72196">
        <ele>441</ele>
        <time>2020-01-15T11:33:11Z</time>
      </trkpt>
      <trkpt lat="43.25947" lon="5.72192">
        <ele>441</ele>
        <time>2020-01-15T11:33:17Z</time>
      </trkpt>
      <trkpt lat="43.25951" lon="5.72188">
        <ele>440</ele>
        <time>2020-01-15T11:33:23Z</time>
      </trkpt>
      <trkpt lat="43.25955" lon="5.72181">
        <ele>437</ele>
        <time>2020-01-15T11:33:31Z</time>
      </trkpt>
      <trkpt lat="43.2596" lon="5.72176">
        <ele>433</ele>
        <time>2020-01-15T11:33:37Z</time>
      </trkpt>
      <trkpt lat="43.25962" lon="5.72169">
        <ele>430</ele>
        <time>2020-01-15T11:33:43Z</time>
      </trkpt>
      <trkpt lat="43.25961" lon="5.72162">
        <ele>429</ele>
        <time>2020-01-15T11:33:51Z</time>
      </trkpt>
      <trkpt lat="43.2596" lon="5.72155">
        <ele>438</ele>
        <time>2020-01-15T11:34:31Z</time>
      </trkpt>
      <trkpt lat="43.25956" lon="5.72149">
        <ele>439</ele>
        <time>2020-01-15T11:35:01Z</time>
      </trkpt>
      <trkpt lat="43.25953" lon="5.72144">
        <ele>440</ele>
        <time>2020-01-15T11:35:13Z</time>
      </trkpt>
      <trkpt lat="43.25953" lon="5.72137">
        <ele>440</ele>
        <time>2020-01-15T11:35:33Z</time>
      </trkpt>
      <trkpt lat="43.25949" lon="5.72131">
        <ele>438</ele>
        <time>2020-01-15T11:35:51Z</time>
      </trkpt>
      <trkpt lat="43.25944" lon="5.72128">
        <ele>440</ele>
        <time>2020-01-15T11:35:57Z</time>
      </trkpt>
      <trkpt lat="43.25943" lon="5.72121">
        <ele>442</ele>
        <time>2020-01-15T11:36:03Z</time>
      </trkpt>
      <trkpt lat="43.25942" lon="5.72114">
        <ele>441</ele>
        <time>2020-01-15T11:36:09Z</time>
      </trkpt>
      <trkpt lat="43.25947" lon="5.72111">
        <ele>441</ele>
        <time>2020-01-15T11:36:25Z</time>
      </trkpt>
      <trkpt lat="43.25951" lon="5.72111">
        <ele>439</ele>
        <time>2020-01-15T11:36:31Z</time>
      </trkpt>
      <trkpt lat="43.25956" lon="5.7211">
        <ele>440</ele>
        <time>2020-01-15T11:36:39Z</time>
      </trkpt>
      <trkpt lat="43.25961" lon="5.7211">
        <ele>439</ele>
        <time>2020-01-15T11:36:45Z</time>
      </trkpt>
      <trkpt lat="43.25966" lon="5.72109">
        <ele>441</ele>
        <time>2020-01-15T11:36:59Z</time>
      </trkpt>
      <trkpt lat="43.25972" lon="5.7211">
        <ele>440</ele>
        <time>2020-01-15T11:37:09Z</time>
      </trkpt>
      <trkpt lat="43.25975" lon="5.72115">
        <ele>437</ele>
        <time>2020-01-15T11:37:21Z</time>
      </trkpt>
      <trkpt lat="43.25978" lon="5.72121">
        <ele>435</ele>
        <time>2020-01-15T11:37:31Z</time>
      </trkpt>
      <trkpt lat="43.25983" lon="5.72123">
        <ele>434</ele>
        <time>2020-01-15T11:37:39Z</time>
      </trkpt>
      <trkpt lat="43.25983" lon="5.7213">
        <ele>431</ele>
        <time>2020-01-15T11:37:47Z</time>
      </trkpt>
      <trkpt lat="43.25984" lon="5.72137">
        <ele>428</ele>
        <time>2020-01-15T11:37:57Z</time>
      </trkpt>
      <trkpt lat="43.25986" lon="5.72144">
        <ele>427</ele>
        <time>2020-01-15T11:38:03Z</time>
      </trkpt>
      <trkpt lat="43.25989" lon="5.7215">
        <ele>425</ele>
        <time>2020-01-15T11:38:09Z</time>
      </trkpt>
      <trkpt lat="43.25993" lon="5.72156">
        <ele>425</ele>
        <time>2020-01-15T11:38:19Z</time>
      </trkpt>
      <trkpt lat="43.25995" lon="5.72163">
        <ele>427</ele>
        <time>2020-01-15T11:38:31Z</time>
      </trkpt>
      <trkpt lat="43.25998" lon="5.72167">
        <ele>428</ele>
        <time>2020-01-15T11:38:39Z</time>
      </trkpt>
      <trkpt lat="43.26" lon="5.72174">
        <ele>431</ele>
        <time>2020-01-15T11:38:45Z</time>
      </trkpt>
      <trkpt lat="43.25999" lon="5.72167">
        <ele>422</ele>
        <time>2020-01-15T11:39:21Z</time>
      </trkpt>
      <trkpt lat="43.26003" lon="5.72164">
        <ele>424</ele>
        <time>2020-01-15T11:39:27Z</time>
      </trkpt>
      <trkpt lat="43.26008" lon="5.7216">
        <ele>421</ele>
        <time>2020-01-15T11:39:33Z</time>
      </trkpt>
      <trkpt lat="43.26011" lon="5.72154">
        <ele>416</ele>
        <time>2020-01-15T11:39:41Z</time>
      </trkpt>
      <trkpt lat="43.26014" lon="5.72148">
        <ele>416</ele>
        <time>2020-01-15T11:39:49Z</time>
      </trkpt>
      <trkpt lat="43.26016" lon="5.7214">
        <ele>416</ele>
        <time>2020-01-15T11:39:59Z</time>
      </trkpt>
      <trkpt lat="43.2602" lon="5.72134">
        <ele>416</ele>
        <time>2020-01-15T11:40:11Z</time>
      </trkpt>
      <trkpt lat="43.26025" lon="5.72135">
        <ele>419</ele>
        <time>2020-01-15T11:40:17Z</time>
      </trkpt>
      <trkpt lat="43.2603" lon="5.72137">
        <ele>422</ele>
        <time>2020-01-15T11:40:23Z</time>
      </trkpt>
      <trkpt lat="43.26034" lon="5.72141">
        <ele>420</ele>
        <time>2020-01-15T11:40:31Z</time>
      </trkpt>
      <trkpt lat="43.26039" lon="5.72142">
        <ele>422</ele>
        <time>2020-01-15T11:40:35Z</time>
      </trkpt>
      <trkpt lat="43.26043" lon="5.72146">
        <ele>420</ele>
        <time>2020-01-15T11:40:41Z</time>
      </trkpt>
      <trkpt lat="43.26043" lon="5.72153">
        <ele>414</ele>
        <time>2020-01-15T11:40:53Z</time>
      </trkpt>
      <trkpt lat="43.26041" lon="5.72159">
        <ele>412</ele>
        <time>2020-01-15T11:41:01Z</time>
      </trkpt>
      <trkpt lat="43.26043" lon="5.72167">
        <ele>419</ele>
        <time>2020-01-15T11:41:09Z</time>
      </trkpt>
      <trkpt lat="43.26046" lon="5.72172">
        <ele>418</ele>
        <time>2020-01-15T11:41:15Z</time>
      </trkpt>
      <trkpt lat="43.26049" lon="5.72179">
        <ele>414</ele>
        <time>2020-01-15T11:41:25Z</time>
      </trkpt>
      <trkpt lat="43.26054" lon="5.72184">
        <ele>414</ele>
        <time>2020-01-15T11:41:33Z</time>
      </trkpt>
      <trkpt lat="43.26058" lon="5.72187">
        <ele>413</ele>
        <time>2020-01-15T11:41:39Z</time>
      </trkpt>
      <trkpt lat="43.26062" lon="5.72186">
        <ele>413</ele>
        <time>2020-01-15T11:41:45Z</time>
      </trkpt>
      <trkpt lat="43.26067" lon="5.72182">
        <ele>410</ele>
        <time>2020-01-15T11:41:51Z</time>
      </trkpt>
      <trkpt lat="43.26072" lon="5.72179">
        <ele>408</ele>
        <time>2020-01-15T11:42:05Z</time>
      </trkpt>
      <trkpt lat="43.26077" lon="5.72179">
        <ele>409</ele>
        <time>2020-01-15T11:42:11Z</time>
      </trkpt>
      <trkpt lat="43.26083" lon="5.72179">
        <ele>410</ele>
        <time>2020-01-15T11:42:17Z</time>
      </trkpt>
      <trkpt lat="43.26088" lon="5.72177">
        <ele>408</ele>
        <time>2020-01-15T11:42:23Z</time>
      </trkpt>
      <trkpt lat="43.26093" lon="5.72173">
        <ele>410</ele>
        <time>2020-01-15T11:42:27Z</time>
      </trkpt>
      <trkpt lat="43.26098" lon="5.7217">
        <ele>407</ele>
        <time>2020-01-15T11:42:35Z</time>
      </trkpt>
      <trkpt lat="43.26103" lon="5.7217">
        <ele>407</ele>
        <time>2020-01-15T11:42:41Z</time>
      </trkpt>
      <trkpt lat="43.26107" lon="5.72174">
        <ele>406</ele>
        <time>2020-01-15T11:42:47Z</time>
      </trkpt>
      <trkpt lat="43.26111" lon="5.7218">
        <ele>405</ele>
        <time>2020-01-15T11:42:55Z</time>
      </trkpt>
      <trkpt lat="43.26114" lon="5.72185">
        <ele>403</ele>
        <time>2020-01-15T11:43:05Z</time>
      </trkpt>
      <trkpt lat="43.26119" lon="5.72187">
        <ele>406</ele>
        <time>2020-01-15T11:43:11Z</time>
      </trkpt>
      <trkpt lat="43.26124" lon="5.72191">
        <ele>407</ele>
        <time>2020-01-15T11:43:23Z</time>
      </trkpt>
      <trkpt lat="43.26129" lon="5.72195">
        <ele>407</ele>
        <time>2020-01-15T11:43:31Z</time>
      </trkpt>
      <trkpt lat="43.26134" lon="5.72195">
        <ele>408</ele>
        <time>2020-01-15T11:43:37Z</time>
      </trkpt>
      <trkpt lat="43.26139" lon="5.72194">
        <ele>401</ele>
        <time>2020-01-15T11:43:45Z</time>
      </trkpt>
      <trkpt lat="43.26144" lon="5.72193">
        <ele>400</ele>
        <time>2020-01-15T11:43:51Z</time>
      </trkpt>
      <trkpt lat="43.26149" lon="5.7219">
        <ele>401</ele>
        <time>2020-01-15T11:43:57Z</time>
      </trkpt>
      <trkpt lat="43.26155" lon="5.7219">
        <ele>396</ele>
        <time>2020-01-15T11:44:09Z</time>
      </trkpt>
      <trkpt lat="43.2616" lon="5.72189">
        <ele>396</ele>
        <time>2020-01-15T11:44:13Z</time>
      </trkpt>
      <trkpt lat="43.26164" lon="5.72187">
        <ele>397</ele>
        <time>2020-01-15T11:44:17Z</time>
      </trkpt>
      <trkpt lat="43.2617" lon="5.72185">
        <ele>395</ele>
        <time>2020-01-15T11:44:23Z</time>
      </trkpt>
      <trkpt lat="43.26173" lon="5.7218">
        <ele>391</ele>
        <time>2020-01-15T11:44:33Z</time>
      </trkpt>
      <trkpt lat="43.26178" lon="5.72176">
        <ele>390</ele>
        <time>2020-01-15T11:44:39Z</time>
      </trkpt>
      <trkpt lat="43.26181" lon="5.7217">
        <ele>389</ele>
        <time>2020-01-15T11:44:45Z</time>
      </trkpt>
      <trkpt lat="43.26185" lon="5.72167">
        <ele>389</ele>
        <time>2020-01-15T11:44:53Z</time>
      </trkpt>
      <trkpt lat="43.26191" lon="5.72166">
        <ele>387</ele>
        <time>2020-01-15T11:45:03Z</time>
      </trkpt>
      <trkpt lat="43.26195" lon="5.72165">
        <ele>387</ele>
        <time>2020-01-15T11:45:07Z</time>
      </trkpt>
      <trkpt lat="43.262" lon="5.72163">
        <ele>388</ele>
        <time>2020-01-15T11:45:11Z</time>
      </trkpt>
      <trkpt lat="43.26205" lon="5.72157">
        <ele>386</ele>
        <time>2020-01-15T11:45:19Z</time>
      </trkpt>
      <trkpt lat="43.26207" lon="5.72151">
        <ele>384</ele>
        <time>2020-01-15T11:45:25Z</time>
      </trkpt>
      <trkpt lat="43.26213" lon="5.7215">
        <ele>382</ele>
        <time>2020-01-15T11:45:35Z</time>
      </trkpt>
      <trkpt lat="43.2622" lon="5.72152">
        <ele>382</ele>
        <time>2020-01-15T11:45:41Z</time>
      </trkpt>
      <trkpt lat="43.26224" lon="5.72155">
        <ele>383</ele>
        <time>2020-01-15T11:45:49Z</time>
      </trkpt>
      <trkpt lat="43.2623" lon="5.72156">
        <ele>381</ele>
        <time>2020-01-15T11:46:01Z</time>
      </trkpt>
      <trkpt lat="43.26237" lon="5.72158">
        <ele>381</ele>
        <time>2020-01-15T11:46:07Z</time>
      </trkpt>
      <trkpt lat="43.26241" lon="5.72163">
        <ele>382</ele>
        <time>2020-01-15T11:46:13Z</time>
      </trkpt>
      <trkpt lat="43.26247" lon="5.72169">
        <ele>382</ele>
        <time>2020-01-15T11:46:19Z</time>
      </trkpt>
      <trkpt lat="43.2625" lon="5.72175">
        <ele>382</ele>
        <time>2020-01-15T11:46:25Z</time>
      </trkpt>
      <trkpt lat="43.26252" lon="5.72183">
        <ele>381</ele>
        <time>2020-01-15T11:46:31Z</time>
      </trkpt>
      <trkpt lat="43.26255" lon="5.72191">
        <ele>378</ele>
        <time>2020-01-15T11:46:37Z</time>
      </trkpt>
      <trkpt lat="43.26255" lon="5.72199">
        <ele>379</ele>
        <time>2020-01-15T11:46:43Z</time>
      </trkpt>
      <trkpt lat="43.26256" lon="5.72207">
        <ele>377</ele>
        <time>2020-01-15T11:46:49Z</time>
      </trkpt>
      <trkpt lat="43.26257" lon="5.72215">
        <ele>377</ele>
        <time>2020-01-15T11:46:55Z</time>
      </trkpt>
      <trkpt lat="43.26258" lon="5.72223">
        <ele>378</ele>
        <time>2020-01-15T11:47:01Z</time>
      </trkpt>
      <trkpt lat="43.26259" lon="5.72229">
        <ele>376</ele>
        <time>2020-01-15T11:47:07Z</time>
      </trkpt>
      <trkpt lat="43.26261" lon="5.72236">
        <ele>375</ele>
        <time>2020-01-15T11:47:13Z</time>
      </trkpt>
      <trkpt lat="43.26263" lon="5.72243">
        <ele>375</ele>
        <time>2020-01-15T11:47:19Z</time>
      </trkpt>
      <trkpt lat="43.26265" lon="5.72251">
        <ele>372</ele>
        <time>2020-01-15T11:47:27Z</time>
      </trkpt>
      <trkpt lat="43.26266" lon="5.72257">
        <ele>370</ele>
        <time>2020-01-15T11:47:31Z</time>
      </trkpt>
      <trkpt lat="43.26266" lon="5.72264">
        <ele>373</ele>
        <time>2020-01-15T11:47:35Z</time>
      </trkpt>
      <trkpt lat="43.26266" lon="5.72271">
        <ele>373</ele>
        <time>2020-01-15T11:47:39Z</time>
      </trkpt>
      <trkpt lat="43.26265" lon="5.72277">
        <ele>374</ele>
        <time>2020-01-15T11:47:43Z</time>
      </trkpt>
      <trkpt lat="43.26265" lon="5.72283">
        <ele>375</ele>
        <time>2020-01-15T11:47:49Z</time>
      </trkpt>
      <trkpt lat="43.26265" lon="5.72291">
        <ele>375</ele>
        <time>2020-01-15T11:47:55Z</time>
      </trkpt>
      <trkpt lat="43.26267" lon="5.72296">
        <ele>373</ele>
        <time>2020-01-15T11:48:01Z</time>
      </trkpt>
      <trkpt lat="43.26271" lon="5.72299">
        <ele>373</ele>
        <time>2020-01-15T11:48:05Z</time>
      </trkpt>
      <trkpt lat="43.26276" lon="5.72302">
        <ele>373</ele>
        <time>2020-01-15T11:48:09Z</time>
      </trkpt>
      <trkpt lat="43.2628" lon="5.72308">
        <ele>378</ele>
        <time>2020-01-15T11:48:15Z</time>
      </trkpt>
      <trkpt lat="43.26284" lon="5.72311">
        <ele>381</ele>
        <time>2020-01-15T11:48:23Z</time>
      </trkpt>
      <trkpt lat="43.26281" lon="5.72317">
        <ele>382</ele>
        <time>2020-01-15T11:49:55Z</time>
      </trkpt>
      <trkpt lat="43.26285" lon="5.72323">
        <ele>385</ele>
        <time>2020-01-15T11:50:01Z</time>
      </trkpt>
      <trkpt lat="43.26289" lon="5.72326">
        <ele>378</ele>
        <time>2020-01-15T11:50:25Z</time>
      </trkpt>
      <trkpt lat="43.26293" lon="5.72333">
        <ele>376</ele>
        <time>2020-01-15T11:50:31Z</time>
      </trkpt>
      <trkpt lat="43.26296" lon="5.72338">
        <ele>376</ele>
        <time>2020-01-15T11:50:37Z</time>
      </trkpt>
      <trkpt lat="43.26299" lon="5.72342">
        <ele>379</ele>
        <time>2020-01-15T11:50:41Z</time>
      </trkpt>
      <trkpt lat="43.26301" lon="5.72349">
        <ele>375</ele>
        <time>2020-01-15T11:50:47Z</time>
      </trkpt>
      <trkpt lat="43.26306" lon="5.72352">
        <ele>376</ele>
        <time>2020-01-15T11:50:51Z</time>
      </trkpt>
      <trkpt lat="43.26311" lon="5.72355">
        <ele>375</ele>
        <time>2020-01-15T11:50:55Z</time>
      </trkpt>
      <trkpt lat="43.26315" lon="5.7236">
        <ele>373</ele>
        <time>2020-01-15T11:51:01Z</time>
      </trkpt>
      <trkpt lat="43.26316" lon="5.72367">
        <ele>370</ele>
        <time>2020-01-15T11:51:07Z</time>
      </trkpt>
      <trkpt lat="43.26318" lon="5.72375">
        <ele>370</ele>
        <time>2020-01-15T11:51:13Z</time>
      </trkpt>
      <trkpt lat="43.2632" lon="5.72381">
        <ele>370</ele>
        <time>2020-01-15T11:51:17Z</time>
      </trkpt>
      <trkpt lat="43.26322" lon="5.72387">
        <ele>370</ele>
        <time>2020-01-15T11:51:21Z</time>
      </trkpt>
      <trkpt lat="43.26324" lon="5.72394">
        <ele>369</ele>
        <time>2020-01-15T11:51:25Z</time>
      </trkpt>
      <trkpt lat="43.26325" lon="5.72402">
        <ele>370</ele>
        <time>2020-01-15T11:51:31Z</time>
      </trkpt>
      <trkpt lat="43.26328" lon="5.72407">
        <ele>371</ele>
        <time>2020-01-15T11:51:35Z</time>
      </trkpt>
      <trkpt lat="43.2633" lon="5.72413">
        <ele>370</ele>
        <time>2020-01-15T11:51:39Z</time>
      </trkpt>
      <trkpt lat="43.26333" lon="5.72418">
        <ele>373</ele>
        <time>2020-01-15T11:51:43Z</time>
      </trkpt>
      <trkpt lat="43.26334" lon="5.72427">
        <ele>367</ele>
        <time>2020-01-15T11:51:49Z</time>
      </trkpt>
      <trkpt lat="43.26338" lon="5.72432">
        <ele>365</ele>
        <time>2020-01-15T11:51:55Z</time>
      </trkpt>
      <trkpt lat="43.26337" lon="5.72441">
        <ele>361</ele>
        <time>2020-01-15T11:52:01Z</time>
      </trkpt>
      <trkpt lat="43.26339" lon="5.72448">
        <ele>365</ele>
        <time>2020-01-15T11:52:07Z</time>
      </trkpt>
      <trkpt lat="43.26342" lon="5.72455">
        <ele>364</ele>
        <time>2020-01-15T11:52:13Z</time>
      </trkpt>
      <trkpt lat="43.26346" lon="5.72461">
        <ele>363</ele>
        <time>2020-01-15T11:52:19Z</time>
      </trkpt>
      <trkpt lat="43.2635" lon="5.72468">
        <ele>363</ele>
        <time>2020-01-15T11:52:25Z</time>
      </trkpt>
      <trkpt lat="43.26351" lon="5.72474">
        <ele>363</ele>
        <time>2020-01-15T11:52:29Z</time>
      </trkpt>
      <trkpt lat="43.26352" lon="5.7248">
        <ele>361</ele>
        <time>2020-01-15T11:52:33Z</time>
      </trkpt>
      <trkpt lat="43.26356" lon="5.72486">
        <ele>360</ele>
        <time>2020-01-15T11:52:37Z</time>
      </trkpt>
      <trkpt lat="43.26358" lon="5.72492">
        <ele>359</ele>
        <time>2020-01-15T11:52:41Z</time>
      </trkpt>
      <trkpt lat="43.26361" lon="5.72498">
        <ele>362</ele>
        <time>2020-01-15T11:52:45Z</time>
      </trkpt>
      <trkpt lat="43.26363" lon="5.72506">
        <ele>366</ele>
        <time>2020-01-15T11:52:49Z</time>
      </trkpt>
      <trkpt lat="43.26365" lon="5.72514">
        <ele>368</ele>
        <time>2020-01-15T11:52:53Z</time>
      </trkpt>
      <trkpt lat="43.26367" lon="5.72521">
        <ele>371</ele>
        <time>2020-01-15T11:52:57Z</time>
      </trkpt>
      <trkpt lat="43.26369" lon="5.72527">
        <ele>373</ele>
        <time>2020-01-15T11:53:01Z</time>
      </trkpt>
      <trkpt lat="43.26371" lon="5.72535">
        <ele>372</ele>
        <time>2020-01-15T11:53:05Z</time>
      </trkpt>
      <trkpt lat="43.26373" lon="5.72542">
        <ele>369</ele>
        <time>2020-01-15T11:53:09Z</time>
      </trkpt>
      <trkpt lat="43.26374" lon="5.7255">
        <ele>371</ele>
        <time>2020-01-15T11:53:13Z</time>
      </trkpt>
      <trkpt lat="43.26376" lon="5.72557">
        <ele>373</ele>
        <time>2020-01-15T11:53:17Z</time>
      </trkpt>
      <trkpt lat="43.26379" lon="5.72563">
        <ele>371</ele>
        <time>2020-01-15T11:53:21Z</time>
      </trkpt>
      <trkpt lat="43.26378" lon="5.72572">
        <ele>364</ele>
        <time>2020-01-15T11:53:27Z</time>
      </trkpt>
      <trkpt lat="43.26375" lon="5.72581">
        <ele>362</ele>
        <time>2020-01-15T11:53:33Z</time>
      </trkpt>
      <trkpt lat="43.26376" lon="5.72588">
        <ele>361</ele>
        <time>2020-01-15T11:53:39Z</time>
      </trkpt>
      <trkpt lat="43.26377" lon="5.72595">
        <ele>364</ele>
        <time>2020-01-15T11:53:45Z</time>
      </trkpt>
      <trkpt lat="43.26381" lon="5.726">
        <ele>364</ele>
        <time>2020-01-15T11:53:49Z</time>
      </trkpt>
      <trkpt lat="43.26385" lon="5.72606">
        <ele>365</ele>
        <time>2020-01-15T11:53:53Z</time>
      </trkpt>
      <trkpt lat="43.26388" lon="5.72611">
        <ele>364</ele>
        <time>2020-01-15T11:53:57Z</time>
      </trkpt>
      <trkpt lat="43.26392" lon="5.72616">
        <ele>364</ele>
        <time>2020-01-15T11:54:01Z</time>
      </trkpt>
      <trkpt lat="43.26396" lon="5.72621">
        <ele>363</ele>
        <time>2020-01-15T11:54:05Z</time>
      </trkpt>
      <trkpt lat="43.26401" lon="5.72626">
        <ele>360</ele>
        <time>2020-01-15T11:54:09Z</time>
      </trkpt>
      <trkpt lat="43.26406" lon="5.7263">
        <ele>361</ele>
        <time>2020-01-15T11:54:13Z</time>
      </trkpt>
      <trkpt lat="43.26411" lon="5.72635">
        <ele>361</ele>
        <time>2020-01-15T11:54:17Z</time>
      </trkpt>
      <trkpt lat="43.26414" lon="5.72641">
        <ele>362</ele>
        <time>2020-01-15T11:54:23Z</time>
      </trkpt>
      <trkpt lat="43.26418" lon="5.72645">
        <ele>364</ele>
        <time>2020-01-15T11:54:27Z</time>
      </trkpt>
      <trkpt lat="43.26422" lon="5.72649">
        <ele>363</ele>
        <time>2020-01-15T11:54:31Z</time>
      </trkpt>
      <trkpt lat="43.26425" lon="5.72654">
        <ele>362</ele>
        <time>2020-01-15T11:54:35Z</time>
      </trkpt>
      <trkpt lat="43.2643" lon="5.7266">
        <ele>363</ele>
        <time>2020-01-15T11:54:41Z</time>
      </trkpt>
      <trkpt lat="43.26434" lon="5.72665">
        <ele>363</ele>
        <time>2020-01-15T11:54:47Z</time>
      </trkpt>
      <trkpt lat="43.26439" lon="5.72665">
        <ele>358</ele>
        <time>2020-01-15T11:55:01Z</time>
      </trkpt>
      <trkpt lat="43.26436" lon="5.7266">
        <ele>355</ele>
        <time>2020-01-15T11:55:15Z</time>
      </trkpt>
      <trkpt lat="43.26441" lon="5.72659">
        <ele>356</ele>
        <time>2020-01-15T11:55:19Z</time>
      </trkpt>
      <trkpt lat="43.26446" lon="5.72664">
        <ele>356</ele>
        <time>2020-01-15T11:55:25Z</time>
      </trkpt>
      <trkpt lat="43.2645" lon="5.72668">
        <ele>355</ele>
        <time>2020-01-15T11:55:29Z</time>
      </trkpt>
      <trkpt lat="43.26454" lon="5.72673">
        <ele>354</ele>
        <time>2020-01-15T11:55:33Z</time>
      </trkpt>
      <trkpt lat="43.26459" lon="5.72678">
        <ele>355</ele>
        <time>2020-01-15T11:55:37Z</time>
      </trkpt>
      <trkpt lat="43.26461" lon="5.72684">
        <ele>354</ele>
        <time>2020-01-15T11:55:41Z</time>
      </trkpt>
      <trkpt lat="43.26464" lon="5.72689">
        <ele>354</ele>
        <time>2020-01-15T11:55:45Z</time>
      </trkpt>
      <trkpt lat="43.26469" lon="5.72692">
        <ele>354</ele>
        <time>2020-01-15T11:55:49Z</time>
      </trkpt>
      <trkpt lat="43.26474" lon="5.72696">
        <ele>356</ele>
        <time>2020-01-15T11:55:53Z</time>
      </trkpt>
      <trkpt lat="43.26478" lon="5.72702">
        <ele>357</ele>
        <time>2020-01-15T11:55:59Z</time>
      </trkpt>
      <trkpt lat="43.26485" lon="5.72707">
        <ele>360</ele>
        <time>2020-01-15T11:56:05Z</time>
      </trkpt>
      <trkpt lat="43.26492" lon="5.7271">
        <ele>359</ele>
        <time>2020-01-15T11:56:09Z</time>
      </trkpt>
      <trkpt lat="43.26497" lon="5.72714">
        <ele>358</ele>
        <time>2020-01-15T11:56:13Z</time>
      </trkpt>
      <trkpt lat="43.26501" lon="5.72719">
        <ele>358</ele>
        <time>2020-01-15T11:56:17Z</time>
      </trkpt>
      <trkpt lat="43.26505" lon="5.72723">
        <ele>359</ele>
        <time>2020-01-15T11:56:21Z</time>
      </trkpt>
      <trkpt lat="43.26506" lon="5.7273">
        <ele>358</ele>
        <time>2020-01-15T11:56:25Z</time>
      </trkpt>
      <trkpt lat="43.26508" lon="5.72739">
        <ele>359</ele>
        <time>2020-01-15T11:56:31Z</time>
      </trkpt>
      <trkpt lat="43.2651" lon="5.72744">
        <ele>360</ele>
        <time>2020-01-15T11:56:35Z</time>
      </trkpt>
      <trkpt lat="43.26513" lon="5.7275">
        <ele>360</ele>
        <time>2020-01-15T11:56:39Z</time>
      </trkpt>
      <trkpt lat="43.26515" lon="5.72756">
        <ele>360</ele>
        <time>2020-01-15T11:56:43Z</time>
      </trkpt>
      <trkpt lat="43.26521" lon="5.72761">
        <ele>361</ele>
        <time>2020-01-15T11:56:49Z</time>
      </trkpt>
      <trkpt lat="43.26525" lon="5.72764">
        <ele>355</ele>
        <time>2020-01-15T11:56:53Z</time>
      </trkpt>
      <trkpt lat="43.26529" lon="5.7277">
        <ele>355</ele>
        <time>2020-01-15T11:56:57Z</time>
      </trkpt>
      <trkpt lat="43.26533" lon="5.72776">
        <ele>352</ele>
        <time>2020-01-15T11:57:03Z</time>
      </trkpt>
      <trkpt lat="43.26537" lon="5.72781">
        <ele>354</ele>
        <time>2020-01-15T11:57:07Z</time>
      </trkpt>
      <trkpt lat="43.26541" lon="5.72788">
        <ele>354</ele>
        <time>2020-01-15T11:57:13Z</time>
      </trkpt>
      <trkpt lat="43.26545" lon="5.72792">
        <ele>353</ele>
        <time>2020-01-15T11:57:17Z</time>
      </trkpt>
      <trkpt lat="43.26548" lon="5.72798">
        <ele>354</ele>
        <time>2020-01-15T11:57:21Z</time>
      </trkpt>
      <trkpt lat="43.26552" lon="5.72805">
        <ele>351</ele>
        <time>2020-01-15T11:57:27Z</time>
      </trkpt>
      <trkpt lat="43.26556" lon="5.72811">
        <ele>353</ele>
        <time>2020-01-15T11:57:33Z</time>
      </trkpt>
      <trkpt lat="43.26561" lon="5.72814">
        <ele>355</ele>
        <time>2020-01-15T11:57:37Z</time>
      </trkpt>
      <trkpt lat="43.26567" lon="5.72816">
        <ele>358</ele>
        <time>2020-01-15T11:57:41Z</time>
      </trkpt>
      <trkpt lat="43.26573" lon="5.72816">
        <ele>359</ele>
        <time>2020-01-15T11:57:45Z</time>
      </trkpt>
      <trkpt lat="43.26579" lon="5.72817">
        <ele>360</ele>
        <time>2020-01-15T11:57:49Z</time>
      </trkpt>
      <trkpt lat="43.26584" lon="5.72821">
        <ele>357</ele>
        <time>2020-01-15T11:57:55Z</time>
      </trkpt>
      <trkpt lat="43.26589" lon="5.72828">
        <ele>357</ele>
        <time>2020-01-15T11:58:01Z</time>
      </trkpt>
      <trkpt lat="43.26585" lon="5.72834">
        <ele>344</ele>
        <time>2020-01-15T11:58:07Z</time>
      </trkpt>
      <trkpt lat="43.26574" lon="5.72838">
        <ele>339</ele>
        <time>2020-01-15T11:58:11Z</time>
      </trkpt>
      <trkpt lat="43.26576" lon="5.72845">
        <ele>338</ele>
        <time>2020-01-15T11:58:21Z</time>
      </trkpt>
      <trkpt lat="43.26577" lon="5.72851">
        <ele>339</ele>
        <time>2020-01-15T11:58:25Z</time>
      </trkpt>
      <trkpt lat="43.2658" lon="5.7286">
        <ele>339</ele>
        <time>2020-01-15T11:58:35Z</time>
      </trkpt>
      <trkpt lat="43.26578" lon="5.72868">
        <ele>338</ele>
        <time>2020-01-15T11:58:41Z</time>
      </trkpt>
      <trkpt lat="43.26574" lon="5.72876">
        <ele>339</ele>
        <time>2020-01-15T11:58:49Z</time>
      </trkpt>
      <trkpt lat="43.26571" lon="5.72882">
        <ele>340</ele>
        <time>2020-01-15T11:58:55Z</time>
      </trkpt>
      <trkpt lat="43.26568" lon="5.72889">
        <ele>337</ele>
        <time>2020-01-15T11:58:59Z</time>
      </trkpt>
      <trkpt lat="43.26566" lon="5.72896">
        <ele>337</ele>
        <time>2020-01-15T11:59:03Z</time>
      </trkpt>
      <trkpt lat="43.26564" lon="5.72902">
        <ele>338</ele>
        <time>2020-01-15T11:59:07Z</time>
      </trkpt>
      <trkpt lat="43.26564" lon="5.72908">
        <ele>332</ele>
        <time>2020-01-15T11:59:13Z</time>
      </trkpt>
      <trkpt lat="43.26563" lon="5.72915">
        <ele>332</ele>
        <time>2020-01-15T11:59:17Z</time>
      </trkpt>
      <trkpt lat="43.26563" lon="5.72921">
        <ele>332</ele>
        <time>2020-01-15T11:59:21Z</time>
      </trkpt>
      <trkpt lat="43.26564" lon="5.7293">
        <ele>331</ele>
        <time>2020-01-15T11:59:27Z</time>
      </trkpt>
      <trkpt lat="43.26566" lon="5.72936">
        <ele>333</ele>
        <time>2020-01-15T11:59:31Z</time>
      </trkpt>
      <trkpt lat="43.2657" lon="5.7294">
        <ele>336</ele>
        <time>2020-01-15T11:59:35Z</time>
      </trkpt>
      <trkpt lat="43.26576" lon="5.72943">
        <ele>339</ele>
        <time>2020-01-15T11:59:41Z</time>
      </trkpt>
      <trkpt lat="43.2658" lon="5.72942">
        <ele>339</ele>
        <time>2020-01-15T11:59:47Z</time>
      </trkpt>
      <trkpt lat="43.26586" lon="5.72936">
        <ele>337</ele>
        <time>2020-01-15T11:59:55Z</time>
      </trkpt>
      <trkpt lat="43.2659" lon="5.72932">
        <ele>337</ele>
        <time>2020-01-15T11:59:59Z</time>
      </trkpt>
      <trkpt lat="43.26595" lon="5.72927">
        <ele>336</ele>
        <time>2020-01-15T12:00:05Z</time>
      </trkpt>
      <trkpt lat="43.266" lon="5.72925">
        <ele>333</ele>
        <time>2020-01-15T12:00:13Z</time>
      </trkpt>
      <trkpt lat="43.26606" lon="5.72926">
        <ele>332</ele>
        <time>2020-01-15T12:00:21Z</time>
      </trkpt>
      <trkpt lat="43.26611" lon="5.72928">
        <ele>336</ele>
        <time>2020-01-15T12:00:27Z</time>
      </trkpt>
      <trkpt lat="43.26616" lon="5.72926">
        <ele>341</ele>
        <time>2020-01-15T12:00:43Z</time>
      </trkpt>
      <trkpt lat="43.26616" lon="5.72933">
        <ele>341</ele>
        <time>2020-01-15T12:01:09Z</time>
      </trkpt>
      <trkpt lat="43.26611" lon="5.72937">
        <ele>338</ele>
        <time>2020-01-15T12:02:31Z</time>
      </trkpt>
      <trkpt lat="43.26611" lon="5.72945">
        <ele>338</ele>
        <time>2020-01-15T12:02:37Z</time>
      </trkpt>
      <trkpt lat="43.26609" lon="5.72952">
        <ele>340</ele>
        <time>2020-01-15T12:02:45Z</time>
      </trkpt>
      <trkpt lat="43.26608" lon="5.72959">
        <ele>339</ele>
        <time>2020-01-15T12:02:53Z</time>
      </trkpt>
      <trkpt lat="43.26605" lon="5.72965">
        <ele>343</ele>
        <time>2020-01-15T12:03:01Z</time>
      </trkpt>
      <trkpt lat="43.26603" lon="5.72971">
        <ele>345</ele>
        <time>2020-01-15T12:03:07Z</time>
      </trkpt>
      <trkpt lat="43.26601" lon="5.72978">
        <ele>346</ele>
        <time>2020-01-15T12:03:15Z</time>
      </trkpt>
      <trkpt lat="43.26599" lon="5.72985">
        <ele>345</ele>
        <time>2020-01-15T12:03:21Z</time>
      </trkpt>
      <trkpt lat="43.26598" lon="5.72992">
        <ele>345</ele>
        <time>2020-01-15T12:03:27Z</time>
      </trkpt>
      <trkpt lat="43.26598" lon="5.72999">
        <ele>345</ele>
        <time>2020-01-15T12:03:33Z</time>
      </trkpt>
      <trkpt lat="43.26596" lon="5.73006">
        <ele>344</ele>
        <time>2020-01-15T12:03:39Z</time>
      </trkpt>
      <trkpt lat="43.26595" lon="5.73015">
        <ele>344</ele>
        <time>2020-01-15T12:03:45Z</time>
      </trkpt>
      <trkpt lat="43.26594" lon="5.73022">
        <ele>346</ele>
        <time>2020-01-15T12:03:51Z</time>
      </trkpt>
      <trkpt lat="43.26592" lon="5.73028">
        <ele>347</ele>
        <time>2020-01-15T12:03:57Z</time>
      </trkpt>
      <trkpt lat="43.2659" lon="5.73035">
        <ele>350</ele>
        <time>2020-01-15T12:04:03Z</time>
      </trkpt>
      <trkpt lat="43.26588" lon="5.73042">
        <ele>349</ele>
        <time>2020-01-15T12:04:09Z</time>
      </trkpt>
      <trkpt lat="43.26589" lon="5.73049">
        <ele>352</ele>
        <time>2020-01-15T12:04:15Z</time>
      </trkpt>
      <trkpt lat="43.26589" lon="5.73056">
        <ele>352</ele>
        <time>2020-01-15T12:04:23Z</time>
      </trkpt>
      <trkpt lat="43.2659" lon="5.73063">
        <ele>354</ele>
        <time>2020-01-15T12:04:29Z</time>
      </trkpt>
      <trkpt lat="43.26592" lon="5.73069">
        <ele>355</ele>
        <time>2020-01-15T12:04:35Z</time>
      </trkpt>
      <trkpt lat="43.26593" lon="5.73076">
        <ele>355</ele>
        <time>2020-01-15T12:04:41Z</time>
      </trkpt>
      <trkpt lat="43.26594" lon="5.73083">
        <ele>356</ele>
        <time>2020-01-15T12:04:47Z</time>
      </trkpt>
      <trkpt lat="43.26592" lon="5.7309">
        <ele>358</ele>
        <time>2020-01-15T12:04:53Z</time>
      </trkpt>
      <trkpt lat="43.26588" lon="5.73093">
        <ele>357</ele>
        <time>2020-01-15T12:04:59Z</time>
      </trkpt>
      <trkpt lat="43.26583" lon="5.73091">
        <ele>357</ele>
        <time>2020-01-15T12:05:05Z</time>
      </trkpt>
      <trkpt lat="43.26579" lon="5.73087">
        <ele>359</ele>
        <time>2020-01-15T12:05:15Z</time>
      </trkpt>
      <trkpt lat="43.26573" lon="5.73084">
        <ele>360</ele>
        <time>2020-01-15T12:05:23Z</time>
      </trkpt>
      <trkpt lat="43.26568" lon="5.7308">
        <ele>360</ele>
        <time>2020-01-15T12:05:29Z</time>
      </trkpt>
      <trkpt lat="43.26565" lon="5.73074">
        <ele>361</ele>
        <time>2020-01-15T12:05:37Z</time>
      </trkpt>
      <trkpt lat="43.2656" lon="5.7307">
        <ele>361</ele>
        <time>2020-01-15T12:05:43Z</time>
      </trkpt>
      <trkpt lat="43.26556" lon="5.73065">
        <ele>361</ele>
        <time>2020-01-15T12:05:51Z</time>
      </trkpt>
      <trkpt lat="43.26552" lon="5.7306">
        <ele>362</ele>
        <time>2020-01-15T12:05:57Z</time>
      </trkpt>
      <trkpt lat="43.26547" lon="5.73057">
        <ele>363</ele>
        <time>2020-01-15T12:06:03Z</time>
      </trkpt>
      <trkpt lat="43.26543" lon="5.73054">
        <ele>364</ele>
        <time>2020-01-15T12:06:09Z</time>
      </trkpt>
      <trkpt lat="43.26538" lon="5.73052">
        <ele>366</ele>
        <time>2020-01-15T12:06:15Z</time>
      </trkpt>
      <trkpt lat="43.26533" lon="5.7305">
        <ele>369</ele>
        <time>2020-01-15T12:06:23Z</time>
      </trkpt>
      <trkpt lat="43.26527" lon="5.7305">
        <ele>368</ele>
        <time>2020-01-15T12:06:31Z</time>
      </trkpt>
      <trkpt lat="43.26522" lon="5.7305">
        <ele>368</ele>
        <time>2020-01-15T12:06:37Z</time>
      </trkpt>
      <trkpt lat="43.26517" lon="5.73051">
        <ele>370</ele>
        <time>2020-01-15T12:06:43Z</time>
      </trkpt>
      <trkpt lat="43.26512" lon="5.73056">
        <ele>373</ele>
        <time>2020-01-15T12:06:51Z</time>
      </trkpt>
      <trkpt lat="43.26509" lon="5.73063">
        <ele>373</ele>
        <time>2020-01-15T12:06:57Z</time>
      </trkpt>
      <trkpt lat="43.26507" lon="5.73069">
        <ele>372</ele>
        <time>2020-01-15T12:07:03Z</time>
      </trkpt>
      <trkpt lat="43.26504" lon="5.73074">
        <ele>374</ele>
        <time>2020-01-15T12:07:09Z</time>
      </trkpt>
      <trkpt lat="43.26499" lon="5.73078">
        <ele>375</ele>
        <time>2020-01-15T12:07:17Z</time>
      </trkpt>
      <trkpt lat="43.26494" lon="5.73083">
        <ele>376</ele>
        <time>2020-01-15T12:07:23Z</time>
      </trkpt>
      <trkpt lat="43.26489" lon="5.73084">
        <ele>377</ele>
        <time>2020-01-15T12:07:29Z</time>
      </trkpt>
      <trkpt lat="43.26484" lon="5.73084">
        <ele>377</ele>
        <time>2020-01-15T12:07:35Z</time>
      </trkpt>
      <trkpt lat="43.26479" lon="5.73083">
        <ele>377</ele>
        <time>2020-01-15T12:07:43Z</time>
      </trkpt>
      <trkpt lat="43.26474" lon="5.73084">
        <ele>377</ele>
        <time>2020-01-15T12:07:49Z</time>
      </trkpt>
      <trkpt lat="43.26468" lon="5.73083">
        <ele>377</ele>
        <time>2020-01-15T12:07:57Z</time>
      </trkpt>
      <trkpt lat="43.26463" lon="5.73083">
        <ele>381</ele>
        <time>2020-01-15T12:08:05Z</time>
      </trkpt>
      <trkpt lat="43.26457" lon="5.73082">
        <ele>381</ele>
        <time>2020-01-15T12:08:11Z</time>
      </trkpt>
      <trkpt lat="43.26451" lon="5.7308">
        <ele>381</ele>
        <time>2020-01-15T12:08:17Z</time>
      </trkpt>
      <trkpt lat="43.26446" lon="5.73079">
        <ele>380</ele>
        <time>2020-01-15T12:08:23Z</time>
      </trkpt>
      <trkpt lat="43.26441" lon="5.7308">
        <ele>381</ele>
        <time>2020-01-15T12:08:29Z</time>
      </trkpt>
      <trkpt lat="43.26436" lon="5.73081">
        <ele>381</ele>
        <time>2020-01-15T12:08:35Z</time>
      </trkpt>
      <trkpt lat="43.26435" lon="5.73087">
        <ele>382</ele>
        <time>2020-01-15T12:08:43Z</time>
      </trkpt>
      <trkpt lat="43.26439" lon="5.73091">
        <ele>382</ele>
        <time>2020-01-15T12:08:53Z</time>
      </trkpt>
      <trkpt lat="43.26443" lon="5.73095">
        <ele>381</ele>
        <time>2020-01-15T12:09:01Z</time>
      </trkpt>
      <trkpt lat="43.26448" lon="5.73097">
        <ele>381</ele>
        <time>2020-01-15T12:09:07Z</time>
      </trkpt>
      <trkpt lat="43.26452" lon="5.73099">
        <ele>381</ele>
        <time>2020-01-15T12:09:13Z</time>
      </trkpt>
      <trkpt lat="43.26457" lon="5.73102">
        <ele>381</ele>
        <time>2020-01-15T12:09:19Z</time>
      </trkpt>
      <trkpt lat="43.26462" lon="5.73103">
        <ele>382</ele>
        <time>2020-01-15T12:09:23Z</time>
      </trkpt>
      <trkpt lat="43.26467" lon="5.73105">
        <ele>382</ele>
        <time>2020-01-15T12:09:29Z</time>
      </trkpt>
      <trkpt lat="43.26473" lon="5.73108">
        <ele>384</ele>
        <time>2020-01-15T12:09:35Z</time>
      </trkpt>
      <trkpt lat="43.26477" lon="5.73112">
        <ele>382</ele>
        <time>2020-01-15T12:09:41Z</time>
      </trkpt>
      <trkpt lat="43.26483" lon="5.73116">
        <ele>382</ele>
        <time>2020-01-15T12:09:47Z</time>
      </trkpt>
      <trkpt lat="43.26486" lon="5.7312">
        <ele>382</ele>
        <time>2020-01-15T12:09:51Z</time>
      </trkpt>
      <trkpt lat="43.26491" lon="5.73124">
        <ele>380</ele>
        <time>2020-01-15T12:09:57Z</time>
      </trkpt>
      <trkpt lat="43.26491" lon="5.73131">
        <ele>383</ele>
        <time>2020-01-15T12:10:05Z</time>
      </trkpt>
      <trkpt lat="43.26488" lon="5.73137">
        <ele>384</ele>
        <time>2020-01-15T12:10:15Z</time>
      </trkpt>
      <trkpt lat="43.26484" lon="5.73141">
        <ele>387</ele>
        <time>2020-01-15T12:10:21Z</time>
      </trkpt>
      <trkpt lat="43.2648" lon="5.73146">
        <ele>388</ele>
        <time>2020-01-15T12:10:29Z</time>
      </trkpt>
      <trkpt lat="43.26476" lon="5.73152">
        <ele>388</ele>
        <time>2020-01-15T12:10:37Z</time>
      </trkpt>
      <trkpt lat="43.26472" lon="5.73157">
        <ele>388</ele>
        <time>2020-01-15T12:10:45Z</time>
      </trkpt>
      <trkpt lat="43.26468" lon="5.73162">
        <ele>388</ele>
        <time>2020-01-15T12:10:51Z</time>
      </trkpt>
      <trkpt lat="43.26465" lon="5.73168">
        <ele>391</ele>
        <time>2020-01-15T12:10:55Z</time>
      </trkpt>
      <trkpt lat="43.26462" lon="5.73175">
        <ele>391</ele>
        <time>2020-01-15T12:10:59Z</time>
      </trkpt>
      <trkpt lat="43.26458" lon="5.73181">
        <ele>390</ele>
        <time>2020-01-15T12:11:05Z</time>
      </trkpt>
      <trkpt lat="43.26454" lon="5.73183">
        <ele>391</ele>
        <time>2020-01-15T12:11:11Z</time>
      </trkpt>
      <trkpt lat="43.2645" lon="5.73188">
        <ele>390</ele>
        <time>2020-01-15T12:11:17Z</time>
      </trkpt>
      <trkpt lat="43.26446" lon="5.73191">
        <ele>391</ele>
        <time>2020-01-15T12:11:23Z</time>
      </trkpt>
      <trkpt lat="43.26441" lon="5.73196">
        <ele>393</ele>
        <time>2020-01-15T12:11:29Z</time>
      </trkpt>
      <trkpt lat="43.26437" lon="5.73199">
        <ele>392</ele>
        <time>2020-01-15T12:11:35Z</time>
      </trkpt>
      <trkpt lat="43.26433" lon="5.73203">
        <ele>393</ele>
        <time>2020-01-15T12:11:41Z</time>
      </trkpt>
      <trkpt lat="43.26428" lon="5.73204">
        <ele>396</ele>
        <time>2020-01-15T12:11:47Z</time>
      </trkpt>
      <trkpt lat="43.26422" lon="5.73203">
        <ele>397</ele>
        <time>2020-01-15T12:11:53Z</time>
      </trkpt>
      <trkpt lat="43.26417" lon="5.73203">
        <ele>401</ele>
        <time>2020-01-15T12:11:59Z</time>
      </trkpt>
      <trkpt lat="43.26413" lon="5.73199">
        <ele>399</ele>
        <time>2020-01-15T12:12:05Z</time>
      </trkpt>
      <trkpt lat="43.26409" lon="5.73194">
        <ele>400</ele>
        <time>2020-01-15T12:12:11Z</time>
      </trkpt>
      <trkpt lat="43.26406" lon="5.73189">
        <ele>400</ele>
        <time>2020-01-15T12:12:17Z</time>
      </trkpt>
      <trkpt lat="43.26403" lon="5.73183">
        <ele>403</ele>
        <time>2020-01-15T12:12:23Z</time>
      </trkpt>
      <trkpt lat="43.26399" lon="5.73177">
        <ele>405</ele>
        <time>2020-01-15T12:12:29Z</time>
      </trkpt>
      <trkpt lat="43.26393" lon="5.73172">
        <ele>401</ele>
        <time>2020-01-15T12:12:35Z</time>
      </trkpt>
      <trkpt lat="43.26389" lon="5.73168">
        <ele>401</ele>
        <time>2020-01-15T12:12:39Z</time>
      </trkpt>
      <trkpt lat="43.26384" lon="5.73163">
        <ele>402</ele>
        <time>2020-01-15T12:12:45Z</time>
      </trkpt>
      <trkpt lat="43.26381" lon="5.73157">
        <ele>402</ele>
        <time>2020-01-15T12:12:51Z</time>
      </trkpt>
      <trkpt lat="43.26377" lon="5.7315">
        <ele>402</ele>
        <time>2020-01-15T12:12:57Z</time>
      </trkpt>
      <trkpt lat="43.26374" lon="5.73143">
        <ele>401</ele>
        <time>2020-01-15T12:13:03Z</time>
      </trkpt>
      <trkpt lat="43.26372" lon="5.73136">
        <ele>403</ele>
        <time>2020-01-15T12:13:09Z</time>
      </trkpt>
      <trkpt lat="43.26369" lon="5.7313">
        <ele>406</ele>
        <time>2020-01-15T12:13:15Z</time>
      </trkpt>
      <trkpt lat="43.26366" lon="5.73125">
        <ele>404</ele>
        <time>2020-01-15T12:13:21Z</time>
      </trkpt>
      <trkpt lat="43.26361" lon="5.73126">
        <ele>406</ele>
        <time>2020-01-15T12:13:27Z</time>
      </trkpt>
      <trkpt lat="43.26356" lon="5.73131">
        <ele>407</ele>
        <time>2020-01-15T12:13:33Z</time>
      </trkpt>
      <trkpt lat="43.2635" lon="5.73135">
        <ele>404</ele>
        <time>2020-01-15T12:13:39Z</time>
      </trkpt>
      <trkpt lat="43.26345" lon="5.73138">
        <ele>402</ele>
        <time>2020-01-15T12:13:45Z</time>
      </trkpt>
      <trkpt lat="43.2634" lon="5.73142">
        <ele>402</ele>
        <time>2020-01-15T12:13:51Z</time>
      </trkpt>
      <trkpt lat="43.26334" lon="5.73145">
        <ele>402</ele>
        <time>2020-01-15T12:13:57Z</time>
      </trkpt>
      <trkpt lat="43.26329" lon="5.73148">
        <ele>401</ele>
        <time>2020-01-15T12:14:03Z</time>
      </trkpt>
      <trkpt lat="43.26324" lon="5.7315">
        <ele>402</ele>
        <time>2020-01-15T12:14:09Z</time>
      </trkpt>
      <trkpt lat="43.26319" lon="5.73153">
        <ele>405</ele>
        <time>2020-01-15T12:14:15Z</time>
      </trkpt>
      <trkpt lat="43.26314" lon="5.73156">
        <ele>406</ele>
        <time>2020-01-15T12:14:21Z</time>
      </trkpt>
      <trkpt lat="43.26309" lon="5.73158">
        <ele>408</ele>
        <time>2020-01-15T12:14:27Z</time>
      </trkpt>
      <trkpt lat="43.26304" lon="5.73162">
        <ele>408</ele>
        <time>2020-01-15T12:14:33Z</time>
      </trkpt>
      <trkpt lat="43.26299" lon="5.73164">
        <ele>408</ele>
        <time>2020-01-15T12:14:39Z</time>
      </trkpt>
      <trkpt lat="43.26294" lon="5.73169">
        <ele>410</ele>
        <time>2020-01-15T12:14:45Z</time>
      </trkpt>
      <trkpt lat="43.26289" lon="5.73173">
        <ele>412</ele>
        <time>2020-01-15T12:14:51Z</time>
      </trkpt>
      <trkpt lat="43.26284" lon="5.73176">
        <ele>413</ele>
        <time>2020-01-15T12:14:57Z</time>
      </trkpt>
      <trkpt lat="43.2628" lon="5.73179">
        <ele>414</ele>
        <time>2020-01-15T12:15:03Z</time>
      </trkpt>
      <trkpt lat="43.26274" lon="5.7318">
        <ele>415</ele>
        <time>2020-01-15T12:15:11Z</time>
      </trkpt>
      <trkpt lat="43.26269" lon="5.73182">
        <ele>415</ele>
        <time>2020-01-15T12:15:17Z</time>
      </trkpt>
      <trkpt lat="43.26264" lon="5.73184">
        <ele>414</ele>
        <time>2020-01-15T12:15:23Z</time>
      </trkpt>
      <trkpt lat="43.2626" lon="5.7319">
        <ele>413</ele>
        <time>2020-01-15T12:15:33Z</time>
      </trkpt>
      <trkpt lat="43.26262" lon="5.73197">
        <ele>413</ele>
        <time>2020-01-15T12:15:39Z</time>
      </trkpt>
      <trkpt lat="43.26265" lon="5.73204">
        <ele>412</ele>
        <time>2020-01-15T12:15:45Z</time>
      </trkpt>
      <trkpt lat="43.26265" lon="5.73211">
        <ele>413</ele>
        <time>2020-01-15T12:15:51Z</time>
      </trkpt>
      <trkpt lat="43.26265" lon="5.73218">
        <ele>414</ele>
        <time>2020-01-15T12:15:57Z</time>
      </trkpt>
      <trkpt lat="43.26266" lon="5.73225">
        <ele>415</ele>
        <time>2020-01-15T12:16:03Z</time>
      </trkpt>
      <trkpt lat="43.26265" lon="5.73233">
        <ele>414</ele>
        <time>2020-01-15T12:16:09Z</time>
      </trkpt>
      <trkpt lat="43.26263" lon="5.73241">
        <ele>418</ele>
        <time>2020-01-15T12:16:15Z</time>
      </trkpt>
      <trkpt lat="43.26264" lon="5.73248">
        <ele>417</ele>
        <time>2020-01-15T12:16:21Z</time>
      </trkpt>
      <trkpt lat="43.26264" lon="5.73254">
        <ele>419</ele>
        <time>2020-01-15T12:16:27Z</time>
      </trkpt>
      <trkpt lat="43.26264" lon="5.73262">
        <ele>422</ele>
        <time>2020-01-15T12:16:33Z</time>
      </trkpt>
      <trkpt lat="43.26264" lon="5.73269">
        <ele>423</ele>
        <time>2020-01-15T12:16:39Z</time>
      </trkpt>
      <trkpt lat="43.26264" lon="5.73277">
        <ele>423</ele>
        <time>2020-01-15T12:16:45Z</time>
      </trkpt>
      <trkpt lat="43.26263" lon="5.73285">
        <ele>426</ele>
        <time>2020-01-15T12:16:51Z</time>
      </trkpt>
      <trkpt lat="43.26261" lon="5.73291">
        <ele>425</ele>
        <time>2020-01-15T12:16:57Z</time>
      </trkpt>
      <trkpt lat="43.26256" lon="5.73297">
        <ele>425</ele>
        <time>2020-01-15T12:17:03Z</time>
      </trkpt>
      <trkpt lat="43.26252" lon="5.73302">
        <ele>423</ele>
        <time>2020-01-15T12:17:09Z</time>
      </trkpt>
      <trkpt lat="43.26248" lon="5.73307">
        <ele>423</ele>
        <time>2020-01-15T12:17:17Z</time>
      </trkpt>
      <trkpt lat="43.26245" lon="5.73313">
        <ele>425</ele>
        <time>2020-01-15T12:17:23Z</time>
      </trkpt>
      <trkpt lat="43.26242" lon="5.73319">
        <ele>423</ele>
        <time>2020-01-15T12:17:29Z</time>
      </trkpt>
      <trkpt lat="43.26237" lon="5.73319">
        <ele>426</ele>
        <time>2020-01-15T12:17:43Z</time>
      </trkpt>
      <trkpt lat="43.26233" lon="5.73313">
        <ele>424</ele>
        <time>2020-01-15T12:17:49Z</time>
      </trkpt>
      <trkpt lat="43.26232" lon="5.73306">
        <ele>423</ele>
        <time>2020-01-15T12:17:59Z</time>
      </trkpt>
      <trkpt lat="43.26234" lon="5.73314">
        <ele>425</ele>
        <time>2020-01-15T12:18:53Z</time>
      </trkpt>
      <trkpt lat="43.26235" lon="5.7332">
        <ele>425</ele>
        <time>2020-01-15T12:18:59Z</time>
      </trkpt>
      <trkpt lat="43.26234" lon="5.73327">
        <ele>425</ele>
        <time>2020-01-15T12:19:45Z</time>
      </trkpt>
      <trkpt lat="43.2623" lon="5.7333">
        <ele>428</ele>
        <time>2020-01-15T12:20:39Z</time>
      </trkpt>
      <trkpt lat="43.26227" lon="5.73335">
        <ele>438</ele>
        <time>2020-01-15T12:23:01Z</time>
      </trkpt>
      <trkpt lat="43.26231" lon="5.73335">
        <ele>438</ele>
        <time>2020-01-15T12:35:05Z</time>
      </trkpt>
      <trkpt lat="43.26227" lon="5.73332">
        <ele>424</ele>
        <time>2020-01-15T12:40:21Z</time>
      </trkpt>
      <trkpt lat="43.26232" lon="5.7333">
        <ele>424</ele>
        <time>2020-01-15T12:40:45Z</time>
      </trkpt>
      <trkpt lat="43.26237" lon="5.73332">
        <ele>427</ele>
        <time>2020-01-15T12:40:51Z</time>
      </trkpt>
      <trkpt lat="43.26233" lon="5.73334">
        <ele>427</ele>
        <time>2020-01-15T12:41:13Z</time>
      </trkpt>
      <trkpt lat="43.26228" lon="5.73334">
        <ele>432</ele>
        <time>2020-01-15T13:21:55Z</time>
      </trkpt>
      <trkpt lat="43.26223" lon="5.73335">
        <ele>432</ele>
        <time>2020-01-15T13:22:15Z</time>
      </trkpt>
      <trkpt lat="43.26228" lon="5.73332">
        <ele>430</ele>
        <time>2020-01-15T13:22:57Z</time>
      </trkpt>
      <trkpt lat="43.26223" lon="5.73334">
        <ele>430</ele>
        <time>2020-01-15T13:23:17Z</time>
      </trkpt>
      <trkpt lat="43.26219" lon="5.73334">
        <ele>423</ele>
        <time>2020-01-15T13:24:21Z</time>
      </trkpt>
      <trkpt lat="43.26215" lon="5.73329">
        <ele>422</ele>
        <time>2020-01-15T13:24:29Z</time>
      </trkpt>
      <trkpt lat="43.26211" lon="5.73325">
        <ele>423</ele>
        <time>2020-01-15T13:24:35Z</time>
      </trkpt>
      <trkpt lat="43.26207" lon="5.7332">
        <ele>423</ele>
        <time>2020-01-15T13:24:41Z</time>
      </trkpt>
      <trkpt lat="43.26202" lon="5.73315">
        <ele>427</ele>
        <time>2020-01-15T13:24:47Z</time>
      </trkpt>
      <trkpt lat="43.26197" lon="5.73311">
        <ele>432</ele>
        <time>2020-01-15T13:24:51Z</time>
      </trkpt>
      <trkpt lat="43.26192" lon="5.73309">
        <ele>431</ele>
        <time>2020-01-15T13:24:57Z</time>
      </trkpt>
      <trkpt lat="43.26187" lon="5.73308">
        <ele>430</ele>
        <time>2020-01-15T13:25:03Z</time>
      </trkpt>
      <trkpt lat="43.26182" lon="5.73306">
        <ele>431</ele>
        <time>2020-01-15T13:25:09Z</time>
      </trkpt>
      <trkpt lat="43.26177" lon="5.73303">
        <ele>429</ele>
        <time>2020-01-15T13:25:15Z</time>
      </trkpt>
      <trkpt lat="43.26171" lon="5.733">
        <ele>431</ele>
        <time>2020-01-15T13:25:21Z</time>
      </trkpt>
      <trkpt lat="43.26168" lon="5.73295">
        <ele>432</ele>
        <time>2020-01-15T13:25:27Z</time>
      </trkpt>
      <trkpt lat="43.26162" lon="5.73291">
        <ele>434</ele>
        <time>2020-01-15T13:25:35Z</time>
      </trkpt>
      <trkpt lat="43.26157" lon="5.73289">
        <ele>436</ele>
        <time>2020-01-15T13:25:41Z</time>
      </trkpt>
      <trkpt lat="43.26152" lon="5.73286">
        <ele>435</ele>
        <time>2020-01-15T13:25:47Z</time>
      </trkpt>
      <trkpt lat="43.26145" lon="5.73285">
        <ele>435</ele>
        <time>2020-01-15T13:25:53Z</time>
      </trkpt>
      <trkpt lat="43.26138" lon="5.73284">
        <ele>436</ele>
        <time>2020-01-15T13:25:59Z</time>
      </trkpt>
      <trkpt lat="43.26132" lon="5.73282">
        <ele>437</ele>
        <time>2020-01-15T13:26:07Z</time>
      </trkpt>
      <trkpt lat="43.26126" lon="5.73281">
        <ele>438</ele>
        <time>2020-01-15T13:26:13Z</time>
      </trkpt>
      <trkpt lat="43.26121" lon="5.7328">
        <ele>440</ele>
        <time>2020-01-15T13:26:19Z</time>
      </trkpt>
      <trkpt lat="43.26115" lon="5.73282">
        <ele>436</ele>
        <time>2020-01-15T13:26:25Z</time>
      </trkpt>
      <trkpt lat="43.26108" lon="5.73286">
        <ele>438</ele>
        <time>2020-01-15T13:26:31Z</time>
      </trkpt>
      <trkpt lat="43.26103" lon="5.73288">
        <ele>439</ele>
        <time>2020-01-15T13:26:37Z</time>
      </trkpt>
      <trkpt lat="43.26098" lon="5.73289">
        <ele>442</ele>
        <time>2020-01-15T13:26:43Z</time>
      </trkpt>
      <trkpt lat="43.26092" lon="5.7329">
        <ele>441</ele>
        <time>2020-01-15T13:26:49Z</time>
      </trkpt>
      <trkpt lat="43.26087" lon="5.73292">
        <ele>441</ele>
        <time>2020-01-15T13:26:55Z</time>
      </trkpt>
      <trkpt lat="43.26082" lon="5.73292">
        <ele>441</ele>
        <time>2020-01-15T13:27:01Z</time>
      </trkpt>
      <trkpt lat="43.26078" lon="5.73291">
        <ele>445</ele>
        <time>2020-01-15T13:27:05Z</time>
      </trkpt>
      <trkpt lat="43.26073" lon="5.73292">
        <ele>447</ele>
        <time>2020-01-15T13:27:11Z</time>
      </trkpt>
      <trkpt lat="43.26067" lon="5.73292">
        <ele>445</ele>
        <time>2020-01-15T13:27:19Z</time>
      </trkpt>
      <trkpt lat="43.26062" lon="5.73295">
        <ele>441</ele>
        <time>2020-01-15T13:27:27Z</time>
      </trkpt>
      <trkpt lat="43.26056" lon="5.73295">
        <ele>440</ele>
        <time>2020-01-15T13:27:33Z</time>
      </trkpt>
      <trkpt lat="43.26051" lon="5.73299">
        <ele>441</ele>
        <time>2020-01-15T13:27:41Z</time>
      </trkpt>
      <trkpt lat="43.26047" lon="5.73301">
        <ele>445</ele>
        <time>2020-01-15T13:27:51Z</time>
      </trkpt>
      <trkpt lat="43.26042" lon="5.73301">
        <ele>444</ele>
        <time>2020-01-15T13:27:57Z</time>
      </trkpt>
      <trkpt lat="43.26036" lon="5.73302">
        <ele>446</ele>
        <time>2020-01-15T13:28:05Z</time>
      </trkpt>
      <trkpt lat="43.2603" lon="5.73304">
        <ele>445</ele>
        <time>2020-01-15T13:28:11Z</time>
      </trkpt>
      <trkpt lat="43.26025" lon="5.73305">
        <ele>449</ele>
        <time>2020-01-15T13:28:15Z</time>
      </trkpt>
      <trkpt lat="43.2602" lon="5.73306">
        <ele>451</ele>
        <time>2020-01-15T13:28:19Z</time>
      </trkpt>
      <trkpt lat="43.26014" lon="5.73309">
        <ele>453</ele>
        <time>2020-01-15T13:28:25Z</time>
      </trkpt>
      <trkpt lat="43.26009" lon="5.73311">
        <ele>455</ele>
        <time>2020-01-15T13:28:31Z</time>
      </trkpt>
      <trkpt lat="43.26004" lon="5.73312">
        <ele>450</ele>
        <time>2020-01-15T13:28:43Z</time>
      </trkpt>
      <trkpt lat="43.25999" lon="5.73314">
        <ele>446</ele>
        <time>2020-01-15T13:28:51Z</time>
      </trkpt>
      <trkpt lat="43.25994" lon="5.73314">
        <ele>449</ele>
        <time>2020-01-15T13:28:57Z</time>
      </trkpt>
      <trkpt lat="43.25988" lon="5.73313">
        <ele>450</ele>
        <time>2020-01-15T13:29:03Z</time>
      </trkpt>
      <trkpt lat="43.25983" lon="5.73312">
        <ele>453</ele>
        <time>2020-01-15T13:29:09Z</time>
      </trkpt>
      <trkpt lat="43.25976" lon="5.73313">
        <ele>456</ele>
        <time>2020-01-15T13:29:15Z</time>
      </trkpt>
      <trkpt lat="43.25972" lon="5.73314">
        <ele>458</ele>
        <time>2020-01-15T13:29:19Z</time>
      </trkpt>
      <trkpt lat="43.25966" lon="5.73313">
        <ele>458</ele>
        <time>2020-01-15T13:29:25Z</time>
      </trkpt>
      <trkpt lat="43.25961" lon="5.73312">
        <ele>458</ele>
        <time>2020-01-15T13:29:31Z</time>
      </trkpt>
      <trkpt lat="43.25955" lon="5.7331">
        <ele>459</ele>
        <time>2020-01-15T13:29:39Z</time>
      </trkpt>
      <trkpt lat="43.2595" lon="5.7331">
        <ele>460</ele>
        <time>2020-01-15T13:29:47Z</time>
      </trkpt>
      <trkpt lat="43.25945" lon="5.73311">
        <ele>461</ele>
        <time>2020-01-15T13:29:51Z</time>
      </trkpt>
      <trkpt lat="43.2594" lon="5.73312">
        <ele>461</ele>
        <time>2020-01-15T13:29:59Z</time>
      </trkpt>
      <trkpt lat="43.25935" lon="5.73309">
        <ele>461</ele>
        <time>2020-01-15T13:30:07Z</time>
      </trkpt>
      <trkpt lat="43.2593" lon="5.73307">
        <ele>458</ele>
        <time>2020-01-15T13:30:17Z</time>
      </trkpt>
      <trkpt lat="43.25926" lon="5.73304">
        <ele>461</ele>
        <time>2020-01-15T13:30:23Z</time>
      </trkpt>
      <trkpt lat="43.2592" lon="5.73303">
        <ele>464</ele>
        <time>2020-01-15T13:30:29Z</time>
      </trkpt>
      <trkpt lat="43.25914" lon="5.73303">
        <ele>468</ele>
        <time>2020-01-15T13:30:35Z</time>
      </trkpt>
      <trkpt lat="43.2591" lon="5.73303">
        <ele>468</ele>
        <time>2020-01-15T13:30:43Z</time>
      </trkpt>
      <trkpt lat="43.25904" lon="5.73305">
        <ele>463</ele>
        <time>2020-01-15T13:30:51Z</time>
      </trkpt>
      <trkpt lat="43.259" lon="5.73309">
        <ele>465</ele>
        <time>2020-01-15T13:30:57Z</time>
      </trkpt>
      <trkpt lat="43.25897" lon="5.73314">
        <ele>468</ele>
        <time>2020-01-15T13:31:07Z</time>
      </trkpt>
      <trkpt lat="43.25894" lon="5.73319">
        <ele>465</ele>
        <time>2020-01-15T13:31:17Z</time>
      </trkpt>
      <trkpt lat="43.25891" lon="5.73325">
        <ele>465</ele>
        <time>2020-01-15T13:31:21Z</time>
      </trkpt>
      <trkpt lat="43.25888" lon="5.7333">
        <ele>465</ele>
        <time>2020-01-15T13:31:27Z</time>
      </trkpt>
      <trkpt lat="43.25884" lon="5.73335">
        <ele>467</ele>
        <time>2020-01-15T13:31:33Z</time>
      </trkpt>
      <trkpt lat="43.25879" lon="5.73339">
        <ele>466</ele>
        <time>2020-01-15T13:31:41Z</time>
      </trkpt>
      <trkpt lat="43.25876" lon="5.73343">
        <ele>465</ele>
        <time>2020-01-15T13:31:47Z</time>
      </trkpt>
      <trkpt lat="43.25872" lon="5.73348">
        <ele>467</ele>
        <time>2020-01-15T13:31:53Z</time>
      </trkpt>
      <trkpt lat="43.25869" lon="5.73352">
        <ele>467</ele>
        <time>2020-01-15T13:32:01Z</time>
      </trkpt>
      <trkpt lat="43.25864" lon="5.73358">
        <ele>465</ele>
        <time>2020-01-15T13:32:07Z</time>
      </trkpt>
      <trkpt lat="43.25861" lon="5.73362">
        <ele>463</ele>
        <time>2020-01-15T13:32:11Z</time>
      </trkpt>
      <trkpt lat="43.25855" lon="5.73366">
        <ele>464</ele>
        <time>2020-01-15T13:32:15Z</time>
      </trkpt>
      <trkpt lat="43.2585" lon="5.73371">
        <ele>465</ele>
        <time>2020-01-15T13:32:19Z</time>
      </trkpt>
      <trkpt lat="43.25845" lon="5.73373">
        <ele>465</ele>
        <time>2020-01-15T13:32:25Z</time>
      </trkpt>
      <trkpt lat="43.25837" lon="5.73376">
        <ele>466</ele>
        <time>2020-01-15T13:32:31Z</time>
      </trkpt>
      <trkpt lat="43.25833" lon="5.73377">
        <ele>465</ele>
        <time>2020-01-15T13:32:35Z</time>
      </trkpt>
      <trkpt lat="43.25827" lon="5.7338">
        <ele>466</ele>
        <time>2020-01-15T13:32:41Z</time>
      </trkpt>
      <trkpt lat="43.25822" lon="5.73382">
        <ele>467</ele>
        <time>2020-01-15T13:32:47Z</time>
      </trkpt>
      <trkpt lat="43.25816" lon="5.73384">
        <ele>466</ele>
        <time>2020-01-15T13:32:53Z</time>
      </trkpt>
      <trkpt lat="43.25812" lon="5.73384">
        <ele>466</ele>
        <time>2020-01-15T13:32:59Z</time>
      </trkpt>
      <trkpt lat="43.25806" lon="5.73385">
        <ele>464</ele>
        <time>2020-01-15T13:33:05Z</time>
      </trkpt>
      <trkpt lat="43.25801" lon="5.73387">
        <ele>464</ele>
        <time>2020-01-15T13:33:11Z</time>
      </trkpt>
      <trkpt lat="43.25797" lon="5.73391">
        <ele>465</ele>
        <time>2020-01-15T13:33:21Z</time>
      </trkpt>
      <trkpt lat="43.25792" lon="5.73396">
        <ele>468</ele>
        <time>2020-01-15T13:33:29Z</time>
      </trkpt>
      <trkpt lat="43.25786" lon="5.734">
        <ele>467</ele>
        <time>2020-01-15T13:33:33Z</time>
      </trkpt>
      <trkpt lat="43.25782" lon="5.73402">
        <ele>468</ele>
        <time>2020-01-15T13:33:37Z</time>
      </trkpt>
      <trkpt lat="43.25776" lon="5.73405">
        <ele>470</ele>
        <time>2020-01-15T13:33:43Z</time>
      </trkpt>
      <trkpt lat="43.2577" lon="5.73407">
        <ele>466</ele>
        <time>2020-01-15T13:33:47Z</time>
      </trkpt>
      <trkpt lat="43.25766" lon="5.73409">
        <ele>465</ele>
        <time>2020-01-15T13:33:53Z</time>
      </trkpt>
      <trkpt lat="43.2576" lon="5.73411">
        <ele>468</ele>
        <time>2020-01-15T13:34:01Z</time>
      </trkpt>
      <trkpt lat="43.25755" lon="5.73413">
        <ele>470</ele>
        <time>2020-01-15T13:34:05Z</time>
      </trkpt>
      <trkpt lat="43.25751" lon="5.73413">
        <ele>471</ele>
        <time>2020-01-15T13:34:09Z</time>
      </trkpt>
      <trkpt lat="43.25745" lon="5.7341">
        <ele>471</ele>
        <time>2020-01-15T13:34:15Z</time>
      </trkpt>
      <trkpt lat="43.25741" lon="5.73407">
        <ele>471</ele>
        <time>2020-01-15T13:34:21Z</time>
      </trkpt>
      <trkpt lat="43.25738" lon="5.73401">
        <ele>469</ele>
        <time>2020-01-15T13:34:27Z</time>
      </trkpt>
      <trkpt lat="43.25737" lon="5.73394">
        <ele>469</ele>
        <time>2020-01-15T13:34:33Z</time>
      </trkpt>
      <trkpt lat="43.25736" lon="5.73388">
        <ele>464</ele>
        <time>2020-01-15T13:34:41Z</time>
      </trkpt>
      <trkpt lat="43.25733" lon="5.73382">
        <ele>462</ele>
        <time>2020-01-15T13:34:47Z</time>
      </trkpt>
      <trkpt lat="43.25729" lon="5.73376">
        <ele>465</ele>
        <time>2020-01-15T13:34:51Z</time>
      </trkpt>
      <trkpt lat="43.25725" lon="5.73369">
        <ele>466</ele>
        <time>2020-01-15T13:34:57Z</time>
      </trkpt>
      <trkpt lat="43.25722" lon="5.73364">
        <ele>465</ele>
        <time>2020-01-15T13:35:01Z</time>
      </trkpt>
      <trkpt lat="43.25721" lon="5.73357">
        <ele>463</ele>
        <time>2020-01-15T13:35:07Z</time>
      </trkpt>
      <trkpt lat="43.25719" lon="5.73352">
        <ele>462</ele>
        <time>2020-01-15T13:35:15Z</time>
      </trkpt>
      <trkpt lat="43.25719" lon="5.73343">
        <ele>460</ele>
        <time>2020-01-15T13:35:23Z</time>
      </trkpt>
      <trkpt lat="43.2572" lon="5.73335">
        <ele>460</ele>
        <time>2020-01-15T13:35:29Z</time>
      </trkpt>
      <trkpt lat="43.25719" lon="5.73327">
        <ele>461</ele>
        <time>2020-01-15T13:35:35Z</time>
      </trkpt>
      <trkpt lat="43.25717" lon="5.73321">
        <ele>460</ele>
        <time>2020-01-15T13:35:41Z</time>
      </trkpt>
      <trkpt lat="43.25713" lon="5.73314">
        <ele>460</ele>
        <time>2020-01-15T13:35:47Z</time>
      </trkpt>
      <trkpt lat="43.25708" lon="5.7331">
        <ele>462</ele>
        <time>2020-01-15T13:35:53Z</time>
      </trkpt>
      <trkpt lat="43.25702" lon="5.73308">
        <ele>462</ele>
        <time>2020-01-15T13:35:59Z</time>
      </trkpt>
      <trkpt lat="43.25695" lon="5.73308">
        <ele>461</ele>
        <time>2020-01-15T13:36:03Z</time>
      </trkpt>
      <trkpt lat="43.2569" lon="5.73306">
        <ele>465</ele>
        <time>2020-01-15T13:36:07Z</time>
      </trkpt>
      <trkpt lat="43.25685" lon="5.73304">
        <ele>467</ele>
        <time>2020-01-15T13:36:11Z</time>
      </trkpt>
      <trkpt lat="43.2568" lon="5.73302">
        <ele>467</ele>
        <time>2020-01-15T13:36:17Z</time>
      </trkpt>
      <trkpt lat="43.25676" lon="5.73296">
        <ele>471</ele>
        <time>2020-01-15T13:36:27Z</time>
      </trkpt>
      <trkpt lat="43.25673" lon="5.73291">
        <ele>471</ele>
        <time>2020-01-15T13:36:33Z</time>
      </trkpt>
      <trkpt lat="43.2567" lon="5.73284">
        <ele>470</ele>
        <time>2020-01-15T13:36:41Z</time>
      </trkpt>
      <trkpt lat="43.25667" lon="5.73278">
        <ele>468</ele>
        <time>2020-01-15T13:36:49Z</time>
      </trkpt>
      <trkpt lat="43.25664" lon="5.73273">
        <ele>468</ele>
        <time>2020-01-15T13:36:55Z</time>
      </trkpt>
      <trkpt lat="43.25659" lon="5.73267">
        <ele>467</ele>
        <time>2020-01-15T13:37:01Z</time>
      </trkpt>
      <trkpt lat="43.25654" lon="5.73262">
        <ele>465</ele>
        <time>2020-01-15T13:37:07Z</time>
      </trkpt>
      <trkpt lat="43.2565" lon="5.73256">
        <ele>465</ele>
        <time>2020-01-15T13:37:13Z</time>
      </trkpt>
      <trkpt lat="43.25646" lon="5.73252">
        <ele>465</ele>
        <time>2020-01-15T13:37:17Z</time>
      </trkpt>
      <trkpt lat="43.25641" lon="5.73246">
        <ele>464</ele>
        <time>2020-01-15T13:37:23Z</time>
      </trkpt>
      <trkpt lat="43.25637" lon="5.7324">
        <ele>464</ele>
        <time>2020-01-15T13:37:29Z</time>
      </trkpt>
      <trkpt lat="43.25635" lon="5.73235">
        <ele>463</ele>
        <time>2020-01-15T13:37:35Z</time>
      </trkpt>
      <trkpt lat="43.25634" lon="5.73229">
        <ele>466</ele>
        <time>2020-01-15T13:37:39Z</time>
      </trkpt>
      <trkpt lat="43.25633" lon="5.7322">
        <ele>466</ele>
        <time>2020-01-15T13:37:45Z</time>
      </trkpt>
      <trkpt lat="43.25633" lon="5.73212">
        <ele>468</ele>
        <time>2020-01-15T13:37:51Z</time>
      </trkpt>
      <trkpt lat="43.25633" lon="5.73204">
        <ele>468</ele>
        <time>2020-01-15T13:37:59Z</time>
      </trkpt>
      <trkpt lat="43.25633" lon="5.73197">
        <ele>466</ele>
        <time>2020-01-15T13:38:05Z</time>
      </trkpt>
      <trkpt lat="43.25634" lon="5.73191">
        <ele>467</ele>
        <time>2020-01-15T13:38:11Z</time>
      </trkpt>
      <trkpt lat="43.25634" lon="5.73183">
        <ele>466</ele>
        <time>2020-01-15T13:38:19Z</time>
      </trkpt>
      <trkpt lat="43.25634" lon="5.73175">
        <ele>466</ele>
        <time>2020-01-15T13:38:27Z</time>
      </trkpt>
      <trkpt lat="43.25635" lon="5.73167">
        <ele>468</ele>
        <time>2020-01-15T13:38:33Z</time>
      </trkpt>
      <trkpt lat="43.25636" lon="5.7316">
        <ele>466</ele>
        <time>2020-01-15T13:38:39Z</time>
      </trkpt>
      <trkpt lat="43.25637" lon="5.7315">
        <ele>468</ele>
        <time>2020-01-15T13:38:45Z</time>
      </trkpt>
      <trkpt lat="43.25638" lon="5.73144">
        <ele>468</ele>
        <time>2020-01-15T13:38:49Z</time>
      </trkpt>
      <trkpt lat="43.2564" lon="5.73138">
        <ele>468</ele>
        <time>2020-01-15T13:38:53Z</time>
      </trkpt>
      <trkpt lat="43.25643" lon="5.73133">
        <ele>468</ele>
        <time>2020-01-15T13:38:57Z</time>
      </trkpt>
      <trkpt lat="43.25646" lon="5.73124">
        <ele>468</ele>
        <time>2020-01-15T13:39:03Z</time>
      </trkpt>
      <trkpt lat="43.25647" lon="5.73118">
        <ele>466</ele>
        <time>2020-01-15T13:39:09Z</time>
      </trkpt>
      <trkpt lat="43.2565" lon="5.73111">
        <ele>466</ele>
        <time>2020-01-15T13:39:17Z</time>
      </trkpt>
      <trkpt lat="43.25651" lon="5.73103">
        <ele>464</ele>
        <time>2020-01-15T13:39:23Z</time>
      </trkpt>
      <trkpt lat="43.25651" lon="5.73097">
        <ele>466</ele>
        <time>2020-01-15T13:39:27Z</time>
      </trkpt>
      <trkpt lat="43.25653" lon="5.73089">
        <ele>467</ele>
        <time>2020-01-15T13:39:33Z</time>
      </trkpt>
      <trkpt lat="43.25655" lon="5.73081">
        <ele>466</ele>
        <time>2020-01-15T13:39:39Z</time>
      </trkpt>
      <trkpt lat="43.25656" lon="5.73073">
        <ele>468</ele>
        <time>2020-01-15T13:39:45Z</time>
      </trkpt>
      <trkpt lat="43.25656" lon="5.73066">
        <ele>475</ele>
        <time>2020-01-15T13:39:49Z</time>
      </trkpt>
      <trkpt lat="43.2566" lon="5.73061">
        <ele>471</ele>
        <time>2020-01-15T13:39:57Z</time>
      </trkpt>
      <trkpt lat="43.25663" lon="5.73057">
        <ele>471</ele>
        <time>2020-01-15T13:40:03Z</time>
      </trkpt>
      <trkpt lat="43.25667" lon="5.73052">
        <ele>469</ele>
        <time>2020-01-15T13:40:09Z</time>
      </trkpt>
      <trkpt lat="43.25671" lon="5.73044">
        <ele>473</ele>
        <time>2020-01-15T13:40:15Z</time>
      </trkpt>
      <trkpt lat="43.25675" lon="5.73037">
        <ele>473</ele>
        <time>2020-01-15T13:40:21Z</time>
      </trkpt>
      <trkpt lat="43.25679" lon="5.7303">
        <ele>472</ele>
        <time>2020-01-15T13:40:27Z</time>
      </trkpt>
      <trkpt lat="43.25682" lon="5.73023">
        <ele>469</ele>
        <time>2020-01-15T13:40:33Z</time>
      </trkpt>
      <trkpt lat="43.25683" lon="5.73016">
        <ele>468</ele>
        <time>2020-01-15T13:40:39Z</time>
      </trkpt>
      <trkpt lat="43.25685" lon="5.73008">
        <ele>469</ele>
        <time>2020-01-15T13:40:45Z</time>
      </trkpt>
      <trkpt lat="43.25687" lon="5.73003">
        <ele>469</ele>
        <time>2020-01-15T13:40:49Z</time>
      </trkpt>
      <trkpt lat="43.25689" lon="5.72997">
        <ele>473</ele>
        <time>2020-01-15T13:40:53Z</time>
      </trkpt>
      <trkpt lat="43.25691" lon="5.72991">
        <ele>475</ele>
        <time>2020-01-15T13:40:57Z</time>
      </trkpt>
      <trkpt lat="43.25694" lon="5.72985">
        <ele>473</ele>
        <time>2020-01-15T13:41:03Z</time>
      </trkpt>
      <trkpt lat="43.25696" lon="5.72979">
        <ele>472</ele>
        <time>2020-01-15T13:41:09Z</time>
      </trkpt>
      <trkpt lat="43.25696" lon="5.72969">
        <ele>472</ele>
        <time>2020-01-15T13:41:15Z</time>
      </trkpt>
      <trkpt lat="43.25697" lon="5.72962">
        <ele>471</ele>
        <time>2020-01-15T13:41:19Z</time>
      </trkpt>
      <trkpt lat="43.25696" lon="5.72953">
        <ele>472</ele>
        <time>2020-01-15T13:41:23Z</time>
      </trkpt>
      <trkpt lat="43.25695" lon="5.72946">
        <ele>472</ele>
        <time>2020-01-15T13:41:27Z</time>
      </trkpt>
      <trkpt lat="43.25695" lon="5.72939">
        <ele>472</ele>
        <time>2020-01-15T13:41:33Z</time>
      </trkpt>
      <trkpt lat="43.25696" lon="5.72932">
        <ele>471</ele>
        <time>2020-01-15T13:41:39Z</time>
      </trkpt>
      <trkpt lat="43.25696" lon="5.72926">
        <ele>470</ele>
        <time>2020-01-15T13:41:43Z</time>
      </trkpt>
      <trkpt lat="43.25696" lon="5.72918">
        <ele>470</ele>
        <time>2020-01-15T13:41:49Z</time>
      </trkpt>
      <trkpt lat="43.25696" lon="5.72912">
        <ele>469</ele>
        <time>2020-01-15T13:41:55Z</time>
      </trkpt>
      <trkpt lat="43.25696" lon="5.72904">
        <ele>469</ele>
        <time>2020-01-15T13:42:01Z</time>
      </trkpt>
      <trkpt lat="43.25695" lon="5.72897">
        <ele>470</ele>
        <time>2020-01-15T13:42:07Z</time>
      </trkpt>
      <trkpt lat="43.25695" lon="5.7289">
        <ele>473</ele>
        <time>2020-01-15T13:42:19Z</time>
      </trkpt>
      <trkpt lat="43.25697" lon="5.72883">
        <ele>469</ele>
        <time>2020-01-15T13:42:33Z</time>
      </trkpt>
      <trkpt lat="43.25697" lon="5.72876">
        <ele>470</ele>
        <time>2020-01-15T13:42:39Z</time>
      </trkpt>
      <trkpt lat="43.25696" lon="5.72867">
        <ele>470</ele>
        <time>2020-01-15T13:42:45Z</time>
      </trkpt>
      <trkpt lat="43.25696" lon="5.72858">
        <ele>472</ele>
        <time>2020-01-15T13:42:49Z</time>
      </trkpt>
      <trkpt lat="43.25696" lon="5.72851">
        <ele>471</ele>
        <time>2020-01-15T13:42:53Z</time>
      </trkpt>
      <trkpt lat="43.25696" lon="5.72843">
        <ele>473</ele>
        <time>2020-01-15T13:42:59Z</time>
      </trkpt>
      <trkpt lat="43.25695" lon="5.72837">
        <ele>475</ele>
        <time>2020-01-15T13:43:07Z</time>
      </trkpt>
      <trkpt lat="43.25694" lon="5.72829">
        <ele>471</ele>
        <time>2020-01-15T13:43:47Z</time>
      </trkpt>
      <trkpt lat="43.25694" lon="5.7282">
        <ele>470</ele>
        <time>2020-01-15T13:43:53Z</time>
      </trkpt>
      <trkpt lat="43.25694" lon="5.72811">
        <ele>471</ele>
        <time>2020-01-15T13:43:59Z</time>
      </trkpt>
      <trkpt lat="43.25694" lon="5.72803">
        <ele>471</ele>
        <time>2020-01-15T13:44:05Z</time>
      </trkpt>
      <trkpt lat="43.25693" lon="5.72796">
        <ele>474</ele>
        <time>2020-01-15T13:44:11Z</time>
      </trkpt>
      <trkpt lat="43.2569" lon="5.72791">
        <ele>479</ele>
        <time>2020-01-15T13:44:21Z</time>
      </trkpt>
      <trkpt lat="43.25689" lon="5.72785">
        <ele>477</ele>
        <time>2020-01-15T13:44:29Z</time>
      </trkpt>
      <trkpt lat="43.25688" lon="5.72778">
        <ele>481</ele>
        <time>2020-01-15T13:44:49Z</time>
      </trkpt>
      <trkpt lat="43.25687" lon="5.72771">
        <ele>482</ele>
        <time>2020-01-15T13:44:55Z</time>
      </trkpt>
      <trkpt lat="43.25686" lon="5.72765">
        <ele>481</ele>
        <time>2020-01-15T13:45:01Z</time>
      </trkpt>
      <trkpt lat="43.25685" lon="5.72757">
        <ele>482</ele>
        <time>2020-01-15T13:45:07Z</time>
      </trkpt>
      <trkpt lat="43.25684" lon="5.7275">
        <ele>481</ele>
        <time>2020-01-15T13:45:13Z</time>
      </trkpt>
      <trkpt lat="43.25684" lon="5.72744">
        <ele>479</ele>
        <time>2020-01-15T13:45:19Z</time>
      </trkpt>
      <trkpt lat="43.25683" lon="5.72734">
        <ele>481</ele>
        <time>2020-01-15T13:45:25Z</time>
      </trkpt>
      <trkpt lat="43.25684" lon="5.72728">
        <ele>479</ele>
        <time>2020-01-15T13:45:31Z</time>
      </trkpt>
      <trkpt lat="43.2568" lon="5.7272">
        <ele>482</ele>
        <time>2020-01-15T13:45:37Z</time>
      </trkpt>
      <trkpt lat="43.25676" lon="5.72717">
        <ele>484</ele>
        <time>2020-01-15T13:45:41Z</time>
      </trkpt>
      <trkpt lat="43.2567" lon="5.72715">
        <ele>487</ele>
        <time>2020-01-15T13:45:45Z</time>
      </trkpt>
      <trkpt lat="43.25665" lon="5.72713">
        <ele>488</ele>
        <time>2020-01-15T13:45:49Z</time>
      </trkpt>
      <trkpt lat="43.2566" lon="5.7271">
        <ele>489</ele>
        <time>2020-01-15T13:45:55Z</time>
      </trkpt>
      <trkpt lat="43.25655" lon="5.72707">
        <ele>488</ele>
        <time>2020-01-15T13:46:01Z</time>
      </trkpt>
      <trkpt lat="43.25649" lon="5.72705">
        <ele>491</ele>
        <time>2020-01-15T13:46:15Z</time>
      </trkpt>
      <trkpt lat="43.25645" lon="5.72702">
        <ele>491</ele>
        <time>2020-01-15T13:46:19Z</time>
      </trkpt>
      <trkpt lat="43.25641" lon="5.727">
        <ele>490</ele>
        <time>2020-01-15T13:46:25Z</time>
      </trkpt>
      <trkpt lat="43.25634" lon="5.72697">
        <ele>489</ele>
        <time>2020-01-15T13:46:31Z</time>
      </trkpt>
      <trkpt lat="43.25628" lon="5.72695">
        <ele>491</ele>
        <time>2020-01-15T13:46:35Z</time>
      </trkpt>
      <trkpt lat="43.25621" lon="5.72694">
        <ele>490</ele>
        <time>2020-01-15T13:46:41Z</time>
      </trkpt>
      <trkpt lat="43.25615" lon="5.72691">
        <ele>488</ele>
        <time>2020-01-15T13:46:47Z</time>
      </trkpt>
      <trkpt lat="43.2561" lon="5.72687">
        <ele>489</ele>
        <time>2020-01-15T13:46:53Z</time>
      </trkpt>
      <trkpt lat="43.25605" lon="5.72686">
        <ele>491</ele>
        <time>2020-01-15T13:46:57Z</time>
      </trkpt>
      <trkpt lat="43.25601" lon="5.72683">
        <ele>491</ele>
        <time>2020-01-15T13:47:03Z</time>
      </trkpt>
      <trkpt lat="43.25595" lon="5.72683">
        <ele>492</ele>
        <time>2020-01-15T13:47:07Z</time>
      </trkpt>
      <trkpt lat="43.2559" lon="5.72681">
        <ele>492</ele>
        <time>2020-01-15T13:47:11Z</time>
      </trkpt>
      <trkpt lat="43.25585" lon="5.7268">
        <ele>491</ele>
        <time>2020-01-15T13:47:17Z</time>
      </trkpt>
      <trkpt lat="43.25579" lon="5.72678">
        <ele>490</ele>
        <time>2020-01-15T13:47:23Z</time>
      </trkpt>
      <trkpt lat="43.25574" lon="5.72675">
        <ele>489</ele>
        <time>2020-01-15T13:47:27Z</time>
      </trkpt>
      <trkpt lat="43.25568" lon="5.72672">
        <ele>490</ele>
        <time>2020-01-15T13:47:33Z</time>
      </trkpt>
      <trkpt lat="43.25564" lon="5.72666">
        <ele>486</ele>
        <time>2020-01-15T13:47:39Z</time>
      </trkpt>
      <trkpt lat="43.25562" lon="5.72659">
        <ele>487</ele>
        <time>2020-01-15T13:47:43Z</time>
      </trkpt>
      <trkpt lat="43.25559" lon="5.72652">
        <ele>486</ele>
        <time>2020-01-15T13:47:47Z</time>
      </trkpt>
      <trkpt lat="43.25555" lon="5.72646">
        <ele>485</ele>
        <time>2020-01-15T13:47:51Z</time>
      </trkpt>
      <trkpt lat="43.25552" lon="5.72642">
        <ele>488</ele>
        <time>2020-01-15T13:47:55Z</time>
      </trkpt>
      <trkpt lat="43.25549" lon="5.72636">
        <ele>490</ele>
        <time>2020-01-15T13:47:59Z</time>
      </trkpt>
      <trkpt lat="43.25546" lon="5.72629">
        <ele>492</ele>
        <time>2020-01-15T13:48:05Z</time>
      </trkpt>
      <trkpt lat="43.25543" lon="5.72622">
        <ele>491</ele>
        <time>2020-01-15T13:48:11Z</time>
      </trkpt>
      <trkpt lat="43.25541" lon="5.72614">
        <ele>491</ele>
        <time>2020-01-15T13:48:17Z</time>
      </trkpt>
      <trkpt lat="43.25538" lon="5.72607">
        <ele>492</ele>
        <time>2020-01-15T13:48:23Z</time>
      </trkpt>
      <trkpt lat="43.25538" lon="5.726">
        <ele>490</ele>
        <time>2020-01-15T13:48:29Z</time>
      </trkpt>
      <trkpt lat="43.25537" lon="5.72592">
        <ele>488</ele>
        <time>2020-01-15T13:48:37Z</time>
      </trkpt>
      <trkpt lat="43.25535" lon="5.72585">
        <ele>486</ele>
        <time>2020-01-15T13:48:43Z</time>
      </trkpt>
      <trkpt lat="43.25533" lon="5.7258">
        <ele>485</ele>
        <time>2020-01-15T13:48:47Z</time>
      </trkpt>
      <trkpt lat="43.25531" lon="5.72574">
        <ele>486</ele>
        <time>2020-01-15T13:48:51Z</time>
      </trkpt>
      <trkpt lat="43.25528" lon="5.72567">
        <ele>486</ele>
        <time>2020-01-15T13:48:57Z</time>
      </trkpt>
      <trkpt lat="43.25525" lon="5.7256">
        <ele>482</ele>
        <time>2020-01-15T13:49:05Z</time>
      </trkpt>
      <trkpt lat="43.25522" lon="5.72553">
        <ele>483</ele>
        <time>2020-01-15T13:49:11Z</time>
      </trkpt>
      <trkpt lat="43.2552" lon="5.72545">
        <ele>483</ele>
        <time>2020-01-15T13:49:17Z</time>
      </trkpt>
      <trkpt lat="43.25517" lon="5.72538">
        <ele>484</ele>
        <time>2020-01-15T13:49:23Z</time>
      </trkpt>
      <trkpt lat="43.25517" lon="5.72531">
        <ele>487</ele>
        <time>2020-01-15T13:49:29Z</time>
      </trkpt>
      <trkpt lat="43.25516" lon="5.72524">
        <ele>488</ele>
        <time>2020-01-15T13:49:35Z</time>
      </trkpt>
      <trkpt lat="43.25512" lon="5.72517">
        <ele>491</ele>
        <time>2020-01-15T13:49:43Z</time>
      </trkpt>
      <trkpt lat="43.25509" lon="5.72512">
        <ele>493</ele>
        <time>2020-01-15T13:49:47Z</time>
      </trkpt>
      <trkpt lat="43.25508" lon="5.72505">
        <ele>495</ele>
        <time>2020-01-15T13:49:55Z</time>
      </trkpt>
      <trkpt lat="43.25507" lon="5.72495">
        <ele>489</ele>
        <time>2020-01-15T13:49:59Z</time>
      </trkpt>
      <trkpt lat="43.25505" lon="5.72488">
        <ele>488</ele>
        <time>2020-01-15T13:50:03Z</time>
      </trkpt>
      <trkpt lat="43.25503" lon="5.72482">
        <ele>485</ele>
        <time>2020-01-15T13:50:09Z</time>
      </trkpt>
      <trkpt lat="43.25501" lon="5.72476">
        <ele>487</ele>
        <time>2020-01-15T13:50:13Z</time>
      </trkpt>
      <trkpt lat="43.25501" lon="5.7247">
        <ele>487</ele>
        <time>2020-01-15T13:50:17Z</time>
      </trkpt>
      <trkpt lat="43.25501" lon="5.72462">
        <ele>486</ele>
        <time>2020-01-15T13:50:23Z</time>
      </trkpt>
      <trkpt lat="43.25502" lon="5.72455">
        <ele>485</ele>
        <time>2020-01-15T13:50:29Z</time>
      </trkpt>
      <trkpt lat="43.25503" lon="5.72448">
        <ele>487</ele>
        <time>2020-01-15T13:50:37Z</time>
      </trkpt>
      <trkpt lat="43.25503" lon="5.72441">
        <ele>488</ele>
        <time>2020-01-15T13:50:43Z</time>
      </trkpt>
      <trkpt lat="43.25503" lon="5.72434">
        <ele>489</ele>
        <time>2020-01-15T13:50:51Z</time>
      </trkpt>
      <trkpt lat="43.25504" lon="5.72426">
        <ele>490</ele>
        <time>2020-01-15T13:50:59Z</time>
      </trkpt>
      <trkpt lat="43.25505" lon="5.72419">
        <ele>491</ele>
        <time>2020-01-15T13:51:05Z</time>
      </trkpt>
      <trkpt lat="43.25504" lon="5.72413">
        <ele>490</ele>
        <time>2020-01-15T13:51:11Z</time>
      </trkpt>
      <trkpt lat="43.25502" lon="5.72404">
        <ele>494</ele>
        <time>2020-01-15T13:51:17Z</time>
      </trkpt>
      <trkpt lat="43.255" lon="5.72397">
        <ele>496</ele>
        <time>2020-01-15T13:51:21Z</time>
      </trkpt>
      <trkpt lat="43.25499" lon="5.72391">
        <ele>498</ele>
        <time>2020-01-15T13:51:25Z</time>
      </trkpt>
      <trkpt lat="43.25496" lon="5.72385">
        <ele>498</ele>
        <time>2020-01-15T13:51:33Z</time>
      </trkpt>
      <trkpt lat="43.25492" lon="5.72379">
        <ele>494</ele>
        <time>2020-01-15T13:51:43Z</time>
      </trkpt>
      <trkpt lat="43.25489" lon="5.72374">
        <ele>493</ele>
        <time>2020-01-15T13:51:47Z</time>
      </trkpt>
      <trkpt lat="43.25484" lon="5.72369">
        <ele>496</ele>
        <time>2020-01-15T13:51:53Z</time>
      </trkpt>
      <trkpt lat="43.25479" lon="5.72367">
        <ele>494</ele>
        <time>2020-01-15T13:51:57Z</time>
      </trkpt>
      <trkpt lat="43.25475" lon="5.72362">
        <ele>493</ele>
        <time>2020-01-15T13:52:01Z</time>
      </trkpt>
      <trkpt lat="43.25471" lon="5.72357">
        <ele>493</ele>
        <time>2020-01-15T13:52:05Z</time>
      </trkpt>
      <trkpt lat="43.25467" lon="5.72353">
        <ele>490</ele>
        <time>2020-01-15T13:52:09Z</time>
      </trkpt>
      <trkpt lat="43.25462" lon="5.72348">
        <ele>492</ele>
        <time>2020-01-15T13:52:15Z</time>
      </trkpt>
      <trkpt lat="43.2546" lon="5.72342">
        <ele>493</ele>
        <time>2020-01-15T13:52:19Z</time>
      </trkpt>
      <trkpt lat="43.25458" lon="5.72335">
        <ele>493</ele>
        <time>2020-01-15T13:52:23Z</time>
      </trkpt>
      <trkpt lat="43.25458" lon="5.72328">
        <ele>490</ele>
        <time>2020-01-15T13:52:29Z</time>
      </trkpt>
      <trkpt lat="43.25458" lon="5.72322">
        <ele>491</ele>
        <time>2020-01-15T13:52:37Z</time>
      </trkpt>
      <trkpt lat="43.25455" lon="5.72314">
        <ele>489</ele>
        <time>2020-01-15T13:53:15Z</time>
      </trkpt>
      <trkpt lat="43.25455" lon="5.72307">
        <ele>488</ele>
        <time>2020-01-15T13:53:19Z</time>
      </trkpt>
      <trkpt lat="43.25454" lon="5.72301">
        <ele>488</ele>
        <time>2020-01-15T13:53:23Z</time>
      </trkpt>
      <trkpt lat="43.25452" lon="5.72293">
        <ele>487</ele>
        <time>2020-01-15T13:53:29Z</time>
      </trkpt>
      <trkpt lat="43.25451" lon="5.72287">
        <ele>487</ele>
        <time>2020-01-15T13:53:33Z</time>
      </trkpt>
      <trkpt lat="43.25449" lon="5.72278">
        <ele>486</ele>
        <time>2020-01-15T13:53:39Z</time>
      </trkpt>
      <trkpt lat="43.25448" lon="5.72272">
        <ele>484</ele>
        <time>2020-01-15T13:53:43Z</time>
      </trkpt>
      <trkpt lat="43.25446" lon="5.72264">
        <ele>483</ele>
        <time>2020-01-15T13:53:49Z</time>
      </trkpt>
      <trkpt lat="43.25444" lon="5.72255">
        <ele>487</ele>
        <time>2020-01-15T13:53:55Z</time>
      </trkpt>
      <trkpt lat="43.25439" lon="5.72244">
        <ele>491</ele>
        <time>2020-01-15T13:53:59Z</time>
      </trkpt>
      <trkpt lat="43.25436" lon="5.72237">
        <ele>492</ele>
        <time>2020-01-15T13:54:03Z</time>
      </trkpt>
      <trkpt lat="43.25434" lon="5.7223">
        <ele>488</ele>
        <time>2020-01-15T13:54:09Z</time>
      </trkpt>
      <trkpt lat="43.25432" lon="5.72222">
        <ele>487</ele>
        <time>2020-01-15T13:54:15Z</time>
      </trkpt>
      <trkpt lat="43.2543" lon="5.72215">
        <ele>489</ele>
        <time>2020-01-15T13:54:21Z</time>
      </trkpt>
      <trkpt lat="43.25429" lon="5.72208">
        <ele>491</ele>
        <time>2020-01-15T13:54:27Z</time>
      </trkpt>
      <trkpt lat="43.25429" lon="5.72201">
        <ele>496</ele>
        <time>2020-01-15T13:54:31Z</time>
      </trkpt>
      <trkpt lat="43.25429" lon="5.72193">
        <ele>496</ele>
        <time>2020-01-15T13:54:35Z</time>
      </trkpt>
      <trkpt lat="43.25426" lon="5.72186">
        <ele>497</ele>
        <time>2020-01-15T13:54:43Z</time>
      </trkpt>
      <trkpt lat="43.25423" lon="5.72179">
        <ele>499</ele>
        <time>2020-01-15T13:54:55Z</time>
      </trkpt>
      <trkpt lat="43.25422" lon="5.72173">
        <ele>493</ele>
        <time>2020-01-15T13:55:01Z</time>
      </trkpt>
      <trkpt lat="43.25419" lon="5.72167">
        <ele>494</ele>
        <time>2020-01-15T13:55:07Z</time>
      </trkpt>
      <trkpt lat="43.25415" lon="5.72161">
        <ele>494</ele>
        <time>2020-01-15T13:55:13Z</time>
      </trkpt>
      <trkpt lat="43.25412" lon="5.72154">
        <ele>495</ele>
        <time>2020-01-15T13:55:19Z</time>
      </trkpt>
      <trkpt lat="43.25409" lon="5.72148">
        <ele>497</ele>
        <time>2020-01-15T13:55:23Z</time>
      </trkpt>
      <trkpt lat="43.25406" lon="5.7214">
        <ele>497</ele>
        <time>2020-01-15T13:55:29Z</time>
      </trkpt>
      <trkpt lat="43.25405" lon="5.72134">
        <ele>497</ele>
        <time>2020-01-15T13:55:35Z</time>
      </trkpt>
      <trkpt lat="43.25402" lon="5.72128">
        <ele>500</ele>
        <time>2020-01-15T13:55:41Z</time>
      </trkpt>
      <trkpt lat="43.25399" lon="5.72122">
        <ele>501</ele>
        <time>2020-01-15T13:55:47Z</time>
      </trkpt>
      <trkpt lat="43.25396" lon="5.72114">
        <ele>501</ele>
        <time>2020-01-15T13:55:53Z</time>
      </trkpt>
      <trkpt lat="43.25394" lon="5.72107">
        <ele>502</ele>
        <time>2020-01-15T13:55:59Z</time>
      </trkpt>
      <trkpt lat="43.25392" lon="5.721">
        <ele>507</ele>
        <time>2020-01-15T13:56:05Z</time>
      </trkpt>
      <trkpt lat="43.25389" lon="5.72092">
        <ele>512</ele>
        <time>2020-01-15T13:56:11Z</time>
      </trkpt>
      <trkpt lat="43.25386" lon="5.72087">
        <ele>511</ele>
        <time>2020-01-15T13:56:17Z</time>
      </trkpt>
      <trkpt lat="43.25382" lon="5.72082">
        <ele>512</ele>
        <time>2020-01-15T13:56:33Z</time>
      </trkpt>
      <trkpt lat="43.2538" lon="5.72074">
        <ele>509</ele>
        <time>2020-01-15T13:56:45Z</time>
      </trkpt>
      <trkpt lat="43.25379" lon="5.72068">
        <ele>508</ele>
        <time>2020-01-15T13:56:53Z</time>
      </trkpt>
      <trkpt lat="43.25377" lon="5.72061">
        <ele>509</ele>
        <time>2020-01-15T13:56:59Z</time>
      </trkpt>
      <trkpt lat="43.25375" lon="5.72055">
        <ele>510</ele>
        <time>2020-01-15T13:57:05Z</time>
      </trkpt>
      <trkpt lat="43.25371" lon="5.72051">
        <ele>509</ele>
        <time>2020-01-15T13:57:11Z</time>
      </trkpt>
      <trkpt lat="43.25367" lon="5.72046">
        <ele>509</ele>
        <time>2020-01-15T13:57:19Z</time>
      </trkpt>
      <trkpt lat="43.25363" lon="5.72043">
        <ele>511</ele>
        <time>2020-01-15T13:57:27Z</time>
      </trkpt>
      <trkpt lat="43.2536" lon="5.72038">
        <ele>513</ele>
        <time>2020-01-15T13:57:33Z</time>
      </trkpt>
      <trkpt lat="43.25355" lon="5.72033">
        <ele>514</ele>
        <time>2020-01-15T13:57:39Z</time>
      </trkpt>
      <trkpt lat="43.25353" lon="5.72028">
        <ele>512</ele>
        <time>2020-01-15T13:57:47Z</time>
      </trkpt>
      <trkpt lat="43.25351" lon="5.72022">
        <ele>514</ele>
        <time>2020-01-15T13:57:57Z</time>
      </trkpt>
      <trkpt lat="43.25346" lon="5.72024">
        <ele>517</ele>
        <time>2020-01-15T13:58:55Z</time>
      </trkpt>
      <trkpt lat="43.25345" lon="5.72016">
        <ele>513</ele>
        <time>2020-01-15T13:59:21Z</time>
      </trkpt>
      <trkpt lat="43.2534" lon="5.72014">
        <ele>514</ele>
        <time>2020-01-15T13:59:35Z</time>
      </trkpt>
      <trkpt lat="43.25336" lon="5.72011">
        <ele>514</ele>
        <time>2020-01-15T13:59:51Z</time>
      </trkpt>
      <trkpt lat="43.25335" lon="5.72004">
        <ele>513</ele>
        <time>2020-01-15T14:00:01Z</time>
      </trkpt>
      <trkpt lat="43.25334" lon="5.71996">
        <ele>513</ele>
        <time>2020-01-15T14:00:09Z</time>
      </trkpt>
      <trkpt lat="43.25331" lon="5.7199">
        <ele>514</ele>
        <time>2020-01-15T14:00:15Z</time>
      </trkpt>
      <trkpt lat="43.25329" lon="5.71983">
        <ele>514</ele>
        <time>2020-01-15T14:00:21Z</time>
      </trkpt>
      <trkpt lat="43.25326" lon="5.71977">
        <ele>512</ele>
        <time>2020-01-15T14:00:29Z</time>
      </trkpt>
      <trkpt lat="43.25322" lon="5.71974">
        <ele>514</ele>
        <time>2020-01-15T14:00:45Z</time>
      </trkpt>
      <trkpt lat="43.25319" lon="5.71968">
        <ele>515</ele>
        <time>2020-01-15T14:00:55Z</time>
      </trkpt>
      <trkpt lat="43.2532" lon="5.71961">
        <ele>513</ele>
        <time>2020-01-15T14:01:11Z</time>
      </trkpt>
      <trkpt lat="43.25316" lon="5.71956">
        <ele>513</ele>
        <time>2020-01-15T14:01:17Z</time>
      </trkpt>
      <trkpt lat="43.25315" lon="5.7195">
        <ele>513</ele>
        <time>2020-01-15T14:01:37Z</time>
      </trkpt>
      <trkpt lat="43.25313" lon="5.71943">
        <ele>518</ele>
        <time>2020-01-15T14:03:07Z</time>
      </trkpt>
      <trkpt lat="43.25309" lon="5.71939">
        <ele>516</ele>
        <time>2020-01-15T14:03:25Z</time>
      </trkpt>
      <trkpt lat="43.25305" lon="5.71935">
        <ele>516</ele>
        <time>2020-01-15T14:03:35Z</time>
      </trkpt>
      <trkpt lat="43.25302" lon="5.71927">
        <ele>517</ele>
        <time>2020-01-15T14:03:45Z</time>
      </trkpt>
      <trkpt lat="43.253" lon="5.71921">
        <ele>518</ele>
        <time>2020-01-15T14:03:51Z</time>
      </trkpt>
      <trkpt lat="43.25298" lon="5.71913">
        <ele>517</ele>
        <time>2020-01-15T14:03:57Z</time>
      </trkpt>
      <trkpt lat="43.25297" lon="5.71906">
        <ele>516</ele>
        <time>2020-01-15T14:04:01Z</time>
      </trkpt>
      <trkpt lat="43.25295" lon="5.71899">
        <ele>517</ele>
        <time>2020-01-15T14:04:07Z</time>
      </trkpt>
      <trkpt lat="43.25293" lon="5.71893">
        <ele>519</ele>
        <time>2020-01-15T14:04:15Z</time>
      </trkpt>
      <trkpt lat="43.2529" lon="5.71887">
        <ele>519</ele>
        <time>2020-01-15T14:04:19Z</time>
      </trkpt>
      <trkpt lat="43.25286" lon="5.7188">
        <ele>518</ele>
        <time>2020-01-15T14:04:23Z</time>
      </trkpt>
      <trkpt lat="43.25283" lon="5.71874">
        <ele>518</ele>
        <time>2020-01-15T14:04:27Z</time>
      </trkpt>
      <trkpt lat="43.25279" lon="5.71868">
        <ele>517</ele>
        <time>2020-01-15T14:04:31Z</time>
      </trkpt>
      <trkpt lat="43.25275" lon="5.71863">
        <ele>518</ele>
        <time>2020-01-15T14:04:35Z</time>
      </trkpt>
      <trkpt lat="43.25271" lon="5.71859">
        <ele>519</ele>
        <time>2020-01-15T14:04:39Z</time>
      </trkpt>
      <trkpt lat="43.25267" lon="5.71853">
        <ele>516</ele>
        <time>2020-01-15T14:04:45Z</time>
      </trkpt>
      <trkpt lat="43.25261" lon="5.71849">
        <ele>518</ele>
        <time>2020-01-15T14:04:51Z</time>
      </trkpt>
      <trkpt lat="43.25256" lon="5.71844">
        <ele>518</ele>
        <time>2020-01-15T14:04:57Z</time>
      </trkpt>
      <trkpt lat="43.25253" lon="5.71838">
        <ele>516</ele>
        <time>2020-01-15T14:05:01Z</time>
      </trkpt>
      <trkpt lat="43.2525" lon="5.7183">
        <ele>513</ele>
        <time>2020-01-15T14:05:07Z</time>
      </trkpt>
      <trkpt lat="43.25247" lon="5.71823">
        <ele>511</ele>
        <time>2020-01-15T14:05:13Z</time>
      </trkpt>
      <trkpt lat="43.25243" lon="5.71817">
        <ele>515</ele>
        <time>2020-01-15T14:05:21Z</time>
      </trkpt>
      <trkpt lat="43.25238" lon="5.71812">
        <ele>516</ele>
        <time>2020-01-15T14:05:27Z</time>
      </trkpt>
      <trkpt lat="43.25233" lon="5.71806">
        <ele>520</ele>
        <time>2020-01-15T14:05:33Z</time>
      </trkpt>
      <trkpt lat="43.25229" lon="5.718">
        <ele>519</ele>
        <time>2020-01-15T14:05:39Z</time>
      </trkpt>
      <trkpt lat="43.25225" lon="5.71794">
        <ele>518</ele>
        <time>2020-01-15T14:05:45Z</time>
      </trkpt>
      <trkpt lat="43.25223" lon="5.71787">
        <ele>514</ele>
        <time>2020-01-15T14:05:51Z</time>
      </trkpt>
      <trkpt lat="43.2522" lon="5.71779">
        <ele>511</ele>
        <time>2020-01-15T14:05:57Z</time>
      </trkpt>
      <trkpt lat="43.25217" lon="5.71774">
        <ele>511</ele>
        <time>2020-01-15T14:06:05Z</time>
      </trkpt>
      <trkpt lat="43.25214" lon="5.71769">
        <ele>505</ele>
        <time>2020-01-15T14:06:13Z</time>
      </trkpt>
      <trkpt lat="43.25211" lon="5.71761">
        <ele>502</ele>
        <time>2020-01-15T14:06:19Z</time>
      </trkpt>
      <trkpt lat="43.25207" lon="5.71751">
        <ele>505</ele>
        <time>2020-01-15T14:06:25Z</time>
      </trkpt>
      <trkpt lat="43.25205" lon="5.71742">
        <ele>507</ele>
        <time>2020-01-15T14:06:29Z</time>
      </trkpt>
      <trkpt lat="43.252" lon="5.71736">
        <ele>508</ele>
        <time>2020-01-15T14:06:33Z</time>
      </trkpt>
      <trkpt lat="43.25196" lon="5.7173">
        <ele>510</ele>
        <time>2020-01-15T14:06:37Z</time>
      </trkpt>
      <trkpt lat="43.25192" lon="5.71725">
        <ele>510</ele>
        <time>2020-01-15T14:06:41Z</time>
      </trkpt>
      <trkpt lat="43.25188" lon="5.71722">
        <ele>514</ele>
        <time>2020-01-15T14:06:45Z</time>
      </trkpt>
      <trkpt lat="43.25184" lon="5.71718">
        <ele>516</ele>
        <time>2020-01-15T14:06:49Z</time>
      </trkpt>
      <trkpt lat="43.2518" lon="5.71714">
        <ele>517</ele>
        <time>2020-01-15T14:06:53Z</time>
      </trkpt>
      <trkpt lat="43.25175" lon="5.7171">
        <ele>517</ele>
        <time>2020-01-15T14:06:59Z</time>
      </trkpt>
      <trkpt lat="43.25171" lon="5.71703">
        <ele>517</ele>
        <time>2020-01-15T14:07:07Z</time>
      </trkpt>
      <trkpt lat="43.25166" lon="5.71698">
        <ele>518</ele>
        <time>2020-01-15T14:07:13Z</time>
      </trkpt>
      <trkpt lat="43.25159" lon="5.71695">
        <ele>518</ele>
        <time>2020-01-15T14:07:19Z</time>
      </trkpt>
      <trkpt lat="43.25155" lon="5.71695">
        <ele>517</ele>
        <time>2020-01-15T14:07:23Z</time>
      </trkpt>
      <trkpt lat="43.2515" lon="5.71692">
        <ele>517</ele>
        <time>2020-01-15T14:07:27Z</time>
      </trkpt>
      <trkpt lat="43.25145" lon="5.7169">
        <ele>519</ele>
        <time>2020-01-15T14:07:31Z</time>
      </trkpt>
      <trkpt lat="43.25139" lon="5.71686">
        <ele>518</ele>
        <time>2020-01-15T14:07:37Z</time>
      </trkpt>
      <trkpt lat="43.25135" lon="5.71684">
        <ele>519</ele>
        <time>2020-01-15T14:07:41Z</time>
      </trkpt>
      <trkpt lat="43.2513" lon="5.71685">
        <ele>517</ele>
        <time>2020-01-15T14:07:45Z</time>
      </trkpt>
      <trkpt lat="43.25125" lon="5.71687">
        <ele>520</ele>
        <time>2020-01-15T14:07:49Z</time>
      </trkpt>
      <trkpt lat="43.2512" lon="5.71689">
        <ele>520</ele>
        <time>2020-01-15T14:07:53Z</time>
      </trkpt>
      <trkpt lat="43.25115" lon="5.71687">
        <ele>517</ele>
        <time>2020-01-15T14:07:59Z</time>
      </trkpt>
      <trkpt lat="43.2511" lon="5.71681">
        <ele>514</ele>
        <time>2020-01-15T14:08:05Z</time>
      </trkpt>
      <trkpt lat="43.25106" lon="5.71675">
        <ele>514</ele>
        <time>2020-01-15T14:08:11Z</time>
      </trkpt>
      <trkpt lat="43.25103" lon="5.71669">
        <ele>512</ele>
        <time>2020-01-15T14:08:15Z</time>
      </trkpt>
      <trkpt lat="43.25101" lon="5.71663">
        <ele>510</ele>
        <time>2020-01-15T14:08:19Z</time>
      </trkpt>
      <trkpt lat="43.25098" lon="5.71656">
        <ele>508</ele>
        <time>2020-01-15T14:08:25Z</time>
      </trkpt>
      <trkpt lat="43.25094" lon="5.7165">
        <ele>509</ele>
        <time>2020-01-15T14:08:29Z</time>
      </trkpt>
      <trkpt lat="43.25089" lon="5.71645">
        <ele>509</ele>
        <time>2020-01-15T14:08:33Z</time>
      </trkpt>
      <trkpt lat="43.25085" lon="5.71642">
        <ele>506</ele>
        <time>2020-01-15T14:08:37Z</time>
      </trkpt>
      <trkpt lat="43.25079" lon="5.7164">
        <ele>504</ele>
        <time>2020-01-15T14:08:43Z</time>
      </trkpt>
      <trkpt lat="43.25075" lon="5.71638">
        <ele>503</ele>
        <time>2020-01-15T14:08:47Z</time>
      </trkpt>
      <trkpt lat="43.2507" lon="5.71637">
        <ele>502</ele>
        <time>2020-01-15T14:08:51Z</time>
      </trkpt>
      <trkpt lat="43.25065" lon="5.71634">
        <ele>503</ele>
        <time>2020-01-15T14:08:55Z</time>
      </trkpt>
      <trkpt lat="43.25061" lon="5.71632">
        <ele>502</ele>
        <time>2020-01-15T14:08:59Z</time>
      </trkpt>
      <trkpt lat="43.25056" lon="5.71629">
        <ele>501</ele>
        <time>2020-01-15T14:09:03Z</time>
      </trkpt>
      <trkpt lat="43.2505" lon="5.71624">
        <ele>500</ele>
        <time>2020-01-15T14:09:09Z</time>
      </trkpt>
      <trkpt lat="43.25044" lon="5.71621">
        <ele>500</ele>
        <time>2020-01-15T14:09:15Z</time>
      </trkpt>
      <trkpt lat="43.25038" lon="5.71619">
        <ele>502</ele>
        <time>2020-01-15T14:09:21Z</time>
      </trkpt>
      <trkpt lat="43.25031" lon="5.71618">
        <ele>504</ele>
        <time>2020-01-15T14:09:27Z</time>
      </trkpt>
      <trkpt lat="43.25026" lon="5.71616">
        <ele>504</ele>
        <time>2020-01-15T14:09:33Z</time>
      </trkpt>
      <trkpt lat="43.25021" lon="5.71613">
        <ele>503</ele>
        <time>2020-01-15T14:09:39Z</time>
      </trkpt>
      <trkpt lat="43.25017" lon="5.71609">
        <ele>503</ele>
        <time>2020-01-15T14:09:45Z</time>
      </trkpt>
      <trkpt lat="43.25014" lon="5.71603">
        <ele>502</ele>
        <time>2020-01-15T14:09:51Z</time>
      </trkpt>
      <trkpt lat="43.25009" lon="5.71597">
        <ele>502</ele>
        <time>2020-01-15T14:09:57Z</time>
      </trkpt>
      <trkpt lat="43.25004" lon="5.71594">
        <ele>504</ele>
        <time>2020-01-15T14:10:03Z</time>
      </trkpt>
      <trkpt lat="43.24999" lon="5.71591">
        <ele>503</ele>
        <time>2020-01-15T14:10:09Z</time>
      </trkpt>
      <trkpt lat="43.24993" lon="5.71589">
        <ele>502</ele>
        <time>2020-01-15T14:10:15Z</time>
      </trkpt>
      <trkpt lat="43.24987" lon="5.71588">
        <ele>502</ele>
        <time>2020-01-15T14:10:21Z</time>
      </trkpt>
      <trkpt lat="43.2498" lon="5.71589">
        <ele>502</ele>
        <time>2020-01-15T14:10:27Z</time>
      </trkpt>
      <trkpt lat="43.24975" lon="5.7159">
        <ele>504</ele>
        <time>2020-01-15T14:10:31Z</time>
      </trkpt>
      <trkpt lat="43.24969" lon="5.71591">
        <ele>503</ele>
        <time>2020-01-15T14:10:37Z</time>
      </trkpt>
      <trkpt lat="43.24964" lon="5.71592">
        <ele>505</ele>
        <time>2020-01-15T14:10:43Z</time>
      </trkpt>
      <trkpt lat="43.24959" lon="5.71593">
        <ele>506</ele>
        <time>2020-01-15T14:10:47Z</time>
      </trkpt>
      <trkpt lat="43.24953" lon="5.71592">
        <ele>504</ele>
        <time>2020-01-15T14:10:53Z</time>
      </trkpt>
      <trkpt lat="43.24946" lon="5.71592">
        <ele>505</ele>
        <time>2020-01-15T14:10:59Z</time>
      </trkpt>
      <trkpt lat="43.2494" lon="5.71592">
        <ele>507</ele>
        <time>2020-01-15T14:11:03Z</time>
      </trkpt>
      <trkpt lat="43.24935" lon="5.71593">
        <ele>508</ele>
        <time>2020-01-15T14:11:07Z</time>
      </trkpt>
      <trkpt lat="43.24929" lon="5.71592">
        <ele>510</ele>
        <time>2020-01-15T14:11:13Z</time>
      </trkpt>
      <trkpt lat="43.24924" lon="5.71593">
        <ele>511</ele>
        <time>2020-01-15T14:11:17Z</time>
      </trkpt>
      <trkpt lat="43.24919" lon="5.71593">
        <ele>510</ele>
        <time>2020-01-15T14:11:23Z</time>
      </trkpt>
      <trkpt lat="43.24912" lon="5.71593">
        <ele>512</ele>
        <time>2020-01-15T14:11:29Z</time>
      </trkpt>
      <trkpt lat="43.24907" lon="5.7159">
        <ele>510</ele>
        <time>2020-01-15T14:11:35Z</time>
      </trkpt>
      <trkpt lat="43.24902" lon="5.71586">
        <ele>509</ele>
        <time>2020-01-15T14:11:41Z</time>
      </trkpt>
      <trkpt lat="43.24896" lon="5.71582">
        <ele>510</ele>
        <time>2020-01-15T14:11:47Z</time>
      </trkpt>
      <trkpt lat="43.24892" lon="5.7158">
        <ele>510</ele>
        <time>2020-01-15T14:11:51Z</time>
      </trkpt>
      <trkpt lat="43.24886" lon="5.71577">
        <ele>511</ele>
        <time>2020-01-15T14:11:57Z</time>
      </trkpt>
      <trkpt lat="43.24881" lon="5.71573">
        <ele>508</ele>
        <time>2020-01-15T14:12:03Z</time>
      </trkpt>
      <trkpt lat="43.24875" lon="5.71569">
        <ele>510</ele>
        <time>2020-01-15T14:12:09Z</time>
      </trkpt>
      <trkpt lat="43.24869" lon="5.71565">
        <ele>509</ele>
        <time>2020-01-15T14:12:15Z</time>
      </trkpt>
      <trkpt lat="43.24864" lon="5.71562">
        <ele>511</ele>
        <time>2020-01-15T14:12:21Z</time>
      </trkpt>
      <trkpt lat="43.24859" lon="5.71557">
        <ele>510</ele>
        <time>2020-01-15T14:12:27Z</time>
      </trkpt>
      <trkpt lat="43.24853" lon="5.71553">
        <ele>511</ele>
        <time>2020-01-15T14:12:33Z</time>
      </trkpt>
      <trkpt lat="43.24848" lon="5.7155">
        <ele>510</ele>
        <time>2020-01-15T14:12:39Z</time>
      </trkpt>
      <trkpt lat="43.24841" lon="5.71548">
        <ele>514</ele>
        <time>2020-01-15T14:12:45Z</time>
      </trkpt>
      <trkpt lat="43.24837" lon="5.71547">
        <ele>514</ele>
        <time>2020-01-15T14:12:49Z</time>
      </trkpt>
      <trkpt lat="43.2483" lon="5.71546">
        <ele>514</ele>
        <time>2020-01-15T14:12:55Z</time>
      </trkpt>
      <trkpt lat="43.24824" lon="5.71542">
        <ele>514</ele>
        <time>2020-01-15T14:13:01Z</time>
      </trkpt>
      <trkpt lat="43.24819" lon="5.71539">
        <ele>513</ele>
        <time>2020-01-15T14:13:07Z</time>
      </trkpt>
      <trkpt lat="43.24814" lon="5.71535">
        <ele>512</ele>
        <time>2020-01-15T14:13:13Z</time>
      </trkpt>
      <trkpt lat="43.2481" lon="5.71532">
        <ele>507</ele>
        <time>2020-01-15T14:13:19Z</time>
      </trkpt>
      <trkpt lat="43.24806" lon="5.71529">
        <ele>507</ele>
        <time>2020-01-15T14:13:25Z</time>
      </trkpt>
      <trkpt lat="43.24801" lon="5.71526">
        <ele>505</ele>
        <time>2020-01-15T14:13:31Z</time>
      </trkpt>
      <trkpt lat="43.24796" lon="5.71522">
        <ele>507</ele>
        <time>2020-01-15T14:13:37Z</time>
      </trkpt>
      <trkpt lat="43.24792" lon="5.71518">
        <ele>503</ele>
        <time>2020-01-15T14:13:43Z</time>
      </trkpt>
      <trkpt lat="43.24788" lon="5.71515">
        <ele>503</ele>
        <time>2020-01-15T14:13:47Z</time>
      </trkpt>
      <trkpt lat="43.24782" lon="5.71512">
        <ele>502</ele>
        <time>2020-01-15T14:13:53Z</time>
      </trkpt>
      <trkpt lat="43.24777" lon="5.71507">
        <ele>503</ele>
        <time>2020-01-15T14:13:59Z</time>
      </trkpt>
      <trkpt lat="43.24772" lon="5.71503">
        <ele>502</ele>
        <time>2020-01-15T14:14:05Z</time>
      </trkpt>
      <trkpt lat="43.24767" lon="5.71499">
        <ele>504</ele>
        <time>2020-01-15T14:14:09Z</time>
      </trkpt>
      <trkpt lat="43.24762" lon="5.71497">
        <ele>504</ele>
        <time>2020-01-15T14:14:13Z</time>
      </trkpt>
      <trkpt lat="43.24757" lon="5.71495">
        <ele>507</ele>
        <time>2020-01-15T14:14:17Z</time>
      </trkpt>
      <trkpt lat="43.24753" lon="5.71492">
        <ele>506</ele>
        <time>2020-01-15T14:14:21Z</time>
      </trkpt>
      <trkpt lat="43.24749" lon="5.71489">
        <ele>507</ele>
        <time>2020-01-15T14:14:25Z</time>
      </trkpt>
      <trkpt lat="43.24745" lon="5.71484">
        <ele>505</ele>
        <time>2020-01-15T14:14:31Z</time>
      </trkpt>
      <trkpt lat="43.2474" lon="5.71479">
        <ele>510</ele>
        <time>2020-01-15T14:14:37Z</time>
      </trkpt>
      <trkpt lat="43.24735" lon="5.71477">
        <ele>509</ele>
        <time>2020-01-15T14:14:45Z</time>
      </trkpt>
      <trkpt lat="43.2473" lon="5.71474">
        <ele>507</ele>
        <time>2020-01-15T14:14:51Z</time>
      </trkpt>
      <trkpt lat="43.24726" lon="5.71473">
        <ele>509</ele>
        <time>2020-01-15T14:14:55Z</time>
      </trkpt>
      <trkpt lat="43.24721" lon="5.71472">
        <ele>511</ele>
        <time>2020-01-15T14:14:59Z</time>
      </trkpt>
      <trkpt lat="43.24717" lon="5.71469">
        <ele>509</ele>
        <time>2020-01-15T14:15:03Z</time>
      </trkpt>
      <trkpt lat="43.24713" lon="5.71463">
        <ele>506</ele>
        <time>2020-01-15T14:15:09Z</time>
      </trkpt>
      <trkpt lat="43.24709" lon="5.71459">
        <ele>507</ele>
        <time>2020-01-15T14:15:13Z</time>
      </trkpt>
      <trkpt lat="43.24706" lon="5.71453">
        <ele>505</ele>
        <time>2020-01-15T14:15:19Z</time>
      </trkpt>
      <trkpt lat="43.24702" lon="5.71449">
        <ele>504</ele>
        <time>2020-01-15T14:15:25Z</time>
      </trkpt>
      <trkpt lat="43.24699" lon="5.71443">
        <ele>503</ele>
        <time>2020-01-15T14:15:31Z</time>
      </trkpt>
      <trkpt lat="43.24696" lon="5.71436">
        <ele>505</ele>
        <time>2020-01-15T14:15:37Z</time>
      </trkpt>
      <trkpt lat="43.24693" lon="5.71428">
        <ele>506</ele>
        <time>2020-01-15T14:15:43Z</time>
      </trkpt>
      <trkpt lat="43.24691" lon="5.71422">
        <ele>503</ele>
        <time>2020-01-15T14:15:47Z</time>
      </trkpt>
      <trkpt lat="43.24688" lon="5.71416">
        <ele>504</ele>
        <time>2020-01-15T14:15:51Z</time>
      </trkpt>
      <trkpt lat="43.24685" lon="5.7141">
        <ele>504</ele>
        <time>2020-01-15T14:15:55Z</time>
      </trkpt>
      <trkpt lat="43.24682" lon="5.71403">
        <ele>503</ele>
        <time>2020-01-15T14:16:01Z</time>
      </trkpt>
      <trkpt lat="43.24678" lon="5.71397">
        <ele>506</ele>
        <time>2020-01-15T14:16:07Z</time>
      </trkpt>
      <trkpt lat="43.24673" lon="5.7139">
        <ele>506</ele>
        <time>2020-01-15T14:16:13Z</time>
      </trkpt>
      <trkpt lat="43.2467" lon="5.71382">
        <ele>505</ele>
        <time>2020-01-15T14:16:19Z</time>
      </trkpt>
      <trkpt lat="43.24666" lon="5.71377">
        <ele>505</ele>
        <time>2020-01-15T14:16:25Z</time>
      </trkpt>
      <trkpt lat="43.24662" lon="5.71371">
        <ele>506</ele>
        <time>2020-01-15T14:16:31Z</time>
      </trkpt>
      <trkpt lat="43.24659" lon="5.71367">
        <ele>506</ele>
        <time>2020-01-15T14:16:37Z</time>
      </trkpt>
      <trkpt lat="43.24656" lon="5.71362">
        <ele>507</ele>
        <time>2020-01-15T14:16:43Z</time>
      </trkpt>
      <trkpt lat="43.24651" lon="5.71356">
        <ele>508</ele>
        <time>2020-01-15T14:16:49Z</time>
      </trkpt>
      <trkpt lat="43.24647" lon="5.71351">
        <ele>504</ele>
        <time>2020-01-15T14:16:55Z</time>
      </trkpt>
      <trkpt lat="43.24642" lon="5.71346">
        <ele>504</ele>
        <time>2020-01-15T14:17:01Z</time>
      </trkpt>
      <trkpt lat="43.24638" lon="5.71342">
        <ele>505</ele>
        <time>2020-01-15T14:17:09Z</time>
      </trkpt>
      <trkpt lat="43.24634" lon="5.71338">
        <ele>501</ele>
        <time>2020-01-15T14:19:25Z</time>
      </trkpt>
      <trkpt lat="43.2463" lon="5.71333">
        <ele>501</ele>
        <time>2020-01-15T14:19:33Z</time>
      </trkpt>
      <trkpt lat="43.24626" lon="5.71331">
        <ele>502</ele>
        <time>2020-01-15T14:19:39Z</time>
      </trkpt>
      <trkpt lat="43.24621" lon="5.71325">
        <ele>505</ele>
        <time>2020-01-15T14:19:47Z</time>
      </trkpt>
      <trkpt lat="43.24617" lon="5.71318">
        <ele>503</ele>
        <time>2020-01-15T14:19:53Z</time>
      </trkpt>
      <trkpt lat="43.24613" lon="5.71313">
        <ele>500</ele>
        <time>2020-01-15T14:20:01Z</time>
      </trkpt>
      <trkpt lat="43.24609" lon="5.71308">
        <ele>500</ele>
        <time>2020-01-15T14:20:07Z</time>
      </trkpt>
      <trkpt lat="43.24606" lon="5.71302">
        <ele>502</ele>
        <time>2020-01-15T14:20:11Z</time>
      </trkpt>
      <trkpt lat="43.24601" lon="5.71296">
        <ele>501</ele>
        <time>2020-01-15T14:20:17Z</time>
      </trkpt>
      <trkpt lat="43.24598" lon="5.71292">
        <ele>500</ele>
        <time>2020-01-15T14:20:21Z</time>
      </trkpt>
      <trkpt lat="43.24594" lon="5.71286">
        <ele>499</ele>
        <time>2020-01-15T14:20:25Z</time>
      </trkpt>
      <trkpt lat="43.24592" lon="5.71281">
        <ele>500</ele>
        <time>2020-01-15T14:20:29Z</time>
      </trkpt>
      <trkpt lat="43.24589" lon="5.71273">
        <ele>498</ele>
        <time>2020-01-15T14:20:35Z</time>
      </trkpt>
      <trkpt lat="43.24586" lon="5.71265">
        <ele>497</ele>
        <time>2020-01-15T14:20:41Z</time>
      </trkpt>
      <trkpt lat="43.24584" lon="5.7126">
        <ele>497</ele>
        <time>2020-01-15T14:20:45Z</time>
      </trkpt>
      <trkpt lat="43.24581" lon="5.71254">
        <ele>496</ele>
        <time>2020-01-15T14:20:49Z</time>
      </trkpt>
      <trkpt lat="43.24579" lon="5.71249">
        <ele>496</ele>
        <time>2020-01-15T14:20:53Z</time>
      </trkpt>
      <trkpt lat="43.24576" lon="5.71241">
        <ele>494</ele>
        <time>2020-01-15T14:20:59Z</time>
      </trkpt>
      <trkpt lat="43.24574" lon="5.71235">
        <ele>496</ele>
        <time>2020-01-15T14:21:03Z</time>
      </trkpt>
      <trkpt lat="43.24574" lon="5.71229">
        <ele>493</ele>
        <time>2020-01-15T14:21:07Z</time>
      </trkpt>
      <trkpt lat="43.24573" lon="5.71219">
        <ele>494</ele>
        <time>2020-01-15T14:21:13Z</time>
      </trkpt>
      <trkpt lat="43.24572" lon="5.71213">
        <ele>494</ele>
        <time>2020-01-15T14:21:17Z</time>
      </trkpt>
      <trkpt lat="43.2457" lon="5.71207">
        <ele>494</ele>
        <time>2020-01-15T14:21:21Z</time>
      </trkpt>
      <trkpt lat="43.24569" lon="5.71199">
        <ele>496</ele>
        <time>2020-01-15T14:21:27Z</time>
      </trkpt>
      <trkpt lat="43.24567" lon="5.71192">
        <ele>497</ele>
        <time>2020-01-15T14:21:33Z</time>
      </trkpt>
      <trkpt lat="43.24563" lon="5.71185">
        <ele>493</ele>
        <time>2020-01-15T14:23:43Z</time>
      </trkpt>
      <trkpt lat="43.24561" lon="5.71177">
        <ele>495</ele>
        <time>2020-01-15T14:23:49Z</time>
      </trkpt>
      <trkpt lat="43.24559" lon="5.71171">
        <ele>493</ele>
        <time>2020-01-15T14:23:55Z</time>
      </trkpt>
      <trkpt lat="43.24557" lon="5.71166">
        <ele>494</ele>
        <time>2020-01-15T14:23:59Z</time>
      </trkpt>
      <trkpt lat="43.24555" lon="5.7116">
        <ele>493</ele>
        <time>2020-01-15T14:24:03Z</time>
      </trkpt>
      <trkpt lat="43.24555" lon="5.71153">
        <ele>493</ele>
        <time>2020-01-15T14:24:09Z</time>
      </trkpt>
      <trkpt lat="43.24552" lon="5.71147">
        <ele>492</ele>
        <time>2020-01-15T14:24:15Z</time>
      </trkpt>
      <trkpt lat="43.2455" lon="5.71141">
        <ele>492</ele>
        <time>2020-01-15T14:24:19Z</time>
      </trkpt>
      <trkpt lat="43.24545" lon="5.71136">
        <ele>494</ele>
        <time>2020-01-15T14:24:23Z</time>
      </trkpt>
      <trkpt lat="43.2454" lon="5.71132">
        <ele>499</ele>
        <time>2020-01-15T14:24:27Z</time>
      </trkpt>
      <trkpt lat="43.24536" lon="5.71128">
        <ele>498</ele>
        <time>2020-01-15T14:24:31Z</time>
      </trkpt>
      <trkpt lat="43.24533" lon="5.71122">
        <ele>496</ele>
        <time>2020-01-15T14:24:37Z</time>
      </trkpt>
      <trkpt lat="43.2453" lon="5.71117">
        <ele>495</ele>
        <time>2020-01-15T14:24:43Z</time>
      </trkpt>
      <trkpt lat="43.24526" lon="5.71114">
        <ele>497</ele>
        <time>2020-01-15T14:24:47Z</time>
      </trkpt>
      <trkpt lat="43.24522" lon="5.7111">
        <ele>499</ele>
        <time>2020-01-15T14:24:51Z</time>
      </trkpt>
      <trkpt lat="43.24517" lon="5.71108">
        <ele>498</ele>
        <time>2020-01-15T14:24:55Z</time>
      </trkpt>
      <trkpt lat="43.24512" lon="5.71106">
        <ele>497</ele>
        <time>2020-01-15T14:25:01Z</time>
      </trkpt>
      <trkpt lat="43.24507" lon="5.71103">
        <ele>497</ele>
        <time>2020-01-15T14:25:07Z</time>
      </trkpt>
      <trkpt lat="43.24502" lon="5.71101">
        <ele>496</ele>
        <time>2020-01-15T14:25:15Z</time>
      </trkpt>
      <trkpt lat="43.24499" lon="5.71097">
        <ele>493</ele>
        <time>2020-01-15T14:25:37Z</time>
      </trkpt>
      <trkpt lat="43.24493" lon="5.71095">
        <ele>492</ele>
        <time>2020-01-15T14:25:43Z</time>
      </trkpt>
      <trkpt lat="43.24489" lon="5.71091">
        <ele>493</ele>
        <time>2020-01-15T14:25:47Z</time>
      </trkpt>
      <trkpt lat="43.24485" lon="5.71088">
        <ele>496</ele>
        <time>2020-01-15T14:25:51Z</time>
      </trkpt>
      <trkpt lat="43.2448" lon="5.71086">
        <ele>494</ele>
        <time>2020-01-15T14:25:59Z</time>
      </trkpt>
      <trkpt lat="43.24475" lon="5.71082">
        <ele>492</ele>
        <time>2020-01-15T14:26:05Z</time>
      </trkpt>
      <trkpt lat="43.24471" lon="5.71078">
        <ele>493</ele>
        <time>2020-01-15T14:26:09Z</time>
      </trkpt>
      <trkpt lat="43.24466" lon="5.71071">
        <ele>494</ele>
        <time>2020-01-15T14:26:15Z</time>
      </trkpt>
      <trkpt lat="43.24462" lon="5.71066">
        <ele>491</ele>
        <time>2020-01-15T14:26:21Z</time>
      </trkpt>
      <trkpt lat="43.24459" lon="5.71061">
        <ele>493</ele>
        <time>2020-01-15T14:26:25Z</time>
      </trkpt>
      <trkpt lat="43.24454" lon="5.71056">
        <ele>492</ele>
        <time>2020-01-15T14:26:31Z</time>
      </trkpt>
      <trkpt lat="43.24451" lon="5.71053">
        <ele>489</ele>
        <time>2020-01-15T14:26:36Z</time>
      </trkpt>
      <trkpt lat="43.24445" lon="5.71048">
        <ele>490</ele>
        <time>2020-01-15T14:26:45Z</time>
      </trkpt>
      <trkpt lat="43.2444" lon="5.71045">
        <ele>493</ele>
        <time>2020-01-15T14:26:51Z</time>
      </trkpt>
      <trkpt lat="43.24435" lon="5.71044">
        <ele>493</ele>
        <time>2020-01-15T14:26:55Z</time>
      </trkpt>
      <trkpt lat="43.2443" lon="5.71041">
        <ele>493</ele>
        <time>2020-01-15T14:27:01Z</time>
      </trkpt>
      <trkpt lat="43.24425" lon="5.71038">
        <ele>491</ele>
        <time>2020-01-15T14:27:07Z</time>
      </trkpt>
      <trkpt lat="43.24421" lon="5.71035">
        <ele>485</ele>
        <time>2020-01-15T14:27:13Z</time>
      </trkpt>
      <trkpt lat="43.24417" lon="5.7103">
        <ele>484</ele>
        <time>2020-01-15T14:27:19Z</time>
      </trkpt>
      <trkpt lat="43.24414" lon="5.71026">
        <ele>483</ele>
        <time>2020-01-15T14:27:23Z</time>
      </trkpt>
      <trkpt lat="43.2441" lon="5.71021">
        <ele>482</ele>
        <time>2020-01-15T14:27:29Z</time>
      </trkpt>
      <trkpt lat="43.24405" lon="5.71019">
        <ele>484</ele>
        <time>2020-01-15T14:27:33Z</time>
      </trkpt>
      <trkpt lat="43.244" lon="5.71018">
        <ele>485</ele>
        <time>2020-01-15T14:27:37Z</time>
      </trkpt>
      <trkpt lat="43.24395" lon="5.71015">
        <ele>488</ele>
        <time>2020-01-15T14:27:41Z</time>
      </trkpt>
      <trkpt lat="43.2439" lon="5.71011">
        <ele>489</ele>
        <time>2020-01-15T14:27:45Z</time>
      </trkpt>
      <trkpt lat="43.24385" lon="5.71009">
        <ele>490</ele>
        <time>2020-01-15T14:27:51Z</time>
      </trkpt>
      <trkpt lat="43.24381" lon="5.71004">
        <ele>489</ele>
        <time>2020-01-15T14:27:59Z</time>
      </trkpt>
      <trkpt lat="43.2438" lon="5.70997">
        <ele>484</ele>
        <time>2020-01-15T14:28:07Z</time>
      </trkpt>
      <trkpt lat="43.2438" lon="5.70988">
        <ele>484</ele>
        <time>2020-01-15T14:28:13Z</time>
      </trkpt>
      <trkpt lat="43.24384" lon="5.70982">
        <ele>488</ele>
        <time>2020-01-15T14:28:19Z</time>
      </trkpt>
      <trkpt lat="43.24385" lon="5.70976">
        <ele>486</ele>
        <time>2020-01-15T14:28:25Z</time>
      </trkpt>
      <trkpt lat="43.24386" lon="5.7097">
        <ele>486</ele>
        <time>2020-01-15T14:28:31Z</time>
      </trkpt>
      <trkpt lat="43.24384" lon="5.70961">
        <ele>484</ele>
        <time>2020-01-15T14:28:37Z</time>
      </trkpt>
      <trkpt lat="43.24382" lon="5.70954">
        <ele>486</ele>
        <time>2020-01-15T14:28:41Z</time>
      </trkpt>
      <trkpt lat="43.24381" lon="5.70946">
        <ele>486</ele>
        <time>2020-01-15T14:28:45Z</time>
      </trkpt>
      <trkpt lat="43.24383" lon="5.7094">
        <ele>483</ele>
        <time>2020-01-15T14:28:51Z</time>
      </trkpt>
      <trkpt lat="43.24386" lon="5.70935">
        <ele>480</ele>
        <time>2020-01-15T14:28:57Z</time>
      </trkpt>
      <trkpt lat="43.24387" lon="5.70927">
        <ele>480</ele>
        <time>2020-01-15T14:29:05Z</time>
      </trkpt>
      <trkpt lat="43.24387" lon="5.7092">
        <ele>482</ele>
        <time>2020-01-15T14:29:09Z</time>
      </trkpt>
      <trkpt lat="43.24388" lon="5.70913">
        <ele>484</ele>
        <time>2020-01-15T14:29:13Z</time>
      </trkpt>
      <trkpt lat="43.24388" lon="5.70904">
        <ele>488</ele>
        <time>2020-01-15T14:29:19Z</time>
      </trkpt>
      <trkpt lat="43.24389" lon="5.70898">
        <ele>487</ele>
        <time>2020-01-15T14:29:23Z</time>
      </trkpt>
      <trkpt lat="43.24389" lon="5.70889">
        <ele>487</ele>
        <time>2020-01-15T14:29:29Z</time>
      </trkpt>
      <trkpt lat="43.24389" lon="5.70883">
        <ele>487</ele>
        <time>2020-01-15T14:29:33Z</time>
      </trkpt>
      <trkpt lat="43.2439" lon="5.70876">
        <ele>488</ele>
        <time>2020-01-15T14:29:37Z</time>
      </trkpt>
      <trkpt lat="43.24391" lon="5.70868">
        <ele>489</ele>
        <time>2020-01-15T14:29:43Z</time>
      </trkpt>
      <trkpt lat="43.24392" lon="5.70861">
        <ele>489</ele>
        <time>2020-01-15T14:29:49Z</time>
      </trkpt>
      <trkpt lat="43.24392" lon="5.70853">
        <ele>489</ele>
        <time>2020-01-15T14:29:55Z</time>
      </trkpt>
      <trkpt lat="43.24393" lon="5.70846">
        <ele>490</ele>
        <time>2020-01-15T14:30:01Z</time>
      </trkpt>
      <trkpt lat="43.24395" lon="5.70837">
        <ele>490</ele>
        <time>2020-01-15T14:30:07Z</time>
      </trkpt>
      <trkpt lat="43.24395" lon="5.70831">
        <ele>490</ele>
        <time>2020-01-15T14:30:11Z</time>
      </trkpt>
      <trkpt lat="43.24396" lon="5.70825">
        <ele>489</ele>
        <time>2020-01-15T14:30:15Z</time>
      </trkpt>
      <trkpt lat="43.24396" lon="5.70818">
        <ele>489</ele>
        <time>2020-01-15T14:30:19Z</time>
      </trkpt>
      <trkpt lat="43.24397" lon="5.70812">
        <ele>488</ele>
        <time>2020-01-15T14:30:23Z</time>
      </trkpt>
      <trkpt lat="43.24397" lon="5.70802">
        <ele>491</ele>
        <time>2020-01-15T14:30:27Z</time>
      </trkpt>
      <trkpt lat="43.24398" lon="5.70794">
        <ele>490</ele>
        <time>2020-01-15T14:30:33Z</time>
      </trkpt>
      <trkpt lat="43.244" lon="5.70785">
        <ele>490</ele>
        <time>2020-01-15T14:30:39Z</time>
      </trkpt>
      <trkpt lat="43.244" lon="5.70778">
        <ele>490</ele>
        <time>2020-01-15T14:30:43Z</time>
      </trkpt>
      <trkpt lat="43.24402" lon="5.70772">
        <ele>490</ele>
        <time>2020-01-15T14:30:47Z</time>
      </trkpt>
      <trkpt lat="43.24403" lon="5.70765">
        <ele>490</ele>
        <time>2020-01-15T14:30:51Z</time>
      </trkpt>
      <trkpt lat="43.24404" lon="5.70756">
        <ele>490</ele>
        <time>2020-01-15T14:30:57Z</time>
      </trkpt>
      <trkpt lat="43.24404" lon="5.7075">
        <ele>489</ele>
        <time>2020-01-15T14:31:01Z</time>
      </trkpt>
      <trkpt lat="43.24405" lon="5.70741">
        <ele>489</ele>
        <time>2020-01-15T14:31:07Z</time>
      </trkpt>
      <trkpt lat="43.24406" lon="5.70733">
        <ele>488</ele>
        <time>2020-01-15T14:31:13Z</time>
      </trkpt>
      <trkpt lat="43.24407" lon="5.70726">
        <ele>488</ele>
        <time>2020-01-15T14:31:17Z</time>
      </trkpt>
      <trkpt lat="43.24408" lon="5.7072">
        <ele>488</ele>
        <time>2020-01-15T14:31:21Z</time>
      </trkpt>
      <trkpt lat="43.24409" lon="5.70711">
        <ele>488</ele>
        <time>2020-01-15T14:31:27Z</time>
      </trkpt>
      <trkpt lat="43.2441" lon="5.70705">
        <ele>489</ele>
        <time>2020-01-15T14:31:31Z</time>
      </trkpt>
      <trkpt lat="43.2441" lon="5.70698">
        <ele>488</ele>
        <time>2020-01-15T14:31:35Z</time>
      </trkpt>
      <trkpt lat="43.24409" lon="5.70691">
        <ele>486</ele>
        <time>2020-01-15T14:31:41Z</time>
      </trkpt>
      <trkpt lat="43.24409" lon="5.70684">
        <ele>483</ele>
        <time>2020-01-15T14:31:47Z</time>
      </trkpt>
      <trkpt lat="43.2441" lon="5.70676">
        <ele>483</ele>
        <time>2020-01-15T14:31:53Z</time>
      </trkpt>
      <trkpt lat="43.24407" lon="5.7067">
        <ele>483</ele>
        <time>2020-01-15T14:31:59Z</time>
      </trkpt>
      <trkpt lat="43.24402" lon="5.70671">
        <ele>480</ele>
        <time>2020-01-15T14:32:09Z</time>
      </trkpt>
      <trkpt lat="43.24397" lon="5.70671">
        <ele>477</ele>
        <time>2020-01-15T14:32:19Z</time>
      </trkpt>
      <trkpt lat="43.24391" lon="5.70672">
        <ele>477</ele>
        <time>2020-01-15T14:32:25Z</time>
      </trkpt>
      <trkpt lat="43.24386" lon="5.70673">
        <ele>476</ele>
        <time>2020-01-15T14:32:31Z</time>
      </trkpt>
      <trkpt lat="43.2438" lon="5.70674">
        <ele>476</ele>
        <time>2020-01-15T14:32:37Z</time>
      </trkpt>
      <trkpt lat="43.24373" lon="5.70678">
        <ele>479</ele>
        <time>2020-01-15T14:32:41Z</time>
      </trkpt>
      <trkpt lat="43.24368" lon="5.70681">
        <ele>478</ele>
        <time>2020-01-15T14:32:45Z</time>
      </trkpt>
      <trkpt lat="43.24363" lon="5.70683">
        <ele>479</ele>
        <time>2020-01-15T14:32:49Z</time>
      </trkpt>
      <trkpt lat="43.24358" lon="5.70685">
        <ele>479</ele>
        <time>2020-01-15T14:32:53Z</time>
      </trkpt>
      <trkpt lat="43.24354" lon="5.70686">
        <ele>479</ele>
        <time>2020-01-15T14:32:57Z</time>
      </trkpt>
      <trkpt lat="43.24348" lon="5.70688">
        <ele>479</ele>
        <time>2020-01-15T14:33:01Z</time>
      </trkpt>
      <trkpt lat="43.24343" lon="5.7069">
        <ele>481</ele>
        <time>2020-01-15T14:33:05Z</time>
      </trkpt>
      <trkpt lat="43.24339" lon="5.70692">
        <ele>480</ele>
        <time>2020-01-15T14:33:09Z</time>
      </trkpt>
      <trkpt lat="43.24333" lon="5.70694">
        <ele>479</ele>
        <time>2020-01-15T14:33:15Z</time>
      </trkpt>
      <trkpt lat="43.24328" lon="5.70693">
        <ele>477</ele>
        <time>2020-01-15T14:33:21Z</time>
      </trkpt>
      <trkpt lat="43.24323" lon="5.70693">
        <ele>477</ele>
        <time>2020-01-15T14:33:25Z</time>
      </trkpt>
      <trkpt lat="43.24318" lon="5.70692">
        <ele>477</ele>
        <time>2020-01-15T14:33:29Z</time>
      </trkpt>
      <trkpt lat="43.24313" lon="5.70692">
        <ele>477</ele>
        <time>2020-01-15T14:33:33Z</time>
      </trkpt>
      <trkpt lat="43.24308" lon="5.70692">
        <ele>474</ele>
        <time>2020-01-15T14:33:39Z</time>
      </trkpt>
      <trkpt lat="43.24301" lon="5.70691">
        <ele>474</ele>
        <time>2020-01-15T14:33:45Z</time>
      </trkpt>
      <trkpt lat="43.24296" lon="5.7069">
        <ele>475</ele>
        <time>2020-01-15T14:33:49Z</time>
      </trkpt>
      <trkpt lat="43.24291" lon="5.70687">
        <ele>471</ele>
        <time>2020-01-15T14:33:57Z</time>
      </trkpt>
      <trkpt lat="43.24285" lon="5.70684">
        <ele>472</ele>
        <time>2020-01-15T14:34:03Z</time>
      </trkpt>
      <trkpt lat="43.2428" lon="5.70681">
        <ele>472</ele>
        <time>2020-01-15T14:34:07Z</time>
      </trkpt>
      <trkpt lat="43.24276" lon="5.70677">
        <ele>473</ele>
        <time>2020-01-15T14:34:11Z</time>
      </trkpt>
      <trkpt lat="43.24271" lon="5.70673">
        <ele>471</ele>
        <time>2020-01-15T14:34:17Z</time>
      </trkpt>
      <trkpt lat="43.24266" lon="5.70668">
        <ele>471</ele>
        <time>2020-01-15T14:34:23Z</time>
      </trkpt>
      <trkpt lat="43.24261" lon="5.70666">
        <ele>472</ele>
        <time>2020-01-15T14:34:27Z</time>
      </trkpt>
      <trkpt lat="43.24256" lon="5.70664">
        <ele>471</ele>
        <time>2020-01-15T14:34:35Z</time>
      </trkpt>
      <trkpt lat="43.24252" lon="5.70658">
        <ele>472</ele>
        <time>2020-01-15T14:34:45Z</time>
      </trkpt>
      <trkpt lat="43.24248" lon="5.70655">
        <ele>473</ele>
        <time>2020-01-15T14:34:49Z</time>
      </trkpt>
      <trkpt lat="43.24244" lon="5.7065">
        <ele>472</ele>
        <time>2020-01-15T14:34:53Z</time>
      </trkpt>
      <trkpt lat="43.24241" lon="5.70645">
        <ele>473</ele>
        <time>2020-01-15T14:34:59Z</time>
      </trkpt>
      <trkpt lat="43.24245" lon="5.70641">
        <ele>468</ele>
        <time>2020-01-15T14:35:51Z</time>
      </trkpt>
      <trkpt lat="43.24244" lon="5.70634">
        <ele>467</ele>
        <time>2020-01-15T14:35:59Z</time>
      </trkpt>
      <trkpt lat="43.24242" lon="5.70625">
        <ele>468</ele>
        <time>2020-01-15T14:36:05Z</time>
      </trkpt>
      <trkpt lat="43.24241" lon="5.70618">
        <ele>468</ele>
        <time>2020-01-15T14:36:09Z</time>
      </trkpt>
      <trkpt lat="43.2424" lon="5.70611">
        <ele>468</ele>
        <time>2020-01-15T14:36:13Z</time>
      </trkpt>
      <trkpt lat="43.24239" lon="5.70604">
        <ele>467</ele>
        <time>2020-01-15T14:36:19Z</time>
      </trkpt>
      <trkpt lat="43.24237" lon="5.70597">
        <ele>468</ele>
        <time>2020-01-15T14:36:23Z</time>
      </trkpt>
      <trkpt lat="43.24235" lon="5.70589">
        <ele>467</ele>
        <time>2020-01-15T14:36:27Z</time>
      </trkpt>
      <trkpt lat="43.24232" lon="5.70583">
        <ele>468</ele>
        <time>2020-01-15T14:36:31Z</time>
      </trkpt>
      <trkpt lat="43.24231" lon="5.70575">
        <ele>467</ele>
        <time>2020-01-15T14:36:37Z</time>
      </trkpt>
      <trkpt lat="43.24234" lon="5.70569">
        <ele>466</ele>
        <time>2020-01-15T14:36:43Z</time>
      </trkpt>
      <trkpt lat="43.24233" lon="5.70561">
        <ele>466</ele>
        <time>2020-01-15T14:36:49Z</time>
      </trkpt>
      <trkpt lat="43.24232" lon="5.70553">
        <ele>466</ele>
        <time>2020-01-15T14:36:55Z</time>
      </trkpt>
      <trkpt lat="43.24232" lon="5.70545">
        <ele>467</ele>
        <time>2020-01-15T14:37:01Z</time>
      </trkpt>
      <trkpt lat="43.24232" lon="5.70538">
        <ele>465</ele>
        <time>2020-01-15T14:37:07Z</time>
      </trkpt>
      <trkpt lat="43.24231" lon="5.7053">
        <ele>464</ele>
        <time>2020-01-15T14:37:13Z</time>
      </trkpt>
      <trkpt lat="43.24231" lon="5.70522">
        <ele>463</ele>
        <time>2020-01-15T14:37:19Z</time>
      </trkpt>
      <trkpt lat="43.24229" lon="5.70515">
        <ele>464</ele>
        <time>2020-01-15T14:37:25Z</time>
      </trkpt>
      <trkpt lat="43.24226" lon="5.70506">
        <ele>466</ele>
        <time>2020-01-15T14:37:31Z</time>
      </trkpt>
      <trkpt lat="43.24226" lon="5.70499">
        <ele>465</ele>
        <time>2020-01-15T14:37:35Z</time>
      </trkpt>
      <trkpt lat="43.24225" lon="5.70491">
        <ele>464</ele>
        <time>2020-01-15T14:37:41Z</time>
      </trkpt>
      <trkpt lat="43.24225" lon="5.70482">
        <ele>463</ele>
        <time>2020-01-15T14:37:47Z</time>
      </trkpt>
      <trkpt lat="43.24224" lon="5.70473">
        <ele>463</ele>
        <time>2020-01-15T14:37:53Z</time>
      </trkpt>
      <trkpt lat="43.2422" lon="5.70466">
        <ele>463</ele>
        <time>2020-01-15T14:37:59Z</time>
      </trkpt>
      <trkpt lat="43.24218" lon="5.70459">
        <ele>463</ele>
        <time>2020-01-15T14:38:05Z</time>
      </trkpt>
      <trkpt lat="43.24215" lon="5.70451">
        <ele>464</ele>
        <time>2020-01-15T14:38:11Z</time>
      </trkpt>
      <trkpt lat="43.2422" lon="5.70449">
        <ele>465</ele>
        <time>2020-01-15T14:40:07Z</time>
      </trkpt>
      <trkpt lat="43.24215" lon="5.70448">
        <ele>461</ele>
        <time>2020-01-15T14:40:21Z</time>
      </trkpt>
      <trkpt lat="43.2422" lon="5.70442">
        <ele>460</ele>
        <time>2020-01-15T14:40:33Z</time>
      </trkpt>
      <trkpt lat="43.24215" lon="5.70447">
        <ele>462</ele>
        <time>2020-01-15T14:40:49Z</time>
      </trkpt>
      <trkpt lat="43.2421" lon="5.7045">
        <ele>462</ele>
        <time>2020-01-15T14:41:29Z</time>
      </trkpt>
      <trkpt lat="43.24206" lon="5.70455">
        <ele>462</ele>
        <time>2020-01-15T14:41:37Z</time>
      </trkpt>
      <trkpt lat="43.24202" lon="5.70459">
        <ele>462</ele>
        <time>2020-01-15T14:41:43Z</time>
      </trkpt>
      <trkpt lat="43.24197" lon="5.7046">
        <ele>463</ele>
        <time>2020-01-15T14:41:47Z</time>
      </trkpt>
      <trkpt lat="43.2419" lon="5.7046">
        <ele>463</ele>
        <time>2020-01-15T14:41:53Z</time>
      </trkpt>
      <trkpt lat="43.24185" lon="5.7046">
        <ele>463</ele>
        <time>2020-01-15T14:41:59Z</time>
      </trkpt>
      <trkpt lat="43.24179" lon="5.70458">
        <ele>462</ele>
        <time>2020-01-15T14:42:05Z</time>
      </trkpt>
      <trkpt lat="43.24176" lon="5.70451">
        <ele>461</ele>
        <time>2020-01-15T14:42:11Z</time>
      </trkpt>
      <trkpt lat="43.24172" lon="5.70445">
        <ele>461</ele>
        <time>2020-01-15T14:42:17Z</time>
      </trkpt>
      <trkpt lat="43.2417" lon="5.70439">
        <ele>458</ele>
        <time>2020-01-15T14:42:23Z</time>
      </trkpt>
      <trkpt lat="43.2417" lon="5.7043">
        <ele>456</ele>
        <time>2020-01-15T14:42:29Z</time>
      </trkpt>
      <trkpt lat="43.2417" lon="5.70421">
        <ele>455</ele>
        <time>2020-01-15T14:42:35Z</time>
      </trkpt>
      <trkpt lat="43.2417" lon="5.70413">
        <ele>455</ele>
        <time>2020-01-15T14:42:41Z</time>
      </trkpt>
      <trkpt lat="43.2417" lon="5.70406">
        <ele>455</ele>
        <time>2020-01-15T14:42:47Z</time>
      </trkpt>
      <trkpt lat="43.2417" lon="5.70397">
        <ele>456</ele>
        <time>2020-01-15T14:42:53Z</time>
      </trkpt>
      <trkpt lat="43.2417" lon="5.7039">
        <ele>457</ele>
        <time>2020-01-15T14:42:57Z</time>
      </trkpt>
      <trkpt lat="43.2417" lon="5.70383">
        <ele>458</ele>
        <time>2020-01-15T14:43:01Z</time>
      </trkpt>
      <trkpt lat="43.2417" lon="5.70376">
        <ele>457</ele>
        <time>2020-01-15T14:43:05Z</time>
      </trkpt>
      <trkpt lat="43.24171" lon="5.70367">
        <ele>458</ele>
        <time>2020-01-15T14:43:11Z</time>
      </trkpt>
      <trkpt lat="43.2417" lon="5.70358">
        <ele>457</ele>
        <time>2020-01-15T14:43:17Z</time>
      </trkpt>
      <trkpt lat="43.2417" lon="5.70352">
        <ele>457</ele>
        <time>2020-01-15T14:43:21Z</time>
      </trkpt>
      <trkpt lat="43.24171" lon="5.70344">
        <ele>458</ele>
        <time>2020-01-15T14:43:27Z</time>
      </trkpt>
      <trkpt lat="43.24169" lon="5.70335">
        <ele>457</ele>
        <time>2020-01-15T14:43:33Z</time>
      </trkpt>
      <trkpt lat="43.24169" lon="5.70326">
        <ele>460</ele>
        <time>2020-01-15T14:43:39Z</time>
      </trkpt>
      <trkpt lat="43.24169" lon="5.7032">
        <ele>460</ele>
        <time>2020-01-15T14:43:43Z</time>
      </trkpt>
      <trkpt lat="43.24169" lon="5.70312">
        <ele>460</ele>
        <time>2020-01-15T14:43:49Z</time>
      </trkpt>
      <trkpt lat="43.24168" lon="5.70305">
        <ele>459</ele>
        <time>2020-01-15T14:43:55Z</time>
      </trkpt>
      <trkpt lat="43.24169" lon="5.70298">
        <ele>460</ele>
        <time>2020-01-15T14:43:59Z</time>
      </trkpt>
      <trkpt lat="43.24167" lon="5.70291">
        <ele>458</ele>
        <time>2020-01-15T14:44:05Z</time>
      </trkpt>
      <trkpt lat="43.24166" lon="5.70284">
        <ele>458</ele>
        <time>2020-01-15T14:44:13Z</time>
      </trkpt>
      <trkpt lat="43.2417" lon="5.70279">
        <ele>459</ele>
        <time>2020-01-15T14:44:23Z</time>
      </trkpt>
      <trkpt lat="43.24175" lon="5.70278">
        <ele>459</ele>
        <time>2020-01-15T14:44:29Z</time>
      </trkpt>
      <trkpt lat="43.2418" lon="5.70274">
        <ele>459</ele>
        <time>2020-01-15T14:44:37Z</time>
      </trkpt>
      <trkpt lat="43.24181" lon="5.70267">
        <ele>459</ele>
        <time>2020-01-15T14:44:43Z</time>
      </trkpt>
      <trkpt lat="43.24181" lon="5.70259">
        <ele>460</ele>
        <time>2020-01-15T14:44:49Z</time>
      </trkpt>
      <trkpt lat="43.24182" lon="5.7025">
        <ele>462</ele>
        <time>2020-01-15T14:44:55Z</time>
      </trkpt>
      <trkpt lat="43.24183" lon="5.70243">
        <ele>460</ele>
        <time>2020-01-15T14:45:01Z</time>
      </trkpt>
      <trkpt lat="43.24185" lon="5.70236">
        <ele>459</ele>
        <time>2020-01-15T14:45:07Z</time>
      </trkpt>
      <trkpt lat="43.24185" lon="5.70229">
        <ele>458</ele>
        <time>2020-01-15T14:45:13Z</time>
      </trkpt>
      <trkpt lat="43.24184" lon="5.70221">
        <ele>459</ele>
        <time>2020-01-15T14:45:17Z</time>
      </trkpt>
      <trkpt lat="43.24183" lon="5.70213">
        <ele>457</ele>
        <time>2020-01-15T14:45:23Z</time>
      </trkpt>
      <trkpt lat="43.24184" lon="5.70207">
        <ele>458</ele>
        <time>2020-01-15T14:45:29Z</time>
      </trkpt>
      <trkpt lat="43.24185" lon="5.702">
        <ele>461</ele>
        <time>2020-01-15T14:45:35Z</time>
      </trkpt>
      <trkpt lat="43.24188" lon="5.70194">
        <ele>461</ele>
        <time>2020-01-15T14:45:39Z</time>
      </trkpt>
      <trkpt lat="43.24191" lon="5.70188">
        <ele>461</ele>
        <time>2020-01-15T14:45:43Z</time>
      </trkpt>
      <trkpt lat="43.24193" lon="5.70182">
        <ele>461</ele>
        <time>2020-01-15T14:45:47Z</time>
      </trkpt>
      <trkpt lat="43.24194" lon="5.70175">
        <ele>458</ele>
        <time>2020-01-15T14:45:53Z</time>
      </trkpt>
      <trkpt lat="43.24194" lon="5.70165">
        <ele>458</ele>
        <time>2020-01-15T14:45:59Z</time>
      </trkpt>
      <trkpt lat="43.24196" lon="5.70158">
        <ele>457</ele>
        <time>2020-01-15T14:46:05Z</time>
      </trkpt>
      <trkpt lat="43.24197" lon="5.70152">
        <ele>456</ele>
        <time>2020-01-15T14:46:11Z</time>
      </trkpt>
      <trkpt lat="43.24196" lon="5.70144">
        <ele>460</ele>
        <time>2020-01-15T14:46:15Z</time>
      </trkpt>
      <trkpt lat="43.24194" lon="5.70137">
        <ele>462</ele>
        <time>2020-01-15T14:46:19Z</time>
      </trkpt>
      <trkpt lat="43.24193" lon="5.70128">
        <ele>464</ele>
        <time>2020-01-15T14:46:25Z</time>
      </trkpt>
      <trkpt lat="43.24192" lon="5.70119">
        <ele>464</ele>
        <time>2020-01-15T14:46:31Z</time>
      </trkpt>
      <trkpt lat="43.24192" lon="5.70111">
        <ele>466</ele>
        <time>2020-01-15T14:46:35Z</time>
      </trkpt>
      <trkpt lat="43.24192" lon="5.70103">
        <ele>466</ele>
        <time>2020-01-15T14:46:41Z</time>
      </trkpt>
      <trkpt lat="43.24193" lon="5.70096">
        <ele>465</ele>
        <time>2020-01-15T14:46:47Z</time>
      </trkpt>
      <trkpt lat="43.24194" lon="5.70089">
        <ele>466</ele>
        <time>2020-01-15T14:46:51Z</time>
      </trkpt>
      <trkpt lat="43.24194" lon="5.70082">
        <ele>466</ele>
        <time>2020-01-15T14:46:55Z</time>
      </trkpt>
      <trkpt lat="43.24194" lon="5.70074">
        <ele>466</ele>
        <time>2020-01-15T14:47:01Z</time>
      </trkpt>
      <trkpt lat="43.24195" lon="5.70065">
        <ele>465</ele>
        <time>2020-01-15T14:47:07Z</time>
      </trkpt>
      <trkpt lat="43.24195" lon="5.70057">
        <ele>466</ele>
        <time>2020-01-15T14:47:13Z</time>
      </trkpt>
      <trkpt lat="43.24196" lon="5.70049">
        <ele>466</ele>
        <time>2020-01-15T14:47:19Z</time>
      </trkpt>
      <trkpt lat="43.24196" lon="5.70041">
        <ele>466</ele>
        <time>2020-01-15T14:47:25Z</time>
      </trkpt>
      <trkpt lat="43.24196" lon="5.70034">
        <ele>466</ele>
        <time>2020-01-15T14:47:31Z</time>
      </trkpt>
      <trkpt lat="43.24196" lon="5.70027">
        <ele>466</ele>
        <time>2020-01-15T14:47:35Z</time>
      </trkpt>
      <trkpt lat="43.24196" lon="5.70018">
        <ele>467</ele>
        <time>2020-01-15T14:47:41Z</time>
      </trkpt>
      <trkpt lat="43.24196" lon="5.7001">
        <ele>466</ele>
        <time>2020-01-15T14:47:47Z</time>
      </trkpt>
      <trkpt lat="43.24196" lon="5.70003">
        <ele>465</ele>
        <time>2020-01-15T14:47:53Z</time>
      </trkpt>
      <trkpt lat="43.24197" lon="5.69994">
        <ele>466</ele>
        <time>2020-01-15T14:47:59Z</time>
      </trkpt>
      <trkpt lat="43.24196" lon="5.69988">
        <ele>466</ele>
        <time>2020-01-15T14:48:03Z</time>
      </trkpt>
      <trkpt lat="43.24196" lon="5.69981">
        <ele>466</ele>
        <time>2020-01-15T14:48:07Z</time>
      </trkpt>
      <trkpt lat="43.24195" lon="5.69972">
        <ele>466</ele>
        <time>2020-01-15T14:48:13Z</time>
      </trkpt>
      <trkpt lat="43.24194" lon="5.69966">
        <ele>466</ele>
        <time>2020-01-15T14:48:17Z</time>
      </trkpt>
      <trkpt lat="43.24193" lon="5.6996">
        <ele>467</ele>
        <time>2020-01-15T14:48:21Z</time>
      </trkpt>
      <trkpt lat="43.24192" lon="5.69953">
        <ele>466</ele>
        <time>2020-01-15T14:48:25Z</time>
      </trkpt>
      <trkpt lat="43.24191" lon="5.69944">
        <ele>466</ele>
        <time>2020-01-15T14:48:31Z</time>
      </trkpt>
      <trkpt lat="43.2419" lon="5.69938">
        <ele>467</ele>
        <time>2020-01-15T14:48:35Z</time>
      </trkpt>
      <trkpt lat="43.2419" lon="5.6993">
        <ele>466</ele>
        <time>2020-01-15T14:48:41Z</time>
      </trkpt>
      <trkpt lat="43.2419" lon="5.69921">
        <ele>467</ele>
        <time>2020-01-15T14:48:49Z</time>
      </trkpt>
      <trkpt lat="43.2419" lon="5.69914">
        <ele>468</ele>
        <time>2020-01-15T14:48:53Z</time>
      </trkpt>
      <trkpt lat="43.24189" lon="5.69908">
        <ele>468</ele>
        <time>2020-01-15T14:48:57Z</time>
      </trkpt>
      <trkpt lat="43.24188" lon="5.699">
        <ele>468</ele>
        <time>2020-01-15T14:49:03Z</time>
      </trkpt>
      <trkpt lat="43.24188" lon="5.69893">
        <ele>470</ele>
        <time>2020-01-15T14:49:09Z</time>
      </trkpt>
      <trkpt lat="43.24188" lon="5.69885">
        <ele>469</ele>
        <time>2020-01-15T14:49:15Z</time>
      </trkpt>
      <trkpt lat="43.24187" lon="5.69877">
        <ele>468</ele>
        <time>2020-01-15T14:49:21Z</time>
      </trkpt>
      <trkpt lat="43.24187" lon="5.69871">
        <ele>467</ele>
        <time>2020-01-15T14:49:25Z</time>
      </trkpt>
      <trkpt lat="43.24186" lon="5.69864">
        <ele>468</ele>
        <time>2020-01-15T14:49:29Z</time>
      </trkpt>
      <trkpt lat="43.24186" lon="5.69857">
        <ele>468</ele>
        <time>2020-01-15T14:49:33Z</time>
      </trkpt>
      <trkpt lat="43.24185" lon="5.69851">
        <ele>468</ele>
        <time>2020-01-15T14:49:37Z</time>
      </trkpt>
      <trkpt lat="43.24185" lon="5.69844">
        <ele>466</ele>
        <time>2020-01-15T14:49:43Z</time>
      </trkpt>
      <trkpt lat="43.24189" lon="5.69841">
        <ele>466</ele>
        <time>2020-01-15T14:49:59Z</time>
      </trkpt>
      <trkpt lat="43.24195" lon="5.6984">
        <ele>466</ele>
        <time>2020-01-15T14:50:07Z</time>
      </trkpt>
      <trkpt lat="43.242" lon="5.6984">
        <ele>466</ele>
        <time>2020-01-15T14:50:13Z</time>
      </trkpt>
      <trkpt lat="43.24204" lon="5.69841">
        <ele>465</ele>
        <time>2020-01-15T14:50:21Z</time>
      </trkpt>
      <trkpt lat="43.24209" lon="5.69843">
        <ele>465</ele>
        <time>2020-01-15T14:51:43Z</time>
      </trkpt>
      <trkpt lat="43.24214" lon="5.69844">
        <ele>464</ele>
        <time>2020-01-15T14:53:27Z</time>
      </trkpt>
      <trkpt lat="43.2422" lon="5.69845">
        <ele>464</ele>
        <time>2020-01-15T14:53:39Z</time>
      </trkpt>
      <trkpt lat="43.24227" lon="5.69846">
        <ele>465</ele>
        <time>2020-01-15T14:53:45Z</time>
      </trkpt>
      <trkpt lat="43.24233" lon="5.69847">
        <ele>466</ele>
        <time>2020-01-15T14:53:49Z</time>
      </trkpt>
      <trkpt lat="43.24238" lon="5.69846">
        <ele>463</ele>
        <time>2020-01-15T14:53:53Z</time>
      </trkpt>
      <trkpt lat="43.24244" lon="5.69845">
        <ele>464</ele>
        <time>2020-01-15T14:53:59Z</time>
      </trkpt>
      <trkpt lat="43.2425" lon="5.69846">
        <ele>464</ele>
        <time>2020-01-15T14:54:05Z</time>
      </trkpt>
      <trkpt lat="43.24255" lon="5.69846">
        <ele>465</ele>
        <time>2020-01-15T14:54:11Z</time>
      </trkpt>
      <trkpt lat="43.24261" lon="5.69846">
        <ele>465</ele>
        <time>2020-01-15T14:54:15Z</time>
      </trkpt>
      <trkpt lat="43.24267" lon="5.69846">
        <ele>464</ele>
        <time>2020-01-15T14:54:21Z</time>
      </trkpt>
      <trkpt lat="43.24272" lon="5.69845">
        <ele>464</ele>
        <time>2020-01-15T14:54:27Z</time>
      </trkpt>
      <trkpt lat="43.24276" lon="5.69839">
        <ele>464</ele>
        <time>2020-01-15T14:54:35Z</time>
      </trkpt>
      <trkpt lat="43.24278" lon="5.69832">
        <ele>466</ele>
        <time>2020-01-15T14:54:41Z</time>
      </trkpt>
      <trkpt lat="43.2428" lon="5.69825">
        <ele>467</ele>
        <time>2020-01-15T14:54:47Z</time>
      </trkpt>
      <trkpt lat="43.24282" lon="5.69818">
        <ele>467</ele>
        <time>2020-01-15T14:54:53Z</time>
      </trkpt>
      <trkpt lat="43.24283" lon="5.6981">
        <ele>469</ele>
        <time>2020-01-15T14:54:59Z</time>
      </trkpt>
      <trkpt lat="43.24285" lon="5.69803">
        <ele>467</ele>
        <time>2020-01-15T14:55:07Z</time>
      </trkpt>
      <trkpt lat="43.24286" lon="5.69794">
        <ele>468</ele>
        <time>2020-01-15T14:55:13Z</time>
      </trkpt>
      <trkpt lat="43.24288" lon="5.69788">
        <ele>469</ele>
        <time>2020-01-15T14:55:19Z</time>
      </trkpt>
      <trkpt lat="43.2429" lon="5.69782">
        <ele>469</ele>
        <time>2020-01-15T14:55:25Z</time>
      </trkpt>
      <trkpt lat="43.2429" lon="5.69775">
        <ele>468</ele>
        <time>2020-01-15T14:55:31Z</time>
      </trkpt>
      <trkpt lat="43.24291" lon="5.69769">
        <ele>469</ele>
        <time>2020-01-15T14:55:37Z</time>
      </trkpt>
      <trkpt lat="43.24294" lon="5.69761">
        <ele>469</ele>
        <time>2020-01-15T14:55:43Z</time>
      </trkpt>
      <trkpt lat="43.24297" lon="5.69755">
        <ele>472</ele>
        <time>2020-01-15T14:55:47Z</time>
      </trkpt>
      <trkpt lat="43.24297" lon="5.69748">
        <ele>468</ele>
        <time>2020-01-15T14:55:53Z</time>
      </trkpt>
      <trkpt lat="43.24299" lon="5.69741">
        <ele>469</ele>
        <time>2020-01-15T14:55:59Z</time>
      </trkpt>
      <trkpt lat="43.24301" lon="5.69734">
        <ele>470</ele>
        <time>2020-01-15T14:56:07Z</time>
      </trkpt>
      <trkpt lat="43.24303" lon="5.69726">
        <ele>470</ele>
        <time>2020-01-15T14:56:13Z</time>
      </trkpt>
      <trkpt lat="43.24304" lon="5.69718">
        <ele>471</ele>
        <time>2020-01-15T14:56:19Z</time>
      </trkpt>
      <trkpt lat="43.24306" lon="5.6971">
        <ele>471</ele>
        <time>2020-01-15T14:56:25Z</time>
      </trkpt>
      <trkpt lat="43.24309" lon="5.69704">
        <ele>472</ele>
        <time>2020-01-15T14:56:31Z</time>
      </trkpt>
      <trkpt lat="43.24311" lon="5.69699">
        <ele>471</ele>
        <time>2020-01-15T14:56:37Z</time>
      </trkpt>
      <trkpt lat="43.24312" lon="5.69692">
        <ele>471</ele>
        <time>2020-01-15T14:56:43Z</time>
      </trkpt>
      <trkpt lat="43.24314" lon="5.69685">
        <ele>472</ele>
        <time>2020-01-15T14:56:49Z</time>
      </trkpt>
      <trkpt lat="43.24315" lon="5.69677">
        <ele>472</ele>
        <time>2020-01-15T14:56:55Z</time>
      </trkpt>
      <trkpt lat="43.24317" lon="5.69669">
        <ele>474</ele>
        <time>2020-01-15T14:57:01Z</time>
      </trkpt>
      <trkpt lat="43.24319" lon="5.69663">
        <ele>476</ele>
        <time>2020-01-15T14:57:05Z</time>
      </trkpt>
      <trkpt lat="43.24323" lon="5.69656">
        <ele>476</ele>
        <time>2020-01-15T14:57:11Z</time>
      </trkpt>
      <trkpt lat="43.24323" lon="5.6965">
        <ele>477</ele>
        <time>2020-01-15T14:57:15Z</time>
      </trkpt>
      <trkpt lat="43.24326" lon="5.69644">
        <ele>477</ele>
        <time>2020-01-15T14:57:21Z</time>
      </trkpt>
      <trkpt lat="43.24328" lon="5.69637">
        <ele>478</ele>
        <time>2020-01-15T14:57:27Z</time>
      </trkpt>
      <trkpt lat="43.24329" lon="5.69629">
        <ele>476</ele>
        <time>2020-01-15T14:57:33Z</time>
      </trkpt>
      <trkpt lat="43.24329" lon="5.69623">
        <ele>474</ele>
        <time>2020-01-15T14:57:39Z</time>
      </trkpt>
      <trkpt lat="43.24332" lon="5.69618">
        <ele>474</ele>
        <time>2020-01-15T14:57:45Z</time>
      </trkpt>
      <trkpt lat="43.24335" lon="5.69611">
        <ele>477</ele>
        <time>2020-01-15T14:57:49Z</time>
      </trkpt>
      <trkpt lat="43.24338" lon="5.69606">
        <ele>477</ele>
        <time>2020-01-15T14:57:53Z</time>
      </trkpt>
      <trkpt lat="43.24344" lon="5.69603">
        <ele>477</ele>
        <time>2020-01-15T14:57:59Z</time>
      </trkpt>
      <trkpt lat="43.2435" lon="5.69601">
        <ele>476</ele>
        <time>2020-01-15T14:58:05Z</time>
      </trkpt>
      <trkpt lat="43.24353" lon="5.69595">
        <ele>474</ele>
        <time>2020-01-15T14:58:13Z</time>
      </trkpt>
      <trkpt lat="43.24355" lon="5.69588">
        <ele>477</ele>
        <time>2020-01-15T14:58:19Z</time>
      </trkpt>
      <trkpt lat="43.24354" lon="5.69582">
        <ele>476</ele>
        <time>2020-01-15T14:58:23Z</time>
      </trkpt>
      <trkpt lat="43.24358" lon="5.69576">
        <ele>475</ele>
        <time>2020-01-15T14:58:31Z</time>
      </trkpt>
      <trkpt lat="43.24361" lon="5.69571">
        <ele>477</ele>
        <time>2020-01-15T14:58:35Z</time>
      </trkpt>
      <trkpt lat="43.24365" lon="5.69566">
        <ele>476</ele>
        <time>2020-01-15T14:58:39Z</time>
      </trkpt>
      <trkpt lat="43.24368" lon="5.69561">
        <ele>475</ele>
        <time>2020-01-15T14:58:45Z</time>
      </trkpt>
      <trkpt lat="43.24373" lon="5.69557">
        <ele>477</ele>
        <time>2020-01-15T14:58:49Z</time>
      </trkpt>
      <trkpt lat="43.24377" lon="5.69554">
        <ele>475</ele>
        <time>2020-01-15T14:58:53Z</time>
      </trkpt>
      <trkpt lat="43.24382" lon="5.69548">
        <ele>476</ele>
        <time>2020-01-15T14:58:59Z</time>
      </trkpt>
      <trkpt lat="43.24386" lon="5.69545">
        <ele>474</ele>
        <time>2020-01-15T14:59:05Z</time>
      </trkpt>
      <trkpt lat="43.24391" lon="5.69539">
        <ele>473</ele>
        <time>2020-01-15T14:59:11Z</time>
      </trkpt>
      <trkpt lat="43.24393" lon="5.69532">
        <ele>472</ele>
        <time>2020-01-15T14:59:17Z</time>
      </trkpt>
      <trkpt lat="43.24393" lon="5.69526">
        <ele>472</ele>
        <time>2020-01-15T14:59:21Z</time>
      </trkpt>
      <trkpt lat="43.24396" lon="5.69518">
        <ele>473</ele>
        <time>2020-01-15T14:59:27Z</time>
      </trkpt>
      <trkpt lat="43.24399" lon="5.69513">
        <ele>472</ele>
        <time>2020-01-15T14:59:33Z</time>
      </trkpt>
      <trkpt lat="43.24403" lon="5.69508">
        <ele>472</ele>
        <time>2020-01-15T14:59:39Z</time>
      </trkpt>
      <trkpt lat="43.24408" lon="5.69504">
        <ele>470</ele>
        <time>2020-01-15T14:59:45Z</time>
      </trkpt>
      <trkpt lat="43.24413" lon="5.695">
        <ele>466</ele>
        <time>2020-01-15T14:59:53Z</time>
      </trkpt>
      <trkpt lat="43.24418" lon="5.69494">
        <ele>470</ele>
        <time>2020-01-15T14:59:59Z</time>
      </trkpt>
      <trkpt lat="43.24422" lon="5.69491">
        <ele>469</ele>
        <time>2020-01-15T15:00:05Z</time>
      </trkpt>
      <trkpt lat="43.24427" lon="5.6949">
        <ele>471</ele>
        <time>2020-01-15T15:00:09Z</time>
      </trkpt>
      <trkpt lat="43.24433" lon="5.69488">
        <ele>468</ele>
        <time>2020-01-15T15:00:15Z</time>
      </trkpt>
      <trkpt lat="43.24438" lon="5.69484">
        <ele>468</ele>
        <time>2020-01-15T15:00:23Z</time>
      </trkpt>
      <trkpt lat="43.24443" lon="5.69479">
        <ele>467</ele>
        <time>2020-01-15T15:00:29Z</time>
      </trkpt>
      <trkpt lat="43.24448" lon="5.69475">
        <ele>469</ele>
        <time>2020-01-15T15:00:35Z</time>
      </trkpt>
      <trkpt lat="43.24454" lon="5.69471">
        <ele>470</ele>
        <time>2020-01-15T15:00:39Z</time>
      </trkpt>
      <trkpt lat="43.24459" lon="5.69469">
        <ele>468</ele>
        <time>2020-01-15T15:00:45Z</time>
      </trkpt>
      <trkpt lat="43.24463" lon="5.69465">
        <ele>467</ele>
        <time>2020-01-15T15:00:51Z</time>
      </trkpt>
      <trkpt lat="43.24468" lon="5.6946">
        <ele>470</ele>
        <time>2020-01-15T15:00:57Z</time>
      </trkpt>
      <trkpt lat="43.24472" lon="5.69457">
        <ele>472</ele>
        <time>2020-01-15T15:01:01Z</time>
      </trkpt>
      <trkpt lat="43.24478" lon="5.6945">
        <ele>477</ele>
        <time>2020-01-15T15:01:05Z</time>
      </trkpt>
      <trkpt lat="43.24481" lon="5.69444">
        <ele>480</ele>
        <time>2020-01-15T15:01:09Z</time>
      </trkpt>
      <trkpt lat="43.24486" lon="5.69437">
        <ele>483</ele>
        <time>2020-01-15T15:01:13Z</time>
      </trkpt>
      <trkpt lat="43.2449" lon="5.69431">
        <ele>482</ele>
        <time>2020-01-15T15:01:17Z</time>
      </trkpt>
      <trkpt lat="43.24494" lon="5.69426">
        <ele>481</ele>
        <time>2020-01-15T15:01:21Z</time>
      </trkpt>
      <trkpt lat="43.24497" lon="5.69421">
        <ele>480</ele>
        <time>2020-01-15T15:01:25Z</time>
      </trkpt>
      <trkpt lat="43.24502" lon="5.69415">
        <ele>479</ele>
        <time>2020-01-15T15:01:31Z</time>
      </trkpt>
      <trkpt lat="43.24506" lon="5.6941">
        <ele>479</ele>
        <time>2020-01-15T15:01:37Z</time>
      </trkpt>
      <trkpt lat="43.2451" lon="5.69405">
        <ele>479</ele>
        <time>2020-01-15T15:01:43Z</time>
      </trkpt>
      <trkpt lat="43.24512" lon="5.694">
        <ele>479</ele>
        <time>2020-01-15T15:01:49Z</time>
      </trkpt>
      <trkpt lat="43.24516" lon="5.69394">
        <ele>480</ele>
        <time>2020-01-15T15:01:55Z</time>
      </trkpt>
      <trkpt lat="43.2452" lon="5.69388">
        <ele>479</ele>
        <time>2020-01-15T15:02:01Z</time>
      </trkpt>
      <trkpt lat="43.24522" lon="5.69381">
        <ele>479</ele>
        <time>2020-01-15T15:02:07Z</time>
      </trkpt>
      <trkpt lat="43.24518" lon="5.69376">
        <ele>478</ele>
        <time>2020-01-15T15:02:13Z</time>
      </trkpt>
      <trkpt lat="43.24514" lon="5.69372">
        <ele>478</ele>
        <time>2020-01-15T15:02:17Z</time>
      </trkpt>
      <trkpt lat="43.24511" lon="5.69368">
        <ele>477</ele>
        <time>2020-01-15T15:02:21Z</time>
      </trkpt>
      <trkpt lat="43.24508" lon="5.69362">
        <ele>474</ele>
        <time>2020-01-15T15:02:27Z</time>
      </trkpt>
      <trkpt lat="43.24504" lon="5.69356">
        <ele>476</ele>
        <time>2020-01-15T15:02:33Z</time>
      </trkpt>
      <trkpt lat="43.24501" lon="5.6935">
        <ele>477</ele>
        <time>2020-01-15T15:02:37Z</time>
      </trkpt>
      <trkpt lat="43.24499" lon="5.69345">
        <ele>475</ele>
        <time>2020-01-15T15:02:43Z</time>
      </trkpt>
      <trkpt lat="43.24495" lon="5.6934">
        <ele>474</ele>
        <time>2020-01-15T15:02:49Z</time>
      </trkpt>
      <trkpt lat="43.24492" lon="5.69334">
        <ele>472</ele>
        <time>2020-01-15T15:02:55Z</time>
      </trkpt>
      <trkpt lat="43.24489" lon="5.69329">
        <ele>472</ele>
        <time>2020-01-15T15:03:01Z</time>
      </trkpt>
      <trkpt lat="43.24484" lon="5.69326">
        <ele>471</ele>
        <time>2020-01-15T15:03:07Z</time>
      </trkpt>
      <trkpt lat="43.2448" lon="5.69323">
        <ele>471</ele>
        <time>2020-01-15T15:03:13Z</time>
      </trkpt>
      <trkpt lat="43.24476" lon="5.69318">
        <ele>471</ele>
        <time>2020-01-15T15:03:19Z</time>
      </trkpt>
      <trkpt lat="43.24472" lon="5.69313">
        <ele>468</ele>
        <time>2020-01-15T15:03:25Z</time>
      </trkpt>
      <trkpt lat="43.24469" lon="5.69306">
        <ele>468</ele>
        <time>2020-01-15T15:03:31Z</time>
      </trkpt>
      <trkpt lat="43.24466" lon="5.69301">
        <ele>464</ele>
        <time>2020-01-15T15:03:39Z</time>
      </trkpt>
      <trkpt lat="43.24461" lon="5.69297">
        <ele>465</ele>
        <time>2020-01-15T15:03:47Z</time>
      </trkpt>
      <trkpt lat="43.24457" lon="5.69294">
        <ele>466</ele>
        <time>2020-01-15T15:03:51Z</time>
      </trkpt>
      <trkpt lat="43.24452" lon="5.69292">
        <ele>468</ele>
        <time>2020-01-15T15:03:55Z</time>
      </trkpt>
      <trkpt lat="43.24447" lon="5.69289">
        <ele>466</ele>
        <time>2020-01-15T15:04:01Z</time>
      </trkpt>
      <trkpt lat="43.24444" lon="5.69284">
        <ele>464</ele>
        <time>2020-01-15T15:04:07Z</time>
      </trkpt>
      <trkpt lat="43.2444" lon="5.69278">
        <ele>466</ele>
        <time>2020-01-15T15:04:13Z</time>
      </trkpt>
      <trkpt lat="43.24437" lon="5.69272">
        <ele>463</ele>
        <time>2020-01-15T15:04:19Z</time>
      </trkpt>
      <trkpt lat="43.24434" lon="5.69267">
        <ele>462</ele>
        <time>2020-01-15T15:04:25Z</time>
      </trkpt>
      <trkpt lat="43.2443" lon="5.69261">
        <ele>461</ele>
        <time>2020-01-15T15:04:33Z</time>
      </trkpt>
      <trkpt lat="43.24427" lon="5.69256">
        <ele>462</ele>
        <time>2020-01-15T15:04:41Z</time>
      </trkpt>
      <trkpt lat="43.24423" lon="5.69248">
        <ele>463</ele>
        <time>2020-01-15T15:04:47Z</time>
      </trkpt>
      <trkpt lat="43.2442" lon="5.69243">
        <ele>463</ele>
        <time>2020-01-15T15:04:51Z</time>
      </trkpt>
      <trkpt lat="43.24418" lon="5.69235">
        <ele>463</ele>
        <time>2020-01-15T15:04:57Z</time>
      </trkpt>
      <trkpt lat="43.24417" lon="5.69228">
        <ele>463</ele>
        <time>2020-01-15T15:05:03Z</time>
      </trkpt>
      <trkpt lat="43.24418" lon="5.6922">
        <ele>462</ele>
        <time>2020-01-15T15:05:11Z</time>
      </trkpt>
      <trkpt lat="43.24418" lon="5.69214">
        <ele>461</ele>
        <time>2020-01-15T15:05:17Z</time>
      </trkpt>
      <trkpt lat="43.24418" lon="5.69207">
        <ele>461</ele>
        <time>2020-01-15T15:05:23Z</time>
      </trkpt>
      <trkpt lat="43.24418" lon="5.692">
        <ele>460</ele>
        <time>2020-01-15T15:05:29Z</time>
      </trkpt>
      <trkpt lat="43.2442" lon="5.69193">
        <ele>458</ele>
        <time>2020-01-15T15:05:35Z</time>
      </trkpt>
      <trkpt lat="43.24419" lon="5.69185">
        <ele>457</ele>
        <time>2020-01-15T15:05:41Z</time>
      </trkpt>
      <trkpt lat="43.24418" lon="5.69179">
        <ele>458</ele>
        <time>2020-01-15T15:05:45Z</time>
      </trkpt>
      <trkpt lat="43.24418" lon="5.69172">
        <ele>458</ele>
        <time>2020-01-15T15:05:51Z</time>
      </trkpt>
      <trkpt lat="43.24417" lon="5.69165">
        <ele>457</ele>
        <time>2020-01-15T15:05:57Z</time>
      </trkpt>
      <trkpt lat="43.24415" lon="5.69157">
        <ele>457</ele>
        <time>2020-01-15T15:06:03Z</time>
      </trkpt>
      <trkpt lat="43.24415" lon="5.6915">
        <ele>457</ele>
        <time>2020-01-15T15:06:09Z</time>
      </trkpt>
      <trkpt lat="43.24415" lon="5.69142">
        <ele>457</ele>
        <time>2020-01-15T15:06:15Z</time>
      </trkpt>
      <trkpt lat="43.24413" lon="5.69133">
        <ele>457</ele>
        <time>2020-01-15T15:06:21Z</time>
      </trkpt>
      <trkpt lat="43.24413" lon="5.69127">
        <ele>456</ele>
        <time>2020-01-15T15:06:27Z</time>
      </trkpt>
      <trkpt lat="43.24414" lon="5.69118">
        <ele>454</ele>
        <time>2020-01-15T15:06:33Z</time>
      </trkpt>
      <trkpt lat="43.24412" lon="5.6911">
        <ele>454</ele>
        <time>2020-01-15T15:06:39Z</time>
      </trkpt>
      <trkpt lat="43.24412" lon="5.69101">
        <ele>454</ele>
        <time>2020-01-15T15:06:45Z</time>
      </trkpt>
      <trkpt lat="43.2441" lon="5.69094">
        <ele>452</ele>
        <time>2020-01-15T15:06:49Z</time>
      </trkpt>
      <trkpt lat="43.24408" lon="5.69087">
        <ele>453</ele>
        <time>2020-01-15T15:06:55Z</time>
      </trkpt>
      <trkpt lat="43.24407" lon="5.69081">
        <ele>453</ele>
        <time>2020-01-15T15:06:59Z</time>
      </trkpt>
      <trkpt lat="43.24404" lon="5.69074">
        <ele>452</ele>
        <time>2020-01-15T15:07:05Z</time>
      </trkpt>
      <trkpt lat="43.24402" lon="5.69069">
        <ele>453</ele>
        <time>2020-01-15T15:07:09Z</time>
      </trkpt>
      <trkpt lat="43.24398" lon="5.69063">
        <ele>452</ele>
        <time>2020-01-15T15:07:15Z</time>
      </trkpt>
      <trkpt lat="43.24395" lon="5.69057">
        <ele>450</ele>
        <time>2020-01-15T15:07:23Z</time>
      </trkpt>
      <trkpt lat="43.24392" lon="5.69051">
        <ele>448</ele>
        <time>2020-01-15T15:07:29Z</time>
      </trkpt>
      <trkpt lat="43.24387" lon="5.69047">
        <ele>445</ele>
        <time>2020-01-15T15:07:37Z</time>
      </trkpt>
      <trkpt lat="43.24383" lon="5.69042">
        <ele>444</ele>
        <time>2020-01-15T15:07:45Z</time>
      </trkpt>
      <trkpt lat="43.24378" lon="5.69037">
        <ele>443</ele>
        <time>2020-01-15T15:07:51Z</time>
      </trkpt>
      <trkpt lat="43.24375" lon="5.69033">
        <ele>443</ele>
        <time>2020-01-15T15:07:57Z</time>
      </trkpt>
      <trkpt lat="43.24371" lon="5.69028">
        <ele>444</ele>
        <time>2020-01-15T15:08:03Z</time>
      </trkpt>
      <trkpt lat="43.24368" lon="5.69022">
        <ele>445</ele>
        <time>2020-01-15T15:08:11Z</time>
      </trkpt>
      <trkpt lat="43.24364" lon="5.69018">
        <ele>442</ele>
        <time>2020-01-15T15:08:17Z</time>
      </trkpt>
      <trkpt lat="43.24357" lon="5.69014">
        <ele>442</ele>
        <time>2020-01-15T15:08:23Z</time>
      </trkpt>
      <trkpt lat="43.24352" lon="5.69009">
        <ele>441</ele>
        <time>2020-01-15T15:08:29Z</time>
      </trkpt>
      <trkpt lat="43.24348" lon="5.69005">
        <ele>441</ele>
        <time>2020-01-15T15:08:35Z</time>
      </trkpt>
      <trkpt lat="43.24343" lon="5.69003">
        <ele>442</ele>
        <time>2020-01-15T15:08:39Z</time>
      </trkpt>
      <trkpt lat="43.24338" lon="5.68999">
        <ele>441</ele>
        <time>2020-01-15T15:08:45Z</time>
      </trkpt>
      <trkpt lat="43.24333" lon="5.68996">
        <ele>443</ele>
        <time>2020-01-15T15:08:51Z</time>
      </trkpt>
      <trkpt lat="43.24329" lon="5.68992">
        <ele>444</ele>
        <time>2020-01-15T15:08:57Z</time>
      </trkpt>
      <trkpt lat="43.24328" lon="5.68984">
        <ele>445</ele>
        <time>2020-01-15T15:09:03Z</time>
      </trkpt>
      <trkpt lat="43.24328" lon="5.68977">
        <ele>447</ele>
        <time>2020-01-15T15:09:07Z</time>
      </trkpt>
      <trkpt lat="43.24328" lon="5.68971">
        <ele>447</ele>
        <time>2020-01-15T15:09:13Z</time>
      </trkpt>
      <trkpt lat="43.24326" lon="5.68962">
        <ele>448</ele>
        <time>2020-01-15T15:09:19Z</time>
      </trkpt>
      <trkpt lat="43.24324" lon="5.68955">
        <ele>447</ele>
        <time>2020-01-15T15:09:27Z</time>
      </trkpt>
      <trkpt lat="43.24323" lon="5.68949">
        <ele>446</ele>
        <time>2020-01-15T15:09:33Z</time>
      </trkpt>
      <trkpt lat="43.24322" lon="5.68942">
        <ele>445</ele>
        <time>2020-01-15T15:09:39Z</time>
      </trkpt>
      <trkpt lat="43.24321" lon="5.68935">
        <ele>445</ele>
        <time>2020-01-15T15:09:47Z</time>
      </trkpt>
      <trkpt lat="43.2432" lon="5.68927">
        <ele>445</ele>
        <time>2020-01-15T15:09:55Z</time>
      </trkpt>
      <trkpt lat="43.24324" lon="5.68932">
        <ele>443</ele>
        <time>2020-01-15T15:12:11Z</time>
      </trkpt>
      <trkpt lat="43.24327" lon="5.68926">
        <ele>442</ele>
        <time>2020-01-15T15:12:29Z</time>
      </trkpt>
      <trkpt lat="43.24332" lon="5.68922">
        <ele>443</ele>
        <time>2020-01-15T15:12:37Z</time>
      </trkpt>
      <trkpt lat="43.24334" lon="5.68917">
        <ele>445</ele>
        <time>2020-01-15T15:12:49Z</time>
      </trkpt>
      <trkpt lat="43.24337" lon="5.68909">
        <ele>446</ele>
        <time>2020-01-15T15:13:01Z</time>
      </trkpt>
      <trkpt lat="43.24342" lon="5.68907">
        <ele>445</ele>
        <time>2020-01-15T15:13:09Z</time>
      </trkpt>
      <trkpt lat="43.24345" lon="5.68902">
        <ele>445</ele>
        <time>2020-01-15T15:13:15Z</time>
      </trkpt>
      <trkpt lat="43.24348" lon="5.68896">
        <ele>445</ele>
        <time>2020-01-15T15:13:23Z</time>
      </trkpt>
      <trkpt lat="43.24351" lon="5.6889">
        <ele>444</ele>
        <time>2020-01-15T15:13:29Z</time>
      </trkpt>
      <trkpt lat="43.24354" lon="5.68885">
        <ele>443</ele>
        <time>2020-01-15T15:13:37Z</time>
      </trkpt>
      <trkpt lat="43.24357" lon="5.68878">
        <ele>448</ele>
        <time>2020-01-15T15:13:43Z</time>
      </trkpt>
      <trkpt lat="43.24356" lon="5.68871">
        <ele>448</ele>
        <time>2020-01-15T15:13:49Z</time>
      </trkpt>
      <trkpt lat="43.24355" lon="5.68865">
        <ele>446</ele>
        <time>2020-01-15T15:13:57Z</time>
      </trkpt>
      <trkpt lat="43.2435" lon="5.68859">
        <ele>450</ele>
        <time>2020-01-15T15:14:05Z</time>
      </trkpt>
      <trkpt lat="43.24345" lon="5.68856">
        <ele>449</ele>
        <time>2020-01-15T15:14:11Z</time>
      </trkpt>
      <trkpt lat="43.24341" lon="5.68852">
        <ele>447</ele>
        <time>2020-01-15T15:14:17Z</time>
      </trkpt>
      <trkpt lat="43.24335" lon="5.68849">
        <ele>447</ele>
        <time>2020-01-15T15:14:25Z</time>
      </trkpt>
      <trkpt lat="43.24331" lon="5.68844">
        <ele>447</ele>
        <time>2020-01-15T15:14:31Z</time>
      </trkpt>
      <trkpt lat="43.24325" lon="5.6884">
        <ele>450</ele>
        <time>2020-01-15T15:14:37Z</time>
      </trkpt>
      <trkpt lat="43.2432" lon="5.68837">
        <ele>450</ele>
        <time>2020-01-15T15:14:43Z</time>
      </trkpt>
      <trkpt lat="43.24317" lon="5.68833">
        <ele>453</ele>
        <time>2020-01-15T15:14:57Z</time>
      </trkpt>
      <trkpt lat="43.24317" lon="5.68826">
        <ele>455</ele>
        <time>2020-01-15T15:15:21Z</time>
      </trkpt>
      <trkpt lat="43.24319" lon="5.68819">
        <ele>457</ele>
        <time>2020-01-15T15:15:27Z</time>
      </trkpt>
      <trkpt lat="43.2432" lon="5.68812">
        <ele>457</ele>
        <time>2020-01-15T15:15:33Z</time>
      </trkpt>
      <trkpt lat="43.24322" lon="5.68806">
        <ele>458</ele>
        <time>2020-01-15T15:15:39Z</time>
      </trkpt>
      <trkpt lat="43.24325" lon="5.68798">
        <ele>458</ele>
        <time>2020-01-15T15:15:47Z</time>
      </trkpt>
      <trkpt lat="43.24328" lon="5.68791">
        <ele>459</ele>
        <time>2020-01-15T15:15:55Z</time>
      </trkpt>
      <trkpt lat="43.2433" lon="5.68783">
        <ele>461</ele>
        <time>2020-01-15T15:16:05Z</time>
      </trkpt>
      <trkpt lat="43.24327" lon="5.68777">
        <ele>459</ele>
        <time>2020-01-15T15:16:11Z</time>
      </trkpt>
      <trkpt lat="43.24322" lon="5.68773">
        <ele>459</ele>
        <time>2020-01-15T15:16:19Z</time>
      </trkpt>
      <trkpt lat="43.24317" lon="5.68773">
        <ele>459</ele>
        <time>2020-01-15T15:16:25Z</time>
      </trkpt>
      <trkpt lat="43.24312" lon="5.68774">
        <ele>459</ele>
        <time>2020-01-15T15:16:31Z</time>
      </trkpt>
      <trkpt lat="43.24308" lon="5.6877">
        <ele>457</ele>
        <time>2020-01-15T15:16:39Z</time>
      </trkpt>
      <trkpt lat="43.24308" lon="5.68764">
        <ele>461</ele>
        <time>2020-01-15T15:16:47Z</time>
      </trkpt>
      <trkpt lat="43.24311" lon="5.68758">
        <ele>464</ele>
        <time>2020-01-15T15:17:15Z</time>
      </trkpt>
      <trkpt lat="43.24313" lon="5.68752">
        <ele>465</ele>
        <time>2020-01-15T15:17:25Z</time>
      </trkpt>
      <trkpt lat="43.24317" lon="5.68747">
        <ele>464</ele>
        <time>2020-01-15T15:17:35Z</time>
      </trkpt>
      <trkpt lat="43.24319" lon="5.68741">
        <ele>465</ele>
        <time>2020-01-15T15:17:43Z</time>
      </trkpt>
      <trkpt lat="43.24322" lon="5.68735">
        <ele>465</ele>
        <time>2020-01-15T15:17:55Z</time>
      </trkpt>
      <trkpt lat="43.24325" lon="5.68728">
        <ele>467</ele>
        <time>2020-01-15T15:18:07Z</time>
      </trkpt>
      <trkpt lat="43.24327" lon="5.68721">
        <ele>467</ele>
        <time>2020-01-15T15:18:15Z</time>
      </trkpt>
      <trkpt lat="43.2433" lon="5.68714">
        <ele>467</ele>
        <time>2020-01-15T15:18:23Z</time>
      </trkpt>
      <trkpt lat="43.24332" lon="5.68707">
        <ele>467</ele>
        <time>2020-01-15T15:18:31Z</time>
      </trkpt>
      <trkpt lat="43.24334" lon="5.687">
        <ele>469</ele>
        <time>2020-01-15T15:18:39Z</time>
      </trkpt>
      <trkpt lat="43.24335" lon="5.68694">
        <ele>469</ele>
        <time>2020-01-15T15:18:45Z</time>
      </trkpt>
      <trkpt lat="43.24337" lon="5.68688">
        <ele>469</ele>
        <time>2020-01-15T15:18:53Z</time>
      </trkpt>
      <trkpt lat="43.24339" lon="5.68682">
        <ele>470</ele>
        <time>2020-01-15T15:18:59Z</time>
      </trkpt>
      <trkpt lat="43.24341" lon="5.68675">
        <ele>470</ele>
        <time>2020-01-15T15:19:05Z</time>
      </trkpt>
      <trkpt lat="43.24344" lon="5.68668">
        <ele>473</ele>
        <time>2020-01-15T15:19:11Z</time>
      </trkpt>
      <trkpt lat="43.24347" lon="5.68663">
        <ele>474</ele>
        <time>2020-01-15T15:19:17Z</time>
      </trkpt>
      <trkpt lat="43.2435" lon="5.68658">
        <ele>474</ele>
        <time>2020-01-15T15:19:23Z</time>
      </trkpt>
      <trkpt lat="43.24352" lon="5.68652">
        <ele>476</ele>
        <time>2020-01-15T15:19:29Z</time>
      </trkpt>
      <trkpt lat="43.24354" lon="5.68647">
        <ele>477</ele>
        <time>2020-01-15T15:19:37Z</time>
      </trkpt>
      <trkpt lat="43.24358" lon="5.6864">
        <ele>476</ele>
        <time>2020-01-15T15:19:45Z</time>
      </trkpt>
      <trkpt lat="43.24361" lon="5.68635">
        <ele>477</ele>
        <time>2020-01-15T15:19:53Z</time>
      </trkpt>
      <trkpt lat="43.24364" lon="5.68628">
        <ele>478</ele>
        <time>2020-01-15T15:19:59Z</time>
      </trkpt>
      <trkpt lat="43.24367" lon="5.68623">
        <ele>480</ele>
        <time>2020-01-15T15:20:03Z</time>
      </trkpt>
      <trkpt lat="43.2437" lon="5.68616">
        <ele>479</ele>
        <time>2020-01-15T15:20:09Z</time>
      </trkpt>
      <trkpt lat="43.24373" lon="5.6861">
        <ele>480</ele>
        <time>2020-01-15T15:20:15Z</time>
      </trkpt>
      <trkpt lat="43.24376" lon="5.68605">
        <ele>482</ele>
        <time>2020-01-15T15:20:21Z</time>
      </trkpt>
      <trkpt lat="43.24379" lon="5.68599">
        <ele>482</ele>
        <time>2020-01-15T15:20:27Z</time>
      </trkpt>
      <trkpt lat="43.24381" lon="5.68592">
        <ele>482</ele>
        <time>2020-01-15T15:20:33Z</time>
      </trkpt>
      <trkpt lat="43.24383" lon="5.68586">
        <ele>482</ele>
        <time>2020-01-15T15:20:39Z</time>
      </trkpt>
      <trkpt lat="43.24385" lon="5.6858">
        <ele>483</ele>
        <time>2020-01-15T15:20:45Z</time>
      </trkpt>
      <trkpt lat="43.24387" lon="5.68574">
        <ele>483</ele>
        <time>2020-01-15T15:20:51Z</time>
      </trkpt>
      <trkpt lat="43.24389" lon="5.68567">
        <ele>482</ele>
        <time>2020-01-15T15:20:57Z</time>
      </trkpt>
      <trkpt lat="43.24391" lon="5.6856">
        <ele>483</ele>
        <time>2020-01-15T15:21:03Z</time>
      </trkpt>
      <trkpt lat="43.24393" lon="5.68553">
        <ele>483</ele>
        <time>2020-01-15T15:21:09Z</time>
      </trkpt>
      <trkpt lat="43.24396" lon="5.68546">
        <ele>485</ele>
        <time>2020-01-15T15:21:17Z</time>
      </trkpt>
      <trkpt lat="43.24398" lon="5.68538">
        <ele>484</ele>
        <time>2020-01-15T15:21:25Z</time>
      </trkpt>
      <trkpt lat="43.244" lon="5.68532">
        <ele>484</ele>
        <time>2020-01-15T15:21:29Z</time>
      </trkpt>
      <trkpt lat="43.24401" lon="5.68526">
        <ele>485</ele>
        <time>2020-01-15T15:21:33Z</time>
      </trkpt>
      <trkpt lat="43.24403" lon="5.6852">
        <ele>485</ele>
        <time>2020-01-15T15:21:37Z</time>
      </trkpt>
      <trkpt lat="43.24405" lon="5.68513">
        <ele>486</ele>
        <time>2020-01-15T15:21:43Z</time>
      </trkpt>
      <trkpt lat="43.24407" lon="5.68504">
        <ele>488</ele>
        <time>2020-01-15T15:21:49Z</time>
      </trkpt>
      <trkpt lat="43.24408" lon="5.68497">
        <ele>488</ele>
        <time>2020-01-15T15:21:55Z</time>
      </trkpt>
      <trkpt lat="43.24411" lon="5.68491">
        <ele>488</ele>
        <time>2020-01-15T15:22:03Z</time>
      </trkpt>
      <trkpt lat="43.24412" lon="5.68485">
        <ele>487</ele>
        <time>2020-01-15T15:22:09Z</time>
      </trkpt>
      <trkpt lat="43.24413" lon="5.68478">
        <ele>488</ele>
        <time>2020-01-15T15:22:15Z</time>
      </trkpt>
      <trkpt lat="43.24414" lon="5.68469">
        <ele>489</ele>
        <time>2020-01-15T15:22:21Z</time>
      </trkpt>
      <trkpt lat="43.24415" lon="5.68461">
        <ele>489</ele>
        <time>2020-01-15T15:22:27Z</time>
      </trkpt>
      <trkpt lat="43.24416" lon="5.68453">
        <ele>491</ele>
        <time>2020-01-15T15:22:33Z</time>
      </trkpt>
      <trkpt lat="43.24416" lon="5.68447">
        <ele>492</ele>
        <time>2020-01-15T15:22:37Z</time>
      </trkpt>
      <trkpt lat="43.24416" lon="5.68438">
        <ele>492</ele>
        <time>2020-01-15T15:22:43Z</time>
      </trkpt>
      <trkpt lat="43.24416" lon="5.68429">
        <ele>493</ele>
        <time>2020-01-15T15:22:49Z</time>
      </trkpt>
      <trkpt lat="43.24415" lon="5.68421">
        <ele>495</ele>
        <time>2020-01-15T15:22:55Z</time>
      </trkpt>
      <trkpt lat="43.24415" lon="5.68413">
        <ele>495</ele>
        <time>2020-01-15T15:23:01Z</time>
      </trkpt>
      <trkpt lat="43.24414" lon="5.68405">
        <ele>494</ele>
        <time>2020-01-15T15:23:07Z</time>
      </trkpt>
      <trkpt lat="43.24412" lon="5.68398">
        <ele>493</ele>
        <time>2020-01-15T15:23:13Z</time>
      </trkpt>
      <trkpt lat="43.24411" lon="5.68392">
        <ele>493</ele>
        <time>2020-01-15T15:23:19Z</time>
      </trkpt>
      <trkpt lat="43.24409" lon="5.68384">
        <ele>494</ele>
        <time>2020-01-15T15:23:25Z</time>
      </trkpt>
      <trkpt lat="43.24407" lon="5.68376">
        <ele>494</ele>
        <time>2020-01-15T15:23:31Z</time>
      </trkpt>
      <trkpt lat="43.24405" lon="5.68368">
        <ele>495</ele>
        <time>2020-01-15T15:23:37Z</time>
      </trkpt>
      <trkpt lat="43.24404" lon="5.6836">
        <ele>495</ele>
        <time>2020-01-15T15:23:43Z</time>
      </trkpt>
      <trkpt lat="43.24402" lon="5.68353">
        <ele>495</ele>
        <time>2020-01-15T15:23:49Z</time>
      </trkpt>
      <trkpt lat="43.244" lon="5.68344">
        <ele>495</ele>
        <time>2020-01-15T15:23:55Z</time>
      </trkpt>
      <trkpt lat="43.24399" lon="5.68338">
        <ele>496</ele>
        <time>2020-01-15T15:23:59Z</time>
      </trkpt>
      <trkpt lat="43.24398" lon="5.6833">
        <ele>496</ele>
        <time>2020-01-15T15:24:05Z</time>
      </trkpt>
      <trkpt lat="43.24397" lon="5.68322">
        <ele>495</ele>
        <time>2020-01-15T15:24:11Z</time>
      </trkpt>
      <trkpt lat="43.24396" lon="5.68313">
        <ele>495</ele>
        <time>2020-01-15T15:24:17Z</time>
      </trkpt>
      <trkpt lat="43.24397" lon="5.68306">
        <ele>495</ele>
        <time>2020-01-15T15:24:23Z</time>
      </trkpt>
      <trkpt lat="43.24396" lon="5.683">
        <ele>495</ele>
        <time>2020-01-15T15:24:31Z</time>
      </trkpt>
      <trkpt lat="43.24396" lon="5.68293">
        <ele>492</ele>
        <time>2020-01-15T15:25:31Z</time>
      </trkpt>
      <trkpt lat="43.24396" lon="5.68286">
        <ele>490</ele>
        <time>2020-01-15T15:25:37Z</time>
      </trkpt>
      <trkpt lat="43.24395" lon="5.68277">
        <ele>492</ele>
        <time>2020-01-15T15:25:43Z</time>
      </trkpt>
      <trkpt lat="43.24394" lon="5.68268">
        <ele>493</ele>
        <time>2020-01-15T15:25:49Z</time>
      </trkpt>
      <trkpt lat="43.24395" lon="5.68262">
        <ele>493</ele>
        <time>2020-01-15T15:25:53Z</time>
      </trkpt>
      <trkpt lat="43.24396" lon="5.68255">
        <ele>493</ele>
        <time>2020-01-15T15:25:59Z</time>
      </trkpt>
      <trkpt lat="43.24398" lon="5.6825">
        <ele>494</ele>
        <time>2020-01-15T15:26:05Z</time>
      </trkpt>
      <trkpt lat="43.24402" lon="5.68244">
        <ele>495</ele>
        <time>2020-01-15T15:26:11Z</time>
      </trkpt>
      <trkpt lat="43.24405" lon="5.68238">
        <ele>499</ele>
        <time>2020-01-15T15:26:15Z</time>
      </trkpt>
      <trkpt lat="43.24407" lon="5.68231">
        <ele>500</ele>
        <time>2020-01-15T15:26:21Z</time>
      </trkpt>
      <trkpt lat="43.2441" lon="5.68226">
        <ele>500</ele>
        <time>2020-01-15T15:26:27Z</time>
      </trkpt>
      <trkpt lat="43.24415" lon="5.68228">
        <ele>501</ele>
        <time>2020-01-15T15:26:59Z</time>
      </trkpt>
      <trkpt lat="43.24412" lon="5.6822">
        <ele>496</ele>
        <time>2020-01-15T15:27:17Z</time>
      </trkpt>
      <trkpt lat="43.24409" lon="5.68213">
        <ele>493</ele>
        <time>2020-01-15T15:27:23Z</time>
      </trkpt>
      <trkpt lat="43.24412" lon="5.68204">
        <ele>497</ele>
        <time>2020-01-15T15:27:29Z</time>
      </trkpt>
      <trkpt lat="43.24416" lon="5.68198">
        <ele>498</ele>
        <time>2020-01-15T15:27:35Z</time>
      </trkpt>
      <trkpt lat="43.24419" lon="5.68193">
        <ele>500</ele>
        <time>2020-01-15T15:27:45Z</time>
      </trkpt>
      <trkpt lat="43.24418" lon="5.68185">
        <ele>501</ele>
        <time>2020-01-15T15:28:15Z</time>
      </trkpt>
      <trkpt lat="43.24419" lon="5.68177">
        <ele>500</ele>
        <time>2020-01-15T15:28:21Z</time>
      </trkpt>
      <trkpt lat="43.24421" lon="5.68172">
        <ele>500</ele>
        <time>2020-01-15T15:28:27Z</time>
      </trkpt>
      <trkpt lat="43.24423" lon="5.68165">
        <ele>500</ele>
        <time>2020-01-15T15:28:33Z</time>
      </trkpt>
      <trkpt lat="43.24425" lon="5.68158">
        <ele>497</ele>
        <time>2020-01-15T15:28:39Z</time>
      </trkpt>
      <trkpt lat="43.24427" lon="5.68152">
        <ele>497</ele>
        <time>2020-01-15T15:28:43Z</time>
      </trkpt>
      <trkpt lat="43.24429" lon="5.68146">
        <ele>499</ele>
        <time>2020-01-15T15:28:47Z</time>
      </trkpt>
      <trkpt lat="43.24429" lon="5.68137">
        <ele>502</ele>
        <time>2020-01-15T15:28:53Z</time>
      </trkpt>
      <trkpt lat="43.24432" lon="5.68129">
        <ele>501</ele>
        <time>2020-01-15T15:28:59Z</time>
      </trkpt>
      <trkpt lat="43.24434" lon="5.68122">
        <ele>500</ele>
        <time>2020-01-15T15:29:05Z</time>
      </trkpt>
      <trkpt lat="43.24438" lon="5.68114">
        <ele>500</ele>
        <time>2020-01-15T15:29:11Z</time>
      </trkpt>
      <trkpt lat="43.24442" lon="5.68109">
        <ele>501</ele>
        <time>2020-01-15T15:29:17Z</time>
      </trkpt>
      <trkpt lat="43.24445" lon="5.68103">
        <ele>499</ele>
        <time>2020-01-15T15:29:23Z</time>
      </trkpt>
      <trkpt lat="43.24451" lon="5.68098">
        <ele>501</ele>
        <time>2020-01-15T15:29:29Z</time>
      </trkpt>
      <trkpt lat="43.24454" lon="5.68095">
        <ele>501</ele>
        <time>2020-01-15T15:29:33Z</time>
      </trkpt>
      <trkpt lat="43.24458" lon="5.68089">
        <ele>499</ele>
        <time>2020-01-15T15:29:39Z</time>
      </trkpt>
      <trkpt lat="43.24459" lon="5.68082">
        <ele>501</ele>
        <time>2020-01-15T15:29:43Z</time>
      </trkpt>
      <trkpt lat="43.24459" lon="5.68074">
        <ele>500</ele>
        <time>2020-01-15T15:29:47Z</time>
      </trkpt>
      <trkpt lat="43.24458" lon="5.68067">
        <ele>502</ele>
        <time>2020-01-15T15:29:51Z</time>
      </trkpt>
      <trkpt lat="43.24458" lon="5.6806">
        <ele>502</ele>
        <time>2020-01-15T15:29:55Z</time>
      </trkpt>
      <trkpt lat="43.2446" lon="5.68053">
        <ele>501</ele>
        <time>2020-01-15T15:30:01Z</time>
      </trkpt>
      <trkpt lat="43.24462" lon="5.68045">
        <ele>502</ele>
        <time>2020-01-15T15:30:07Z</time>
      </trkpt>
      <trkpt lat="43.24463" lon="5.68039">
        <ele>502</ele>
        <time>2020-01-15T15:30:11Z</time>
      </trkpt>
      <trkpt lat="43.24464" lon="5.68031">
        <ele>504</ele>
        <time>2020-01-15T15:30:17Z</time>
      </trkpt>
      <trkpt lat="43.24464" lon="5.68024">
        <ele>502</ele>
        <time>2020-01-15T15:30:23Z</time>
      </trkpt>
      <trkpt lat="43.24462" lon="5.68017">
        <ele>501</ele>
        <time>2020-01-15T15:30:29Z</time>
      </trkpt>
      <trkpt lat="43.2446" lon="5.68011">
        <ele>503</ele>
        <time>2020-01-15T15:30:35Z</time>
      </trkpt>
      <trkpt lat="43.24458" lon="5.68005">
        <ele>500</ele>
        <time>2020-01-15T15:30:43Z</time>
      </trkpt>
      <trkpt lat="43.24456" lon="5.67997">
        <ele>499</ele>
        <time>2020-01-15T15:30:49Z</time>
      </trkpt>
      <trkpt lat="43.24454" lon="5.67991">
        <ele>499</ele>
        <time>2020-01-15T15:30:53Z</time>
      </trkpt>
      <trkpt lat="43.24453" lon="5.67985">
        <ele>500</ele>
        <time>2020-01-15T15:30:57Z</time>
      </trkpt>
      <trkpt lat="43.24451" lon="5.67979">
        <ele>499</ele>
        <time>2020-01-15T15:31:01Z</time>
      </trkpt>
      <trkpt lat="43.24449" lon="5.67973">
        <ele>499</ele>
        <time>2020-01-15T15:31:05Z</time>
      </trkpt>
      <trkpt lat="43.24447" lon="5.67967">
        <ele>500</ele>
        <time>2020-01-15T15:31:09Z</time>
      </trkpt>
      <trkpt lat="43.24445" lon="5.67961">
        <ele>501</ele>
        <time>2020-01-15T15:31:13Z</time>
      </trkpt>
      <trkpt lat="43.24444" lon="5.67954">
        <ele>501</ele>
        <time>2020-01-15T15:31:17Z</time>
      </trkpt>
      <trkpt lat="43.24442" lon="5.67948">
        <ele>501</ele>
        <time>2020-01-15T15:31:21Z</time>
      </trkpt>
      <trkpt lat="43.24439" lon="5.67942">
        <ele>503</ele>
        <time>2020-01-15T15:31:27Z</time>
      </trkpt>
      <trkpt lat="43.24435" lon="5.67936">
        <ele>499</ele>
        <time>2020-01-15T15:31:33Z</time>
      </trkpt>
      <trkpt lat="43.2443" lon="5.6793">
        <ele>498</ele>
        <time>2020-01-15T15:31:39Z</time>
      </trkpt>
      <trkpt lat="43.24425" lon="5.67924">
        <ele>498</ele>
        <time>2020-01-15T15:31:45Z</time>
      </trkpt>
      <trkpt lat="43.24421" lon="5.67918">
        <ele>500</ele>
        <time>2020-01-15T15:31:51Z</time>
      </trkpt>
      <trkpt lat="43.2442" lon="5.67911">
        <ele>499</ele>
        <time>2020-01-15T15:32:05Z</time>
      </trkpt>
      <trkpt lat="43.24416" lon="5.67909">
        <ele>499</ele>
        <time>2020-01-15T15:32:11Z</time>
      </trkpt>
      <trkpt lat="43.24412" lon="5.67905">
        <ele>497</ele>
        <time>2020-01-15T15:32:17Z</time>
      </trkpt>
      <trkpt lat="43.24409" lon="5.67898">
        <ele>492</ele>
        <time>2020-01-15T15:32:25Z</time>
      </trkpt>
      <trkpt lat="43.24406" lon="5.67891">
        <ele>491</ele>
        <time>2020-01-15T15:32:31Z</time>
      </trkpt>
      <trkpt lat="43.24402" lon="5.67883">
        <ele>490</ele>
        <time>2020-01-15T15:32:37Z</time>
      </trkpt>
      <trkpt lat="43.244" lon="5.67878">
        <ele>491</ele>
        <time>2020-01-15T15:32:41Z</time>
      </trkpt>
      <trkpt lat="43.24397" lon="5.67871">
        <ele>494</ele>
        <time>2020-01-15T15:32:45Z</time>
      </trkpt>
      <trkpt lat="43.24394" lon="5.67865">
        <ele>495</ele>
        <time>2020-01-15T15:32:49Z</time>
      </trkpt>
      <trkpt lat="43.2439" lon="5.67862">
        <ele>495</ele>
        <time>2020-01-15T15:32:53Z</time>
      </trkpt>
      <trkpt lat="43.24385" lon="5.67858">
        <ele>493</ele>
        <time>2020-01-15T15:32:59Z</time>
      </trkpt>
      <trkpt lat="43.24379" lon="5.67854">
        <ele>495</ele>
        <time>2020-01-15T15:33:05Z</time>
      </trkpt>
      <trkpt lat="43.24374" lon="5.67852">
        <ele>494</ele>
        <time>2020-01-15T15:33:09Z</time>
      </trkpt>
      <trkpt lat="43.24369" lon="5.67849">
        <ele>495</ele>
        <time>2020-01-15T15:33:15Z</time>
      </trkpt>
      <trkpt lat="43.24364" lon="5.67845">
        <ele>493</ele>
        <time>2020-01-15T15:33:21Z</time>
      </trkpt>
      <trkpt lat="43.24359" lon="5.67841">
        <ele>492</ele>
        <time>2020-01-15T15:33:27Z</time>
      </trkpt>
      <trkpt lat="43.24356" lon="5.67835">
        <ele>490</ele>
        <time>2020-01-15T15:33:35Z</time>
      </trkpt>
      <trkpt lat="43.24351" lon="5.6783">
        <ele>491</ele>
        <time>2020-01-15T15:33:41Z</time>
      </trkpt>
      <trkpt lat="43.24347" lon="5.67823">
        <ele>491</ele>
        <time>2020-01-15T15:33:47Z</time>
      </trkpt>
      <trkpt lat="43.24344" lon="5.67817">
        <ele>492</ele>
        <time>2020-01-15T15:33:51Z</time>
      </trkpt>
      <trkpt lat="43.2434" lon="5.67812">
        <ele>493</ele>
        <time>2020-01-15T15:33:55Z</time>
      </trkpt>
      <trkpt lat="43.24337" lon="5.67807">
        <ele>494</ele>
        <time>2020-01-15T15:33:59Z</time>
      </trkpt>
      <trkpt lat="43.24332" lon="5.67802">
        <ele>493</ele>
        <time>2020-01-15T15:34:05Z</time>
      </trkpt>
      <trkpt lat="43.24328" lon="5.67799">
        <ele>492</ele>
        <time>2020-01-15T15:34:11Z</time>
      </trkpt>
      <trkpt lat="43.24323" lon="5.67794">
        <ele>492</ele>
        <time>2020-01-15T15:34:17Z</time>
      </trkpt>
      <trkpt lat="43.24319" lon="5.6779">
        <ele>495</ele>
        <time>2020-01-15T15:34:21Z</time>
      </trkpt>
      <trkpt lat="43.24315" lon="5.67786">
        <ele>491</ele>
        <time>2020-01-15T15:34:27Z</time>
      </trkpt>
      <trkpt lat="43.24309" lon="5.67783">
        <ele>488</ele>
        <time>2020-01-15T15:34:35Z</time>
      </trkpt>
      <trkpt lat="43.24305" lon="5.67779">
        <ele>493</ele>
        <time>2020-01-15T15:34:39Z</time>
      </trkpt>
      <trkpt lat="43.243" lon="5.67776">
        <ele>493</ele>
        <time>2020-01-15T15:34:47Z</time>
      </trkpt>
      <trkpt lat="43.24296" lon="5.67771">
        <ele>489</ele>
        <time>2020-01-15T15:34:53Z</time>
      </trkpt>
      <trkpt lat="43.24291" lon="5.67766">
        <ele>487</ele>
        <time>2020-01-15T15:34:59Z</time>
      </trkpt>
      <trkpt lat="43.24288" lon="5.67759">
        <ele>486</ele>
        <time>2020-01-15T15:35:05Z</time>
      </trkpt>
      <trkpt lat="43.24284" lon="5.67753">
        <ele>488</ele>
        <time>2020-01-15T15:35:09Z</time>
      </trkpt>
      <trkpt lat="43.24279" lon="5.6775">
        <ele>487</ele>
        <time>2020-01-15T15:35:15Z</time>
      </trkpt>
      <trkpt lat="43.24275" lon="5.67746">
        <ele>487</ele>
        <time>2020-01-15T15:35:21Z</time>
      </trkpt>
      <trkpt lat="43.24269" lon="5.67743">
        <ele>486</ele>
        <time>2020-01-15T15:35:29Z</time>
      </trkpt>
      <trkpt lat="43.24264" lon="5.67741">
        <ele>486</ele>
        <time>2020-01-15T15:35:33Z</time>
      </trkpt>
      <trkpt lat="43.24259" lon="5.67739">
        <ele>482</ele>
        <time>2020-01-15T15:35:41Z</time>
      </trkpt>
      <trkpt lat="43.24253" lon="5.67737">
        <ele>485</ele>
        <time>2020-01-15T15:35:47Z</time>
      </trkpt>
      <trkpt lat="43.2425" lon="5.67733">
        <ele>486</ele>
        <time>2020-01-15T15:35:51Z</time>
      </trkpt>
      <trkpt lat="43.24246" lon="5.67727">
        <ele>485</ele>
        <time>2020-01-15T15:35:55Z</time>
      </trkpt>
      <trkpt lat="43.24243" lon="5.67723">
        <ele>484</ele>
        <time>2020-01-15T15:35:59Z</time>
      </trkpt>
      <trkpt lat="43.24237" lon="5.67719">
        <ele>485</ele>
        <time>2020-01-15T15:36:03Z</time>
      </trkpt>
      <trkpt lat="43.24232" lon="5.67715">
        <ele>485</ele>
        <time>2020-01-15T15:36:07Z</time>
      </trkpt>
      <trkpt lat="43.24227" lon="5.6771">
        <ele>485</ele>
        <time>2020-01-15T15:36:11Z</time>
      </trkpt>
      <trkpt lat="43.24222" lon="5.67705">
        <ele>483</ele>
        <time>2020-01-15T15:36:17Z</time>
      </trkpt>
      <trkpt lat="43.24217" lon="5.67699">
        <ele>481</ele>
        <time>2020-01-15T15:36:23Z</time>
      </trkpt>
      <trkpt lat="43.24213" lon="5.67694">
        <ele>480</ele>
        <time>2020-01-15T15:36:29Z</time>
      </trkpt>
      <trkpt lat="43.24209" lon="5.67689">
        <ele>480</ele>
        <time>2020-01-15T15:36:35Z</time>
      </trkpt>
      <trkpt lat="43.24204" lon="5.67682">
        <ele>480</ele>
        <time>2020-01-15T15:36:41Z</time>
      </trkpt>
      <trkpt lat="43.242" lon="5.67678">
        <ele>481</ele>
        <time>2020-01-15T15:36:45Z</time>
      </trkpt>
      <trkpt lat="43.24196" lon="5.67675">
        <ele>482</ele>
        <time>2020-01-15T15:36:49Z</time>
      </trkpt>
      <trkpt lat="43.24192" lon="5.6767">
        <ele>480</ele>
        <time>2020-01-15T15:36:55Z</time>
      </trkpt>
      <trkpt lat="43.24188" lon="5.67667">
        <ele>478</ele>
        <time>2020-01-15T15:37:01Z</time>
      </trkpt>
      <trkpt lat="43.24183" lon="5.67664">
        <ele>478</ele>
        <time>2020-01-15T15:37:07Z</time>
      </trkpt>
      <trkpt lat="43.24177" lon="5.67659">
        <ele>477</ele>
        <time>2020-01-15T15:37:13Z</time>
      </trkpt>
      <trkpt lat="43.24171" lon="5.67655">
        <ele>478</ele>
        <time>2020-01-15T15:37:17Z</time>
      </trkpt>
      <trkpt lat="43.24167" lon="5.67648">
        <ele>476</ele>
        <time>2020-01-15T15:37:23Z</time>
      </trkpt>
      <trkpt lat="43.24164" lon="5.67642">
        <ele>478</ele>
        <time>2020-01-15T15:37:29Z</time>
      </trkpt>
      <trkpt lat="43.24159" lon="5.67636">
        <ele>479</ele>
        <time>2020-01-15T15:37:35Z</time>
      </trkpt>
      <trkpt lat="43.24154" lon="5.67633">
        <ele>479</ele>
        <time>2020-01-15T15:37:39Z</time>
      </trkpt>
      <trkpt lat="43.24149" lon="5.67629">
        <ele>479</ele>
        <time>2020-01-15T15:37:45Z</time>
      </trkpt>
      <trkpt lat="43.24144" lon="5.67628">
        <ele>478</ele>
        <time>2020-01-15T15:37:53Z</time>
      </trkpt>
      <trkpt lat="43.24138" lon="5.67629">
        <ele>479</ele>
        <time>2020-01-15T15:37:59Z</time>
      </trkpt>
      <trkpt lat="43.24133" lon="5.67632">
        <ele>476</ele>
        <time>2020-01-15T15:38:03Z</time>
      </trkpt>
      <trkpt lat="43.24128" lon="5.67636">
        <ele>478</ele>
        <time>2020-01-15T15:38:09Z</time>
      </trkpt>
      <trkpt lat="43.24122" lon="5.67639">
        <ele>474</ele>
        <time>2020-01-15T15:38:17Z</time>
      </trkpt>
      <trkpt lat="43.24118" lon="5.67641">
        <ele>472</ele>
        <time>2020-01-15T15:38:25Z</time>
      </trkpt>
      <trkpt lat="43.24113" lon="5.67643">
        <ele>471</ele>
        <time>2020-01-15T15:38:29Z</time>
      </trkpt>
      <trkpt lat="43.24108" lon="5.67646">
        <ele>470</ele>
        <time>2020-01-15T15:38:35Z</time>
      </trkpt>
      <trkpt lat="43.24103" lon="5.67645">
        <ele>471</ele>
        <time>2020-01-15T15:38:41Z</time>
      </trkpt>
      <trkpt lat="43.24098" lon="5.67644">
        <ele>471</ele>
        <time>2020-01-15T15:38:45Z</time>
      </trkpt>
      <trkpt lat="43.24093" lon="5.67643">
        <ele>470</ele>
        <time>2020-01-15T15:38:49Z</time>
      </trkpt>
      <trkpt lat="43.24087" lon="5.67641">
        <ele>469</ele>
        <time>2020-01-15T15:38:55Z</time>
      </trkpt>
      <trkpt lat="43.24083" lon="5.67639">
        <ele>468</ele>
        <time>2020-01-15T15:38:59Z</time>
      </trkpt>
      <trkpt lat="43.24078" lon="5.67637">
        <ele>466</ele>
        <time>2020-01-15T15:39:05Z</time>
      </trkpt>
      <trkpt lat="43.24072" lon="5.67633">
        <ele>466</ele>
        <time>2020-01-15T15:39:11Z</time>
      </trkpt>
      <trkpt lat="43.24067" lon="5.67628">
        <ele>467</ele>
        <time>2020-01-15T15:39:17Z</time>
      </trkpt>
      <trkpt lat="43.24066" lon="5.67621">
        <ele>471</ele>
        <time>2020-01-15T15:39:23Z</time>
      </trkpt>
      <trkpt lat="43.24063" lon="5.67616">
        <ele>474</ele>
        <time>2020-01-15T15:39:27Z</time>
      </trkpt>
      <trkpt lat="43.24059" lon="5.67611">
        <ele>473</ele>
        <time>2020-01-15T15:39:31Z</time>
      </trkpt>
      <trkpt lat="43.24055" lon="5.67606">
        <ele>473</ele>
        <time>2020-01-15T15:39:35Z</time>
      </trkpt>
      <trkpt lat="43.24051" lon="5.67601">
        <ele>471</ele>
        <time>2020-01-15T15:39:41Z</time>
      </trkpt>
      <trkpt lat="43.24048" lon="5.67593">
        <ele>470</ele>
        <time>2020-01-15T15:39:47Z</time>
      </trkpt>
      <trkpt lat="43.24047" lon="5.67586">
        <ele>469</ele>
        <time>2020-01-15T15:39:51Z</time>
      </trkpt>
      <trkpt lat="43.24046" lon="5.6758">
        <ele>471</ele>
        <time>2020-01-15T15:39:55Z</time>
      </trkpt>
      <trkpt lat="43.24045" lon="5.67571">
        <ele>470</ele>
        <time>2020-01-15T15:40:01Z</time>
      </trkpt>
      <trkpt lat="43.24043" lon="5.67563">
        <ele>470</ele>
        <time>2020-01-15T15:40:07Z</time>
      </trkpt>
      <trkpt lat="43.2404" lon="5.67558">
        <ele>470</ele>
        <time>2020-01-15T15:40:11Z</time>
      </trkpt>
      <trkpt lat="43.24036" lon="5.67551">
        <ele>470</ele>
        <time>2020-01-15T15:40:17Z</time>
      </trkpt>
      <trkpt lat="43.24032" lon="5.67545">
        <ele>472</ele>
        <time>2020-01-15T15:40:23Z</time>
      </trkpt>
      <trkpt lat="43.24029" lon="5.67539">
        <ele>474</ele>
        <time>2020-01-15T15:40:31Z</time>
      </trkpt>
      <trkpt lat="43.24026" lon="5.67534">
        <ele>474</ele>
        <time>2020-01-15T15:40:49Z</time>
      </trkpt>
      <trkpt lat="43.24022" lon="5.67531">
        <ele>471</ele>
        <time>2020-01-15T15:40:57Z</time>
      </trkpt>
      <trkpt lat="43.2402" lon="5.67525">
        <ele>471</ele>
        <time>2020-01-15T15:41:03Z</time>
      </trkpt>
      <trkpt lat="43.24017" lon="5.67521">
        <ele>471</ele>
        <time>2020-01-15T15:41:07Z</time>
      </trkpt>
      <trkpt lat="43.24013" lon="5.67517">
        <ele>473</ele>
        <time>2020-01-15T15:41:13Z</time>
      </trkpt>
      <trkpt lat="43.24009" lon="5.67513">
        <ele>473</ele>
        <time>2020-01-15T15:41:17Z</time>
      </trkpt>
      <trkpt lat="43.24003" lon="5.67507">
        <ele>472</ele>
        <time>2020-01-15T15:41:23Z</time>
      </trkpt>
      <trkpt lat="43.23999" lon="5.67504">
        <ele>474</ele>
        <time>2020-01-15T15:41:27Z</time>
      </trkpt>
      <trkpt lat="43.23995" lon="5.67499">
        <ele>472</ele>
        <time>2020-01-15T15:41:33Z</time>
      </trkpt>
      <trkpt lat="43.23991" lon="5.67495">
        <ele>470</ele>
        <time>2020-01-15T15:41:39Z</time>
      </trkpt>
      <trkpt lat="43.23986" lon="5.67491">
        <ele>470</ele>
        <time>2020-01-15T15:41:43Z</time>
      </trkpt>
      <trkpt lat="43.23983" lon="5.67487">
        <ele>469</ele>
        <time>2020-01-15T15:41:47Z</time>
      </trkpt>
      <trkpt lat="43.23979" lon="5.67482">
        <ele>470</ele>
        <time>2020-01-15T15:41:53Z</time>
      </trkpt>
      <trkpt lat="43.23974" lon="5.67477">
        <ele>468</ele>
        <time>2020-01-15T15:41:59Z</time>
      </trkpt>
      <trkpt lat="43.23969" lon="5.67471">
        <ele>468</ele>
        <time>2020-01-15T15:42:05Z</time>
      </trkpt>
      <trkpt lat="43.23966" lon="5.67465">
        <ele>466</ele>
        <time>2020-01-15T15:42:11Z</time>
      </trkpt>
      <trkpt lat="43.23962" lon="5.67459">
        <ele>466</ele>
        <time>2020-01-15T15:42:17Z</time>
      </trkpt>
      <trkpt lat="43.23957" lon="5.67454">
        <ele>467</ele>
        <time>2020-01-15T15:42:23Z</time>
      </trkpt>
      <trkpt lat="43.23952" lon="5.67448">
        <ele>466</ele>
        <time>2020-01-15T15:42:29Z</time>
      </trkpt>
      <trkpt lat="43.23946" lon="5.67442">
        <ele>466</ele>
        <time>2020-01-15T15:42:35Z</time>
      </trkpt>
      <trkpt lat="43.2394" lon="5.67439">
        <ele>467</ele>
        <time>2020-01-15T15:42:39Z</time>
      </trkpt>
      <trkpt lat="43.23933" lon="5.67436">
        <ele>465</ele>
        <time>2020-01-15T15:42:45Z</time>
      </trkpt>
      <trkpt lat="43.23929" lon="5.67434">
        <ele>466</ele>
        <time>2020-01-15T15:42:49Z</time>
      </trkpt>
      <trkpt lat="43.23923" lon="5.67432">
        <ele>467</ele>
        <time>2020-01-15T15:42:55Z</time>
      </trkpt>
      <trkpt lat="43.23919" lon="5.6743">
        <ele>468</ele>
        <time>2020-01-15T15:42:59Z</time>
      </trkpt>
      <trkpt lat="43.23915" lon="5.67425">
        <ele>465</ele>
        <time>2020-01-15T15:43:05Z</time>
      </trkpt>
      <trkpt lat="43.23909" lon="5.6742">
        <ele>464</ele>
        <time>2020-01-15T15:43:11Z</time>
      </trkpt>
      <trkpt lat="43.23905" lon="5.67416">
        <ele>466</ele>
        <time>2020-01-15T15:43:15Z</time>
      </trkpt>
      <trkpt lat="43.23901" lon="5.6741">
        <ele>464</ele>
        <time>2020-01-15T15:43:21Z</time>
      </trkpt>
      <trkpt lat="43.23897" lon="5.67404">
        <ele>462</ele>
        <time>2020-01-15T15:43:25Z</time>
      </trkpt>
      <trkpt lat="43.23893" lon="5.67399">
        <ele>464</ele>
        <time>2020-01-15T15:43:31Z</time>
      </trkpt>
      <trkpt lat="43.23888" lon="5.67394">
        <ele>463</ele>
        <time>2020-01-15T15:43:37Z</time>
      </trkpt>
      <trkpt lat="43.23883" lon="5.6739">
        <ele>463</ele>
        <time>2020-01-15T15:43:43Z</time>
      </trkpt>
      <trkpt lat="43.2388" lon="5.67384">
        <ele>462</ele>
        <time>2020-01-15T15:43:49Z</time>
      </trkpt>
      <trkpt lat="43.23875" lon="5.67378">
        <ele>462</ele>
        <time>2020-01-15T15:43:55Z</time>
      </trkpt>
      <trkpt lat="43.23871" lon="5.67374">
        <ele>461</ele>
        <time>2020-01-15T15:43:59Z</time>
      </trkpt>
      <trkpt lat="43.23867" lon="5.67371">
        <ele>465</ele>
        <time>2020-01-15T15:44:03Z</time>
      </trkpt>
      <trkpt lat="43.23862" lon="5.67365">
        <ele>465</ele>
        <time>2020-01-15T15:44:09Z</time>
      </trkpt>
      <trkpt lat="43.23858" lon="5.6736">
        <ele>462</ele>
        <time>2020-01-15T15:44:17Z</time>
      </trkpt>
      <trkpt lat="43.23855" lon="5.67355">
        <ele>464</ele>
        <time>2020-01-15T15:44:23Z</time>
      </trkpt>
      <trkpt lat="43.23851" lon="5.67348">
        <ele>463</ele>
        <time>2020-01-15T15:44:29Z</time>
      </trkpt>
      <trkpt lat="43.23846" lon="5.67344">
        <ele>465</ele>
        <time>2020-01-15T15:44:35Z</time>
      </trkpt>
      <trkpt lat="43.2384" lon="5.67345">
        <ele>461</ele>
        <time>2020-01-15T15:45:37Z</time>
      </trkpt>
      <trkpt lat="43.23834" lon="5.67342">
        <ele>459</ele>
        <time>2020-01-15T15:45:43Z</time>
      </trkpt>
      <trkpt lat="43.2383" lon="5.67341">
        <ele>458</ele>
        <time>2020-01-15T15:45:47Z</time>
      </trkpt>
      <trkpt lat="43.23825" lon="5.67338">
        <ele>458</ele>
        <time>2020-01-15T15:45:53Z</time>
      </trkpt>
      <trkpt lat="43.2382" lon="5.67333">
        <ele>457</ele>
        <time>2020-01-15T15:45:57Z</time>
      </trkpt>
      <trkpt lat="43.23815" lon="5.67328">
        <ele>456</ele>
        <time>2020-01-15T15:46:01Z</time>
      </trkpt>
      <trkpt lat="43.23809" lon="5.67322">
        <ele>456</ele>
        <time>2020-01-15T15:46:05Z</time>
      </trkpt>
      <trkpt lat="43.23804" lon="5.67315">
        <ele>456</ele>
        <time>2020-01-15T15:46:09Z</time>
      </trkpt>
      <trkpt lat="43.23799" lon="5.6731">
        <ele>457</ele>
        <time>2020-01-15T15:46:13Z</time>
      </trkpt>
      <trkpt lat="43.23795" lon="5.67306">
        <ele>459</ele>
        <time>2020-01-15T15:46:17Z</time>
      </trkpt>
      <trkpt lat="43.23791" lon="5.67301">
        <ele>459</ele>
        <time>2020-01-15T15:46:21Z</time>
      </trkpt>
      <trkpt lat="43.23787" lon="5.67297">
        <ele>458</ele>
        <time>2020-01-15T15:46:25Z</time>
      </trkpt>
      <trkpt lat="43.23782" lon="5.67291">
        <ele>457</ele>
        <time>2020-01-15T15:46:29Z</time>
      </trkpt>
      <trkpt lat="43.23778" lon="5.67286">
        <ele>456</ele>
        <time>2020-01-15T15:46:33Z</time>
      </trkpt>
      <trkpt lat="43.23774" lon="5.6728">
        <ele>457</ele>
        <time>2020-01-15T15:46:37Z</time>
      </trkpt>
      <trkpt lat="43.2377" lon="5.67274">
        <ele>456</ele>
        <time>2020-01-15T15:46:41Z</time>
      </trkpt>
      <trkpt lat="43.23766" lon="5.67269">
        <ele>456</ele>
        <time>2020-01-15T15:46:45Z</time>
      </trkpt>
      <trkpt lat="43.23763" lon="5.67264">
        <ele>458</ele>
        <time>2020-01-15T15:46:49Z</time>
      </trkpt>
      <trkpt lat="43.23758" lon="5.6726">
        <ele>458</ele>
        <time>2020-01-15T15:46:53Z</time>
      </trkpt>
      <trkpt lat="43.23754" lon="5.67256">
        <ele>459</ele>
        <time>2020-01-15T15:46:57Z</time>
      </trkpt>
      <trkpt lat="43.23749" lon="5.67253">
        <ele>457</ele>
        <time>2020-01-15T15:47:01Z</time>
      </trkpt>
      <trkpt lat="43.23745" lon="5.67249">
        <ele>456</ele>
        <time>2020-01-15T15:47:05Z</time>
      </trkpt>
      <trkpt lat="43.23741" lon="5.67245">
        <ele>457</ele>
        <time>2020-01-15T15:47:09Z</time>
      </trkpt>
      <trkpt lat="43.23737" lon="5.6724">
        <ele>457</ele>
        <time>2020-01-15T15:47:13Z</time>
      </trkpt>
      <trkpt lat="43.23732" lon="5.67234">
        <ele>456</ele>
        <time>2020-01-15T15:47:19Z</time>
      </trkpt>
      <trkpt lat="43.23729" lon="5.67228">
        <ele>455</ele>
        <time>2020-01-15T15:47:23Z</time>
      </trkpt>
      <trkpt lat="43.23725" lon="5.67223">
        <ele>454</ele>
        <time>2020-01-15T15:47:27Z</time>
      </trkpt>
      <trkpt lat="43.23721" lon="5.67217">
        <ele>453</ele>
        <time>2020-01-15T15:47:31Z</time>
      </trkpt>
      <trkpt lat="43.23719" lon="5.6721">
        <ele>453</ele>
        <time>2020-01-15T15:47:35Z</time>
      </trkpt>
      <trkpt lat="43.23718" lon="5.67203">
        <ele>453</ele>
        <time>2020-01-15T15:47:39Z</time>
      </trkpt>
      <trkpt lat="43.23717" lon="5.67196">
        <ele>454</ele>
        <time>2020-01-15T15:47:43Z</time>
      </trkpt>
      <trkpt lat="43.23715" lon="5.67187">
        <ele>453</ele>
        <time>2020-01-15T15:47:49Z</time>
      </trkpt>
      <trkpt lat="43.23715" lon="5.6718">
        <ele>449</ele>
        <time>2020-01-15T15:47:59Z</time>
      </trkpt>
      <trkpt lat="43.23713" lon="5.67173">
        <ele>450</ele>
        <time>2020-01-15T15:48:05Z</time>
      </trkpt>
      <trkpt lat="43.2371" lon="5.67166">
        <ele>450</ele>
        <time>2020-01-15T15:48:09Z</time>
      </trkpt>
      <trkpt lat="43.23708" lon="5.67158">
        <ele>451</ele>
        <time>2020-01-15T15:48:15Z</time>
      </trkpt>
      <trkpt lat="43.23705" lon="5.6715">
        <ele>451</ele>
        <time>2020-01-15T15:48:21Z</time>
      </trkpt>
      <trkpt lat="43.23704" lon="5.67144">
        <ele>452</ele>
        <time>2020-01-15T15:48:25Z</time>
      </trkpt>
      <trkpt lat="43.23702" lon="5.67138">
        <ele>452</ele>
        <time>2020-01-15T15:48:29Z</time>
      </trkpt>
      <trkpt lat="43.237" lon="5.67132">
        <ele>452</ele>
        <time>2020-01-15T15:48:33Z</time>
      </trkpt>
      <trkpt lat="43.23699" lon="5.67127">
        <ele>451</ele>
        <time>2020-01-15T15:48:37Z</time>
      </trkpt>
      <trkpt lat="43.23697" lon="5.67121">
        <ele>451</ele>
        <time>2020-01-15T15:48:41Z</time>
      </trkpt>
      <trkpt lat="43.23696" lon="5.67114">
        <ele>450</ele>
        <time>2020-01-15T15:48:45Z</time>
      </trkpt>
      <trkpt lat="43.23694" lon="5.67106">
        <ele>450</ele>
        <time>2020-01-15T15:48:51Z</time>
      </trkpt>
      <trkpt lat="43.23693" lon="5.671">
        <ele>450</ele>
        <time>2020-01-15T15:48:55Z</time>
      </trkpt>
      <trkpt lat="43.23692" lon="5.67093">
        <ele>449</ele>
        <time>2020-01-15T15:49:01Z</time>
      </trkpt>
      <trkpt lat="43.23691" lon="5.67084">
        <ele>449</ele>
        <time>2020-01-15T15:49:07Z</time>
      </trkpt>
      <trkpt lat="43.2369" lon="5.67076">
        <ele>450</ele>
        <time>2020-01-15T15:49:11Z</time>
      </trkpt>
      <trkpt lat="43.2369" lon="5.67069">
        <ele>451</ele>
        <time>2020-01-15T15:49:15Z</time>
      </trkpt>
      <trkpt lat="43.2369" lon="5.67061">
        <ele>449</ele>
        <time>2020-01-15T15:49:21Z</time>
      </trkpt>
      <trkpt lat="43.23689" lon="5.67053">
        <ele>448</ele>
        <time>2020-01-15T15:49:25Z</time>
      </trkpt>
      <trkpt lat="43.23688" lon="5.67047">
        <ele>448</ele>
        <time>2020-01-15T15:49:29Z</time>
      </trkpt>
      <trkpt lat="43.23687" lon="5.67039">
        <ele>449</ele>
        <time>2020-01-15T15:49:35Z</time>
      </trkpt>
      <trkpt lat="43.23685" lon="5.67033">
        <ele>450</ele>
        <time>2020-01-15T15:50:25Z</time>
      </trkpt>
      <trkpt lat="43.23684" lon="5.67026">
        <ele>450</ele>
        <time>2020-01-15T15:50:31Z</time>
      </trkpt>
      <trkpt lat="43.23681" lon="5.67022">
        <ele>450</ele>
        <time>2020-01-15T15:50:37Z</time>
      </trkpt>
      <trkpt lat="43.23675" lon="5.67021">
        <ele>450</ele>
        <time>2020-01-15T15:50:43Z</time>
      </trkpt>
      <trkpt lat="43.23669" lon="5.67023">
        <ele>449</ele>
        <time>2020-01-15T15:50:49Z</time>
      </trkpt>
      <trkpt lat="43.23664" lon="5.67025">
        <ele>448</ele>
        <time>2020-01-15T15:50:57Z</time>
      </trkpt>
      <trkpt lat="43.23658" lon="5.67028">
        <ele>446</ele>
        <time>2020-01-15T15:51:05Z</time>
      </trkpt>
      <trkpt lat="43.23653" lon="5.67031">
        <ele>444</ele>
        <time>2020-01-15T15:51:11Z</time>
      </trkpt>
      <trkpt lat="43.23647" lon="5.67034">
        <ele>442</ele>
        <time>2020-01-15T15:51:17Z</time>
      </trkpt>
      <trkpt lat="43.23642" lon="5.67035">
        <ele>442</ele>
        <time>2020-01-15T15:51:23Z</time>
      </trkpt>
      <trkpt lat="43.23636" lon="5.67037">
        <ele>439</ele>
        <time>2020-01-15T15:51:31Z</time>
      </trkpt>
      <trkpt lat="43.23631" lon="5.67039">
        <ele>438</ele>
        <time>2020-01-15T15:51:37Z</time>
      </trkpt>
      <trkpt lat="43.23627" lon="5.67039">
        <ele>438</ele>
        <time>2020-01-15T15:51:43Z</time>
      </trkpt>
      <trkpt lat="43.23622" lon="5.6704">
        <ele>438</ele>
        <time>2020-01-15T15:51:49Z</time>
      </trkpt>
      <trkpt lat="43.23616" lon="5.67041">
        <ele>438</ele>
        <time>2020-01-15T15:51:55Z</time>
      </trkpt>
      <trkpt lat="43.23611" lon="5.67041">
        <ele>438</ele>
        <time>2020-01-15T15:52:01Z</time>
      </trkpt>
      <trkpt lat="43.23605" lon="5.6704">
        <ele>439</ele>
        <time>2020-01-15T15:52:07Z</time>
      </trkpt>
      <trkpt lat="43.236" lon="5.67039">
        <ele>439</ele>
        <time>2020-01-15T15:52:11Z</time>
      </trkpt>
      <trkpt lat="43.23596" lon="5.67039">
        <ele>440</ele>
        <time>2020-01-15T15:52:17Z</time>
      </trkpt>
      <trkpt lat="43.2359" lon="5.67038">
        <ele>442</ele>
        <time>2020-01-15T15:52:23Z</time>
      </trkpt>
      <trkpt lat="43.23585" lon="5.67035">
        <ele>444</ele>
        <time>2020-01-15T15:52:29Z</time>
      </trkpt>
    </trkseg>
  </trk>
</gpx>